<?xml version="1.0" encoding="UTF-8" standalone="no" ?>
<gpx xmlns="http://www.topografix.com/GPX/1/1" xmlns:xsi="http://www.w3.org/2001/XMLSchema-instance" xsi:schemaLocation="http://www.topografix.com/GPX/1/1 http://www.topografix.com/GPX/1/1/gpx.xsd" version="1.1" creator="VisuGPX - https://www.visugpx.com">
  <metadata>
    <name>2017-06-14 Bike ride-Amberieux-Rance O 35km</name>
    <desc><![CDATA[2017-06-14 Bike ride-Amberieux-Rance O 35km]]></desc>
  </metadata>
  <wpt lat="45.92453" lon="4.73724">
    <ele>174</ele>
    <name><![CDATA[2017-06-14 09:47 (Start)]]></name>
  </wpt>
  <wpt lat="45.92464" lon="4.73709">
    <ele>174</ele>
    <name><![CDATA[2017-06-14 09:47 (End)]]></name>
    <desc><![CDATA[Created by Google My Tracks on Android  Name: 2017-06-14 09:47 Activity type: biking Description: - Total distance: 35.21 km (21.9 mi) Total time: 1:53:35 Moving time: 1:50:52 Average speed: 18.60 km/h (11.6 mi/h) Average moving speed: 19.05 km/h (11.8 mi/h) Max speed: 48.50 km/h (30.1 mi/h) Average pace: 3:14 min/km (5:12 min/mi) Average moving pace: 3:09 min/km (5:04 min/mi) Fastest pace: 1:14 min/km (1:59 min/mi) Max elevation: 294 m (964 ft) Min elevation: 164 m (540 ft) Elevation gain: 532 m (1746 ft) Max grade: 18 % Min grade: -9 % Recorded: 14/06/2017 09:47]]></desc>
  </wpt>
  <trk>
    <name><![CDATA[2017-06-14 09:47]]></name>
    <trkseg>
      <trkpt lat="45.92453" lon="4.73724">
        <ele>174</ele>
        <time>2017-06-14T07:47:04.035Z</time>
      </trkpt>
      <trkpt lat="45.92454" lon="4.73722">
        <ele>174</ele>
        <time>2017-06-14T07:47:56Z</time>
      </trkpt>
      <trkpt lat="45.92454" lon="4.73718">
        <ele>174</ele>
        <time>2017-06-14T07:48:20Z</time>
      </trkpt>
      <trkpt lat="45.92458" lon="4.73718">
        <ele>174</ele>
        <time>2017-06-14T07:48:21Z</time>
      </trkpt>
      <trkpt lat="45.92463" lon="4.73709">
        <ele>174</ele>
        <time>2017-06-14T07:48:26Z</time>
      </trkpt>
      <trkpt lat="45.92463" lon="4.73706">
        <ele>174</ele>
        <time>2017-06-14T07:48:27Z</time>
      </trkpt>
      <trkpt lat="45.92463" lon="4.73693">
        <ele>174</ele>
        <time>2017-06-14T07:48:30Z</time>
      </trkpt>
      <trkpt lat="45.92463" lon="4.73688">
        <ele>174</ele>
        <time>2017-06-14T07:48:31Z</time>
      </trkpt>
      <trkpt lat="45.92463" lon="4.73678">
        <ele>174</ele>
        <time>2017-06-14T07:48:33Z</time>
      </trkpt>
      <trkpt lat="45.92463" lon="4.73673">
        <ele>174</ele>
        <time>2017-06-14T07:48:34Z</time>
      </trkpt>
      <trkpt lat="45.92464" lon="4.73663">
        <ele>174</ele>
        <time>2017-06-14T07:48:36Z</time>
      </trkpt>
      <trkpt lat="45.92465" lon="4.73657">
        <ele>174</ele>
        <time>2017-06-14T07:48:37Z</time>
      </trkpt>
      <trkpt lat="45.92469" lon="4.73648">
        <ele>174</ele>
        <time>2017-06-14T07:48:39Z</time>
      </trkpt>
      <trkpt lat="45.92472" lon="4.73645">
        <ele>174</ele>
        <time>2017-06-14T07:48:40Z</time>
      </trkpt>
      <trkpt lat="45.9248" lon="4.73642">
        <ele>174</ele>
        <time>2017-06-14T07:48:42Z</time>
      </trkpt>
      <trkpt lat="45.92484" lon="4.73642">
        <ele>174</ele>
        <time>2017-06-14T07:48:43Z</time>
      </trkpt>
      <trkpt lat="45.92492" lon="4.73641">
        <ele>174</ele>
        <time>2017-06-14T07:48:45Z</time>
      </trkpt>
      <trkpt lat="45.92497" lon="4.73641">
        <ele>174</ele>
        <time>2017-06-14T07:48:46Z</time>
      </trkpt>
      <trkpt lat="45.92502" lon="4.73641">
        <ele>174</ele>
        <time>2017-06-14T07:48:47Z</time>
      </trkpt>
      <trkpt lat="45.92507" lon="4.73641">
        <ele>174</ele>
        <time>2017-06-14T07:48:48Z</time>
      </trkpt>
      <trkpt lat="45.92512" lon="4.7364">
        <ele>174</ele>
        <time>2017-06-14T07:48:49Z</time>
      </trkpt>
      <trkpt lat="45.92517" lon="4.7364">
        <ele>173</ele>
        <time>2017-06-14T07:48:50Z</time>
      </trkpt>
      <trkpt lat="45.92522" lon="4.7364">
        <ele>173</ele>
        <time>2017-06-14T07:48:51Z</time>
      </trkpt>
      <trkpt lat="45.92527" lon="4.7364">
        <ele>173</ele>
        <time>2017-06-14T07:48:52Z</time>
      </trkpt>
      <trkpt lat="45.92532" lon="4.73639">
        <ele>173</ele>
        <time>2017-06-14T07:48:53Z</time>
      </trkpt>
      <trkpt lat="45.92536" lon="4.73639">
        <ele>173</ele>
        <time>2017-06-14T07:48:54Z</time>
      </trkpt>
      <trkpt lat="45.92541" lon="4.73638">
        <ele>173</ele>
        <time>2017-06-14T07:48:55Z</time>
      </trkpt>
      <trkpt lat="45.92545" lon="4.73637">
        <ele>173</ele>
        <time>2017-06-14T07:48:56Z</time>
      </trkpt>
      <trkpt lat="45.9255" lon="4.73635">
        <ele>173</ele>
        <time>2017-06-14T07:48:57Z</time>
      </trkpt>
      <trkpt lat="45.92554" lon="4.73634">
        <ele>173</ele>
        <time>2017-06-14T07:48:58Z</time>
      </trkpt>
      <trkpt lat="45.92559" lon="4.73633">
        <ele>173</ele>
        <time>2017-06-14T07:48:59Z</time>
      </trkpt>
      <trkpt lat="45.92564" lon="4.73632">
        <ele>173</ele>
        <time>2017-06-14T07:49:00Z</time>
      </trkpt>
      <trkpt lat="45.92568" lon="4.73631">
        <ele>173</ele>
        <time>2017-06-14T07:49:01Z</time>
      </trkpt>
      <trkpt lat="45.92573" lon="4.7363">
        <ele>173</ele>
        <time>2017-06-14T07:49:02Z</time>
      </trkpt>
      <trkpt lat="45.92577" lon="4.73628">
        <ele>173</ele>
        <time>2017-06-14T07:49:03Z</time>
      </trkpt>
      <trkpt lat="45.92582" lon="4.73627">
        <ele>173</ele>
        <time>2017-06-14T07:49:04Z</time>
      </trkpt>
      <trkpt lat="45.92587" lon="4.73626">
        <ele>172</ele>
        <time>2017-06-14T07:49:05Z</time>
      </trkpt>
      <trkpt lat="45.92591" lon="4.73625">
        <ele>172</ele>
        <time>2017-06-14T07:49:06Z</time>
      </trkpt>
      <trkpt lat="45.92599" lon="4.73623">
        <ele>173</ele>
        <time>2017-06-14T07:49:08Z</time>
      </trkpt>
      <trkpt lat="45.92604" lon="4.73621">
        <ele>173</ele>
        <time>2017-06-14T07:49:09Z</time>
      </trkpt>
      <trkpt lat="45.92608" lon="4.73619">
        <ele>173</ele>
        <time>2017-06-14T07:49:10Z</time>
      </trkpt>
      <trkpt lat="45.92613" lon="4.73626">
        <ele>173</ele>
        <time>2017-06-14T07:49:11Z</time>
      </trkpt>
      <trkpt lat="45.92618" lon="4.73632">
        <ele>173</ele>
        <time>2017-06-14T07:49:12Z</time>
      </trkpt>
      <trkpt lat="45.92622" lon="4.73638">
        <ele>173</ele>
        <time>2017-06-14T07:49:13Z</time>
      </trkpt>
      <trkpt lat="45.92625" lon="4.73643">
        <ele>173</ele>
        <time>2017-06-14T07:49:14Z</time>
      </trkpt>
      <trkpt lat="45.92627" lon="4.73649">
        <ele>173</ele>
        <time>2017-06-14T07:49:15Z</time>
      </trkpt>
      <trkpt lat="45.9263" lon="4.73656">
        <ele>173</ele>
        <time>2017-06-14T07:49:16Z</time>
      </trkpt>
      <trkpt lat="45.92633" lon="4.73662">
        <ele>173</ele>
        <time>2017-06-14T07:49:17Z</time>
      </trkpt>
      <trkpt lat="45.92636" lon="4.73668">
        <ele>173</ele>
        <time>2017-06-14T07:49:18Z</time>
      </trkpt>
      <trkpt lat="45.9264" lon="4.73675">
        <ele>173</ele>
        <time>2017-06-14T07:49:19Z</time>
      </trkpt>
      <trkpt lat="45.92644" lon="4.73681">
        <ele>173</ele>
        <time>2017-06-14T07:49:20Z</time>
      </trkpt>
      <trkpt lat="45.92648" lon="4.73687">
        <ele>173</ele>
        <time>2017-06-14T07:49:21Z</time>
      </trkpt>
      <trkpt lat="45.92653" lon="4.73691">
        <ele>173</ele>
        <time>2017-06-14T07:49:22Z</time>
      </trkpt>
      <trkpt lat="45.92657" lon="4.73696">
        <ele>173</ele>
        <time>2017-06-14T07:49:23Z</time>
      </trkpt>
      <trkpt lat="45.92663" lon="4.73699">
        <ele>173</ele>
        <time>2017-06-14T07:49:24Z</time>
      </trkpt>
      <trkpt lat="45.92668" lon="4.73702">
        <ele>174</ele>
        <time>2017-06-14T07:49:25Z</time>
      </trkpt>
      <trkpt lat="45.92673" lon="4.73705">
        <ele>174</ele>
        <time>2017-06-14T07:49:26Z</time>
      </trkpt>
      <trkpt lat="45.92678" lon="4.73707">
        <ele>173</ele>
        <time>2017-06-14T07:49:27Z</time>
      </trkpt>
      <trkpt lat="45.92683" lon="4.73708">
        <ele>173</ele>
        <time>2017-06-14T07:49:28Z</time>
      </trkpt>
      <trkpt lat="45.92689" lon="4.7371">
        <ele>173</ele>
        <time>2017-06-14T07:49:29Z</time>
      </trkpt>
      <trkpt lat="45.92693" lon="4.73712">
        <ele>173</ele>
        <time>2017-06-14T07:49:30Z</time>
      </trkpt>
      <trkpt lat="45.92698" lon="4.73713">
        <ele>173</ele>
        <time>2017-06-14T07:49:31Z</time>
      </trkpt>
      <trkpt lat="45.92703" lon="4.73715">
        <ele>173</ele>
        <time>2017-06-14T07:49:32Z</time>
      </trkpt>
      <trkpt lat="45.92707" lon="4.73716">
        <ele>173</ele>
        <time>2017-06-14T07:49:33Z</time>
      </trkpt>
      <trkpt lat="45.92712" lon="4.73717">
        <ele>173</ele>
        <time>2017-06-14T07:49:34Z</time>
      </trkpt>
      <trkpt lat="45.92717" lon="4.73718">
        <ele>173</ele>
        <time>2017-06-14T07:49:35Z</time>
      </trkpt>
      <trkpt lat="45.92722" lon="4.7372">
        <ele>173</ele>
        <time>2017-06-14T07:49:36Z</time>
      </trkpt>
      <trkpt lat="45.92727" lon="4.7372">
        <ele>173</ele>
        <time>2017-06-14T07:49:37Z</time>
      </trkpt>
      <trkpt lat="45.92735" lon="4.73722">
        <ele>173</ele>
        <time>2017-06-14T07:49:39Z</time>
      </trkpt>
      <trkpt lat="45.9274" lon="4.73723">
        <ele>173</ele>
        <time>2017-06-14T07:49:40Z</time>
      </trkpt>
      <trkpt lat="45.92748" lon="4.73726">
        <ele>173</ele>
        <time>2017-06-14T07:49:42Z</time>
      </trkpt>
      <trkpt lat="45.92753" lon="4.73727">
        <ele>172</ele>
        <time>2017-06-14T07:49:43Z</time>
      </trkpt>
      <trkpt lat="45.92761" lon="4.73728">
        <ele>172</ele>
        <time>2017-06-14T07:49:45Z</time>
      </trkpt>
      <trkpt lat="45.92765" lon="4.73729">
        <ele>172</ele>
        <time>2017-06-14T07:49:46Z</time>
      </trkpt>
      <trkpt lat="45.92773" lon="4.73733">
        <ele>172</ele>
        <time>2017-06-14T07:49:48Z</time>
      </trkpt>
      <trkpt lat="45.92775" lon="4.73736">
        <ele>172</ele>
        <time>2017-06-14T07:49:49Z</time>
      </trkpt>
      <trkpt lat="45.92775" lon="4.73745">
        <ele>172</ele>
        <time>2017-06-14T07:49:51Z</time>
      </trkpt>
      <trkpt lat="45.92777" lon="4.7375">
        <ele>173</ele>
        <time>2017-06-14T07:49:52Z</time>
      </trkpt>
      <trkpt lat="45.92784" lon="4.73758">
        <ele>173</ele>
        <time>2017-06-14T07:49:54Z</time>
      </trkpt>
      <trkpt lat="45.92789" lon="4.73761">
        <ele>173</ele>
        <time>2017-06-14T07:49:55Z</time>
      </trkpt>
      <trkpt lat="45.92793" lon="4.73763">
        <ele>173</ele>
        <time>2017-06-14T07:49:56Z</time>
      </trkpt>
      <trkpt lat="45.92798" lon="4.73766">
        <ele>173</ele>
        <time>2017-06-14T07:49:57Z</time>
      </trkpt>
      <trkpt lat="45.92803" lon="4.73769">
        <ele>173</ele>
        <time>2017-06-14T07:49:58Z</time>
      </trkpt>
      <trkpt lat="45.92808" lon="4.73771">
        <ele>173</ele>
        <time>2017-06-14T07:49:59Z</time>
      </trkpt>
      <trkpt lat="45.92813" lon="4.73775">
        <ele>173</ele>
        <time>2017-06-14T07:50:00Z</time>
      </trkpt>
      <trkpt lat="45.92818" lon="4.73779">
        <ele>173</ele>
        <time>2017-06-14T07:50:01Z</time>
      </trkpt>
      <trkpt lat="45.92823" lon="4.73783">
        <ele>173</ele>
        <time>2017-06-14T07:50:02Z</time>
      </trkpt>
      <trkpt lat="45.92828" lon="4.73786">
        <ele>173</ele>
        <time>2017-06-14T07:50:03Z</time>
      </trkpt>
      <trkpt lat="45.92833" lon="4.73791">
        <ele>173</ele>
        <time>2017-06-14T07:50:04Z</time>
      </trkpt>
      <trkpt lat="45.92838" lon="4.73794">
        <ele>173</ele>
        <time>2017-06-14T07:50:05Z</time>
      </trkpt>
      <trkpt lat="45.92842" lon="4.73799">
        <ele>173</ele>
        <time>2017-06-14T07:50:06Z</time>
      </trkpt>
      <trkpt lat="45.92846" lon="4.73804">
        <ele>173</ele>
        <time>2017-06-14T07:50:07Z</time>
      </trkpt>
      <trkpt lat="45.9285" lon="4.73809">
        <ele>173</ele>
        <time>2017-06-14T07:50:08Z</time>
      </trkpt>
      <trkpt lat="45.92853" lon="4.73815">
        <ele>173</ele>
        <time>2017-06-14T07:50:09Z</time>
      </trkpt>
      <trkpt lat="45.92855" lon="4.73822">
        <ele>173</ele>
        <time>2017-06-14T07:50:10Z</time>
      </trkpt>
      <trkpt lat="45.92857" lon="4.73828">
        <ele>173</ele>
        <time>2017-06-14T07:50:11Z</time>
      </trkpt>
      <trkpt lat="45.92859" lon="4.73835">
        <ele>173</ele>
        <time>2017-06-14T07:50:12Z</time>
      </trkpt>
      <trkpt lat="45.9286" lon="4.73841">
        <ele>173</ele>
        <time>2017-06-14T07:50:13Z</time>
      </trkpt>
      <trkpt lat="45.92862" lon="4.73849">
        <ele>173</ele>
        <time>2017-06-14T07:50:14Z</time>
      </trkpt>
      <trkpt lat="45.92863" lon="4.73855">
        <ele>173</ele>
        <time>2017-06-14T07:50:15Z</time>
      </trkpt>
      <trkpt lat="45.92865" lon="4.73861">
        <ele>173</ele>
        <time>2017-06-14T07:50:16Z</time>
      </trkpt>
      <trkpt lat="45.92866" lon="4.73867">
        <ele>173</ele>
        <time>2017-06-14T07:50:17Z</time>
      </trkpt>
      <trkpt lat="45.92868" lon="4.73874">
        <ele>173</ele>
        <time>2017-06-14T07:50:18Z</time>
      </trkpt>
      <trkpt lat="45.9287" lon="4.73881">
        <ele>173</ele>
        <time>2017-06-14T07:50:19Z</time>
      </trkpt>
      <trkpt lat="45.92873" lon="4.73888">
        <ele>173</ele>
        <time>2017-06-14T07:50:20Z</time>
      </trkpt>
      <trkpt lat="45.92875" lon="4.73896">
        <ele>173</ele>
        <time>2017-06-14T07:50:21Z</time>
      </trkpt>
      <trkpt lat="45.92876" lon="4.73904">
        <ele>173</ele>
        <time>2017-06-14T07:50:22Z</time>
      </trkpt>
      <trkpt lat="45.92878" lon="4.73913">
        <ele>173</ele>
        <time>2017-06-14T07:50:23Z</time>
      </trkpt>
      <trkpt lat="45.92878" lon="4.7392">
        <ele>172</ele>
        <time>2017-06-14T07:50:24Z</time>
      </trkpt>
      <trkpt lat="45.9288" lon="4.73928">
        <ele>172</ele>
        <time>2017-06-14T07:50:25Z</time>
      </trkpt>
      <trkpt lat="45.9288" lon="4.73937">
        <ele>172</ele>
        <time>2017-06-14T07:50:26Z</time>
      </trkpt>
      <trkpt lat="45.92881" lon="4.73945">
        <ele>172</ele>
        <time>2017-06-14T07:50:27Z</time>
      </trkpt>
      <trkpt lat="45.92881" lon="4.73952">
        <ele>172</ele>
        <time>2017-06-14T07:50:28Z</time>
      </trkpt>
      <trkpt lat="45.92881" lon="4.7396">
        <ele>172</ele>
        <time>2017-06-14T07:50:29Z</time>
      </trkpt>
      <trkpt lat="45.92881" lon="4.73967">
        <ele>172</ele>
        <time>2017-06-14T07:50:30Z</time>
      </trkpt>
      <trkpt lat="45.92881" lon="4.73975">
        <ele>172</ele>
        <time>2017-06-14T07:50:31Z</time>
      </trkpt>
      <trkpt lat="45.9288" lon="4.73983">
        <ele>172</ele>
        <time>2017-06-14T07:50:32Z</time>
      </trkpt>
      <trkpt lat="45.92879" lon="4.7399">
        <ele>172</ele>
        <time>2017-06-14T07:50:33Z</time>
      </trkpt>
      <trkpt lat="45.92877" lon="4.73997">
        <ele>172</ele>
        <time>2017-06-14T07:50:34Z</time>
      </trkpt>
      <trkpt lat="45.92875" lon="4.74004">
        <ele>172</ele>
        <time>2017-06-14T07:50:35Z</time>
      </trkpt>
      <trkpt lat="45.92874" lon="4.74012">
        <ele>172</ele>
        <time>2017-06-14T07:50:36Z</time>
      </trkpt>
      <trkpt lat="45.92872" lon="4.7402">
        <ele>172</ele>
        <time>2017-06-14T07:50:37Z</time>
      </trkpt>
      <trkpt lat="45.92871" lon="4.74027">
        <ele>172</ele>
        <time>2017-06-14T07:50:38Z</time>
      </trkpt>
      <trkpt lat="45.92869" lon="4.74035">
        <ele>172</ele>
        <time>2017-06-14T07:50:39Z</time>
      </trkpt>
      <trkpt lat="45.92866" lon="4.74042">
        <ele>172</ele>
        <time>2017-06-14T07:50:40Z</time>
      </trkpt>
      <trkpt lat="45.92863" lon="4.74049">
        <ele>172</ele>
        <time>2017-06-14T07:50:41Z</time>
      </trkpt>
      <trkpt lat="45.92859" lon="4.74054">
        <ele>172</ele>
        <time>2017-06-14T07:50:42Z</time>
      </trkpt>
      <trkpt lat="45.92854" lon="4.7406">
        <ele>172</ele>
        <time>2017-06-14T07:50:43Z</time>
      </trkpt>
      <trkpt lat="45.9285" lon="4.74066">
        <ele>172</ele>
        <time>2017-06-14T07:50:44Z</time>
      </trkpt>
      <trkpt lat="45.92845" lon="4.74072">
        <ele>172</ele>
        <time>2017-06-14T07:50:45Z</time>
      </trkpt>
      <trkpt lat="45.9284" lon="4.74078">
        <ele>171</ele>
        <time>2017-06-14T07:50:46Z</time>
      </trkpt>
      <trkpt lat="45.92836" lon="4.74083">
        <ele>171</ele>
        <time>2017-06-14T07:50:47Z</time>
      </trkpt>
      <trkpt lat="45.92831" lon="4.74089">
        <ele>171</ele>
        <time>2017-06-14T07:50:48Z</time>
      </trkpt>
      <trkpt lat="45.92826" lon="4.74095">
        <ele>171</ele>
        <time>2017-06-14T07:50:49Z</time>
      </trkpt>
      <trkpt lat="45.92821" lon="4.741">
        <ele>171</ele>
        <time>2017-06-14T07:50:50Z</time>
      </trkpt>
      <trkpt lat="45.92816" lon="4.74105">
        <ele>172</ele>
        <time>2017-06-14T07:50:51Z</time>
      </trkpt>
      <trkpt lat="45.92811" lon="4.74111">
        <ele>172</ele>
        <time>2017-06-14T07:50:52Z</time>
      </trkpt>
      <trkpt lat="45.92807" lon="4.74116">
        <ele>172</ele>
        <time>2017-06-14T07:50:53Z</time>
      </trkpt>
      <trkpt lat="45.92801" lon="4.74122">
        <ele>172</ele>
        <time>2017-06-14T07:50:54Z</time>
      </trkpt>
      <trkpt lat="45.92796" lon="4.74128">
        <ele>172</ele>
        <time>2017-06-14T07:50:55Z</time>
      </trkpt>
      <trkpt lat="45.92791" lon="4.74133">
        <ele>172</ele>
        <time>2017-06-14T07:50:56Z</time>
      </trkpt>
      <trkpt lat="45.92786" lon="4.74138">
        <ele>172</ele>
        <time>2017-06-14T07:50:57Z</time>
      </trkpt>
      <trkpt lat="45.92782" lon="4.74143">
        <ele>172</ele>
        <time>2017-06-14T07:50:58Z</time>
      </trkpt>
      <trkpt lat="45.92777" lon="4.74148">
        <ele>172</ele>
        <time>2017-06-14T07:50:59Z</time>
      </trkpt>
      <trkpt lat="45.92772" lon="4.74154">
        <ele>172</ele>
        <time>2017-06-14T07:51:00Z</time>
      </trkpt>
      <trkpt lat="45.92767" lon="4.74159">
        <ele>172</ele>
        <time>2017-06-14T07:51:01Z</time>
      </trkpt>
      <trkpt lat="45.92761" lon="4.74165">
        <ele>172</ele>
        <time>2017-06-14T07:51:02Z</time>
      </trkpt>
      <trkpt lat="45.92756" lon="4.74171">
        <ele>172</ele>
        <time>2017-06-14T07:51:03Z</time>
      </trkpt>
      <trkpt lat="45.9275" lon="4.74177">
        <ele>172</ele>
        <time>2017-06-14T07:51:04Z</time>
      </trkpt>
      <trkpt lat="45.92745" lon="4.74182">
        <ele>172</ele>
        <time>2017-06-14T07:51:05Z</time>
      </trkpt>
      <trkpt lat="45.92741" lon="4.74188">
        <ele>172</ele>
        <time>2017-06-14T07:51:06Z</time>
      </trkpt>
      <trkpt lat="45.92736" lon="4.74194">
        <ele>171</ele>
        <time>2017-06-14T07:51:07Z</time>
      </trkpt>
      <trkpt lat="45.92732" lon="4.742">
        <ele>171</ele>
        <time>2017-06-14T07:51:08Z</time>
      </trkpt>
      <trkpt lat="45.92727" lon="4.74205">
        <ele>171</ele>
        <time>2017-06-14T07:51:09Z</time>
      </trkpt>
      <trkpt lat="45.92723" lon="4.74211">
        <ele>171</ele>
        <time>2017-06-14T07:51:10Z</time>
      </trkpt>
      <trkpt lat="45.92719" lon="4.74217">
        <ele>171</ele>
        <time>2017-06-14T07:51:11Z</time>
      </trkpt>
      <trkpt lat="45.92714" lon="4.74223">
        <ele>171</ele>
        <time>2017-06-14T07:51:12Z</time>
      </trkpt>
      <trkpt lat="45.9271" lon="4.74229">
        <ele>171</ele>
        <time>2017-06-14T07:51:13Z</time>
      </trkpt>
      <trkpt lat="45.92705" lon="4.74235">
        <ele>171</ele>
        <time>2017-06-14T07:51:14Z</time>
      </trkpt>
      <trkpt lat="45.92701" lon="4.74242">
        <ele>171</ele>
        <time>2017-06-14T07:51:15Z</time>
      </trkpt>
      <trkpt lat="45.92697" lon="4.74249">
        <ele>171</ele>
        <time>2017-06-14T07:51:16Z</time>
      </trkpt>
      <trkpt lat="45.92693" lon="4.74255">
        <ele>171</ele>
        <time>2017-06-14T07:51:17Z</time>
      </trkpt>
      <trkpt lat="45.92689" lon="4.74262">
        <ele>171</ele>
        <time>2017-06-14T07:51:18Z</time>
      </trkpt>
      <trkpt lat="45.92685" lon="4.74269">
        <ele>171</ele>
        <time>2017-06-14T07:51:19Z</time>
      </trkpt>
      <trkpt lat="45.92681" lon="4.74276">
        <ele>171</ele>
        <time>2017-06-14T07:51:20Z</time>
      </trkpt>
      <trkpt lat="45.92677" lon="4.74283">
        <ele>171</ele>
        <time>2017-06-14T07:51:21Z</time>
      </trkpt>
      <trkpt lat="45.92674" lon="4.74289">
        <ele>171</ele>
        <time>2017-06-14T07:51:22Z</time>
      </trkpt>
      <trkpt lat="45.9267" lon="4.74296">
        <ele>171</ele>
        <time>2017-06-14T07:51:23Z</time>
      </trkpt>
      <trkpt lat="45.92667" lon="4.74302">
        <ele>171</ele>
        <time>2017-06-14T07:51:24Z</time>
      </trkpt>
      <trkpt lat="45.92664" lon="4.74309">
        <ele>171</ele>
        <time>2017-06-14T07:51:25Z</time>
      </trkpt>
      <trkpt lat="45.92662" lon="4.74316">
        <ele>171</ele>
        <time>2017-06-14T07:51:26Z</time>
      </trkpt>
      <trkpt lat="45.92658" lon="4.74322">
        <ele>171</ele>
        <time>2017-06-14T07:51:27Z</time>
      </trkpt>
      <trkpt lat="45.92654" lon="4.74329">
        <ele>171</ele>
        <time>2017-06-14T07:51:28Z</time>
      </trkpt>
      <trkpt lat="45.92651" lon="4.74335">
        <ele>171</ele>
        <time>2017-06-14T07:51:29Z</time>
      </trkpt>
      <trkpt lat="45.92648" lon="4.74342">
        <ele>171</ele>
        <time>2017-06-14T07:51:30Z</time>
      </trkpt>
      <trkpt lat="45.92644" lon="4.74349">
        <ele>171</ele>
        <time>2017-06-14T07:51:31Z</time>
      </trkpt>
      <trkpt lat="45.9264" lon="4.74356">
        <ele>171</ele>
        <time>2017-06-14T07:51:32Z</time>
      </trkpt>
      <trkpt lat="45.92636" lon="4.74363">
        <ele>171</ele>
        <time>2017-06-14T07:51:33Z</time>
      </trkpt>
      <trkpt lat="45.92632" lon="4.7437">
        <ele>171</ele>
        <time>2017-06-14T07:51:34Z</time>
      </trkpt>
      <trkpt lat="45.92629" lon="4.74377">
        <ele>170</ele>
        <time>2017-06-14T07:51:35Z</time>
      </trkpt>
      <trkpt lat="45.92625" lon="4.74384">
        <ele>170</ele>
        <time>2017-06-14T07:51:36Z</time>
      </trkpt>
      <trkpt lat="45.92621" lon="4.7439">
        <ele>170</ele>
        <time>2017-06-14T07:51:37Z</time>
      </trkpt>
      <trkpt lat="45.92618" lon="4.74397">
        <ele>170</ele>
        <time>2017-06-14T07:51:38Z</time>
      </trkpt>
      <trkpt lat="45.92614" lon="4.74403">
        <ele>170</ele>
        <time>2017-06-14T07:51:39Z</time>
      </trkpt>
      <trkpt lat="45.9261" lon="4.7441">
        <ele>170</ele>
        <time>2017-06-14T07:51:40Z</time>
      </trkpt>
      <trkpt lat="45.92606" lon="4.74417">
        <ele>170</ele>
        <time>2017-06-14T07:51:41Z</time>
      </trkpt>
      <trkpt lat="45.92602" lon="4.74424">
        <ele>170</ele>
        <time>2017-06-14T07:51:42Z</time>
      </trkpt>
      <trkpt lat="45.92599" lon="4.74431">
        <ele>170</ele>
        <time>2017-06-14T07:51:43Z</time>
      </trkpt>
      <trkpt lat="45.92595" lon="4.74439">
        <ele>170</ele>
        <time>2017-06-14T07:51:44Z</time>
      </trkpt>
      <trkpt lat="45.92591" lon="4.74446">
        <ele>170</ele>
        <time>2017-06-14T07:51:45Z</time>
      </trkpt>
      <trkpt lat="45.92587" lon="4.74454">
        <ele>170</ele>
        <time>2017-06-14T07:51:46Z</time>
      </trkpt>
      <trkpt lat="45.92583" lon="4.74461">
        <ele>170</ele>
        <time>2017-06-14T07:51:47Z</time>
      </trkpt>
      <trkpt lat="45.92579" lon="4.74468">
        <ele>170</ele>
        <time>2017-06-14T07:51:48Z</time>
      </trkpt>
      <trkpt lat="45.92575" lon="4.74475">
        <ele>170</ele>
        <time>2017-06-14T07:51:49Z</time>
      </trkpt>
      <trkpt lat="45.92571" lon="4.74482">
        <ele>170</ele>
        <time>2017-06-14T07:51:50Z</time>
      </trkpt>
      <trkpt lat="45.92568" lon="4.74489">
        <ele>170</ele>
        <time>2017-06-14T07:51:51Z</time>
      </trkpt>
      <trkpt lat="45.92564" lon="4.74495">
        <ele>170</ele>
        <time>2017-06-14T07:51:52Z</time>
      </trkpt>
      <trkpt lat="45.9256" lon="4.74502">
        <ele>170</ele>
        <time>2017-06-14T07:51:53Z</time>
      </trkpt>
      <trkpt lat="45.92557" lon="4.74509">
        <ele>170</ele>
        <time>2017-06-14T07:51:54Z</time>
      </trkpt>
      <trkpt lat="45.92553" lon="4.74516">
        <ele>170</ele>
        <time>2017-06-14T07:51:55Z</time>
      </trkpt>
      <trkpt lat="45.92549" lon="4.74523">
        <ele>170</ele>
        <time>2017-06-14T07:51:56Z</time>
      </trkpt>
      <trkpt lat="45.92545" lon="4.74529">
        <ele>170</ele>
        <time>2017-06-14T07:51:57Z</time>
      </trkpt>
      <trkpt lat="45.92541" lon="4.74536">
        <ele>171</ele>
        <time>2017-06-14T07:51:58Z</time>
      </trkpt>
      <trkpt lat="45.92537" lon="4.74543">
        <ele>171</ele>
        <time>2017-06-14T07:51:59Z</time>
      </trkpt>
      <trkpt lat="45.92533" lon="4.7455">
        <ele>171</ele>
        <time>2017-06-14T07:52:00Z</time>
      </trkpt>
      <trkpt lat="45.92529" lon="4.74556">
        <ele>171</ele>
        <time>2017-06-14T07:52:01Z</time>
      </trkpt>
      <trkpt lat="45.92525" lon="4.74562">
        <ele>171</ele>
        <time>2017-06-14T07:52:02Z</time>
      </trkpt>
      <trkpt lat="45.92521" lon="4.74568">
        <ele>171</ele>
        <time>2017-06-14T07:52:03Z</time>
      </trkpt>
      <trkpt lat="45.92516" lon="4.74573">
        <ele>171</ele>
        <time>2017-06-14T07:52:04Z</time>
      </trkpt>
      <trkpt lat="45.92513" lon="4.74578">
        <ele>171</ele>
        <time>2017-06-14T07:52:05Z</time>
      </trkpt>
      <trkpt lat="45.92508" lon="4.74583">
        <ele>171</ele>
        <time>2017-06-14T07:52:06Z</time>
      </trkpt>
      <trkpt lat="45.92504" lon="4.74588">
        <ele>171</ele>
        <time>2017-06-14T07:52:07Z</time>
      </trkpt>
      <trkpt lat="45.92499" lon="4.74593">
        <ele>171</ele>
        <time>2017-06-14T07:52:08Z</time>
      </trkpt>
      <trkpt lat="45.92495" lon="4.74598">
        <ele>171</ele>
        <time>2017-06-14T07:52:09Z</time>
      </trkpt>
      <trkpt lat="45.92491" lon="4.74603">
        <ele>171</ele>
        <time>2017-06-14T07:52:10Z</time>
      </trkpt>
      <trkpt lat="45.92486" lon="4.74609">
        <ele>171</ele>
        <time>2017-06-14T07:52:11Z</time>
      </trkpt>
      <trkpt lat="45.92482" lon="4.74614">
        <ele>171</ele>
        <time>2017-06-14T07:52:12Z</time>
      </trkpt>
      <trkpt lat="45.92478" lon="4.74619">
        <ele>171</ele>
        <time>2017-06-14T07:52:13Z</time>
      </trkpt>
      <trkpt lat="45.92474" lon="4.74625">
        <ele>171</ele>
        <time>2017-06-14T07:52:14Z</time>
      </trkpt>
      <trkpt lat="45.9247" lon="4.74631">
        <ele>171</ele>
        <time>2017-06-14T07:52:15Z</time>
      </trkpt>
      <trkpt lat="45.92466" lon="4.74637">
        <ele>171</ele>
        <time>2017-06-14T07:52:16Z</time>
      </trkpt>
      <trkpt lat="45.92462" lon="4.74643">
        <ele>171</ele>
        <time>2017-06-14T07:52:17Z</time>
      </trkpt>
      <trkpt lat="45.92458" lon="4.74649">
        <ele>171</ele>
        <time>2017-06-14T07:52:18Z</time>
      </trkpt>
      <trkpt lat="45.92454" lon="4.74656">
        <ele>171</ele>
        <time>2017-06-14T07:52:19Z</time>
      </trkpt>
      <trkpt lat="45.9245" lon="4.74662">
        <ele>171</ele>
        <time>2017-06-14T07:52:20Z</time>
      </trkpt>
      <trkpt lat="45.92447" lon="4.74668">
        <ele>171</ele>
        <time>2017-06-14T07:52:21Z</time>
      </trkpt>
      <trkpt lat="45.92444" lon="4.74675">
        <ele>171</ele>
        <time>2017-06-14T07:52:22Z</time>
      </trkpt>
      <trkpt lat="45.9244" lon="4.74681">
        <ele>171</ele>
        <time>2017-06-14T07:52:23Z</time>
      </trkpt>
      <trkpt lat="45.92437" lon="4.74688">
        <ele>171</ele>
        <time>2017-06-14T07:52:24Z</time>
      </trkpt>
      <trkpt lat="45.92435" lon="4.74695">
        <ele>171</ele>
        <time>2017-06-14T07:52:25Z</time>
      </trkpt>
      <trkpt lat="45.92432" lon="4.74702">
        <ele>171</ele>
        <time>2017-06-14T07:52:26Z</time>
      </trkpt>
      <trkpt lat="45.92429" lon="4.74709">
        <ele>171</ele>
        <time>2017-06-14T07:52:27Z</time>
      </trkpt>
      <trkpt lat="45.92426" lon="4.74716">
        <ele>171</ele>
        <time>2017-06-14T07:52:28Z</time>
      </trkpt>
      <trkpt lat="45.92424" lon="4.74723">
        <ele>171</ele>
        <time>2017-06-14T07:52:29Z</time>
      </trkpt>
      <trkpt lat="45.92422" lon="4.7473">
        <ele>171</ele>
        <time>2017-06-14T07:52:30Z</time>
      </trkpt>
      <trkpt lat="45.92419" lon="4.74737">
        <ele>172</ele>
        <time>2017-06-14T07:52:31Z</time>
      </trkpt>
      <trkpt lat="45.92417" lon="4.74745">
        <ele>172</ele>
        <time>2017-06-14T07:52:32Z</time>
      </trkpt>
      <trkpt lat="45.92415" lon="4.74752">
        <ele>172</ele>
        <time>2017-06-14T07:52:33Z</time>
      </trkpt>
      <trkpt lat="45.92413" lon="4.74759">
        <ele>172</ele>
        <time>2017-06-14T07:52:34Z</time>
      </trkpt>
      <trkpt lat="45.92411" lon="4.74766">
        <ele>172</ele>
        <time>2017-06-14T07:52:35Z</time>
      </trkpt>
      <trkpt lat="45.9241" lon="4.74773">
        <ele>171</ele>
        <time>2017-06-14T07:52:36Z</time>
      </trkpt>
      <trkpt lat="45.92408" lon="4.74781">
        <ele>171</ele>
        <time>2017-06-14T07:52:37Z</time>
      </trkpt>
      <trkpt lat="45.92406" lon="4.74789">
        <ele>171</ele>
        <time>2017-06-14T07:52:38Z</time>
      </trkpt>
      <trkpt lat="45.92404" lon="4.74797">
        <ele>171</ele>
        <time>2017-06-14T07:52:39Z</time>
      </trkpt>
      <trkpt lat="45.92403" lon="4.74804">
        <ele>171</ele>
        <time>2017-06-14T07:52:40Z</time>
      </trkpt>
      <trkpt lat="45.92401" lon="4.74812">
        <ele>171</ele>
        <time>2017-06-14T07:52:41Z</time>
      </trkpt>
      <trkpt lat="45.924" lon="4.74821">
        <ele>171</ele>
        <time>2017-06-14T07:52:42Z</time>
      </trkpt>
      <trkpt lat="45.92398" lon="4.74829">
        <ele>171</ele>
        <time>2017-06-14T07:52:43Z</time>
      </trkpt>
      <trkpt lat="45.92396" lon="4.74837">
        <ele>171</ele>
        <time>2017-06-14T07:52:44Z</time>
      </trkpt>
      <trkpt lat="45.92394" lon="4.74845">
        <ele>171</ele>
        <time>2017-06-14T07:52:45Z</time>
      </trkpt>
      <trkpt lat="45.92392" lon="4.74853">
        <ele>171</ele>
        <time>2017-06-14T07:52:46Z</time>
      </trkpt>
      <trkpt lat="45.92389" lon="4.7486">
        <ele>171</ele>
        <time>2017-06-14T07:52:47Z</time>
      </trkpt>
      <trkpt lat="45.92387" lon="4.74868">
        <ele>171</ele>
        <time>2017-06-14T07:52:48Z</time>
      </trkpt>
      <trkpt lat="45.92384" lon="4.74875">
        <ele>171</ele>
        <time>2017-06-14T07:52:49Z</time>
      </trkpt>
      <trkpt lat="45.92382" lon="4.74882">
        <ele>171</ele>
        <time>2017-06-14T07:52:50Z</time>
      </trkpt>
      <trkpt lat="45.92379" lon="4.74889">
        <ele>171</ele>
        <time>2017-06-14T07:52:51Z</time>
      </trkpt>
      <trkpt lat="45.92376" lon="4.74896">
        <ele>171</ele>
        <time>2017-06-14T07:52:52Z</time>
      </trkpt>
      <trkpt lat="45.92373" lon="4.74903">
        <ele>171</ele>
        <time>2017-06-14T07:52:53Z</time>
      </trkpt>
      <trkpt lat="45.9237" lon="4.7491">
        <ele>171</ele>
        <time>2017-06-14T07:52:54Z</time>
      </trkpt>
      <trkpt lat="45.92367" lon="4.74918">
        <ele>170</ele>
        <time>2017-06-14T07:52:55Z</time>
      </trkpt>
      <trkpt lat="45.92364" lon="4.74925">
        <ele>170</ele>
        <time>2017-06-14T07:52:56Z</time>
      </trkpt>
      <trkpt lat="45.92361" lon="4.74932">
        <ele>170</ele>
        <time>2017-06-14T07:52:57Z</time>
      </trkpt>
      <trkpt lat="45.92358" lon="4.7494">
        <ele>170</ele>
        <time>2017-06-14T07:52:58Z</time>
      </trkpt>
      <trkpt lat="45.92355" lon="4.74948">
        <ele>170</ele>
        <time>2017-06-14T07:52:59Z</time>
      </trkpt>
      <trkpt lat="45.92352" lon="4.74955">
        <ele>170</ele>
        <time>2017-06-14T07:53:00Z</time>
      </trkpt>
      <trkpt lat="45.92349" lon="4.74962">
        <ele>170</ele>
        <time>2017-06-14T07:53:01Z</time>
      </trkpt>
      <trkpt lat="45.92347" lon="4.74969">
        <ele>170</ele>
        <time>2017-06-14T07:53:02Z</time>
      </trkpt>
      <trkpt lat="45.92344" lon="4.74976">
        <ele>170</ele>
        <time>2017-06-14T07:53:03Z</time>
      </trkpt>
      <trkpt lat="45.92342" lon="4.74982">
        <ele>170</ele>
        <time>2017-06-14T07:53:04Z</time>
      </trkpt>
      <trkpt lat="45.92339" lon="4.74989">
        <ele>170</ele>
        <time>2017-06-14T07:53:05Z</time>
      </trkpt>
      <trkpt lat="45.92336" lon="4.74995">
        <ele>170</ele>
        <time>2017-06-14T07:53:06Z</time>
      </trkpt>
      <trkpt lat="45.92333" lon="4.75002">
        <ele>170</ele>
        <time>2017-06-14T07:53:07Z</time>
      </trkpt>
      <trkpt lat="45.9233" lon="4.75009">
        <ele>171</ele>
        <time>2017-06-14T07:53:08Z</time>
      </trkpt>
      <trkpt lat="45.92327" lon="4.75016">
        <ele>171</ele>
        <time>2017-06-14T07:53:09Z</time>
      </trkpt>
      <trkpt lat="45.92324" lon="4.75023">
        <ele>171</ele>
        <time>2017-06-14T07:53:10Z</time>
      </trkpt>
      <trkpt lat="45.92321" lon="4.7503">
        <ele>171</ele>
        <time>2017-06-14T07:53:11Z</time>
      </trkpt>
      <trkpt lat="45.92317" lon="4.75037">
        <ele>171</ele>
        <time>2017-06-14T07:53:12Z</time>
      </trkpt>
      <trkpt lat="45.92313" lon="4.75043">
        <ele>172</ele>
        <time>2017-06-14T07:53:13Z</time>
      </trkpt>
      <trkpt lat="45.92309" lon="4.7505">
        <ele>172</ele>
        <time>2017-06-14T07:53:14Z</time>
      </trkpt>
      <trkpt lat="45.92305" lon="4.75056">
        <ele>172</ele>
        <time>2017-06-14T07:53:15Z</time>
      </trkpt>
      <trkpt lat="45.92301" lon="4.75061">
        <ele>172</ele>
        <time>2017-06-14T07:53:16Z</time>
      </trkpt>
      <trkpt lat="45.92296" lon="4.75066">
        <ele>172</ele>
        <time>2017-06-14T07:53:17Z</time>
      </trkpt>
      <trkpt lat="45.92292" lon="4.75071">
        <ele>172</ele>
        <time>2017-06-14T07:53:18Z</time>
      </trkpt>
      <trkpt lat="45.92288" lon="4.75076">
        <ele>172</ele>
        <time>2017-06-14T07:53:19Z</time>
      </trkpt>
      <trkpt lat="45.92284" lon="4.7508">
        <ele>172</ele>
        <time>2017-06-14T07:53:20Z</time>
      </trkpt>
      <trkpt lat="45.9228" lon="4.75085">
        <ele>173</ele>
        <time>2017-06-14T07:53:21Z</time>
      </trkpt>
      <trkpt lat="45.92276" lon="4.7509">
        <ele>173</ele>
        <time>2017-06-14T07:53:22Z</time>
      </trkpt>
      <trkpt lat="45.92271" lon="4.75095">
        <ele>173</ele>
        <time>2017-06-14T07:53:23Z</time>
      </trkpt>
      <trkpt lat="45.92267" lon="4.75099">
        <ele>173</ele>
        <time>2017-06-14T07:53:24Z</time>
      </trkpt>
      <trkpt lat="45.92262" lon="4.75104">
        <ele>173</ele>
        <time>2017-06-14T07:53:25Z</time>
      </trkpt>
      <trkpt lat="45.92258" lon="4.75109">
        <ele>174</ele>
        <time>2017-06-14T07:53:26Z</time>
      </trkpt>
      <trkpt lat="45.92254" lon="4.75114">
        <ele>174</ele>
        <time>2017-06-14T07:53:27Z</time>
      </trkpt>
      <trkpt lat="45.9225" lon="4.75119">
        <ele>174</ele>
        <time>2017-06-14T07:53:28Z</time>
      </trkpt>
      <trkpt lat="45.92246" lon="4.75124">
        <ele>174</ele>
        <time>2017-06-14T07:53:29Z</time>
      </trkpt>
      <trkpt lat="45.92242" lon="4.7513">
        <ele>174</ele>
        <time>2017-06-14T07:53:30Z</time>
      </trkpt>
      <trkpt lat="45.92237" lon="4.75136">
        <ele>174</ele>
        <time>2017-06-14T07:53:31Z</time>
      </trkpt>
      <trkpt lat="45.92233" lon="4.75142">
        <ele>174</ele>
        <time>2017-06-14T07:53:32Z</time>
      </trkpt>
      <trkpt lat="45.92229" lon="4.75148">
        <ele>174</ele>
        <time>2017-06-14T07:53:33Z</time>
      </trkpt>
      <trkpt lat="45.92226" lon="4.75155">
        <ele>174</ele>
        <time>2017-06-14T07:53:34Z</time>
      </trkpt>
      <trkpt lat="45.92222" lon="4.75161">
        <ele>174</ele>
        <time>2017-06-14T07:53:35Z</time>
      </trkpt>
      <trkpt lat="45.9222" lon="4.75168">
        <ele>175</ele>
        <time>2017-06-14T07:53:36Z</time>
      </trkpt>
      <trkpt lat="45.92217" lon="4.75174">
        <ele>175</ele>
        <time>2017-06-14T07:53:37Z</time>
      </trkpt>
      <trkpt lat="45.92215" lon="4.7518">
        <ele>175</ele>
        <time>2017-06-14T07:53:38Z</time>
      </trkpt>
      <trkpt lat="45.92213" lon="4.75187">
        <ele>175</ele>
        <time>2017-06-14T07:53:39Z</time>
      </trkpt>
      <trkpt lat="45.92211" lon="4.75194">
        <ele>175</ele>
        <time>2017-06-14T07:53:40Z</time>
      </trkpt>
      <trkpt lat="45.92209" lon="4.75201">
        <ele>175</ele>
        <time>2017-06-14T07:53:41Z</time>
      </trkpt>
      <trkpt lat="45.92208" lon="4.75209">
        <ele>175</ele>
        <time>2017-06-14T07:53:42Z</time>
      </trkpt>
      <trkpt lat="45.92207" lon="4.75217">
        <ele>175</ele>
        <time>2017-06-14T07:53:43Z</time>
      </trkpt>
      <trkpt lat="45.92206" lon="4.75225">
        <ele>175</ele>
        <time>2017-06-14T07:53:44Z</time>
      </trkpt>
      <trkpt lat="45.92206" lon="4.75232">
        <ele>175</ele>
        <time>2017-06-14T07:53:45Z</time>
      </trkpt>
      <trkpt lat="45.92205" lon="4.75239">
        <ele>175</ele>
        <time>2017-06-14T07:53:46Z</time>
      </trkpt>
      <trkpt lat="45.92205" lon="4.75246">
        <ele>175</ele>
        <time>2017-06-14T07:53:47Z</time>
      </trkpt>
      <trkpt lat="45.92205" lon="4.75253">
        <ele>175</ele>
        <time>2017-06-14T07:53:48Z</time>
      </trkpt>
      <trkpt lat="45.92204" lon="4.7526">
        <ele>175</ele>
        <time>2017-06-14T07:53:49Z</time>
      </trkpt>
      <trkpt lat="45.92204" lon="4.75267">
        <ele>176</ele>
        <time>2017-06-14T07:53:50Z</time>
      </trkpt>
      <trkpt lat="45.92204" lon="4.75273">
        <ele>176</ele>
        <time>2017-06-14T07:53:51Z</time>
      </trkpt>
      <trkpt lat="45.92204" lon="4.7528">
        <ele>176</ele>
        <time>2017-06-14T07:53:52Z</time>
      </trkpt>
      <trkpt lat="45.92204" lon="4.75287">
        <ele>176</ele>
        <time>2017-06-14T07:53:53Z</time>
      </trkpt>
      <trkpt lat="45.92204" lon="4.75294">
        <ele>176</ele>
        <time>2017-06-14T07:53:54Z</time>
      </trkpt>
      <trkpt lat="45.92204" lon="4.75301">
        <ele>176</ele>
        <time>2017-06-14T07:53:55Z</time>
      </trkpt>
      <trkpt lat="45.92203" lon="4.75308">
        <ele>176</ele>
        <time>2017-06-14T07:53:56Z</time>
      </trkpt>
      <trkpt lat="45.92202" lon="4.75316">
        <ele>176</ele>
        <time>2017-06-14T07:53:57Z</time>
      </trkpt>
      <trkpt lat="45.92201" lon="4.75323">
        <ele>176</ele>
        <time>2017-06-14T07:53:58Z</time>
      </trkpt>
      <trkpt lat="45.92199" lon="4.7533">
        <ele>176</ele>
        <time>2017-06-14T07:53:59Z</time>
      </trkpt>
      <trkpt lat="45.92198" lon="4.75337">
        <ele>177</ele>
        <time>2017-06-14T07:54:00Z</time>
      </trkpt>
      <trkpt lat="45.92197" lon="4.75344">
        <ele>177</ele>
        <time>2017-06-14T07:54:01Z</time>
      </trkpt>
      <trkpt lat="45.92196" lon="4.75351">
        <ele>177</ele>
        <time>2017-06-14T07:54:02Z</time>
      </trkpt>
      <trkpt lat="45.92195" lon="4.75358">
        <ele>177</ele>
        <time>2017-06-14T07:54:03Z</time>
      </trkpt>
      <trkpt lat="45.92194" lon="4.75365">
        <ele>177</ele>
        <time>2017-06-14T07:54:04Z</time>
      </trkpt>
      <trkpt lat="45.92192" lon="4.75371">
        <ele>177</ele>
        <time>2017-06-14T07:54:05Z</time>
      </trkpt>
      <trkpt lat="45.9219" lon="4.75378">
        <ele>177</ele>
        <time>2017-06-14T07:54:06Z</time>
      </trkpt>
      <trkpt lat="45.92188" lon="4.75385">
        <ele>177</ele>
        <time>2017-06-14T07:54:07Z</time>
      </trkpt>
      <trkpt lat="45.92186" lon="4.75391">
        <ele>177</ele>
        <time>2017-06-14T07:54:08Z</time>
      </trkpt>
      <trkpt lat="45.92183" lon="4.75398">
        <ele>177</ele>
        <time>2017-06-14T07:54:09Z</time>
      </trkpt>
      <trkpt lat="45.9218" lon="4.75404">
        <ele>177</ele>
        <time>2017-06-14T07:54:10Z</time>
      </trkpt>
      <trkpt lat="45.92178" lon="4.7541">
        <ele>177</ele>
        <time>2017-06-14T07:54:11Z</time>
      </trkpt>
      <trkpt lat="45.92176" lon="4.75417">
        <ele>177</ele>
        <time>2017-06-14T07:54:12Z</time>
      </trkpt>
      <trkpt lat="45.92173" lon="4.75424">
        <ele>177</ele>
        <time>2017-06-14T07:54:13Z</time>
      </trkpt>
      <trkpt lat="45.92171" lon="4.7543">
        <ele>177</ele>
        <time>2017-06-14T07:54:14Z</time>
      </trkpt>
      <trkpt lat="45.92168" lon="4.75437">
        <ele>177</ele>
        <time>2017-06-14T07:54:15Z</time>
      </trkpt>
      <trkpt lat="45.92165" lon="4.75443">
        <ele>177</ele>
        <time>2017-06-14T07:54:16Z</time>
      </trkpt>
      <trkpt lat="45.92163" lon="4.75449">
        <ele>176</ele>
        <time>2017-06-14T07:54:17Z</time>
      </trkpt>
      <trkpt lat="45.92161" lon="4.75455">
        <ele>176</ele>
        <time>2017-06-14T07:54:18Z</time>
      </trkpt>
      <trkpt lat="45.92159" lon="4.75462">
        <ele>176</ele>
        <time>2017-06-14T07:54:19Z</time>
      </trkpt>
      <trkpt lat="45.92157" lon="4.75469">
        <ele>176</ele>
        <time>2017-06-14T07:54:20Z</time>
      </trkpt>
      <trkpt lat="45.92154" lon="4.75476">
        <ele>176</ele>
        <time>2017-06-14T07:54:21Z</time>
      </trkpt>
      <trkpt lat="45.92151" lon="4.75484">
        <ele>176</ele>
        <time>2017-06-14T07:54:22Z</time>
      </trkpt>
      <trkpt lat="45.92148" lon="4.75491">
        <ele>176</ele>
        <time>2017-06-14T07:54:23Z</time>
      </trkpt>
      <trkpt lat="45.92145" lon="4.75498">
        <ele>175</ele>
        <time>2017-06-14T07:54:24Z</time>
      </trkpt>
      <trkpt lat="45.92141" lon="4.75505">
        <ele>174</ele>
        <time>2017-06-14T07:54:25Z</time>
      </trkpt>
      <trkpt lat="45.92138" lon="4.75512">
        <ele>174</ele>
        <time>2017-06-14T07:54:26Z</time>
      </trkpt>
      <trkpt lat="45.92134" lon="4.75519">
        <ele>174</ele>
        <time>2017-06-14T07:54:27Z</time>
      </trkpt>
      <trkpt lat="45.9213" lon="4.75526">
        <ele>174</ele>
        <time>2017-06-14T07:54:28Z</time>
      </trkpt>
      <trkpt lat="45.92127" lon="4.75533">
        <ele>174</ele>
        <time>2017-06-14T07:54:29Z</time>
      </trkpt>
      <trkpt lat="45.92123" lon="4.7554">
        <ele>174</ele>
        <time>2017-06-14T07:54:30Z</time>
      </trkpt>
      <trkpt lat="45.9212" lon="4.75547">
        <ele>174</ele>
        <time>2017-06-14T07:54:31Z</time>
      </trkpt>
      <trkpt lat="45.92116" lon="4.75555">
        <ele>174</ele>
        <time>2017-06-14T07:54:32Z</time>
      </trkpt>
      <trkpt lat="45.92112" lon="4.75561">
        <ele>174</ele>
        <time>2017-06-14T07:54:33Z</time>
      </trkpt>
      <trkpt lat="45.92108" lon="4.75568">
        <ele>174</ele>
        <time>2017-06-14T07:54:34Z</time>
      </trkpt>
      <trkpt lat="45.92107" lon="4.75576">
        <ele>174</ele>
        <time>2017-06-14T07:54:35Z</time>
      </trkpt>
      <trkpt lat="45.92109" lon="4.75584">
        <ele>174</ele>
        <time>2017-06-14T07:54:36Z</time>
      </trkpt>
      <trkpt lat="45.92112" lon="4.7559">
        <ele>174</ele>
        <time>2017-06-14T07:54:37Z</time>
      </trkpt>
      <trkpt lat="45.92116" lon="4.75596">
        <ele>174</ele>
        <time>2017-06-14T07:54:38Z</time>
      </trkpt>
      <trkpt lat="45.92121" lon="4.756">
        <ele>174</ele>
        <time>2017-06-14T07:54:39Z</time>
      </trkpt>
      <trkpt lat="45.92125" lon="4.75604">
        <ele>174</ele>
        <time>2017-06-14T07:54:40Z</time>
      </trkpt>
      <trkpt lat="45.92129" lon="4.75608">
        <ele>174</ele>
        <time>2017-06-14T07:54:41Z</time>
      </trkpt>
      <trkpt lat="45.92133" lon="4.75613">
        <ele>174</ele>
        <time>2017-06-14T07:54:42Z</time>
      </trkpt>
      <trkpt lat="45.92137" lon="4.75617">
        <ele>174</ele>
        <time>2017-06-14T07:54:43Z</time>
      </trkpt>
      <trkpt lat="45.92142" lon="4.75621">
        <ele>174</ele>
        <time>2017-06-14T07:54:44Z</time>
      </trkpt>
      <trkpt lat="45.92146" lon="4.75626">
        <ele>174</ele>
        <time>2017-06-14T07:54:45Z</time>
      </trkpt>
      <trkpt lat="45.92151" lon="4.7563">
        <ele>174</ele>
        <time>2017-06-14T07:54:46Z</time>
      </trkpt>
      <trkpt lat="45.92155" lon="4.75635">
        <ele>174</ele>
        <time>2017-06-14T07:54:47Z</time>
      </trkpt>
      <trkpt lat="45.9216" lon="4.7564">
        <ele>174</ele>
        <time>2017-06-14T07:54:48Z</time>
      </trkpt>
      <trkpt lat="45.92164" lon="4.75644">
        <ele>174</ele>
        <time>2017-06-14T07:54:49Z</time>
      </trkpt>
      <trkpt lat="45.92169" lon="4.75649">
        <ele>174</ele>
        <time>2017-06-14T07:54:50Z</time>
      </trkpt>
      <trkpt lat="45.92174" lon="4.75654">
        <ele>174</ele>
        <time>2017-06-14T07:54:51Z</time>
      </trkpt>
      <trkpt lat="45.92178" lon="4.75658">
        <ele>174</ele>
        <time>2017-06-14T07:54:52Z</time>
      </trkpt>
      <trkpt lat="45.92183" lon="4.75662">
        <ele>174</ele>
        <time>2017-06-14T07:54:53Z</time>
      </trkpt>
      <trkpt lat="45.92188" lon="4.75666">
        <ele>174</ele>
        <time>2017-06-14T07:54:54Z</time>
      </trkpt>
      <trkpt lat="45.92193" lon="4.75671">
        <ele>174</ele>
        <time>2017-06-14T07:54:55Z</time>
      </trkpt>
      <trkpt lat="45.92197" lon="4.75675">
        <ele>174</ele>
        <time>2017-06-14T07:54:56Z</time>
      </trkpt>
      <trkpt lat="45.92201" lon="4.7568">
        <ele>174</ele>
        <time>2017-06-14T07:54:57Z</time>
      </trkpt>
      <trkpt lat="45.92206" lon="4.75685">
        <ele>174</ele>
        <time>2017-06-14T07:54:58Z</time>
      </trkpt>
      <trkpt lat="45.9221" lon="4.75689">
        <ele>174</ele>
        <time>2017-06-14T07:54:59Z</time>
      </trkpt>
      <trkpt lat="45.92214" lon="4.75693">
        <ele>174</ele>
        <time>2017-06-14T07:55:00Z</time>
      </trkpt>
      <trkpt lat="45.92219" lon="4.75697">
        <ele>174</ele>
        <time>2017-06-14T07:55:01Z</time>
      </trkpt>
      <trkpt lat="45.92223" lon="4.75702">
        <ele>174</ele>
        <time>2017-06-14T07:55:02Z</time>
      </trkpt>
      <trkpt lat="45.92227" lon="4.75708">
        <ele>174</ele>
        <time>2017-06-14T07:55:03Z</time>
      </trkpt>
      <trkpt lat="45.92231" lon="4.75714">
        <ele>174</ele>
        <time>2017-06-14T07:55:04Z</time>
      </trkpt>
      <trkpt lat="45.92234" lon="4.7572">
        <ele>174</ele>
        <time>2017-06-14T07:55:05Z</time>
      </trkpt>
      <trkpt lat="45.92237" lon="4.75726">
        <ele>174</ele>
        <time>2017-06-14T07:55:06Z</time>
      </trkpt>
      <trkpt lat="45.92239" lon="4.75733">
        <ele>174</ele>
        <time>2017-06-14T07:55:07Z</time>
      </trkpt>
      <trkpt lat="45.92241" lon="4.7574">
        <ele>174</ele>
        <time>2017-06-14T07:55:08Z</time>
      </trkpt>
      <trkpt lat="45.92243" lon="4.75747">
        <ele>174</ele>
        <time>2017-06-14T07:55:09Z</time>
      </trkpt>
      <trkpt lat="45.92245" lon="4.75754">
        <ele>174</ele>
        <time>2017-06-14T07:55:10Z</time>
      </trkpt>
      <trkpt lat="45.92246" lon="4.7576">
        <ele>174</ele>
        <time>2017-06-14T07:55:11Z</time>
      </trkpt>
      <trkpt lat="45.92248" lon="4.75767">
        <ele>174</ele>
        <time>2017-06-14T07:55:12Z</time>
      </trkpt>
      <trkpt lat="45.9225" lon="4.75774">
        <ele>174</ele>
        <time>2017-06-14T07:55:13Z</time>
      </trkpt>
      <trkpt lat="45.92251" lon="4.75781">
        <ele>174</ele>
        <time>2017-06-14T07:55:14Z</time>
      </trkpt>
      <trkpt lat="45.92253" lon="4.75789">
        <ele>174</ele>
        <time>2017-06-14T07:55:15Z</time>
      </trkpt>
      <trkpt lat="45.92255" lon="4.75797">
        <ele>174</ele>
        <time>2017-06-14T07:55:16Z</time>
      </trkpt>
      <trkpt lat="45.92257" lon="4.75804">
        <ele>174</ele>
        <time>2017-06-14T07:55:17Z</time>
      </trkpt>
      <trkpt lat="45.92259" lon="4.75811">
        <ele>174</ele>
        <time>2017-06-14T07:55:18Z</time>
      </trkpt>
      <trkpt lat="45.92261" lon="4.75818">
        <ele>174</ele>
        <time>2017-06-14T07:55:19Z</time>
      </trkpt>
      <trkpt lat="45.92265" lon="4.75825">
        <ele>174</ele>
        <time>2017-06-14T07:55:20Z</time>
      </trkpt>
      <trkpt lat="45.92269" lon="4.7583">
        <ele>174</ele>
        <time>2017-06-14T07:55:21Z</time>
      </trkpt>
      <trkpt lat="45.92274" lon="4.75835">
        <ele>173</ele>
        <time>2017-06-14T07:55:22Z</time>
      </trkpt>
      <trkpt lat="45.92278" lon="4.75839">
        <ele>173</ele>
        <time>2017-06-14T07:55:23Z</time>
      </trkpt>
      <trkpt lat="45.92284" lon="4.75843">
        <ele>173</ele>
        <time>2017-06-14T07:55:24Z</time>
      </trkpt>
      <trkpt lat="45.92289" lon="4.75846">
        <ele>173</ele>
        <time>2017-06-14T07:55:25Z</time>
      </trkpt>
      <trkpt lat="45.92294" lon="4.75849">
        <ele>173</ele>
        <time>2017-06-14T07:55:26Z</time>
      </trkpt>
      <trkpt lat="45.92299" lon="4.75852">
        <ele>173</ele>
        <time>2017-06-14T07:55:27Z</time>
      </trkpt>
      <trkpt lat="45.92305" lon="4.75855">
        <ele>173</ele>
        <time>2017-06-14T07:55:28Z</time>
      </trkpt>
      <trkpt lat="45.9231" lon="4.75858">
        <ele>173</ele>
        <time>2017-06-14T07:55:29Z</time>
      </trkpt>
      <trkpt lat="45.92315" lon="4.75861">
        <ele>173</ele>
        <time>2017-06-14T07:55:30Z</time>
      </trkpt>
      <trkpt lat="45.9232" lon="4.75864">
        <ele>173</ele>
        <time>2017-06-14T07:55:31Z</time>
      </trkpt>
      <trkpt lat="45.92326" lon="4.75868">
        <ele>173</ele>
        <time>2017-06-14T07:55:32Z</time>
      </trkpt>
      <trkpt lat="45.92331" lon="4.75872">
        <ele>173</ele>
        <time>2017-06-14T07:55:33Z</time>
      </trkpt>
      <trkpt lat="45.92336" lon="4.75875">
        <ele>173</ele>
        <time>2017-06-14T07:55:34Z</time>
      </trkpt>
      <trkpt lat="45.92342" lon="4.75878">
        <ele>173</ele>
        <time>2017-06-14T07:55:35Z</time>
      </trkpt>
      <trkpt lat="45.92347" lon="4.75882">
        <ele>173</ele>
        <time>2017-06-14T07:55:36Z</time>
      </trkpt>
      <trkpt lat="45.92352" lon="4.75885">
        <ele>173</ele>
        <time>2017-06-14T07:55:37Z</time>
      </trkpt>
      <trkpt lat="45.92356" lon="4.75888">
        <ele>173</ele>
        <time>2017-06-14T07:55:38Z</time>
      </trkpt>
      <trkpt lat="45.92361" lon="4.75891">
        <ele>173</ele>
        <time>2017-06-14T07:55:39Z</time>
      </trkpt>
      <trkpt lat="45.92366" lon="4.75894">
        <ele>173</ele>
        <time>2017-06-14T07:55:40Z</time>
      </trkpt>
      <trkpt lat="45.92371" lon="4.75898">
        <ele>173</ele>
        <time>2017-06-14T07:55:41Z</time>
      </trkpt>
      <trkpt lat="45.92376" lon="4.75901">
        <ele>173</ele>
        <time>2017-06-14T07:55:42Z</time>
      </trkpt>
      <trkpt lat="45.92382" lon="4.75904">
        <ele>173</ele>
        <time>2017-06-14T07:55:43Z</time>
      </trkpt>
      <trkpt lat="45.92387" lon="4.75908">
        <ele>173</ele>
        <time>2017-06-14T07:55:44Z</time>
      </trkpt>
      <trkpt lat="45.92393" lon="4.75911">
        <ele>173</ele>
        <time>2017-06-14T07:55:45Z</time>
      </trkpt>
      <trkpt lat="45.92398" lon="4.75915">
        <ele>173</ele>
        <time>2017-06-14T07:55:46Z</time>
      </trkpt>
      <trkpt lat="45.92404" lon="4.75918">
        <ele>172</ele>
        <time>2017-06-14T07:55:47Z</time>
      </trkpt>
      <trkpt lat="45.92409" lon="4.75922">
        <ele>172</ele>
        <time>2017-06-14T07:55:48Z</time>
      </trkpt>
      <trkpt lat="45.92414" lon="4.75926">
        <ele>172</ele>
        <time>2017-06-14T07:55:49Z</time>
      </trkpt>
      <trkpt lat="45.92419" lon="4.75929">
        <ele>172</ele>
        <time>2017-06-14T07:55:50Z</time>
      </trkpt>
      <trkpt lat="45.92424" lon="4.75933">
        <ele>172</ele>
        <time>2017-06-14T07:55:51Z</time>
      </trkpt>
      <trkpt lat="45.92429" lon="4.75937">
        <ele>172</ele>
        <time>2017-06-14T07:55:52Z</time>
      </trkpt>
      <trkpt lat="45.92434" lon="4.75941">
        <ele>172</ele>
        <time>2017-06-14T07:55:53Z</time>
      </trkpt>
      <trkpt lat="45.92438" lon="4.75945">
        <ele>172</ele>
        <time>2017-06-14T07:55:54Z</time>
      </trkpt>
      <trkpt lat="45.92443" lon="4.75949">
        <ele>172</ele>
        <time>2017-06-14T07:55:55Z</time>
      </trkpt>
      <trkpt lat="45.92447" lon="4.75952">
        <ele>172</ele>
        <time>2017-06-14T07:55:56Z</time>
      </trkpt>
      <trkpt lat="45.92452" lon="4.75956">
        <ele>172</ele>
        <time>2017-06-14T07:55:57Z</time>
      </trkpt>
      <trkpt lat="45.92456" lon="4.75959">
        <ele>172</ele>
        <time>2017-06-14T07:55:58Z</time>
      </trkpt>
      <trkpt lat="45.9246" lon="4.75962">
        <ele>172</ele>
        <time>2017-06-14T07:55:59Z</time>
      </trkpt>
      <trkpt lat="45.92465" lon="4.75966">
        <ele>172</ele>
        <time>2017-06-14T07:56:00Z</time>
      </trkpt>
      <trkpt lat="45.9247" lon="4.7597">
        <ele>172</ele>
        <time>2017-06-14T07:56:01Z</time>
      </trkpt>
      <trkpt lat="45.92475" lon="4.75974">
        <ele>172</ele>
        <time>2017-06-14T07:56:02Z</time>
      </trkpt>
      <trkpt lat="45.9248" lon="4.75978">
        <ele>172</ele>
        <time>2017-06-14T07:56:03Z</time>
      </trkpt>
      <trkpt lat="45.92485" lon="4.75983">
        <ele>172</ele>
        <time>2017-06-14T07:56:04Z</time>
      </trkpt>
      <trkpt lat="45.9249" lon="4.75987">
        <ele>172</ele>
        <time>2017-06-14T07:56:05Z</time>
      </trkpt>
      <trkpt lat="45.92495" lon="4.75991">
        <ele>172</ele>
        <time>2017-06-14T07:56:06Z</time>
      </trkpt>
      <trkpt lat="45.925" lon="4.75995">
        <ele>172</ele>
        <time>2017-06-14T07:56:07Z</time>
      </trkpt>
      <trkpt lat="45.92505" lon="4.75999">
        <ele>172</ele>
        <time>2017-06-14T07:56:08Z</time>
      </trkpt>
      <trkpt lat="45.92509" lon="4.76002">
        <ele>172</ele>
        <time>2017-06-14T07:56:09Z</time>
      </trkpt>
      <trkpt lat="45.92514" lon="4.76005">
        <ele>172</ele>
        <time>2017-06-14T07:56:10Z</time>
      </trkpt>
      <trkpt lat="45.92518" lon="4.76007">
        <ele>172</ele>
        <time>2017-06-14T07:56:11Z</time>
      </trkpt>
      <trkpt lat="45.92522" lon="4.7601">
        <ele>172</ele>
        <time>2017-06-14T07:56:12Z</time>
      </trkpt>
      <trkpt lat="45.92527" lon="4.76013">
        <ele>172</ele>
        <time>2017-06-14T07:56:13Z</time>
      </trkpt>
      <trkpt lat="45.92531" lon="4.76016">
        <ele>172</ele>
        <time>2017-06-14T07:56:14Z</time>
      </trkpt>
      <trkpt lat="45.92536" lon="4.7602">
        <ele>172</ele>
        <time>2017-06-14T07:56:15Z</time>
      </trkpt>
      <trkpt lat="45.9254" lon="4.76022">
        <ele>172</ele>
        <time>2017-06-14T07:56:16Z</time>
      </trkpt>
      <trkpt lat="45.92544" lon="4.76025">
        <ele>172</ele>
        <time>2017-06-14T07:56:17Z</time>
      </trkpt>
      <trkpt lat="45.92548" lon="4.76028">
        <ele>172</ele>
        <time>2017-06-14T07:56:18Z</time>
      </trkpt>
      <trkpt lat="45.92552" lon="4.76031">
        <ele>172</ele>
        <time>2017-06-14T07:56:19Z</time>
      </trkpt>
      <trkpt lat="45.92557" lon="4.76034">
        <ele>172</ele>
        <time>2017-06-14T07:56:20Z</time>
      </trkpt>
      <trkpt lat="45.92561" lon="4.76037">
        <ele>172</ele>
        <time>2017-06-14T07:56:21Z</time>
      </trkpt>
      <trkpt lat="45.92565" lon="4.7604">
        <ele>172</ele>
        <time>2017-06-14T07:56:22Z</time>
      </trkpt>
      <trkpt lat="45.92569" lon="4.76043">
        <ele>171</ele>
        <time>2017-06-14T07:56:23Z</time>
      </trkpt>
      <trkpt lat="45.92574" lon="4.76047">
        <ele>171</ele>
        <time>2017-06-14T07:56:24Z</time>
      </trkpt>
      <trkpt lat="45.92578" lon="4.7605">
        <ele>171</ele>
        <time>2017-06-14T07:56:25Z</time>
      </trkpt>
      <trkpt lat="45.92583" lon="4.76054">
        <ele>171</ele>
        <time>2017-06-14T07:56:26Z</time>
      </trkpt>
      <trkpt lat="45.92588" lon="4.76058">
        <ele>171</ele>
        <time>2017-06-14T07:56:27Z</time>
      </trkpt>
      <trkpt lat="45.92593" lon="4.76061">
        <ele>171</ele>
        <time>2017-06-14T07:56:28Z</time>
      </trkpt>
      <trkpt lat="45.92598" lon="4.76065">
        <ele>171</ele>
        <time>2017-06-14T07:56:29Z</time>
      </trkpt>
      <trkpt lat="45.92603" lon="4.76068">
        <ele>171</ele>
        <time>2017-06-14T07:56:30Z</time>
      </trkpt>
      <trkpt lat="45.92608" lon="4.76072">
        <ele>171</ele>
        <time>2017-06-14T07:56:31Z</time>
      </trkpt>
      <trkpt lat="45.92613" lon="4.76076">
        <ele>171</ele>
        <time>2017-06-14T07:56:32Z</time>
      </trkpt>
      <trkpt lat="45.92618" lon="4.76079">
        <ele>171</ele>
        <time>2017-06-14T07:56:33Z</time>
      </trkpt>
      <trkpt lat="45.92624" lon="4.76083">
        <ele>171</ele>
        <time>2017-06-14T07:56:34Z</time>
      </trkpt>
      <trkpt lat="45.9263" lon="4.76087">
        <ele>170</ele>
        <time>2017-06-14T07:56:35Z</time>
      </trkpt>
      <trkpt lat="45.92636" lon="4.76091">
        <ele>170</ele>
        <time>2017-06-14T07:56:36Z</time>
      </trkpt>
      <trkpt lat="45.92641" lon="4.76095">
        <ele>170</ele>
        <time>2017-06-14T07:56:37Z</time>
      </trkpt>
      <trkpt lat="45.92647" lon="4.76099">
        <ele>170</ele>
        <time>2017-06-14T07:56:38Z</time>
      </trkpt>
      <trkpt lat="45.92654" lon="4.76104">
        <ele>170</ele>
        <time>2017-06-14T07:56:39Z</time>
      </trkpt>
      <trkpt lat="45.92661" lon="4.76107">
        <ele>170</ele>
        <time>2017-06-14T07:56:40Z</time>
      </trkpt>
      <trkpt lat="45.92668" lon="4.76112">
        <ele>169</ele>
        <time>2017-06-14T07:56:41Z</time>
      </trkpt>
      <trkpt lat="45.92675" lon="4.76116">
        <ele>169</ele>
        <time>2017-06-14T07:56:42Z</time>
      </trkpt>
      <trkpt lat="45.92682" lon="4.76121">
        <ele>169</ele>
        <time>2017-06-14T07:56:43Z</time>
      </trkpt>
      <trkpt lat="45.92689" lon="4.76125">
        <ele>169</ele>
        <time>2017-06-14T07:56:44Z</time>
      </trkpt>
      <trkpt lat="45.92696" lon="4.7613">
        <ele>169</ele>
        <time>2017-06-14T07:56:45Z</time>
      </trkpt>
      <trkpt lat="45.92703" lon="4.76135">
        <ele>169</ele>
        <time>2017-06-14T07:56:46Z</time>
      </trkpt>
      <trkpt lat="45.9271" lon="4.7614">
        <ele>168</ele>
        <time>2017-06-14T07:56:47Z</time>
      </trkpt>
      <trkpt lat="45.92717" lon="4.76144">
        <ele>168</ele>
        <time>2017-06-14T07:56:48Z</time>
      </trkpt>
      <trkpt lat="45.92723" lon="4.76149">
        <ele>168</ele>
        <time>2017-06-14T07:56:49Z</time>
      </trkpt>
      <trkpt lat="45.9273" lon="4.76154">
        <ele>168</ele>
        <time>2017-06-14T07:56:50Z</time>
      </trkpt>
      <trkpt lat="45.92737" lon="4.76159">
        <ele>168</ele>
        <time>2017-06-14T07:56:51Z</time>
      </trkpt>
      <trkpt lat="45.92744" lon="4.76164">
        <ele>167</ele>
        <time>2017-06-14T07:56:52Z</time>
      </trkpt>
      <trkpt lat="45.9275" lon="4.76169">
        <ele>167</ele>
        <time>2017-06-14T07:56:53Z</time>
      </trkpt>
      <trkpt lat="45.92755" lon="4.76175">
        <ele>167</ele>
        <time>2017-06-14T07:56:54Z</time>
      </trkpt>
      <trkpt lat="45.92761" lon="4.7618">
        <ele>167</ele>
        <time>2017-06-14T07:56:55Z</time>
      </trkpt>
      <trkpt lat="45.92766" lon="4.76186">
        <ele>167</ele>
        <time>2017-06-14T07:56:56Z</time>
      </trkpt>
      <trkpt lat="45.92771" lon="4.76191">
        <ele>168</ele>
        <time>2017-06-14T07:56:57Z</time>
      </trkpt>
      <trkpt lat="45.92776" lon="4.76195">
        <ele>168</ele>
        <time>2017-06-14T07:56:58Z</time>
      </trkpt>
      <trkpt lat="45.92781" lon="4.762">
        <ele>168</ele>
        <time>2017-06-14T07:56:59Z</time>
      </trkpt>
      <trkpt lat="45.92786" lon="4.76204">
        <ele>168</ele>
        <time>2017-06-14T07:57:00Z</time>
      </trkpt>
      <trkpt lat="45.92791" lon="4.76209">
        <ele>168</ele>
        <time>2017-06-14T07:57:01Z</time>
      </trkpt>
      <trkpt lat="45.92796" lon="4.76213">
        <ele>168</ele>
        <time>2017-06-14T07:57:02Z</time>
      </trkpt>
      <trkpt lat="45.928" lon="4.76218">
        <ele>168</ele>
        <time>2017-06-14T07:57:03Z</time>
      </trkpt>
      <trkpt lat="45.92804" lon="4.76222">
        <ele>168</ele>
        <time>2017-06-14T07:57:04Z</time>
      </trkpt>
      <trkpt lat="45.92809" lon="4.76227">
        <ele>168</ele>
        <time>2017-06-14T07:57:05Z</time>
      </trkpt>
      <trkpt lat="45.92813" lon="4.76231">
        <ele>168</ele>
        <time>2017-06-14T07:57:06Z</time>
      </trkpt>
      <trkpt lat="45.92817" lon="4.76236">
        <ele>168</ele>
        <time>2017-06-14T07:57:07Z</time>
      </trkpt>
      <trkpt lat="45.92821" lon="4.7624">
        <ele>168</ele>
        <time>2017-06-14T07:57:08Z</time>
      </trkpt>
      <trkpt lat="45.92825" lon="4.76245">
        <ele>169</ele>
        <time>2017-06-14T07:57:09Z</time>
      </trkpt>
      <trkpt lat="45.9283" lon="4.76249">
        <ele>169</ele>
        <time>2017-06-14T07:57:10Z</time>
      </trkpt>
      <trkpt lat="45.92836" lon="4.76254">
        <ele>169</ele>
        <time>2017-06-14T07:57:11Z</time>
      </trkpt>
      <trkpt lat="45.92841" lon="4.76259">
        <ele>169</ele>
        <time>2017-06-14T07:57:12Z</time>
      </trkpt>
      <trkpt lat="45.92845" lon="4.76263">
        <ele>169</ele>
        <time>2017-06-14T07:57:13Z</time>
      </trkpt>
      <trkpt lat="45.9285" lon="4.76268">
        <ele>169</ele>
        <time>2017-06-14T07:57:14Z</time>
      </trkpt>
      <trkpt lat="45.92854" lon="4.76273">
        <ele>169</ele>
        <time>2017-06-14T07:57:15Z</time>
      </trkpt>
      <trkpt lat="45.92858" lon="4.76277">
        <ele>169</ele>
        <time>2017-06-14T07:57:16Z</time>
      </trkpt>
      <trkpt lat="45.92863" lon="4.76282">
        <ele>169</ele>
        <time>2017-06-14T07:57:17Z</time>
      </trkpt>
      <trkpt lat="45.92867" lon="4.76287">
        <ele>169</ele>
        <time>2017-06-14T07:57:18Z</time>
      </trkpt>
      <trkpt lat="45.92872" lon="4.76292">
        <ele>169</ele>
        <time>2017-06-14T07:57:19Z</time>
      </trkpt>
      <trkpt lat="45.92877" lon="4.76297">
        <ele>169</ele>
        <time>2017-06-14T07:57:20Z</time>
      </trkpt>
      <trkpt lat="45.92882" lon="4.76302">
        <ele>169</ele>
        <time>2017-06-14T07:57:21Z</time>
      </trkpt>
      <trkpt lat="45.92886" lon="4.76306">
        <ele>169</ele>
        <time>2017-06-14T07:57:22Z</time>
      </trkpt>
      <trkpt lat="45.9289" lon="4.76311">
        <ele>169</ele>
        <time>2017-06-14T07:57:23Z</time>
      </trkpt>
      <trkpt lat="45.92895" lon="4.76316">
        <ele>169</ele>
        <time>2017-06-14T07:57:24Z</time>
      </trkpt>
      <trkpt lat="45.929" lon="4.76321">
        <ele>169</ele>
        <time>2017-06-14T07:57:25Z</time>
      </trkpt>
      <trkpt lat="45.92905" lon="4.76325">
        <ele>169</ele>
        <time>2017-06-14T07:57:26Z</time>
      </trkpt>
      <trkpt lat="45.9291" lon="4.7633">
        <ele>169</ele>
        <time>2017-06-14T07:57:27Z</time>
      </trkpt>
      <trkpt lat="45.92915" lon="4.76335">
        <ele>169</ele>
        <time>2017-06-14T07:57:28Z</time>
      </trkpt>
      <trkpt lat="45.9292" lon="4.7634">
        <ele>169</ele>
        <time>2017-06-14T07:57:29Z</time>
      </trkpt>
      <trkpt lat="45.92926" lon="4.76345">
        <ele>169</ele>
        <time>2017-06-14T07:57:30Z</time>
      </trkpt>
      <trkpt lat="45.92931" lon="4.7635">
        <ele>169</ele>
        <time>2017-06-14T07:57:31Z</time>
      </trkpt>
      <trkpt lat="45.92936" lon="4.76355">
        <ele>169</ele>
        <time>2017-06-14T07:57:32Z</time>
      </trkpt>
      <trkpt lat="45.92941" lon="4.7636">
        <ele>169</ele>
        <time>2017-06-14T07:57:33Z</time>
      </trkpt>
      <trkpt lat="45.92946" lon="4.76364">
        <ele>169</ele>
        <time>2017-06-14T07:57:34Z</time>
      </trkpt>
      <trkpt lat="45.92951" lon="4.76369">
        <ele>169</ele>
        <time>2017-06-14T07:57:35Z</time>
      </trkpt>
      <trkpt lat="45.92955" lon="4.76374">
        <ele>169</ele>
        <time>2017-06-14T07:57:36Z</time>
      </trkpt>
      <trkpt lat="45.9296" lon="4.76379">
        <ele>169</ele>
        <time>2017-06-14T07:57:37Z</time>
      </trkpt>
      <trkpt lat="45.92964" lon="4.76384">
        <ele>169</ele>
        <time>2017-06-14T07:57:38Z</time>
      </trkpt>
      <trkpt lat="45.92969" lon="4.76388">
        <ele>169</ele>
        <time>2017-06-14T07:57:39Z</time>
      </trkpt>
      <trkpt lat="45.92973" lon="4.76393">
        <ele>169</ele>
        <time>2017-06-14T07:57:40Z</time>
      </trkpt>
      <trkpt lat="45.92977" lon="4.76398">
        <ele>169</ele>
        <time>2017-06-14T07:57:41Z</time>
      </trkpt>
      <trkpt lat="45.92982" lon="4.76403">
        <ele>169</ele>
        <time>2017-06-14T07:57:42Z</time>
      </trkpt>
      <trkpt lat="45.92987" lon="4.76408">
        <ele>169</ele>
        <time>2017-06-14T07:57:43Z</time>
      </trkpt>
      <trkpt lat="45.92991" lon="4.76412">
        <ele>169</ele>
        <time>2017-06-14T07:57:44Z</time>
      </trkpt>
      <trkpt lat="45.92996" lon="4.76417">
        <ele>169</ele>
        <time>2017-06-14T07:57:45Z</time>
      </trkpt>
      <trkpt lat="45.93001" lon="4.76421">
        <ele>169</ele>
        <time>2017-06-14T07:57:46Z</time>
      </trkpt>
      <trkpt lat="45.93005" lon="4.76425">
        <ele>169</ele>
        <time>2017-06-14T07:57:47Z</time>
      </trkpt>
      <trkpt lat="45.9301" lon="4.76429">
        <ele>169</ele>
        <time>2017-06-14T07:57:48Z</time>
      </trkpt>
      <trkpt lat="45.93014" lon="4.76433">
        <ele>169</ele>
        <time>2017-06-14T07:57:49Z</time>
      </trkpt>
      <trkpt lat="45.93018" lon="4.76437">
        <ele>169</ele>
        <time>2017-06-14T07:57:50Z</time>
      </trkpt>
      <trkpt lat="45.93023" lon="4.76441">
        <ele>169</ele>
        <time>2017-06-14T07:57:51Z</time>
      </trkpt>
      <trkpt lat="45.93028" lon="4.76446">
        <ele>169</ele>
        <time>2017-06-14T07:57:52Z</time>
      </trkpt>
      <trkpt lat="45.93033" lon="4.76451">
        <ele>169</ele>
        <time>2017-06-14T07:57:53Z</time>
      </trkpt>
      <trkpt lat="45.93038" lon="4.76456">
        <ele>169</ele>
        <time>2017-06-14T07:57:54Z</time>
      </trkpt>
      <trkpt lat="45.93042" lon="4.76461">
        <ele>169</ele>
        <time>2017-06-14T07:57:55Z</time>
      </trkpt>
      <trkpt lat="45.93047" lon="4.76466">
        <ele>169</ele>
        <time>2017-06-14T07:57:56Z</time>
      </trkpt>
      <trkpt lat="45.93053" lon="4.7647">
        <ele>169</ele>
        <time>2017-06-14T07:57:57Z</time>
      </trkpt>
      <trkpt lat="45.93058" lon="4.76475">
        <ele>169</ele>
        <time>2017-06-14T07:57:58Z</time>
      </trkpt>
      <trkpt lat="45.93062" lon="4.7648">
        <ele>169</ele>
        <time>2017-06-14T07:57:59Z</time>
      </trkpt>
      <trkpt lat="45.93067" lon="4.76485">
        <ele>169</ele>
        <time>2017-06-14T07:58:00Z</time>
      </trkpt>
      <trkpt lat="45.93071" lon="4.76489">
        <ele>169</ele>
        <time>2017-06-14T07:58:01Z</time>
      </trkpt>
      <trkpt lat="45.93076" lon="4.76494">
        <ele>170</ele>
        <time>2017-06-14T07:58:02Z</time>
      </trkpt>
      <trkpt lat="45.9308" lon="4.76498">
        <ele>170</ele>
        <time>2017-06-14T07:58:03Z</time>
      </trkpt>
      <trkpt lat="45.93084" lon="4.76502">
        <ele>170</ele>
        <time>2017-06-14T07:58:04Z</time>
      </trkpt>
      <trkpt lat="45.93088" lon="4.76506">
        <ele>170</ele>
        <time>2017-06-14T07:58:05Z</time>
      </trkpt>
      <trkpt lat="45.93092" lon="4.7651">
        <ele>170</ele>
        <time>2017-06-14T07:58:06Z</time>
      </trkpt>
      <trkpt lat="45.93097" lon="4.76514">
        <ele>170</ele>
        <time>2017-06-14T07:58:07Z</time>
      </trkpt>
      <trkpt lat="45.93101" lon="4.76519">
        <ele>170</ele>
        <time>2017-06-14T07:58:08Z</time>
      </trkpt>
      <trkpt lat="45.93106" lon="4.76524">
        <ele>170</ele>
        <time>2017-06-14T07:58:09Z</time>
      </trkpt>
      <trkpt lat="45.9311" lon="4.76529">
        <ele>170</ele>
        <time>2017-06-14T07:58:10Z</time>
      </trkpt>
      <trkpt lat="45.93115" lon="4.76534">
        <ele>170</ele>
        <time>2017-06-14T07:58:11Z</time>
      </trkpt>
      <trkpt lat="45.9312" lon="4.76539">
        <ele>170</ele>
        <time>2017-06-14T07:58:12Z</time>
      </trkpt>
      <trkpt lat="45.93125" lon="4.76543">
        <ele>170</ele>
        <time>2017-06-14T07:58:13Z</time>
      </trkpt>
      <trkpt lat="45.9313" lon="4.76547">
        <ele>170</ele>
        <time>2017-06-14T07:58:14Z</time>
      </trkpt>
      <trkpt lat="45.93134" lon="4.76551">
        <ele>170</ele>
        <time>2017-06-14T07:58:15Z</time>
      </trkpt>
      <trkpt lat="45.93138" lon="4.76556">
        <ele>170</ele>
        <time>2017-06-14T07:58:16Z</time>
      </trkpt>
      <trkpt lat="45.93142" lon="4.7656">
        <ele>170</ele>
        <time>2017-06-14T07:58:17Z</time>
      </trkpt>
      <trkpt lat="45.93146" lon="4.76565">
        <ele>170</ele>
        <time>2017-06-14T07:58:18Z</time>
      </trkpt>
      <trkpt lat="45.9315" lon="4.76569">
        <ele>170</ele>
        <time>2017-06-14T07:58:19Z</time>
      </trkpt>
      <trkpt lat="45.93154" lon="4.76573">
        <ele>170</ele>
        <time>2017-06-14T07:58:20Z</time>
      </trkpt>
      <trkpt lat="45.93158" lon="4.76578">
        <ele>171</ele>
        <time>2017-06-14T07:58:21Z</time>
      </trkpt>
      <trkpt lat="45.93162" lon="4.76582">
        <ele>171</ele>
        <time>2017-06-14T07:58:22Z</time>
      </trkpt>
      <trkpt lat="45.93167" lon="4.76587">
        <ele>171</ele>
        <time>2017-06-14T07:58:23Z</time>
      </trkpt>
      <trkpt lat="45.93172" lon="4.76592">
        <ele>171</ele>
        <time>2017-06-14T07:58:24Z</time>
      </trkpt>
      <trkpt lat="45.93177" lon="4.76597">
        <ele>171</ele>
        <time>2017-06-14T07:58:25Z</time>
      </trkpt>
      <trkpt lat="45.93182" lon="4.76602">
        <ele>171</ele>
        <time>2017-06-14T07:58:26Z</time>
      </trkpt>
      <trkpt lat="45.93187" lon="4.76607">
        <ele>171</ele>
        <time>2017-06-14T07:58:27Z</time>
      </trkpt>
      <trkpt lat="45.93191" lon="4.76611">
        <ele>171</ele>
        <time>2017-06-14T07:58:28Z</time>
      </trkpt>
      <trkpt lat="45.93195" lon="4.76616">
        <ele>171</ele>
        <time>2017-06-14T07:58:29Z</time>
      </trkpt>
      <trkpt lat="45.932" lon="4.7662">
        <ele>171</ele>
        <time>2017-06-14T07:58:30Z</time>
      </trkpt>
      <trkpt lat="45.93204" lon="4.76624">
        <ele>171</ele>
        <time>2017-06-14T07:58:31Z</time>
      </trkpt>
      <trkpt lat="45.93208" lon="4.76628">
        <ele>171</ele>
        <time>2017-06-14T07:58:32Z</time>
      </trkpt>
      <trkpt lat="45.93212" lon="4.76632">
        <ele>171</ele>
        <time>2017-06-14T07:58:33Z</time>
      </trkpt>
      <trkpt lat="45.93216" lon="4.76635">
        <ele>171</ele>
        <time>2017-06-14T07:58:34Z</time>
      </trkpt>
      <trkpt lat="45.93221" lon="4.7664">
        <ele>171</ele>
        <time>2017-06-14T07:58:35Z</time>
      </trkpt>
      <trkpt lat="45.93225" lon="4.76644">
        <ele>171</ele>
        <time>2017-06-14T07:58:36Z</time>
      </trkpt>
      <trkpt lat="45.93229" lon="4.76647">
        <ele>171</ele>
        <time>2017-06-14T07:58:37Z</time>
      </trkpt>
      <trkpt lat="45.93233" lon="4.76652">
        <ele>171</ele>
        <time>2017-06-14T07:58:38Z</time>
      </trkpt>
      <trkpt lat="45.93239" lon="4.76656">
        <ele>171</ele>
        <time>2017-06-14T07:58:39Z</time>
      </trkpt>
      <trkpt lat="45.93243" lon="4.76662">
        <ele>172</ele>
        <time>2017-06-14T07:58:40Z</time>
      </trkpt>
      <trkpt lat="45.93248" lon="4.76666">
        <ele>172</ele>
        <time>2017-06-14T07:58:41Z</time>
      </trkpt>
      <trkpt lat="45.93252" lon="4.76671">
        <ele>172</ele>
        <time>2017-06-14T07:58:42Z</time>
      </trkpt>
      <trkpt lat="45.93256" lon="4.76675">
        <ele>172</ele>
        <time>2017-06-14T07:58:43Z</time>
      </trkpt>
      <trkpt lat="45.9326" lon="4.76679">
        <ele>172</ele>
        <time>2017-06-14T07:58:44Z</time>
      </trkpt>
      <trkpt lat="45.93264" lon="4.76683">
        <ele>172</ele>
        <time>2017-06-14T07:58:45Z</time>
      </trkpt>
      <trkpt lat="45.93268" lon="4.76687">
        <ele>172</ele>
        <time>2017-06-14T07:58:46Z</time>
      </trkpt>
      <trkpt lat="45.93272" lon="4.76691">
        <ele>172</ele>
        <time>2017-06-14T07:58:47Z</time>
      </trkpt>
      <trkpt lat="45.93276" lon="4.76695">
        <ele>172</ele>
        <time>2017-06-14T07:58:48Z</time>
      </trkpt>
      <trkpt lat="45.9328" lon="4.76699">
        <ele>172</ele>
        <time>2017-06-14T07:58:49Z</time>
      </trkpt>
      <trkpt lat="45.93284" lon="4.76703">
        <ele>172</ele>
        <time>2017-06-14T07:58:50Z</time>
      </trkpt>
      <trkpt lat="45.93289" lon="4.76707">
        <ele>172</ele>
        <time>2017-06-14T07:58:51Z</time>
      </trkpt>
      <trkpt lat="45.93293" lon="4.76712">
        <ele>172</ele>
        <time>2017-06-14T07:58:52Z</time>
      </trkpt>
      <trkpt lat="45.93298" lon="4.76716">
        <ele>172</ele>
        <time>2017-06-14T07:58:53Z</time>
      </trkpt>
      <trkpt lat="45.93302" lon="4.76721">
        <ele>172</ele>
        <time>2017-06-14T07:58:54Z</time>
      </trkpt>
      <trkpt lat="45.93307" lon="4.76726">
        <ele>172</ele>
        <time>2017-06-14T07:58:55Z</time>
      </trkpt>
      <trkpt lat="45.93311" lon="4.76731">
        <ele>172</ele>
        <time>2017-06-14T07:58:56Z</time>
      </trkpt>
      <trkpt lat="45.93316" lon="4.76735">
        <ele>172</ele>
        <time>2017-06-14T07:58:57Z</time>
      </trkpt>
      <trkpt lat="45.9332" lon="4.7674">
        <ele>172</ele>
        <time>2017-06-14T07:58:58Z</time>
      </trkpt>
      <trkpt lat="45.93324" lon="4.76743">
        <ele>173</ele>
        <time>2017-06-14T07:58:59Z</time>
      </trkpt>
      <trkpt lat="45.93329" lon="4.76747">
        <ele>173</ele>
        <time>2017-06-14T07:59:00Z</time>
      </trkpt>
      <trkpt lat="45.93333" lon="4.76751">
        <ele>173</ele>
        <time>2017-06-14T07:59:01Z</time>
      </trkpt>
      <trkpt lat="45.93337" lon="4.76755">
        <ele>173</ele>
        <time>2017-06-14T07:59:02Z</time>
      </trkpt>
      <trkpt lat="45.93341" lon="4.7676">
        <ele>172</ele>
        <time>2017-06-14T07:59:03Z</time>
      </trkpt>
      <trkpt lat="45.93346" lon="4.76764">
        <ele>172</ele>
        <time>2017-06-14T07:59:04Z</time>
      </trkpt>
      <trkpt lat="45.9335" lon="4.76768">
        <ele>172</ele>
        <time>2017-06-14T07:59:05Z</time>
      </trkpt>
      <trkpt lat="45.93354" lon="4.76772">
        <ele>172</ele>
        <time>2017-06-14T07:59:06Z</time>
      </trkpt>
      <trkpt lat="45.93358" lon="4.76776">
        <ele>172</ele>
        <time>2017-06-14T07:59:07Z</time>
      </trkpt>
      <trkpt lat="45.93363" lon="4.7678">
        <ele>172</ele>
        <time>2017-06-14T07:59:08Z</time>
      </trkpt>
      <trkpt lat="45.93367" lon="4.76784">
        <ele>172</ele>
        <time>2017-06-14T07:59:09Z</time>
      </trkpt>
      <trkpt lat="45.93372" lon="4.76788">
        <ele>172</ele>
        <time>2017-06-14T07:59:10Z</time>
      </trkpt>
      <trkpt lat="45.93377" lon="4.76793">
        <ele>172</ele>
        <time>2017-06-14T07:59:11Z</time>
      </trkpt>
      <trkpt lat="45.93381" lon="4.76798">
        <ele>172</ele>
        <time>2017-06-14T07:59:12Z</time>
      </trkpt>
      <trkpt lat="45.93386" lon="4.76803">
        <ele>172</ele>
        <time>2017-06-14T07:59:13Z</time>
      </trkpt>
      <trkpt lat="45.9339" lon="4.76808">
        <ele>172</ele>
        <time>2017-06-14T07:59:14Z</time>
      </trkpt>
      <trkpt lat="45.93394" lon="4.76813">
        <ele>172</ele>
        <time>2017-06-14T07:59:15Z</time>
      </trkpt>
      <trkpt lat="45.93399" lon="4.76819">
        <ele>172</ele>
        <time>2017-06-14T07:59:16Z</time>
      </trkpt>
      <trkpt lat="45.93403" lon="4.76826">
        <ele>172</ele>
        <time>2017-06-14T07:59:17Z</time>
      </trkpt>
      <trkpt lat="45.93407" lon="4.76832">
        <ele>172</ele>
        <time>2017-06-14T07:59:18Z</time>
      </trkpt>
      <trkpt lat="45.9341" lon="4.76839">
        <ele>172</ele>
        <time>2017-06-14T07:59:19Z</time>
      </trkpt>
      <trkpt lat="45.93414" lon="4.76846">
        <ele>172</ele>
        <time>2017-06-14T07:59:20Z</time>
      </trkpt>
      <trkpt lat="45.93417" lon="4.76853">
        <ele>171</ele>
        <time>2017-06-14T07:59:21Z</time>
      </trkpt>
      <trkpt lat="45.93421" lon="4.7686">
        <ele>171</ele>
        <time>2017-06-14T07:59:22Z</time>
      </trkpt>
      <trkpt lat="45.93424" lon="4.76867">
        <ele>171</ele>
        <time>2017-06-14T07:59:23Z</time>
      </trkpt>
      <trkpt lat="45.93427" lon="4.76873">
        <ele>171</ele>
        <time>2017-06-14T07:59:24Z</time>
      </trkpt>
      <trkpt lat="45.9343" lon="4.7688">
        <ele>171</ele>
        <time>2017-06-14T07:59:25Z</time>
      </trkpt>
      <trkpt lat="45.93432" lon="4.76886">
        <ele>171</ele>
        <time>2017-06-14T07:59:26Z</time>
      </trkpt>
      <trkpt lat="45.93434" lon="4.76893">
        <ele>171</ele>
        <time>2017-06-14T07:59:27Z</time>
      </trkpt>
      <trkpt lat="45.93436" lon="4.76899">
        <ele>171</ele>
        <time>2017-06-14T07:59:28Z</time>
      </trkpt>
      <trkpt lat="45.93438" lon="4.76906">
        <ele>171</ele>
        <time>2017-06-14T07:59:29Z</time>
      </trkpt>
      <trkpt lat="45.9344" lon="4.76913">
        <ele>170</ele>
        <time>2017-06-14T07:59:30Z</time>
      </trkpt>
      <trkpt lat="45.93442" lon="4.7692">
        <ele>170</ele>
        <time>2017-06-14T07:59:31Z</time>
      </trkpt>
      <trkpt lat="45.93444" lon="4.76928">
        <ele>170</ele>
        <time>2017-06-14T07:59:32Z</time>
      </trkpt>
      <trkpt lat="45.93446" lon="4.76937">
        <ele>170</ele>
        <time>2017-06-14T07:59:33Z</time>
      </trkpt>
      <trkpt lat="45.93448" lon="4.76945">
        <ele>170</ele>
        <time>2017-06-14T07:59:34Z</time>
      </trkpt>
      <trkpt lat="45.93449" lon="4.76954">
        <ele>170</ele>
        <time>2017-06-14T07:59:35Z</time>
      </trkpt>
      <trkpt lat="45.93451" lon="4.76962">
        <ele>170</ele>
        <time>2017-06-14T07:59:36Z</time>
      </trkpt>
      <trkpt lat="45.93452" lon="4.7697">
        <ele>170</ele>
        <time>2017-06-14T07:59:37Z</time>
      </trkpt>
      <trkpt lat="45.93453" lon="4.76978">
        <ele>170</ele>
        <time>2017-06-14T07:59:38Z</time>
      </trkpt>
      <trkpt lat="45.93454" lon="4.76985">
        <ele>170</ele>
        <time>2017-06-14T07:59:39Z</time>
      </trkpt>
      <trkpt lat="45.93455" lon="4.76992">
        <ele>170</ele>
        <time>2017-06-14T07:59:40Z</time>
      </trkpt>
      <trkpt lat="45.93456" lon="4.76999">
        <ele>170</ele>
        <time>2017-06-14T07:59:41Z</time>
      </trkpt>
      <trkpt lat="45.93458" lon="4.77005">
        <ele>170</ele>
        <time>2017-06-14T07:59:42Z</time>
      </trkpt>
      <trkpt lat="45.93459" lon="4.77012">
        <ele>170</ele>
        <time>2017-06-14T07:59:43Z</time>
      </trkpt>
      <trkpt lat="45.93461" lon="4.77019">
        <ele>170</ele>
        <time>2017-06-14T07:59:44Z</time>
      </trkpt>
      <trkpt lat="45.93462" lon="4.77027">
        <ele>170</ele>
        <time>2017-06-14T07:59:45Z</time>
      </trkpt>
      <trkpt lat="45.93463" lon="4.77034">
        <ele>170</ele>
        <time>2017-06-14T07:59:46Z</time>
      </trkpt>
      <trkpt lat="45.93464" lon="4.77042">
        <ele>170</ele>
        <time>2017-06-14T07:59:47Z</time>
      </trkpt>
      <trkpt lat="45.93466" lon="4.77049">
        <ele>170</ele>
        <time>2017-06-14T07:59:48Z</time>
      </trkpt>
      <trkpt lat="45.93467" lon="4.77057">
        <ele>170</ele>
        <time>2017-06-14T07:59:49Z</time>
      </trkpt>
      <trkpt lat="45.93468" lon="4.77065">
        <ele>170</ele>
        <time>2017-06-14T07:59:50Z</time>
      </trkpt>
      <trkpt lat="45.9347" lon="4.77073">
        <ele>170</ele>
        <time>2017-06-14T07:59:51Z</time>
      </trkpt>
      <trkpt lat="45.93471" lon="4.77081">
        <ele>170</ele>
        <time>2017-06-14T07:59:52Z</time>
      </trkpt>
      <trkpt lat="45.93472" lon="4.77089">
        <ele>169</ele>
        <time>2017-06-14T07:59:53Z</time>
      </trkpt>
      <trkpt lat="45.93474" lon="4.77097">
        <ele>169</ele>
        <time>2017-06-14T07:59:54Z</time>
      </trkpt>
      <trkpt lat="45.93475" lon="4.77105">
        <ele>169</ele>
        <time>2017-06-14T07:59:55Z</time>
      </trkpt>
      <trkpt lat="45.93476" lon="4.77112">
        <ele>169</ele>
        <time>2017-06-14T07:59:56Z</time>
      </trkpt>
      <trkpt lat="45.93477" lon="4.77119">
        <ele>169</ele>
        <time>2017-06-14T07:59:57Z</time>
      </trkpt>
      <trkpt lat="45.93479" lon="4.77127">
        <ele>169</ele>
        <time>2017-06-14T07:59:58Z</time>
      </trkpt>
      <trkpt lat="45.9348" lon="4.77134">
        <ele>169</ele>
        <time>2017-06-14T07:59:59Z</time>
      </trkpt>
      <trkpt lat="45.93482" lon="4.77142">
        <ele>169</ele>
        <time>2017-06-14T08:00:00Z</time>
      </trkpt>
      <trkpt lat="45.93483" lon="4.77149">
        <ele>169</ele>
        <time>2017-06-14T08:00:01Z</time>
      </trkpt>
      <trkpt lat="45.93485" lon="4.77157">
        <ele>169</ele>
        <time>2017-06-14T08:00:02Z</time>
      </trkpt>
      <trkpt lat="45.93486" lon="4.77165">
        <ele>169</ele>
        <time>2017-06-14T08:00:03Z</time>
      </trkpt>
      <trkpt lat="45.93488" lon="4.77172">
        <ele>169</ele>
        <time>2017-06-14T08:00:04Z</time>
      </trkpt>
      <trkpt lat="45.93489" lon="4.7718">
        <ele>169</ele>
        <time>2017-06-14T08:00:05Z</time>
      </trkpt>
      <trkpt lat="45.93491" lon="4.77188">
        <ele>169</ele>
        <time>2017-06-14T08:00:06Z</time>
      </trkpt>
      <trkpt lat="45.93492" lon="4.77195">
        <ele>169</ele>
        <time>2017-06-14T08:00:07Z</time>
      </trkpt>
      <trkpt lat="45.93493" lon="4.77202">
        <ele>169</ele>
        <time>2017-06-14T08:00:08Z</time>
      </trkpt>
      <trkpt lat="45.93495" lon="4.77209">
        <ele>169</ele>
        <time>2017-06-14T08:00:09Z</time>
      </trkpt>
      <trkpt lat="45.93496" lon="4.77216">
        <ele>169</ele>
        <time>2017-06-14T08:00:10Z</time>
      </trkpt>
      <trkpt lat="45.93498" lon="4.77223">
        <ele>169</ele>
        <time>2017-06-14T08:00:11Z</time>
      </trkpt>
      <trkpt lat="45.93499" lon="4.77231">
        <ele>170</ele>
        <time>2017-06-14T08:00:12Z</time>
      </trkpt>
      <trkpt lat="45.93501" lon="4.77239">
        <ele>169</ele>
        <time>2017-06-14T08:00:13Z</time>
      </trkpt>
      <trkpt lat="45.93502" lon="4.77246">
        <ele>170</ele>
        <time>2017-06-14T08:00:14Z</time>
      </trkpt>
      <trkpt lat="45.93504" lon="4.77254">
        <ele>170</ele>
        <time>2017-06-14T08:00:15Z</time>
      </trkpt>
      <trkpt lat="45.93505" lon="4.77261">
        <ele>170</ele>
        <time>2017-06-14T08:00:16Z</time>
      </trkpt>
      <trkpt lat="45.93507" lon="4.77267">
        <ele>170</ele>
        <time>2017-06-14T08:00:17Z</time>
      </trkpt>
      <trkpt lat="45.93508" lon="4.77274">
        <ele>170</ele>
        <time>2017-06-14T08:00:18Z</time>
      </trkpt>
      <trkpt lat="45.9351" lon="4.77281">
        <ele>170</ele>
        <time>2017-06-14T08:00:19Z</time>
      </trkpt>
      <trkpt lat="45.93511" lon="4.77287">
        <ele>170</ele>
        <time>2017-06-14T08:00:20Z</time>
      </trkpt>
      <trkpt lat="45.93513" lon="4.77294">
        <ele>170</ele>
        <time>2017-06-14T08:00:21Z</time>
      </trkpt>
      <trkpt lat="45.93515" lon="4.77302">
        <ele>170</ele>
        <time>2017-06-14T08:00:22Z</time>
      </trkpt>
      <trkpt lat="45.93516" lon="4.77309">
        <ele>170</ele>
        <time>2017-06-14T08:00:23Z</time>
      </trkpt>
      <trkpt lat="45.93518" lon="4.77317">
        <ele>170</ele>
        <time>2017-06-14T08:00:24Z</time>
      </trkpt>
      <trkpt lat="45.9352" lon="4.77325">
        <ele>170</ele>
        <time>2017-06-14T08:00:25Z</time>
      </trkpt>
      <trkpt lat="45.93522" lon="4.77332">
        <ele>170</ele>
        <time>2017-06-14T08:00:26Z</time>
      </trkpt>
      <trkpt lat="45.93523" lon="4.77339">
        <ele>170</ele>
        <time>2017-06-14T08:00:27Z</time>
      </trkpt>
      <trkpt lat="45.93525" lon="4.77347">
        <ele>170</ele>
        <time>2017-06-14T08:00:28Z</time>
      </trkpt>
      <trkpt lat="45.93526" lon="4.77354">
        <ele>170</ele>
        <time>2017-06-14T08:00:29Z</time>
      </trkpt>
      <trkpt lat="45.93528" lon="4.77361">
        <ele>170</ele>
        <time>2017-06-14T08:00:30Z</time>
      </trkpt>
      <trkpt lat="45.93529" lon="4.77367">
        <ele>170</ele>
        <time>2017-06-14T08:00:31Z</time>
      </trkpt>
      <trkpt lat="45.93531" lon="4.77374">
        <ele>170</ele>
        <time>2017-06-14T08:00:32Z</time>
      </trkpt>
      <trkpt lat="45.93532" lon="4.77381">
        <ele>170</ele>
        <time>2017-06-14T08:00:33Z</time>
      </trkpt>
      <trkpt lat="45.93534" lon="4.77388">
        <ele>170</ele>
        <time>2017-06-14T08:00:34Z</time>
      </trkpt>
      <trkpt lat="45.93536" lon="4.77395">
        <ele>170</ele>
        <time>2017-06-14T08:00:35Z</time>
      </trkpt>
      <trkpt lat="45.93538" lon="4.77403">
        <ele>170</ele>
        <time>2017-06-14T08:00:36Z</time>
      </trkpt>
      <trkpt lat="45.93539" lon="4.7741">
        <ele>170</ele>
        <time>2017-06-14T08:00:37Z</time>
      </trkpt>
      <trkpt lat="45.93541" lon="4.77418">
        <ele>170</ele>
        <time>2017-06-14T08:00:38Z</time>
      </trkpt>
      <trkpt lat="45.93543" lon="4.77425">
        <ele>170</ele>
        <time>2017-06-14T08:00:39Z</time>
      </trkpt>
      <trkpt lat="45.93544" lon="4.77433">
        <ele>169</ele>
        <time>2017-06-14T08:00:40Z</time>
      </trkpt>
      <trkpt lat="45.93546" lon="4.7744">
        <ele>169</ele>
        <time>2017-06-14T08:00:41Z</time>
      </trkpt>
      <trkpt lat="45.93548" lon="4.77447">
        <ele>169</ele>
        <time>2017-06-14T08:00:42Z</time>
      </trkpt>
      <trkpt lat="45.93549" lon="4.77455">
        <ele>169</ele>
        <time>2017-06-14T08:00:43Z</time>
      </trkpt>
      <trkpt lat="45.9355" lon="4.77463">
        <ele>169</ele>
        <time>2017-06-14T08:00:44Z</time>
      </trkpt>
      <trkpt lat="45.93552" lon="4.77471">
        <ele>169</ele>
        <time>2017-06-14T08:00:45Z</time>
      </trkpt>
      <trkpt lat="45.93554" lon="4.77478">
        <ele>169</ele>
        <time>2017-06-14T08:00:46Z</time>
      </trkpt>
      <trkpt lat="45.93555" lon="4.77485">
        <ele>169</ele>
        <time>2017-06-14T08:00:47Z</time>
      </trkpt>
      <trkpt lat="45.93557" lon="4.77492">
        <ele>169</ele>
        <time>2017-06-14T08:00:48Z</time>
      </trkpt>
      <trkpt lat="45.93558" lon="4.77499">
        <ele>169</ele>
        <time>2017-06-14T08:00:49Z</time>
      </trkpt>
      <trkpt lat="45.9356" lon="4.77506">
        <ele>169</ele>
        <time>2017-06-14T08:00:50Z</time>
      </trkpt>
      <trkpt lat="45.93561" lon="4.77513">
        <ele>169</ele>
        <time>2017-06-14T08:00:51Z</time>
      </trkpt>
      <trkpt lat="45.93563" lon="4.77519">
        <ele>169</ele>
        <time>2017-06-14T08:00:52Z</time>
      </trkpt>
      <trkpt lat="45.93565" lon="4.77526">
        <ele>169</ele>
        <time>2017-06-14T08:00:53Z</time>
      </trkpt>
      <trkpt lat="45.93566" lon="4.77533">
        <ele>169</ele>
        <time>2017-06-14T08:00:54Z</time>
      </trkpt>
      <trkpt lat="45.93568" lon="4.7754">
        <ele>169</ele>
        <time>2017-06-14T08:00:55Z</time>
      </trkpt>
      <trkpt lat="45.93569" lon="4.77547">
        <ele>169</ele>
        <time>2017-06-14T08:00:56Z</time>
      </trkpt>
      <trkpt lat="45.93571" lon="4.77554">
        <ele>169</ele>
        <time>2017-06-14T08:00:57Z</time>
      </trkpt>
      <trkpt lat="45.93573" lon="4.77561">
        <ele>169</ele>
        <time>2017-06-14T08:00:58Z</time>
      </trkpt>
      <trkpt lat="45.93576" lon="4.77568">
        <ele>169</ele>
        <time>2017-06-14T08:00:59Z</time>
      </trkpt>
      <trkpt lat="45.93578" lon="4.77574">
        <ele>170</ele>
        <time>2017-06-14T08:01:00Z</time>
      </trkpt>
      <trkpt lat="45.93579" lon="4.77581">
        <ele>170</ele>
        <time>2017-06-14T08:01:01Z</time>
      </trkpt>
      <trkpt lat="45.93581" lon="4.77588">
        <ele>170</ele>
        <time>2017-06-14T08:01:02Z</time>
      </trkpt>
      <trkpt lat="45.93583" lon="4.77594">
        <ele>170</ele>
        <time>2017-06-14T08:01:03Z</time>
      </trkpt>
      <trkpt lat="45.93585" lon="4.77601">
        <ele>170</ele>
        <time>2017-06-14T08:01:04Z</time>
      </trkpt>
      <trkpt lat="45.93588" lon="4.77607">
        <ele>170</ele>
        <time>2017-06-14T08:01:05Z</time>
      </trkpt>
      <trkpt lat="45.9359" lon="4.77613">
        <ele>170</ele>
        <time>2017-06-14T08:01:06Z</time>
      </trkpt>
      <trkpt lat="45.93592" lon="4.7762">
        <ele>170</ele>
        <time>2017-06-14T08:01:07Z</time>
      </trkpt>
      <trkpt lat="45.93595" lon="4.77627">
        <ele>169</ele>
        <time>2017-06-14T08:01:08Z</time>
      </trkpt>
      <trkpt lat="45.93597" lon="4.77633">
        <ele>169</ele>
        <time>2017-06-14T08:01:09Z</time>
      </trkpt>
      <trkpt lat="45.93599" lon="4.77639">
        <ele>169</ele>
        <time>2017-06-14T08:01:10Z</time>
      </trkpt>
      <trkpt lat="45.93602" lon="4.77645">
        <ele>169</ele>
        <time>2017-06-14T08:01:11Z</time>
      </trkpt>
      <trkpt lat="45.93604" lon="4.77651">
        <ele>169</ele>
        <time>2017-06-14T08:01:12Z</time>
      </trkpt>
      <trkpt lat="45.93606" lon="4.77658">
        <ele>169</ele>
        <time>2017-06-14T08:01:13Z</time>
      </trkpt>
      <trkpt lat="45.93609" lon="4.77664">
        <ele>169</ele>
        <time>2017-06-14T08:01:14Z</time>
      </trkpt>
      <trkpt lat="45.93612" lon="4.7767">
        <ele>169</ele>
        <time>2017-06-14T08:01:15Z</time>
      </trkpt>
      <trkpt lat="45.93615" lon="4.77676">
        <ele>169</ele>
        <time>2017-06-14T08:01:16Z</time>
      </trkpt>
      <trkpt lat="45.93618" lon="4.77682">
        <ele>169</ele>
        <time>2017-06-14T08:01:17Z</time>
      </trkpt>
      <trkpt lat="45.93621" lon="4.77687">
        <ele>169</ele>
        <time>2017-06-14T08:01:18Z</time>
      </trkpt>
      <trkpt lat="45.93623" lon="4.77693">
        <ele>169</ele>
        <time>2017-06-14T08:01:19Z</time>
      </trkpt>
      <trkpt lat="45.93626" lon="4.77698">
        <ele>169</ele>
        <time>2017-06-14T08:01:20Z</time>
      </trkpt>
      <trkpt lat="45.93629" lon="4.77704">
        <ele>169</ele>
        <time>2017-06-14T08:01:21Z</time>
      </trkpt>
      <trkpt lat="45.93632" lon="4.7771">
        <ele>170</ele>
        <time>2017-06-14T08:01:22Z</time>
      </trkpt>
      <trkpt lat="45.93636" lon="4.77716">
        <ele>170</ele>
        <time>2017-06-14T08:01:23Z</time>
      </trkpt>
      <trkpt lat="45.93639" lon="4.77722">
        <ele>170</ele>
        <time>2017-06-14T08:01:24Z</time>
      </trkpt>
      <trkpt lat="45.93642" lon="4.77728">
        <ele>170</ele>
        <time>2017-06-14T08:01:25Z</time>
      </trkpt>
      <trkpt lat="45.93646" lon="4.77733">
        <ele>170</ele>
        <time>2017-06-14T08:01:26Z</time>
      </trkpt>
      <trkpt lat="45.93649" lon="4.77739">
        <ele>170</ele>
        <time>2017-06-14T08:01:27Z</time>
      </trkpt>
      <trkpt lat="45.93653" lon="4.77744">
        <ele>170</ele>
        <time>2017-06-14T08:01:28Z</time>
      </trkpt>
      <trkpt lat="45.93656" lon="4.7775">
        <ele>170</ele>
        <time>2017-06-14T08:01:29Z</time>
      </trkpt>
      <trkpt lat="45.9366" lon="4.77756">
        <ele>171</ele>
        <time>2017-06-14T08:01:30Z</time>
      </trkpt>
      <trkpt lat="45.93663" lon="4.77761">
        <ele>171</ele>
        <time>2017-06-14T08:01:31Z</time>
      </trkpt>
      <trkpt lat="45.93667" lon="4.77767">
        <ele>170</ele>
        <time>2017-06-14T08:01:32Z</time>
      </trkpt>
      <trkpt lat="45.93671" lon="4.77773">
        <ele>170</ele>
        <time>2017-06-14T08:01:33Z</time>
      </trkpt>
      <trkpt lat="45.93675" lon="4.77779">
        <ele>170</ele>
        <time>2017-06-14T08:01:34Z</time>
      </trkpt>
      <trkpt lat="45.93679" lon="4.77784">
        <ele>170</ele>
        <time>2017-06-14T08:01:35Z</time>
      </trkpt>
      <trkpt lat="45.93683" lon="4.7779">
        <ele>170</ele>
        <time>2017-06-14T08:01:36Z</time>
      </trkpt>
      <trkpt lat="45.93687" lon="4.77795">
        <ele>170</ele>
        <time>2017-06-14T08:01:37Z</time>
      </trkpt>
      <trkpt lat="45.93691" lon="4.77801">
        <ele>169</ele>
        <time>2017-06-14T08:01:38Z</time>
      </trkpt>
      <trkpt lat="45.93695" lon="4.77807">
        <ele>169</ele>
        <time>2017-06-14T08:01:39Z</time>
      </trkpt>
      <trkpt lat="45.937" lon="4.77812">
        <ele>169</ele>
        <time>2017-06-14T08:01:40Z</time>
      </trkpt>
      <trkpt lat="45.93704" lon="4.77817">
        <ele>169</ele>
        <time>2017-06-14T08:01:41Z</time>
      </trkpt>
      <trkpt lat="45.93708" lon="4.77823">
        <ele>169</ele>
        <time>2017-06-14T08:01:42Z</time>
      </trkpt>
      <trkpt lat="45.93712" lon="4.77827">
        <ele>169</ele>
        <time>2017-06-14T08:01:43Z</time>
      </trkpt>
      <trkpt lat="45.93715" lon="4.77832">
        <ele>169</ele>
        <time>2017-06-14T08:01:44Z</time>
      </trkpt>
      <trkpt lat="45.93719" lon="4.77837">
        <ele>167</ele>
        <time>2017-06-14T08:01:45Z</time>
      </trkpt>
      <trkpt lat="45.93723" lon="4.77841">
        <ele>167</ele>
        <time>2017-06-14T08:01:46Z</time>
      </trkpt>
      <trkpt lat="45.93726" lon="4.77845">
        <ele>167</ele>
        <time>2017-06-14T08:01:47Z</time>
      </trkpt>
      <trkpt lat="45.93732" lon="4.77854">
        <ele>167</ele>
        <time>2017-06-14T08:01:49Z</time>
      </trkpt>
      <trkpt lat="45.93735" lon="4.77858">
        <ele>167</ele>
        <time>2017-06-14T08:01:50Z</time>
      </trkpt>
      <trkpt lat="45.93741" lon="4.77867">
        <ele>167</ele>
        <time>2017-06-14T08:01:52Z</time>
      </trkpt>
      <trkpt lat="45.93744" lon="4.77872">
        <ele>167</ele>
        <time>2017-06-14T08:01:53Z</time>
      </trkpt>
      <trkpt lat="45.93751" lon="4.7788">
        <ele>166</ele>
        <time>2017-06-14T08:01:55Z</time>
      </trkpt>
      <trkpt lat="45.93754" lon="4.77884">
        <ele>166</ele>
        <time>2017-06-14T08:01:56Z</time>
      </trkpt>
      <trkpt lat="45.93759" lon="4.77892">
        <ele>166</ele>
        <time>2017-06-14T08:01:58Z</time>
      </trkpt>
      <trkpt lat="45.93762" lon="4.77896">
        <ele>166</ele>
        <time>2017-06-14T08:01:59Z</time>
      </trkpt>
      <trkpt lat="45.93768" lon="4.77904">
        <ele>166</ele>
        <time>2017-06-14T08:02:01Z</time>
      </trkpt>
      <trkpt lat="45.93771" lon="4.77909">
        <ele>166</ele>
        <time>2017-06-14T08:02:02Z</time>
      </trkpt>
      <trkpt lat="45.93775" lon="4.77913">
        <ele>166</ele>
        <time>2017-06-14T08:02:03Z</time>
      </trkpt>
      <trkpt lat="45.93778" lon="4.77918">
        <ele>168</ele>
        <time>2017-06-14T08:02:04Z</time>
      </trkpt>
      <trkpt lat="45.93781" lon="4.77923">
        <ele>168</ele>
        <time>2017-06-14T08:02:05Z</time>
      </trkpt>
      <trkpt lat="45.93785" lon="4.77928">
        <ele>168</ele>
        <time>2017-06-14T08:02:06Z</time>
      </trkpt>
      <trkpt lat="45.93789" lon="4.77933">
        <ele>168</ele>
        <time>2017-06-14T08:02:07Z</time>
      </trkpt>
      <trkpt lat="45.93793" lon="4.77938">
        <ele>169</ele>
        <time>2017-06-14T08:02:08Z</time>
      </trkpt>
      <trkpt lat="45.93797" lon="4.77943">
        <ele>169</ele>
        <time>2017-06-14T08:02:09Z</time>
      </trkpt>
      <trkpt lat="45.93802" lon="4.77948">
        <ele>169</ele>
        <time>2017-06-14T08:02:10Z</time>
      </trkpt>
      <trkpt lat="45.93806" lon="4.77954">
        <ele>170</ele>
        <time>2017-06-14T08:02:11Z</time>
      </trkpt>
      <trkpt lat="45.9381" lon="4.7796">
        <ele>170</ele>
        <time>2017-06-14T08:02:12Z</time>
      </trkpt>
      <trkpt lat="45.93815" lon="4.77965">
        <ele>171</ele>
        <time>2017-06-14T08:02:13Z</time>
      </trkpt>
      <trkpt lat="45.93819" lon="4.77971">
        <ele>171</ele>
        <time>2017-06-14T08:02:14Z</time>
      </trkpt>
      <trkpt lat="45.93824" lon="4.77976">
        <ele>172</ele>
        <time>2017-06-14T08:02:15Z</time>
      </trkpt>
      <trkpt lat="45.93827" lon="4.77982">
        <ele>173</ele>
        <time>2017-06-14T08:02:16Z</time>
      </trkpt>
      <trkpt lat="45.93833" lon="4.77991">
        <ele>176</ele>
        <time>2017-06-14T08:02:18Z</time>
      </trkpt>
      <trkpt lat="45.93835" lon="4.77995">
        <ele>179</ele>
        <time>2017-06-14T08:02:19Z</time>
      </trkpt>
      <trkpt lat="45.93838" lon="4.78002">
        <ele>180</ele>
        <time>2017-06-14T08:02:24Z</time>
      </trkpt>
      <trkpt lat="45.93838" lon="4.78003">
        <ele>180</ele>
        <time>2017-06-14T08:02:25Z</time>
      </trkpt>
      <trkpt lat="45.93838" lon="4.78008">
        <ele>180</ele>
        <time>2017-06-14T08:02:28Z</time>
      </trkpt>
      <trkpt lat="45.93837" lon="4.78011">
        <ele>181</ele>
        <time>2017-06-14T08:02:29Z</time>
      </trkpt>
      <trkpt lat="45.93837" lon="4.7802">
        <ele>181</ele>
        <time>2017-06-14T08:02:31Z</time>
      </trkpt>
      <trkpt lat="45.93838" lon="4.78024">
        <ele>182</ele>
        <time>2017-06-14T08:02:32Z</time>
      </trkpt>
      <trkpt lat="45.93843" lon="4.78033">
        <ele>182</ele>
        <time>2017-06-14T08:02:34Z</time>
      </trkpt>
      <trkpt lat="45.93844" lon="4.78037">
        <ele>182</ele>
        <time>2017-06-14T08:02:35Z</time>
      </trkpt>
      <trkpt lat="45.93845" lon="4.78049">
        <ele>182</ele>
        <time>2017-06-14T08:02:37Z</time>
      </trkpt>
      <trkpt lat="45.93845" lon="4.78055">
        <ele>182</ele>
        <time>2017-06-14T08:02:38Z</time>
      </trkpt>
      <trkpt lat="45.93843" lon="4.78062">
        <ele>182</ele>
        <time>2017-06-14T08:02:39Z</time>
      </trkpt>
      <trkpt lat="45.93842" lon="4.78069">
        <ele>182</ele>
        <time>2017-06-14T08:02:40Z</time>
      </trkpt>
      <trkpt lat="45.9384" lon="4.78076">
        <ele>181</ele>
        <time>2017-06-14T08:02:41Z</time>
      </trkpt>
      <trkpt lat="45.93839" lon="4.78083">
        <ele>181</ele>
        <time>2017-06-14T08:02:42Z</time>
      </trkpt>
      <trkpt lat="45.93837" lon="4.78091">
        <ele>182</ele>
        <time>2017-06-14T08:02:43Z</time>
      </trkpt>
      <trkpt lat="45.93836" lon="4.78098">
        <ele>183</ele>
        <time>2017-06-14T08:02:44Z</time>
      </trkpt>
      <trkpt lat="45.93834" lon="4.78106">
        <ele>183</ele>
        <time>2017-06-14T08:02:45Z</time>
      </trkpt>
      <trkpt lat="45.93832" lon="4.78114">
        <ele>179</ele>
        <time>2017-06-14T08:02:46Z</time>
      </trkpt>
      <trkpt lat="45.93831" lon="4.78122">
        <ele>180</ele>
        <time>2017-06-14T08:02:47Z</time>
      </trkpt>
      <trkpt lat="45.93829" lon="4.78129">
        <ele>180</ele>
        <time>2017-06-14T08:02:48Z</time>
      </trkpt>
      <trkpt lat="45.93826" lon="4.78135">
        <ele>180</ele>
        <time>2017-06-14T08:02:49Z</time>
      </trkpt>
      <trkpt lat="45.93823" lon="4.78142">
        <ele>180</ele>
        <time>2017-06-14T08:02:50Z</time>
      </trkpt>
      <trkpt lat="45.93822" lon="4.78149">
        <ele>180</ele>
        <time>2017-06-14T08:02:51Z</time>
      </trkpt>
      <trkpt lat="45.9382" lon="4.78155">
        <ele>180</ele>
        <time>2017-06-14T08:02:52Z</time>
      </trkpt>
      <trkpt lat="45.93818" lon="4.78161">
        <ele>180</ele>
        <time>2017-06-14T08:02:53Z</time>
      </trkpt>
      <trkpt lat="45.93817" lon="4.78168">
        <ele>182</ele>
        <time>2017-06-14T08:02:54Z</time>
      </trkpt>
      <trkpt lat="45.93814" lon="4.78179">
        <ele>182</ele>
        <time>2017-06-14T08:02:56Z</time>
      </trkpt>
      <trkpt lat="45.93813" lon="4.78185">
        <ele>182</ele>
        <time>2017-06-14T08:02:57Z</time>
      </trkpt>
      <trkpt lat="45.93809" lon="4.78195">
        <ele>182</ele>
        <time>2017-06-14T08:02:59Z</time>
      </trkpt>
      <trkpt lat="45.93808" lon="4.782">
        <ele>182</ele>
        <time>2017-06-14T08:03:00Z</time>
      </trkpt>
      <trkpt lat="45.93805" lon="4.78212">
        <ele>182</ele>
        <time>2017-06-14T08:03:02Z</time>
      </trkpt>
      <trkpt lat="45.93803" lon="4.78217">
        <ele>182</ele>
        <time>2017-06-14T08:03:03Z</time>
      </trkpt>
      <trkpt lat="45.93799" lon="4.78228">
        <ele>182</ele>
        <time>2017-06-14T08:03:05Z</time>
      </trkpt>
      <trkpt lat="45.93796" lon="4.78233">
        <ele>182</ele>
        <time>2017-06-14T08:03:06Z</time>
      </trkpt>
      <trkpt lat="45.93793" lon="4.78239">
        <ele>182</ele>
        <time>2017-06-14T08:03:07Z</time>
      </trkpt>
      <trkpt lat="45.9379" lon="4.78245">
        <ele>182</ele>
        <time>2017-06-14T08:03:08Z</time>
      </trkpt>
      <trkpt lat="45.93788" lon="4.78252">
        <ele>183</ele>
        <time>2017-06-14T08:03:09Z</time>
      </trkpt>
      <trkpt lat="45.93788" lon="4.78259">
        <ele>183</ele>
        <time>2017-06-14T08:03:10Z</time>
      </trkpt>
      <trkpt lat="45.93787" lon="4.78265">
        <ele>183</ele>
        <time>2017-06-14T08:03:11Z</time>
      </trkpt>
      <trkpt lat="45.93786" lon="4.78272">
        <ele>183</ele>
        <time>2017-06-14T08:03:12Z</time>
      </trkpt>
      <trkpt lat="45.93785" lon="4.78278">
        <ele>183</ele>
        <time>2017-06-14T08:03:13Z</time>
      </trkpt>
      <trkpt lat="45.93782" lon="4.78284">
        <ele>183</ele>
        <time>2017-06-14T08:03:14Z</time>
      </trkpt>
      <trkpt lat="45.9378" lon="4.78292">
        <ele>183</ele>
        <time>2017-06-14T08:03:15Z</time>
      </trkpt>
      <trkpt lat="45.93778" lon="4.78298">
        <ele>183</ele>
        <time>2017-06-14T08:03:16Z</time>
      </trkpt>
      <trkpt lat="45.93776" lon="4.78305">
        <ele>183</ele>
        <time>2017-06-14T08:03:17Z</time>
      </trkpt>
      <trkpt lat="45.93774" lon="4.78313">
        <ele>183</ele>
        <time>2017-06-14T08:03:18Z</time>
      </trkpt>
      <trkpt lat="45.93772" lon="4.78319">
        <ele>183</ele>
        <time>2017-06-14T08:03:19Z</time>
      </trkpt>
      <trkpt lat="45.93771" lon="4.78327">
        <ele>183</ele>
        <time>2017-06-14T08:03:20Z</time>
      </trkpt>
      <trkpt lat="45.93769" lon="4.78333">
        <ele>183</ele>
        <time>2017-06-14T08:03:21Z</time>
      </trkpt>
      <trkpt lat="45.93768" lon="4.7834">
        <ele>183</ele>
        <time>2017-06-14T08:03:22Z</time>
      </trkpt>
      <trkpt lat="45.93766" lon="4.78348">
        <ele>183</ele>
        <time>2017-06-14T08:03:23Z</time>
      </trkpt>
      <trkpt lat="45.93764" lon="4.78355">
        <ele>183</ele>
        <time>2017-06-14T08:03:24Z</time>
      </trkpt>
      <trkpt lat="45.93762" lon="4.78363">
        <ele>183</ele>
        <time>2017-06-14T08:03:25Z</time>
      </trkpt>
      <trkpt lat="45.9376" lon="4.7837">
        <ele>183</ele>
        <time>2017-06-14T08:03:26Z</time>
      </trkpt>
      <trkpt lat="45.93758" lon="4.78378">
        <ele>183</ele>
        <time>2017-06-14T08:03:27Z</time>
      </trkpt>
      <trkpt lat="45.93756" lon="4.78385">
        <ele>183</ele>
        <time>2017-06-14T08:03:28Z</time>
      </trkpt>
      <trkpt lat="45.93754" lon="4.78392">
        <ele>183</ele>
        <time>2017-06-14T08:03:29Z</time>
      </trkpt>
      <trkpt lat="45.93752" lon="4.78399">
        <ele>182</ele>
        <time>2017-06-14T08:03:30Z</time>
      </trkpt>
      <trkpt lat="45.93751" lon="4.78406">
        <ele>182</ele>
        <time>2017-06-14T08:03:31Z</time>
      </trkpt>
      <trkpt lat="45.9375" lon="4.78413">
        <ele>181</ele>
        <time>2017-06-14T08:03:32Z</time>
      </trkpt>
      <trkpt lat="45.93748" lon="4.7842">
        <ele>181</ele>
        <time>2017-06-14T08:03:33Z</time>
      </trkpt>
      <trkpt lat="45.93746" lon="4.78428">
        <ele>180</ele>
        <time>2017-06-14T08:03:34Z</time>
      </trkpt>
      <trkpt lat="45.93743" lon="4.78436">
        <ele>180</ele>
        <time>2017-06-14T08:03:35Z</time>
      </trkpt>
      <trkpt lat="45.93742" lon="4.78446">
        <ele>180</ele>
        <time>2017-06-14T08:03:36Z</time>
      </trkpt>
      <trkpt lat="45.9374" lon="4.78455">
        <ele>180</ele>
        <time>2017-06-14T08:03:37Z</time>
      </trkpt>
      <trkpt lat="45.93738" lon="4.78464">
        <ele>180</ele>
        <time>2017-06-14T08:03:38Z</time>
      </trkpt>
      <trkpt lat="45.93735" lon="4.78473">
        <ele>180</ele>
        <time>2017-06-14T08:03:39Z</time>
      </trkpt>
      <trkpt lat="45.93732" lon="4.78482">
        <ele>180</ele>
        <time>2017-06-14T08:03:40Z</time>
      </trkpt>
      <trkpt lat="45.9373" lon="4.78492">
        <ele>180</ele>
        <time>2017-06-14T08:03:41Z</time>
      </trkpt>
      <trkpt lat="45.93728" lon="4.78501">
        <ele>179</ele>
        <time>2017-06-14T08:03:42Z</time>
      </trkpt>
      <trkpt lat="45.93726" lon="4.78511">
        <ele>179</ele>
        <time>2017-06-14T08:03:43Z</time>
      </trkpt>
      <trkpt lat="45.93724" lon="4.7852">
        <ele>179</ele>
        <time>2017-06-14T08:03:44Z</time>
      </trkpt>
      <trkpt lat="45.93721" lon="4.7853">
        <ele>178</ele>
        <time>2017-06-14T08:03:45Z</time>
      </trkpt>
      <trkpt lat="45.9372" lon="4.78539">
        <ele>178</ele>
        <time>2017-06-14T08:03:46Z</time>
      </trkpt>
      <trkpt lat="45.93718" lon="4.78548">
        <ele>178</ele>
        <time>2017-06-14T08:03:47Z</time>
      </trkpt>
      <trkpt lat="45.93716" lon="4.78558">
        <ele>178</ele>
        <time>2017-06-14T08:03:48Z</time>
      </trkpt>
      <trkpt lat="45.93714" lon="4.78567">
        <ele>178</ele>
        <time>2017-06-14T08:03:49Z</time>
      </trkpt>
      <trkpt lat="45.93712" lon="4.78576">
        <ele>177</ele>
        <time>2017-06-14T08:03:50Z</time>
      </trkpt>
      <trkpt lat="45.93709" lon="4.78585">
        <ele>176</ele>
        <time>2017-06-14T08:03:51Z</time>
      </trkpt>
      <trkpt lat="45.93707" lon="4.78594">
        <ele>176</ele>
        <time>2017-06-14T08:03:52Z</time>
      </trkpt>
      <trkpt lat="45.93705" lon="4.78602">
        <ele>176</ele>
        <time>2017-06-14T08:03:53Z</time>
      </trkpt>
      <trkpt lat="45.93703" lon="4.78608">
        <ele>176</ele>
        <time>2017-06-14T08:03:54Z</time>
      </trkpt>
      <trkpt lat="45.93701" lon="4.78615">
        <ele>176</ele>
        <time>2017-06-14T08:03:55Z</time>
      </trkpt>
      <trkpt lat="45.93699" lon="4.78621">
        <ele>176</ele>
        <time>2017-06-14T08:03:56Z</time>
      </trkpt>
      <trkpt lat="45.93699" lon="4.78629">
        <ele>176</ele>
        <time>2017-06-14T08:03:57Z</time>
      </trkpt>
      <trkpt lat="45.93701" lon="4.78635">
        <ele>176</ele>
        <time>2017-06-14T08:03:58Z</time>
      </trkpt>
      <trkpt lat="45.93708" lon="4.78638">
        <ele>176</ele>
        <time>2017-06-14T08:04:00Z</time>
      </trkpt>
      <trkpt lat="45.93711" lon="4.78637">
        <ele>176</ele>
        <time>2017-06-14T08:04:01Z</time>
      </trkpt>
      <trkpt lat="45.93718" lon="4.78634">
        <ele>176</ele>
        <time>2017-06-14T08:04:03Z</time>
      </trkpt>
      <trkpt lat="45.93721" lon="4.78633">
        <ele>177</ele>
        <time>2017-06-14T08:04:04Z</time>
      </trkpt>
      <trkpt lat="45.93729" lon="4.7863">
        <ele>177</ele>
        <time>2017-06-14T08:04:07Z</time>
      </trkpt>
      <trkpt lat="45.93732" lon="4.7863">
        <ele>177</ele>
        <time>2017-06-14T08:04:08Z</time>
      </trkpt>
      <trkpt lat="45.93741" lon="4.7863">
        <ele>177</ele>
        <time>2017-06-14T08:04:11Z</time>
      </trkpt>
      <trkpt lat="45.93744" lon="4.7863">
        <ele>177</ele>
        <time>2017-06-14T08:04:12Z</time>
      </trkpt>
      <trkpt lat="45.93753" lon="4.78628">
        <ele>181</ele>
        <time>2017-06-14T08:04:15Z</time>
      </trkpt>
      <trkpt lat="45.93756" lon="4.78627">
        <ele>181</ele>
        <time>2017-06-14T08:04:16Z</time>
      </trkpt>
      <trkpt lat="45.93762" lon="4.78626">
        <ele>181</ele>
        <time>2017-06-14T08:04:18Z</time>
      </trkpt>
      <trkpt lat="45.93765" lon="4.78626">
        <ele>181</ele>
        <time>2017-06-14T08:04:19Z</time>
      </trkpt>
      <trkpt lat="45.93772" lon="4.78626">
        <ele>181</ele>
        <time>2017-06-14T08:04:21Z</time>
      </trkpt>
      <trkpt lat="45.93775" lon="4.78625">
        <ele>181</ele>
        <time>2017-06-14T08:04:22Z</time>
      </trkpt>
      <trkpt lat="45.93783" lon="4.78623">
        <ele>181</ele>
        <time>2017-06-14T08:04:25Z</time>
      </trkpt>
      <trkpt lat="45.93786" lon="4.78622">
        <ele>182</ele>
        <time>2017-06-14T08:04:26Z</time>
      </trkpt>
      <trkpt lat="45.93793" lon="4.7862">
        <ele>182</ele>
        <time>2017-06-14T08:04:28Z</time>
      </trkpt>
      <trkpt lat="45.93796" lon="4.7862">
        <ele>182</ele>
        <time>2017-06-14T08:04:29Z</time>
      </trkpt>
      <trkpt lat="45.93802" lon="4.78618">
        <ele>182</ele>
        <time>2017-06-14T08:04:31Z</time>
      </trkpt>
      <trkpt lat="45.93805" lon="4.78617">
        <ele>182</ele>
        <time>2017-06-14T08:04:32Z</time>
      </trkpt>
      <trkpt lat="45.93811" lon="4.78615">
        <ele>183</ele>
        <time>2017-06-14T08:04:34Z</time>
      </trkpt>
      <trkpt lat="45.93814" lon="4.78614">
        <ele>183</ele>
        <time>2017-06-14T08:04:35Z</time>
      </trkpt>
      <trkpt lat="45.9382" lon="4.78612">
        <ele>183</ele>
        <time>2017-06-14T08:04:37Z</time>
      </trkpt>
      <trkpt lat="45.93823" lon="4.78611">
        <ele>183</ele>
        <time>2017-06-14T08:04:38Z</time>
      </trkpt>
      <trkpt lat="45.93831" lon="4.78609">
        <ele>184</ele>
        <time>2017-06-14T08:04:41Z</time>
      </trkpt>
      <trkpt lat="45.93833" lon="4.78608">
        <ele>184</ele>
        <time>2017-06-14T08:04:42Z</time>
      </trkpt>
      <trkpt lat="45.93842" lon="4.78605">
        <ele>188</ele>
        <time>2017-06-14T08:04:45Z</time>
      </trkpt>
      <trkpt lat="45.93844" lon="4.78604">
        <ele>188</ele>
        <time>2017-06-14T08:04:46Z</time>
      </trkpt>
      <trkpt lat="45.93852" lon="4.78603">
        <ele>188</ele>
        <time>2017-06-14T08:04:49Z</time>
      </trkpt>
      <trkpt lat="45.93853" lon="4.78603">
        <ele>188</ele>
        <time>2017-06-14T08:04:50Z</time>
      </trkpt>
      <trkpt lat="45.9386" lon="4.78602">
        <ele>188</ele>
        <time>2017-06-14T08:04:54Z</time>
      </trkpt>
      <trkpt lat="45.93863" lon="4.78601">
        <ele>188</ele>
        <time>2017-06-14T08:04:55Z</time>
      </trkpt>
      <trkpt lat="45.93871" lon="4.786">
        <ele>189</ele>
        <time>2017-06-14T08:04:58Z</time>
      </trkpt>
      <trkpt lat="45.93874" lon="4.786">
        <ele>189</ele>
        <time>2017-06-14T08:04:59Z</time>
      </trkpt>
      <trkpt lat="45.93881" lon="4.78599">
        <ele>189</ele>
        <time>2017-06-14T08:05:02Z</time>
      </trkpt>
      <trkpt lat="45.93883" lon="4.78599">
        <ele>189</ele>
        <time>2017-06-14T08:05:03Z</time>
      </trkpt>
      <trkpt lat="45.93889" lon="4.78597">
        <ele>190</ele>
        <time>2017-06-14T08:05:06Z</time>
      </trkpt>
      <trkpt lat="45.93892" lon="4.78596">
        <ele>190</ele>
        <time>2017-06-14T08:05:07Z</time>
      </trkpt>
      <trkpt lat="45.93899" lon="4.78593">
        <ele>190</ele>
        <time>2017-06-14T08:05:10Z</time>
      </trkpt>
      <trkpt lat="45.93901" lon="4.78593">
        <ele>191</ele>
        <time>2017-06-14T08:05:11Z</time>
      </trkpt>
      <trkpt lat="45.93909" lon="4.78592">
        <ele>191</ele>
        <time>2017-06-14T08:05:15Z</time>
      </trkpt>
      <trkpt lat="45.93911" lon="4.7859">
        <ele>192</ele>
        <time>2017-06-14T08:05:16Z</time>
      </trkpt>
      <trkpt lat="45.93917" lon="4.78585">
        <ele>193</ele>
        <time>2017-06-14T08:05:19Z</time>
      </trkpt>
      <trkpt lat="45.93919" lon="4.78583">
        <ele>193</ele>
        <time>2017-06-14T08:05:20Z</time>
      </trkpt>
      <trkpt lat="45.93925" lon="4.78581">
        <ele>195</ele>
        <time>2017-06-14T08:05:22Z</time>
      </trkpt>
      <trkpt lat="45.93928" lon="4.7858">
        <ele>195</ele>
        <time>2017-06-14T08:05:23Z</time>
      </trkpt>
      <trkpt lat="45.93932" lon="4.78587">
        <ele>195</ele>
        <time>2017-06-14T08:05:28Z</time>
      </trkpt>
      <trkpt lat="45.93933" lon="4.7859">
        <ele>195</ele>
        <time>2017-06-14T08:05:29Z</time>
      </trkpt>
      <trkpt lat="45.93934" lon="4.78602">
        <ele>195</ele>
        <time>2017-06-14T08:05:33Z</time>
      </trkpt>
      <trkpt lat="45.93934" lon="4.78605">
        <ele>195</ele>
        <time>2017-06-14T08:05:34Z</time>
      </trkpt>
      <trkpt lat="45.93934" lon="4.78617">
        <ele>195</ele>
        <time>2017-06-14T08:05:37Z</time>
      </trkpt>
      <trkpt lat="45.93934" lon="4.78622">
        <ele>195</ele>
        <time>2017-06-14T08:05:38Z</time>
      </trkpt>
      <trkpt lat="45.93934" lon="4.78632">
        <ele>195</ele>
        <time>2017-06-14T08:05:40Z</time>
      </trkpt>
      <trkpt lat="45.93934" lon="4.78637">
        <ele>195</ele>
        <time>2017-06-14T08:05:41Z</time>
      </trkpt>
      <trkpt lat="45.93933" lon="4.78646">
        <ele>194</ele>
        <time>2017-06-14T08:05:43Z</time>
      </trkpt>
      <trkpt lat="45.93933" lon="4.7865">
        <ele>194</ele>
        <time>2017-06-14T08:05:44Z</time>
      </trkpt>
      <trkpt lat="45.93934" lon="4.7866">
        <ele>194</ele>
        <time>2017-06-14T08:05:46Z</time>
      </trkpt>
      <trkpt lat="45.93934" lon="4.78665">
        <ele>193</ele>
        <time>2017-06-14T08:05:47Z</time>
      </trkpt>
      <trkpt lat="45.93934" lon="4.78676">
        <ele>193</ele>
        <time>2017-06-14T08:05:49Z</time>
      </trkpt>
      <trkpt lat="45.93935" lon="4.78682">
        <ele>193</ele>
        <time>2017-06-14T08:05:50Z</time>
      </trkpt>
      <trkpt lat="45.93936" lon="4.78693">
        <ele>194</ele>
        <time>2017-06-14T08:05:52Z</time>
      </trkpt>
      <trkpt lat="45.93937" lon="4.78699">
        <ele>194</ele>
        <time>2017-06-14T08:05:53Z</time>
      </trkpt>
      <trkpt lat="45.93933" lon="4.78708">
        <ele>194</ele>
        <time>2017-06-14T08:05:55Z</time>
      </trkpt>
      <trkpt lat="45.93933" lon="4.78714">
        <ele>194</ele>
        <time>2017-06-14T08:05:56Z</time>
      </trkpt>
      <trkpt lat="45.93934" lon="4.78725">
        <ele>194</ele>
        <time>2017-06-14T08:05:58Z</time>
      </trkpt>
      <trkpt lat="45.93934" lon="4.78729">
        <ele>193</ele>
        <time>2017-06-14T08:05:59Z</time>
      </trkpt>
      <trkpt lat="45.93934" lon="4.7874">
        <ele>193</ele>
        <time>2017-06-14T08:06:01Z</time>
      </trkpt>
      <trkpt lat="45.93934" lon="4.78746">
        <ele>193</ele>
        <time>2017-06-14T08:06:02Z</time>
      </trkpt>
      <trkpt lat="45.93934" lon="4.78759">
        <ele>193</ele>
        <time>2017-06-14T08:06:04Z</time>
      </trkpt>
      <trkpt lat="45.93933" lon="4.78765">
        <ele>193</ele>
        <time>2017-06-14T08:06:05Z</time>
      </trkpt>
      <trkpt lat="45.93934" lon="4.78778">
        <ele>194</ele>
        <time>2017-06-14T08:06:07Z</time>
      </trkpt>
      <trkpt lat="45.93934" lon="4.78784">
        <ele>194</ele>
        <time>2017-06-14T08:06:08Z</time>
      </trkpt>
      <trkpt lat="45.93934" lon="4.78796">
        <ele>194</ele>
        <time>2017-06-14T08:06:10Z</time>
      </trkpt>
      <trkpt lat="45.93935" lon="4.78801">
        <ele>194</ele>
        <time>2017-06-14T08:06:11Z</time>
      </trkpt>
      <trkpt lat="45.93935" lon="4.78813">
        <ele>194</ele>
        <time>2017-06-14T08:06:13Z</time>
      </trkpt>
      <trkpt lat="45.93935" lon="4.78819">
        <ele>193</ele>
        <time>2017-06-14T08:06:14Z</time>
      </trkpt>
      <trkpt lat="45.93936" lon="4.78826">
        <ele>193</ele>
        <time>2017-06-14T08:06:15Z</time>
      </trkpt>
      <trkpt lat="45.93936" lon="4.78832">
        <ele>193</ele>
        <time>2017-06-14T08:06:16Z</time>
      </trkpt>
      <trkpt lat="45.93936" lon="4.78844">
        <ele>193</ele>
        <time>2017-06-14T08:06:18Z</time>
      </trkpt>
      <trkpt lat="45.93937" lon="4.78849">
        <ele>193</ele>
        <time>2017-06-14T08:06:19Z</time>
      </trkpt>
      <trkpt lat="45.93937" lon="4.78862">
        <ele>194</ele>
        <time>2017-06-14T08:06:21Z</time>
      </trkpt>
      <trkpt lat="45.93937" lon="4.78868">
        <ele>194</ele>
        <time>2017-06-14T08:06:22Z</time>
      </trkpt>
      <trkpt lat="45.93937" lon="4.78875">
        <ele>194</ele>
        <time>2017-06-14T08:06:23Z</time>
      </trkpt>
      <trkpt lat="45.93937" lon="4.78882">
        <ele>193</ele>
        <time>2017-06-14T08:06:24Z</time>
      </trkpt>
      <trkpt lat="45.93938" lon="4.78889">
        <ele>193</ele>
        <time>2017-06-14T08:06:25Z</time>
      </trkpt>
      <trkpt lat="45.93938" lon="4.78896">
        <ele>193</ele>
        <time>2017-06-14T08:06:26Z</time>
      </trkpt>
      <trkpt lat="45.93936" lon="4.78904">
        <ele>193</ele>
        <time>2017-06-14T08:06:27Z</time>
      </trkpt>
      <trkpt lat="45.93936" lon="4.7891">
        <ele>193</ele>
        <time>2017-06-14T08:06:28Z</time>
      </trkpt>
      <trkpt lat="45.93936" lon="4.78922">
        <ele>193</ele>
        <time>2017-06-14T08:06:30Z</time>
      </trkpt>
      <trkpt lat="45.93936" lon="4.78927">
        <ele>193</ele>
        <time>2017-06-14T08:06:31Z</time>
      </trkpt>
      <trkpt lat="45.93936" lon="4.78937">
        <ele>193</ele>
        <time>2017-06-14T08:06:33Z</time>
      </trkpt>
      <trkpt lat="45.93936" lon="4.78943">
        <ele>193</ele>
        <time>2017-06-14T08:06:34Z</time>
      </trkpt>
      <trkpt lat="45.93937" lon="4.78954">
        <ele>194</ele>
        <time>2017-06-14T08:06:36Z</time>
      </trkpt>
      <trkpt lat="45.93937" lon="4.78961">
        <ele>194</ele>
        <time>2017-06-14T08:06:37Z</time>
      </trkpt>
      <trkpt lat="45.93938" lon="4.78973">
        <ele>194</ele>
        <time>2017-06-14T08:06:39Z</time>
      </trkpt>
      <trkpt lat="45.93938" lon="4.78979">
        <ele>193</ele>
        <time>2017-06-14T08:06:40Z</time>
      </trkpt>
      <trkpt lat="45.93939" lon="4.7899">
        <ele>193</ele>
        <time>2017-06-14T08:06:42Z</time>
      </trkpt>
      <trkpt lat="45.93939" lon="4.78995">
        <ele>193</ele>
        <time>2017-06-14T08:06:43Z</time>
      </trkpt>
      <trkpt lat="45.9394" lon="4.79007">
        <ele>194</ele>
        <time>2017-06-14T08:06:45Z</time>
      </trkpt>
      <trkpt lat="45.93941" lon="4.79012">
        <ele>194</ele>
        <time>2017-06-14T08:06:46Z</time>
      </trkpt>
      <trkpt lat="45.93941" lon="4.79025">
        <ele>195</ele>
        <time>2017-06-14T08:06:48Z</time>
      </trkpt>
      <trkpt lat="45.93942" lon="4.79031">
        <ele>195</ele>
        <time>2017-06-14T08:06:49Z</time>
      </trkpt>
      <trkpt lat="45.93942" lon="4.79043">
        <ele>195</ele>
        <time>2017-06-14T08:06:51Z</time>
      </trkpt>
      <trkpt lat="45.93942" lon="4.79048">
        <ele>195</ele>
        <time>2017-06-14T08:06:52Z</time>
      </trkpt>
      <trkpt lat="45.93944" lon="4.79059">
        <ele>195</ele>
        <time>2017-06-14T08:06:54Z</time>
      </trkpt>
      <trkpt lat="45.93943" lon="4.79066">
        <ele>195</ele>
        <time>2017-06-14T08:06:55Z</time>
      </trkpt>
      <trkpt lat="45.93944" lon="4.79077">
        <ele>195</ele>
        <time>2017-06-14T08:06:57Z</time>
      </trkpt>
      <trkpt lat="45.93945" lon="4.79084">
        <ele>196</ele>
        <time>2017-06-14T08:06:58Z</time>
      </trkpt>
      <trkpt lat="45.93944" lon="4.79091">
        <ele>196</ele>
        <time>2017-06-14T08:06:59Z</time>
      </trkpt>
      <trkpt lat="45.93945" lon="4.79097">
        <ele>196</ele>
        <time>2017-06-14T08:07:00Z</time>
      </trkpt>
      <trkpt lat="45.93945" lon="4.7911">
        <ele>196</ele>
        <time>2017-06-14T08:07:02Z</time>
      </trkpt>
      <trkpt lat="45.93945" lon="4.79116">
        <ele>196</ele>
        <time>2017-06-14T08:07:03Z</time>
      </trkpt>
      <trkpt lat="45.93944" lon="4.79126">
        <ele>196</ele>
        <time>2017-06-14T08:07:05Z</time>
      </trkpt>
      <trkpt lat="45.93945" lon="4.79132">
        <ele>196</ele>
        <time>2017-06-14T08:07:06Z</time>
      </trkpt>
      <trkpt lat="45.93945" lon="4.79142">
        <ele>196</ele>
        <time>2017-06-14T08:07:08Z</time>
      </trkpt>
      <trkpt lat="45.93945" lon="4.79148">
        <ele>196</ele>
        <time>2017-06-14T08:07:09Z</time>
      </trkpt>
      <trkpt lat="45.93946" lon="4.7916">
        <ele>196</ele>
        <time>2017-06-14T08:07:11Z</time>
      </trkpt>
      <trkpt lat="45.93946" lon="4.79166">
        <ele>196</ele>
        <time>2017-06-14T08:07:12Z</time>
      </trkpt>
      <trkpt lat="45.93946" lon="4.79179">
        <ele>196</ele>
        <time>2017-06-14T08:07:14Z</time>
      </trkpt>
      <trkpt lat="45.93947" lon="4.79184">
        <ele>196</ele>
        <time>2017-06-14T08:07:15Z</time>
      </trkpt>
      <trkpt lat="45.93947" lon="4.79195">
        <ele>197</ele>
        <time>2017-06-14T08:07:17Z</time>
      </trkpt>
      <trkpt lat="45.93947" lon="4.792">
        <ele>197</ele>
        <time>2017-06-14T08:07:18Z</time>
      </trkpt>
      <trkpt lat="45.93948" lon="4.79209">
        <ele>197</ele>
        <time>2017-06-14T08:07:20Z</time>
      </trkpt>
      <trkpt lat="45.93947" lon="4.79214">
        <ele>197</ele>
        <time>2017-06-14T08:07:21Z</time>
      </trkpt>
      <trkpt lat="45.93947" lon="4.79225">
        <ele>197</ele>
        <time>2017-06-14T08:07:23Z</time>
      </trkpt>
      <trkpt lat="45.93947" lon="4.79231">
        <ele>197</ele>
        <time>2017-06-14T08:07:24Z</time>
      </trkpt>
      <trkpt lat="45.93947" lon="4.79238">
        <ele>196</ele>
        <time>2017-06-14T08:07:25Z</time>
      </trkpt>
      <trkpt lat="45.93948" lon="4.79245">
        <ele>196</ele>
        <time>2017-06-14T08:07:26Z</time>
      </trkpt>
      <trkpt lat="45.93948" lon="4.79255">
        <ele>197</ele>
        <time>2017-06-14T08:07:28Z</time>
      </trkpt>
      <trkpt lat="45.93948" lon="4.7926">
        <ele>197</ele>
        <time>2017-06-14T08:07:29Z</time>
      </trkpt>
      <trkpt lat="45.93947" lon="4.7927">
        <ele>197</ele>
        <time>2017-06-14T08:07:31Z</time>
      </trkpt>
      <trkpt lat="45.93947" lon="4.79276">
        <ele>198</ele>
        <time>2017-06-14T08:07:32Z</time>
      </trkpt>
      <trkpt lat="45.93947" lon="4.79286">
        <ele>198</ele>
        <time>2017-06-14T08:07:34Z</time>
      </trkpt>
      <trkpt lat="45.93948" lon="4.79292">
        <ele>198</ele>
        <time>2017-06-14T08:07:35Z</time>
      </trkpt>
      <trkpt lat="45.93948" lon="4.79303">
        <ele>198</ele>
        <time>2017-06-14T08:07:37Z</time>
      </trkpt>
      <trkpt lat="45.93948" lon="4.79308">
        <ele>198</ele>
        <time>2017-06-14T08:07:38Z</time>
      </trkpt>
      <trkpt lat="45.93947" lon="4.79319">
        <ele>198</ele>
        <time>2017-06-14T08:07:40Z</time>
      </trkpt>
      <trkpt lat="45.93947" lon="4.79323">
        <ele>198</ele>
        <time>2017-06-14T08:07:41Z</time>
      </trkpt>
      <trkpt lat="45.93948" lon="4.79334">
        <ele>200</ele>
        <time>2017-06-14T08:07:43Z</time>
      </trkpt>
      <trkpt lat="45.93948" lon="4.79339">
        <ele>200</ele>
        <time>2017-06-14T08:07:44Z</time>
      </trkpt>
      <trkpt lat="45.93949" lon="4.79348">
        <ele>200</ele>
        <time>2017-06-14T08:07:46Z</time>
      </trkpt>
      <trkpt lat="45.93949" lon="4.79353">
        <ele>200</ele>
        <time>2017-06-14T08:07:47Z</time>
      </trkpt>
      <trkpt lat="45.93948" lon="4.79363">
        <ele>200</ele>
        <time>2017-06-14T08:07:49Z</time>
      </trkpt>
      <trkpt lat="45.93949" lon="4.79367">
        <ele>200</ele>
        <time>2017-06-14T08:07:50Z</time>
      </trkpt>
      <trkpt lat="45.93949" lon="4.79377">
        <ele>201</ele>
        <time>2017-06-14T08:07:52Z</time>
      </trkpt>
      <trkpt lat="45.93948" lon="4.79383">
        <ele>201</ele>
        <time>2017-06-14T08:07:53Z</time>
      </trkpt>
      <trkpt lat="45.93948" lon="4.79393">
        <ele>201</ele>
        <time>2017-06-14T08:07:55Z</time>
      </trkpt>
      <trkpt lat="45.93947" lon="4.79398">
        <ele>201</ele>
        <time>2017-06-14T08:07:56Z</time>
      </trkpt>
      <trkpt lat="45.93947" lon="4.79408">
        <ele>200</ele>
        <time>2017-06-14T08:07:58Z</time>
      </trkpt>
      <trkpt lat="45.93947" lon="4.79412">
        <ele>200</ele>
        <time>2017-06-14T08:07:59Z</time>
      </trkpt>
      <trkpt lat="45.93947" lon="4.79425">
        <ele>202</ele>
        <time>2017-06-14T08:08:02Z</time>
      </trkpt>
      <trkpt lat="45.93947" lon="4.79428">
        <ele>202</ele>
        <time>2017-06-14T08:08:03Z</time>
      </trkpt>
      <trkpt lat="45.93947" lon="4.7944">
        <ele>202</ele>
        <time>2017-06-14T08:08:06Z</time>
      </trkpt>
      <trkpt lat="45.93946" lon="4.79446">
        <ele>202</ele>
        <time>2017-06-14T08:08:07Z</time>
      </trkpt>
      <trkpt lat="45.93946" lon="4.79455">
        <ele>202</ele>
        <time>2017-06-14T08:08:09Z</time>
      </trkpt>
      <trkpt lat="45.93946" lon="4.7946">
        <ele>202</ele>
        <time>2017-06-14T08:08:10Z</time>
      </trkpt>
      <trkpt lat="45.93946" lon="4.79471">
        <ele>202</ele>
        <time>2017-06-14T08:08:12Z</time>
      </trkpt>
      <trkpt lat="45.93945" lon="4.79477">
        <ele>202</ele>
        <time>2017-06-14T08:08:13Z</time>
      </trkpt>
      <trkpt lat="45.93945" lon="4.79487">
        <ele>202</ele>
        <time>2017-06-14T08:08:15Z</time>
      </trkpt>
      <trkpt lat="45.93945" lon="4.79492">
        <ele>202</ele>
        <time>2017-06-14T08:08:16Z</time>
      </trkpt>
      <trkpt lat="45.93946" lon="4.79502">
        <ele>203</ele>
        <time>2017-06-14T08:08:18Z</time>
      </trkpt>
      <trkpt lat="45.93947" lon="4.79506">
        <ele>203</ele>
        <time>2017-06-14T08:08:19Z</time>
      </trkpt>
      <trkpt lat="45.93948" lon="4.79516">
        <ele>203</ele>
        <time>2017-06-14T08:08:21Z</time>
      </trkpt>
      <trkpt lat="45.93948" lon="4.79521">
        <ele>204</ele>
        <time>2017-06-14T08:08:22Z</time>
      </trkpt>
      <trkpt lat="45.93949" lon="4.79529">
        <ele>204</ele>
        <time>2017-06-14T08:08:24Z</time>
      </trkpt>
      <trkpt lat="45.93949" lon="4.79534">
        <ele>204</ele>
        <time>2017-06-14T08:08:25Z</time>
      </trkpt>
      <trkpt lat="45.9395" lon="4.79543">
        <ele>204</ele>
        <time>2017-06-14T08:08:27Z</time>
      </trkpt>
      <trkpt lat="45.9395" lon="4.79549">
        <ele>205</ele>
        <time>2017-06-14T08:08:28Z</time>
      </trkpt>
      <trkpt lat="45.93952" lon="4.7956">
        <ele>205</ele>
        <time>2017-06-14T08:08:30Z</time>
      </trkpt>
      <trkpt lat="45.93953" lon="4.79565">
        <ele>205</ele>
        <time>2017-06-14T08:08:31Z</time>
      </trkpt>
      <trkpt lat="45.93953" lon="4.79575">
        <ele>205</ele>
        <time>2017-06-14T08:08:33Z</time>
      </trkpt>
      <trkpt lat="45.93954" lon="4.7958">
        <ele>205</ele>
        <time>2017-06-14T08:08:34Z</time>
      </trkpt>
      <trkpt lat="45.93954" lon="4.79589">
        <ele>206</ele>
        <time>2017-06-14T08:08:36Z</time>
      </trkpt>
      <trkpt lat="45.93955" lon="4.79594">
        <ele>206</ele>
        <time>2017-06-14T08:08:37Z</time>
      </trkpt>
      <trkpt lat="45.93955" lon="4.79603">
        <ele>206</ele>
        <time>2017-06-14T08:08:39Z</time>
      </trkpt>
      <trkpt lat="45.93956" lon="4.79607">
        <ele>206</ele>
        <time>2017-06-14T08:08:40Z</time>
      </trkpt>
      <trkpt lat="45.93956" lon="4.79617">
        <ele>207</ele>
        <time>2017-06-14T08:08:42Z</time>
      </trkpt>
      <trkpt lat="45.93956" lon="4.79622">
        <ele>207</ele>
        <time>2017-06-14T08:08:43Z</time>
      </trkpt>
      <trkpt lat="45.93956" lon="4.79632">
        <ele>207</ele>
        <time>2017-06-14T08:08:45Z</time>
      </trkpt>
      <trkpt lat="45.93956" lon="4.79637">
        <ele>207</ele>
        <time>2017-06-14T08:08:46Z</time>
      </trkpt>
      <trkpt lat="45.93956" lon="4.79647">
        <ele>207</ele>
        <time>2017-06-14T08:08:48Z</time>
      </trkpt>
      <trkpt lat="45.93957" lon="4.79651">
        <ele>207</ele>
        <time>2017-06-14T08:08:49Z</time>
      </trkpt>
      <trkpt lat="45.93958" lon="4.79659">
        <ele>207</ele>
        <time>2017-06-14T08:08:51Z</time>
      </trkpt>
      <trkpt lat="45.93958" lon="4.79664">
        <ele>207</ele>
        <time>2017-06-14T08:08:52Z</time>
      </trkpt>
      <trkpt lat="45.9396" lon="4.79673">
        <ele>207</ele>
        <time>2017-06-14T08:08:54Z</time>
      </trkpt>
      <trkpt lat="45.9396" lon="4.79679">
        <ele>207</ele>
        <time>2017-06-14T08:08:55Z</time>
      </trkpt>
      <trkpt lat="45.93961" lon="4.79688">
        <ele>207</ele>
        <time>2017-06-14T08:08:57Z</time>
      </trkpt>
      <trkpt lat="45.93962" lon="4.79694">
        <ele>207</ele>
        <time>2017-06-14T08:08:58Z</time>
      </trkpt>
      <trkpt lat="45.93963" lon="4.79701">
        <ele>207</ele>
        <time>2017-06-14T08:08:59Z</time>
      </trkpt>
      <trkpt lat="45.93964" lon="4.79707">
        <ele>207</ele>
        <time>2017-06-14T08:09:00Z</time>
      </trkpt>
      <trkpt lat="45.93965" lon="4.79717">
        <ele>206</ele>
        <time>2017-06-14T08:09:02Z</time>
      </trkpt>
      <trkpt lat="45.93965" lon="4.79722">
        <ele>206</ele>
        <time>2017-06-14T08:09:03Z</time>
      </trkpt>
      <trkpt lat="45.93966" lon="4.79733">
        <ele>206</ele>
        <time>2017-06-14T08:09:05Z</time>
      </trkpt>
      <trkpt lat="45.93966" lon="4.79738">
        <ele>206</ele>
        <time>2017-06-14T08:09:06Z</time>
      </trkpt>
      <trkpt lat="45.93966" lon="4.79749">
        <ele>206</ele>
        <time>2017-06-14T08:09:08Z</time>
      </trkpt>
      <trkpt lat="45.93967" lon="4.79755">
        <ele>206</ele>
        <time>2017-06-14T08:09:09Z</time>
      </trkpt>
      <trkpt lat="45.93968" lon="4.79767">
        <ele>206</ele>
        <time>2017-06-14T08:09:11Z</time>
      </trkpt>
      <trkpt lat="45.93969" lon="4.79773">
        <ele>206</ele>
        <time>2017-06-14T08:09:12Z</time>
      </trkpt>
      <trkpt lat="45.93969" lon="4.79786">
        <ele>206</ele>
        <time>2017-06-14T08:09:14Z</time>
      </trkpt>
      <trkpt lat="45.93969" lon="4.79792">
        <ele>206</ele>
        <time>2017-06-14T08:09:15Z</time>
      </trkpt>
      <trkpt lat="45.93969" lon="4.79804">
        <ele>206</ele>
        <time>2017-06-14T08:09:17Z</time>
      </trkpt>
      <trkpt lat="45.93968" lon="4.79809">
        <ele>206</ele>
        <time>2017-06-14T08:09:18Z</time>
      </trkpt>
      <trkpt lat="45.93967" lon="4.79821">
        <ele>207</ele>
        <time>2017-06-14T08:09:20Z</time>
      </trkpt>
      <trkpt lat="45.93966" lon="4.79826">
        <ele>207</ele>
        <time>2017-06-14T08:09:21Z</time>
      </trkpt>
      <trkpt lat="45.93964" lon="4.79838">
        <ele>206</ele>
        <time>2017-06-14T08:09:23Z</time>
      </trkpt>
      <trkpt lat="45.93963" lon="4.79845">
        <ele>206</ele>
        <time>2017-06-14T08:09:24Z</time>
      </trkpt>
      <trkpt lat="45.93962" lon="4.79851">
        <ele>206</ele>
        <time>2017-06-14T08:09:25Z</time>
      </trkpt>
      <trkpt lat="45.93961" lon="4.79858">
        <ele>206</ele>
        <time>2017-06-14T08:09:26Z</time>
      </trkpt>
      <trkpt lat="45.9396" lon="4.79864">
        <ele>206</ele>
        <time>2017-06-14T08:09:27Z</time>
      </trkpt>
      <trkpt lat="45.93958" lon="4.7987">
        <ele>206</ele>
        <time>2017-06-14T08:09:28Z</time>
      </trkpt>
      <trkpt lat="45.93956" lon="4.79882">
        <ele>206</ele>
        <time>2017-06-14T08:09:30Z</time>
      </trkpt>
      <trkpt lat="45.93955" lon="4.79888">
        <ele>205</ele>
        <time>2017-06-14T08:09:31Z</time>
      </trkpt>
      <trkpt lat="45.93952" lon="4.799">
        <ele>205</ele>
        <time>2017-06-14T08:09:33Z</time>
      </trkpt>
      <trkpt lat="45.93951" lon="4.79905">
        <ele>205</ele>
        <time>2017-06-14T08:09:34Z</time>
      </trkpt>
      <trkpt lat="45.9395" lon="4.79912">
        <ele>205</ele>
        <time>2017-06-14T08:09:35Z</time>
      </trkpt>
      <trkpt lat="45.93949" lon="4.79919">
        <ele>205</ele>
        <time>2017-06-14T08:09:36Z</time>
      </trkpt>
      <trkpt lat="45.93948" lon="4.79926">
        <ele>205</ele>
        <time>2017-06-14T08:09:37Z</time>
      </trkpt>
      <trkpt lat="45.93947" lon="4.79933">
        <ele>205</ele>
        <time>2017-06-14T08:09:38Z</time>
      </trkpt>
      <trkpt lat="45.93946" lon="4.7994">
        <ele>205</ele>
        <time>2017-06-14T08:09:39Z</time>
      </trkpt>
      <trkpt lat="45.93945" lon="4.79947">
        <ele>205</ele>
        <time>2017-06-14T08:09:40Z</time>
      </trkpt>
      <trkpt lat="45.93943" lon="4.79953">
        <ele>205</ele>
        <time>2017-06-14T08:09:41Z</time>
      </trkpt>
      <trkpt lat="45.93943" lon="4.79959">
        <ele>205</ele>
        <time>2017-06-14T08:09:42Z</time>
      </trkpt>
      <trkpt lat="45.93941" lon="4.79971">
        <ele>205</ele>
        <time>2017-06-14T08:09:44Z</time>
      </trkpt>
      <trkpt lat="45.9394" lon="4.79978">
        <ele>204</ele>
        <time>2017-06-14T08:09:45Z</time>
      </trkpt>
      <trkpt lat="45.9394" lon="4.79984">
        <ele>204</ele>
        <time>2017-06-14T08:09:46Z</time>
      </trkpt>
      <trkpt lat="45.93939" lon="4.79991">
        <ele>204</ele>
        <time>2017-06-14T08:09:47Z</time>
      </trkpt>
      <trkpt lat="45.93938" lon="4.79998">
        <ele>204</ele>
        <time>2017-06-14T08:09:48Z</time>
      </trkpt>
      <trkpt lat="45.93937" lon="4.80006">
        <ele>205</ele>
        <time>2017-06-14T08:09:49Z</time>
      </trkpt>
      <trkpt lat="45.93936" lon="4.80013">
        <ele>205</ele>
        <time>2017-06-14T08:09:50Z</time>
      </trkpt>
      <trkpt lat="45.93935" lon="4.8002">
        <ele>206</ele>
        <time>2017-06-14T08:09:51Z</time>
      </trkpt>
      <trkpt lat="45.93934" lon="4.80027">
        <ele>206</ele>
        <time>2017-06-14T08:09:52Z</time>
      </trkpt>
      <trkpt lat="45.93934" lon="4.80033">
        <ele>206</ele>
        <time>2017-06-14T08:09:53Z</time>
      </trkpt>
      <trkpt lat="45.93933" lon="4.80046">
        <ele>207</ele>
        <time>2017-06-14T08:09:55Z</time>
      </trkpt>
      <trkpt lat="45.93932" lon="4.80052">
        <ele>207</ele>
        <time>2017-06-14T08:09:56Z</time>
      </trkpt>
      <trkpt lat="45.93932" lon="4.80064">
        <ele>207</ele>
        <time>2017-06-14T08:09:58Z</time>
      </trkpt>
      <trkpt lat="45.93932" lon="4.80071">
        <ele>207</ele>
        <time>2017-06-14T08:09:59Z</time>
      </trkpt>
      <trkpt lat="45.93932" lon="4.80078">
        <ele>207</ele>
        <time>2017-06-14T08:10:00Z</time>
      </trkpt>
      <trkpt lat="45.93932" lon="4.80085">
        <ele>207</ele>
        <time>2017-06-14T08:10:01Z</time>
      </trkpt>
      <trkpt lat="45.93933" lon="4.80092">
        <ele>207</ele>
        <time>2017-06-14T08:10:02Z</time>
      </trkpt>
      <trkpt lat="45.93933" lon="4.80099">
        <ele>208</ele>
        <time>2017-06-14T08:10:03Z</time>
      </trkpt>
      <trkpt lat="45.93933" lon="4.80106">
        <ele>208</ele>
        <time>2017-06-14T08:10:04Z</time>
      </trkpt>
      <trkpt lat="45.93933" lon="4.80113">
        <ele>208</ele>
        <time>2017-06-14T08:10:05Z</time>
      </trkpt>
      <trkpt lat="45.93936" lon="4.80125">
        <ele>208</ele>
        <time>2017-06-14T08:10:07Z</time>
      </trkpt>
      <trkpt lat="45.93937" lon="4.80132">
        <ele>208</ele>
        <time>2017-06-14T08:10:08Z</time>
      </trkpt>
      <trkpt lat="45.93939" lon="4.80144">
        <ele>208</ele>
        <time>2017-06-14T08:10:10Z</time>
      </trkpt>
      <trkpt lat="45.93939" lon="4.8015">
        <ele>208</ele>
        <time>2017-06-14T08:10:11Z</time>
      </trkpt>
      <trkpt lat="45.93942" lon="4.80162">
        <ele>208</ele>
        <time>2017-06-14T08:10:13Z</time>
      </trkpt>
      <trkpt lat="45.93943" lon="4.80168">
        <ele>205</ele>
        <time>2017-06-14T08:10:14Z</time>
      </trkpt>
      <trkpt lat="45.93944" lon="4.80174">
        <ele>205</ele>
        <time>2017-06-14T08:10:15Z</time>
      </trkpt>
      <trkpt lat="45.93945" lon="4.80181">
        <ele>205</ele>
        <time>2017-06-14T08:10:16Z</time>
      </trkpt>
      <trkpt lat="45.93946" lon="4.80187">
        <ele>205</ele>
        <time>2017-06-14T08:10:17Z</time>
      </trkpt>
      <trkpt lat="45.93948" lon="4.80194">
        <ele>205</ele>
        <time>2017-06-14T08:10:18Z</time>
      </trkpt>
      <trkpt lat="45.9395" lon="4.80201">
        <ele>205</ele>
        <time>2017-06-14T08:10:19Z</time>
      </trkpt>
      <trkpt lat="45.93951" lon="4.80208">
        <ele>205</ele>
        <time>2017-06-14T08:10:20Z</time>
      </trkpt>
      <trkpt lat="45.93953" lon="4.80215">
        <ele>205</ele>
        <time>2017-06-14T08:10:21Z</time>
      </trkpt>
      <trkpt lat="45.93955" lon="4.80222">
        <ele>205</ele>
        <time>2017-06-14T08:10:22Z</time>
      </trkpt>
      <trkpt lat="45.93957" lon="4.80228">
        <ele>204</ele>
        <time>2017-06-14T08:10:23Z</time>
      </trkpt>
      <trkpt lat="45.93958" lon="4.80235">
        <ele>204</ele>
        <time>2017-06-14T08:10:24Z</time>
      </trkpt>
      <trkpt lat="45.93961" lon="4.80246">
        <ele>204</ele>
        <time>2017-06-14T08:10:26Z</time>
      </trkpt>
      <trkpt lat="45.93963" lon="4.80251">
        <ele>202</ele>
        <time>2017-06-14T08:10:27Z</time>
      </trkpt>
      <trkpt lat="45.93966" lon="4.80261">
        <ele>202</ele>
        <time>2017-06-14T08:10:29Z</time>
      </trkpt>
      <trkpt lat="45.93967" lon="4.80266">
        <ele>202</ele>
        <time>2017-06-14T08:10:30Z</time>
      </trkpt>
      <trkpt lat="45.9397" lon="4.80277">
        <ele>202</ele>
        <time>2017-06-14T08:10:32Z</time>
      </trkpt>
      <trkpt lat="45.93971" lon="4.80282">
        <ele>202</ele>
        <time>2017-06-14T08:10:33Z</time>
      </trkpt>
      <trkpt lat="45.93973" lon="4.80291">
        <ele>203</ele>
        <time>2017-06-14T08:10:35Z</time>
      </trkpt>
      <trkpt lat="45.93974" lon="4.80296">
        <ele>203</ele>
        <time>2017-06-14T08:10:36Z</time>
      </trkpt>
      <trkpt lat="45.93977" lon="4.80306">
        <ele>203</ele>
        <time>2017-06-14T08:10:38Z</time>
      </trkpt>
      <trkpt lat="45.93978" lon="4.80311">
        <ele>203</ele>
        <time>2017-06-14T08:10:39Z</time>
      </trkpt>
      <trkpt lat="45.93981" lon="4.80321">
        <ele>203</ele>
        <time>2017-06-14T08:10:41Z</time>
      </trkpt>
      <trkpt lat="45.93983" lon="4.80326">
        <ele>204</ele>
        <time>2017-06-14T08:10:42Z</time>
      </trkpt>
      <trkpt lat="45.93986" lon="4.80337">
        <ele>206</ele>
        <time>2017-06-14T08:10:44Z</time>
      </trkpt>
      <trkpt lat="45.93987" lon="4.80343">
        <ele>206</ele>
        <time>2017-06-14T08:10:45Z</time>
      </trkpt>
      <trkpt lat="45.9399" lon="4.80353">
        <ele>206</ele>
        <time>2017-06-14T08:10:47Z</time>
      </trkpt>
      <trkpt lat="45.93992" lon="4.80359">
        <ele>206</ele>
        <time>2017-06-14T08:10:48Z</time>
      </trkpt>
      <trkpt lat="45.93995" lon="4.8037">
        <ele>207</ele>
        <time>2017-06-14T08:10:50Z</time>
      </trkpt>
      <trkpt lat="45.93997" lon="4.80375">
        <ele>208</ele>
        <time>2017-06-14T08:10:51Z</time>
      </trkpt>
      <trkpt lat="45.94" lon="4.80385">
        <ele>209</ele>
        <time>2017-06-14T08:10:53Z</time>
      </trkpt>
      <trkpt lat="45.94001" lon="4.8039">
        <ele>217</ele>
        <time>2017-06-14T08:10:54Z</time>
      </trkpt>
      <trkpt lat="45.94004" lon="4.80399">
        <ele>217</ele>
        <time>2017-06-14T08:10:56Z</time>
      </trkpt>
      <trkpt lat="45.94005" lon="4.80402">
        <ele>217</ele>
        <time>2017-06-14T08:10:57Z</time>
      </trkpt>
      <trkpt lat="45.94008" lon="4.80413">
        <ele>217</ele>
        <time>2017-06-14T08:11:00Z</time>
      </trkpt>
      <trkpt lat="45.94009" lon="4.80416">
        <ele>217</ele>
        <time>2017-06-14T08:11:01Z</time>
      </trkpt>
      <trkpt lat="45.94011" lon="4.80426">
        <ele>220</ele>
        <time>2017-06-14T08:11:04Z</time>
      </trkpt>
      <trkpt lat="45.94011" lon="4.8043">
        <ele>221</ele>
        <time>2017-06-14T08:11:05Z</time>
      </trkpt>
      <trkpt lat="45.94012" lon="4.80441">
        <ele>222</ele>
        <time>2017-06-14T08:11:08Z</time>
      </trkpt>
      <trkpt lat="45.94013" lon="4.80445">
        <ele>222</ele>
        <time>2017-06-14T08:11:09Z</time>
      </trkpt>
      <trkpt lat="45.94013" lon="4.80457">
        <ele>223</ele>
        <time>2017-06-14T08:11:12Z</time>
      </trkpt>
      <trkpt lat="45.94013" lon="4.80461">
        <ele>223</ele>
        <time>2017-06-14T08:11:13Z</time>
      </trkpt>
      <trkpt lat="45.94012" lon="4.80472">
        <ele>223</ele>
        <time>2017-06-14T08:11:16Z</time>
      </trkpt>
      <trkpt lat="45.94011" lon="4.80476">
        <ele>222</ele>
        <time>2017-06-14T08:11:17Z</time>
      </trkpt>
      <trkpt lat="45.94012" lon="4.80487">
        <ele>222</ele>
        <time>2017-06-14T08:11:21Z</time>
      </trkpt>
      <trkpt lat="45.94012" lon="4.8049">
        <ele>221</ele>
        <time>2017-06-14T08:11:22Z</time>
      </trkpt>
      <trkpt lat="45.94011" lon="4.80501">
        <ele>221</ele>
        <time>2017-06-14T08:11:26Z</time>
      </trkpt>
      <trkpt lat="45.94011" lon="4.80503">
        <ele>221</ele>
        <time>2017-06-14T08:11:27Z</time>
      </trkpt>
      <trkpt lat="45.9401" lon="4.80514">
        <ele>222</ele>
        <time>2017-06-14T08:11:31Z</time>
      </trkpt>
      <trkpt lat="45.9401" lon="4.80517">
        <ele>223</ele>
        <time>2017-06-14T08:11:32Z</time>
      </trkpt>
      <trkpt lat="45.9401" lon="4.80526">
        <ele>223</ele>
        <time>2017-06-14T08:11:34Z</time>
      </trkpt>
      <trkpt lat="45.9401" lon="4.8053">
        <ele>224</ele>
        <time>2017-06-14T08:11:35Z</time>
      </trkpt>
      <trkpt lat="45.94009" lon="4.8054">
        <ele>224</ele>
        <time>2017-06-14T08:11:38Z</time>
      </trkpt>
      <trkpt lat="45.94009" lon="4.80544">
        <ele>224</ele>
        <time>2017-06-14T08:11:39Z</time>
      </trkpt>
      <trkpt lat="45.94011" lon="4.80555">
        <ele>223</ele>
        <time>2017-06-14T08:11:42Z</time>
      </trkpt>
      <trkpt lat="45.94011" lon="4.80558">
        <ele>223</ele>
        <time>2017-06-14T08:11:43Z</time>
      </trkpt>
      <trkpt lat="45.94011" lon="4.80568">
        <ele>222</ele>
        <time>2017-06-14T08:11:46Z</time>
      </trkpt>
      <trkpt lat="45.94011" lon="4.80571">
        <ele>222</ele>
        <time>2017-06-14T08:11:47Z</time>
      </trkpt>
      <trkpt lat="45.94012" lon="4.80583">
        <ele>221</ele>
        <time>2017-06-14T08:11:51Z</time>
      </trkpt>
      <trkpt lat="45.94012" lon="4.80585">
        <ele>221</ele>
        <time>2017-06-14T08:11:52Z</time>
      </trkpt>
      <trkpt lat="45.94013" lon="4.80597">
        <ele>222</ele>
        <time>2017-06-14T08:11:56Z</time>
      </trkpt>
      <trkpt lat="45.94014" lon="4.806">
        <ele>223</ele>
        <time>2017-06-14T08:11:57Z</time>
      </trkpt>
      <trkpt lat="45.94015" lon="4.80612">
        <ele>224</ele>
        <time>2017-06-14T08:12:01Z</time>
      </trkpt>
      <trkpt lat="45.94015" lon="4.80615">
        <ele>224</ele>
        <time>2017-06-14T08:12:02Z</time>
      </trkpt>
      <trkpt lat="45.94017" lon="4.80626">
        <ele>224</ele>
        <time>2017-06-14T08:12:05Z</time>
      </trkpt>
      <trkpt lat="45.94019" lon="4.80631">
        <ele>224</ele>
        <time>2017-06-14T08:12:06Z</time>
      </trkpt>
      <trkpt lat="45.94022" lon="4.80642">
        <ele>224</ele>
        <time>2017-06-14T08:12:09Z</time>
      </trkpt>
      <trkpt lat="45.94022" lon="4.80645">
        <ele>224</ele>
        <time>2017-06-14T08:12:10Z</time>
      </trkpt>
      <trkpt lat="45.94023" lon="4.80656">
        <ele>223</ele>
        <time>2017-06-14T08:12:14Z</time>
      </trkpt>
      <trkpt lat="45.94023" lon="4.80659">
        <ele>223</ele>
        <time>2017-06-14T08:12:15Z</time>
      </trkpt>
      <trkpt lat="45.94024" lon="4.80671">
        <ele>223</ele>
        <time>2017-06-14T08:12:19Z</time>
      </trkpt>
      <trkpt lat="45.94025" lon="4.80674">
        <ele>223</ele>
        <time>2017-06-14T08:12:20Z</time>
      </trkpt>
      <trkpt lat="45.94026" lon="4.80685">
        <ele>224</ele>
        <time>2017-06-14T08:12:24Z</time>
      </trkpt>
      <trkpt lat="45.94026" lon="4.80687">
        <ele>224</ele>
        <time>2017-06-14T08:12:25Z</time>
      </trkpt>
      <trkpt lat="45.94028" lon="4.807">
        <ele>225</ele>
        <time>2017-06-14T08:12:29Z</time>
      </trkpt>
      <trkpt lat="45.94028" lon="4.80703">
        <ele>225</ele>
        <time>2017-06-14T08:12:30Z</time>
      </trkpt>
      <trkpt lat="45.94029" lon="4.80713">
        <ele>225</ele>
        <time>2017-06-14T08:12:33Z</time>
      </trkpt>
      <trkpt lat="45.9403" lon="4.80717">
        <ele>225</ele>
        <time>2017-06-14T08:12:34Z</time>
      </trkpt>
      <trkpt lat="45.9403" lon="4.80728">
        <ele>225</ele>
        <time>2017-06-14T08:12:37Z</time>
      </trkpt>
      <trkpt lat="45.94031" lon="4.80731">
        <ele>225</ele>
        <time>2017-06-14T08:12:38Z</time>
      </trkpt>
      <trkpt lat="45.94031" lon="4.80741">
        <ele>225</ele>
        <time>2017-06-14T08:12:41Z</time>
      </trkpt>
      <trkpt lat="45.94031" lon="4.80745">
        <ele>225</ele>
        <time>2017-06-14T08:12:42Z</time>
      </trkpt>
      <trkpt lat="45.94031" lon="4.80755">
        <ele>226</ele>
        <time>2017-06-14T08:12:45Z</time>
      </trkpt>
      <trkpt lat="45.94031" lon="4.80759">
        <ele>226</ele>
        <time>2017-06-14T08:12:46Z</time>
      </trkpt>
      <trkpt lat="45.94032" lon="4.80771">
        <ele>227</ele>
        <time>2017-06-14T08:12:50Z</time>
      </trkpt>
      <trkpt lat="45.94033" lon="4.80775">
        <ele>227</ele>
        <time>2017-06-14T08:12:51Z</time>
      </trkpt>
      <trkpt lat="45.94034" lon="4.80783">
        <ele>227</ele>
        <time>2017-06-14T08:12:53Z</time>
      </trkpt>
      <trkpt lat="45.94035" lon="4.80788">
        <ele>227</ele>
        <time>2017-06-14T08:12:54Z</time>
      </trkpt>
      <trkpt lat="45.94037" lon="4.80796">
        <ele>227</ele>
        <time>2017-06-14T08:12:56Z</time>
      </trkpt>
      <trkpt lat="45.94037" lon="4.80801">
        <ele>227</ele>
        <time>2017-06-14T08:12:57Z</time>
      </trkpt>
      <trkpt lat="45.9404" lon="4.80811">
        <ele>228</ele>
        <time>2017-06-14T08:13:00Z</time>
      </trkpt>
      <trkpt lat="45.9404" lon="4.80815">
        <ele>228</ele>
        <time>2017-06-14T08:13:01Z</time>
      </trkpt>
      <trkpt lat="45.94042" lon="4.80825">
        <ele>228</ele>
        <time>2017-06-14T08:13:04Z</time>
      </trkpt>
      <trkpt lat="45.94042" lon="4.80828">
        <ele>228</ele>
        <time>2017-06-14T08:13:05Z</time>
      </trkpt>
      <trkpt lat="45.94044" lon="4.80838">
        <ele>229</ele>
        <time>2017-06-14T08:13:08Z</time>
      </trkpt>
      <trkpt lat="45.94044" lon="4.80842">
        <ele>229</ele>
        <time>2017-06-14T08:13:09Z</time>
      </trkpt>
      <trkpt lat="45.94045" lon="4.80852">
        <ele>229</ele>
        <time>2017-06-14T08:13:12Z</time>
      </trkpt>
      <trkpt lat="45.94046" lon="4.80855">
        <ele>229</ele>
        <time>2017-06-14T08:13:13Z</time>
      </trkpt>
      <trkpt lat="45.94047" lon="4.80865">
        <ele>229</ele>
        <time>2017-06-14T08:13:16Z</time>
      </trkpt>
      <trkpt lat="45.94048" lon="4.80869">
        <ele>229</ele>
        <time>2017-06-14T08:13:17Z</time>
      </trkpt>
      <trkpt lat="45.94049" lon="4.8088">
        <ele>229</ele>
        <time>2017-06-14T08:13:20Z</time>
      </trkpt>
      <trkpt lat="45.94049" lon="4.80884">
        <ele>229</ele>
        <time>2017-06-14T08:13:21Z</time>
      </trkpt>
      <trkpt lat="45.9405" lon="4.80893">
        <ele>230</ele>
        <time>2017-06-14T08:13:24Z</time>
      </trkpt>
      <trkpt lat="45.94051" lon="4.80897">
        <ele>230</ele>
        <time>2017-06-14T08:13:25Z</time>
      </trkpt>
      <trkpt lat="45.94052" lon="4.80909">
        <ele>230</ele>
        <time>2017-06-14T08:13:29Z</time>
      </trkpt>
      <trkpt lat="45.94052" lon="4.80911">
        <ele>231</ele>
        <time>2017-06-14T08:13:30Z</time>
      </trkpt>
      <trkpt lat="45.94054" lon="4.80923">
        <ele>231</ele>
        <time>2017-06-14T08:13:34Z</time>
      </trkpt>
      <trkpt lat="45.94054" lon="4.80927">
        <ele>231</ele>
        <time>2017-06-14T08:13:35Z</time>
      </trkpt>
      <trkpt lat="45.94056" lon="4.80939">
        <ele>231</ele>
        <time>2017-06-14T08:13:39Z</time>
      </trkpt>
      <trkpt lat="45.94057" lon="4.80942">
        <ele>231</ele>
        <time>2017-06-14T08:13:40Z</time>
      </trkpt>
      <trkpt lat="45.94059" lon="4.80954">
        <ele>231</ele>
        <time>2017-06-14T08:13:44Z</time>
      </trkpt>
      <trkpt lat="45.94059" lon="4.80957">
        <ele>231</ele>
        <time>2017-06-14T08:13:45Z</time>
      </trkpt>
      <trkpt lat="45.94061" lon="4.80967">
        <ele>232</ele>
        <time>2017-06-14T08:13:48Z</time>
      </trkpt>
      <trkpt lat="45.94061" lon="4.8097">
        <ele>232</ele>
        <time>2017-06-14T08:13:49Z</time>
      </trkpt>
      <trkpt lat="45.94063" lon="4.80982">
        <ele>233</ele>
        <time>2017-06-14T08:13:53Z</time>
      </trkpt>
      <trkpt lat="45.94063" lon="4.80985">
        <ele>233</ele>
        <time>2017-06-14T08:13:54Z</time>
      </trkpt>
      <trkpt lat="45.94066" lon="4.80997">
        <ele>234</ele>
        <time>2017-06-14T08:13:58Z</time>
      </trkpt>
      <trkpt lat="45.94066" lon="4.81">
        <ele>235</ele>
        <time>2017-06-14T08:13:59Z</time>
      </trkpt>
      <trkpt lat="45.94069" lon="4.81012">
        <ele>235</ele>
        <time>2017-06-14T08:14:03Z</time>
      </trkpt>
      <trkpt lat="45.9407" lon="4.81015">
        <ele>235</ele>
        <time>2017-06-14T08:14:04Z</time>
      </trkpt>
      <trkpt lat="45.94072" lon="4.81025">
        <ele>234</ele>
        <time>2017-06-14T08:14:08Z</time>
      </trkpt>
      <trkpt lat="45.94073" lon="4.81028">
        <ele>234</ele>
        <time>2017-06-14T08:14:09Z</time>
      </trkpt>
      <trkpt lat="45.94074" lon="4.8104">
        <ele>233</ele>
        <time>2017-06-14T08:14:12Z</time>
      </trkpt>
      <trkpt lat="45.94075" lon="4.81043">
        <ele>233</ele>
        <time>2017-06-14T08:14:13Z</time>
      </trkpt>
      <trkpt lat="45.94078" lon="4.81053">
        <ele>233</ele>
        <time>2017-06-14T08:14:16Z</time>
      </trkpt>
      <trkpt lat="45.94079" lon="4.81056">
        <ele>233</ele>
        <time>2017-06-14T08:14:17Z</time>
      </trkpt>
      <trkpt lat="45.94083" lon="4.81066">
        <ele>234</ele>
        <time>2017-06-14T08:14:20Z</time>
      </trkpt>
      <trkpt lat="45.94084" lon="4.81069">
        <ele>241</ele>
        <time>2017-06-14T08:14:21Z</time>
      </trkpt>
      <trkpt lat="45.94086" lon="4.81078">
        <ele>239</ele>
        <time>2017-06-14T08:14:24Z</time>
      </trkpt>
      <trkpt lat="45.94088" lon="4.81081">
        <ele>239</ele>
        <time>2017-06-14T08:14:25Z</time>
      </trkpt>
      <trkpt lat="45.94092" lon="4.81089">
        <ele>239</ele>
        <time>2017-06-14T08:14:28Z</time>
      </trkpt>
      <trkpt lat="45.94094" lon="4.81092">
        <ele>240</ele>
        <time>2017-06-14T08:14:29Z</time>
      </trkpt>
      <trkpt lat="45.941" lon="4.81101">
        <ele>241</ele>
        <time>2017-06-14T08:14:33Z</time>
      </trkpt>
      <trkpt lat="45.94101" lon="4.81103">
        <ele>241</ele>
        <time>2017-06-14T08:14:34Z</time>
      </trkpt>
      <trkpt lat="45.94107" lon="4.81113">
        <ele>242</ele>
        <time>2017-06-14T08:14:38Z</time>
      </trkpt>
      <trkpt lat="45.94108" lon="4.81115">
        <ele>242</ele>
        <time>2017-06-14T08:14:39Z</time>
      </trkpt>
      <trkpt lat="45.94112" lon="4.81124">
        <ele>242</ele>
        <time>2017-06-14T08:14:42Z</time>
      </trkpt>
      <trkpt lat="45.94113" lon="4.81126">
        <ele>242</ele>
        <time>2017-06-14T08:14:43Z</time>
      </trkpt>
      <trkpt lat="45.94118" lon="4.81134">
        <ele>242</ele>
        <time>2017-06-14T08:14:46Z</time>
      </trkpt>
      <trkpt lat="45.94119" lon="4.81136">
        <ele>242</ele>
        <time>2017-06-14T08:14:47Z</time>
      </trkpt>
      <trkpt lat="45.94124" lon="4.81147">
        <ele>243</ele>
        <time>2017-06-14T08:14:51Z</time>
      </trkpt>
      <trkpt lat="45.94125" lon="4.8115">
        <ele>243</ele>
        <time>2017-06-14T08:14:52Z</time>
      </trkpt>
      <trkpt lat="45.9413" lon="4.81158">
        <ele>243</ele>
        <time>2017-06-14T08:14:55Z</time>
      </trkpt>
      <trkpt lat="45.94131" lon="4.81161">
        <ele>243</ele>
        <time>2017-06-14T08:14:56Z</time>
      </trkpt>
      <trkpt lat="45.94135" lon="4.8117">
        <ele>243</ele>
        <time>2017-06-14T08:14:59Z</time>
      </trkpt>
      <trkpt lat="45.94136" lon="4.81173">
        <ele>243</ele>
        <time>2017-06-14T08:15:00Z</time>
      </trkpt>
      <trkpt lat="45.94141" lon="4.81184">
        <ele>244</ele>
        <time>2017-06-14T08:15:04Z</time>
      </trkpt>
      <trkpt lat="45.94142" lon="4.81186">
        <ele>244</ele>
        <time>2017-06-14T08:15:05Z</time>
      </trkpt>
      <trkpt lat="45.94145" lon="4.81195">
        <ele>244</ele>
        <time>2017-06-14T08:15:09Z</time>
      </trkpt>
      <trkpt lat="45.94146" lon="4.81198">
        <ele>244</ele>
        <time>2017-06-14T08:15:10Z</time>
      </trkpt>
      <trkpt lat="45.94148" lon="4.81209">
        <ele>244</ele>
        <time>2017-06-14T08:15:14Z</time>
      </trkpt>
      <trkpt lat="45.94148" lon="4.81212">
        <ele>244</ele>
        <time>2017-06-14T08:15:15Z</time>
      </trkpt>
      <trkpt lat="45.9415" lon="4.81223">
        <ele>245</ele>
        <time>2017-06-14T08:15:20Z</time>
      </trkpt>
      <trkpt lat="45.9415" lon="4.81225">
        <ele>245</ele>
        <time>2017-06-14T08:15:21Z</time>
      </trkpt>
      <trkpt lat="45.94152" lon="4.81237">
        <ele>246</ele>
        <time>2017-06-14T08:15:26Z</time>
      </trkpt>
      <trkpt lat="45.94153" lon="4.81239">
        <ele>246</ele>
        <time>2017-06-14T08:15:27Z</time>
      </trkpt>
      <trkpt lat="45.94155" lon="4.81251">
        <ele>248</ele>
        <time>2017-06-14T08:15:32Z</time>
      </trkpt>
      <trkpt lat="45.94155" lon="4.81254">
        <ele>248</ele>
        <time>2017-06-14T08:15:33Z</time>
      </trkpt>
      <trkpt lat="45.94157" lon="4.81264">
        <ele>248</ele>
        <time>2017-06-14T08:15:36Z</time>
      </trkpt>
      <trkpt lat="45.94158" lon="4.81267">
        <ele>247</ele>
        <time>2017-06-14T08:15:37Z</time>
      </trkpt>
      <trkpt lat="45.94158" lon="4.81279">
        <ele>247</ele>
        <time>2017-06-14T08:15:41Z</time>
      </trkpt>
      <trkpt lat="45.94158" lon="4.81283">
        <ele>247</ele>
        <time>2017-06-14T08:15:42Z</time>
      </trkpt>
      <trkpt lat="45.94159" lon="4.81296">
        <ele>247</ele>
        <time>2017-06-14T08:15:46Z</time>
      </trkpt>
      <trkpt lat="45.9416" lon="4.81298">
        <ele>247</ele>
        <time>2017-06-14T08:15:47Z</time>
      </trkpt>
      <trkpt lat="45.9416" lon="4.81311">
        <ele>248</ele>
        <time>2017-06-14T08:15:52Z</time>
      </trkpt>
      <trkpt lat="45.9416" lon="4.81314">
        <ele>248</ele>
        <time>2017-06-14T08:15:53Z</time>
      </trkpt>
      <trkpt lat="45.94158" lon="4.81325">
        <ele>249</ele>
        <time>2017-06-14T08:15:57Z</time>
      </trkpt>
      <trkpt lat="45.94158" lon="4.81328">
        <ele>250</ele>
        <time>2017-06-14T08:15:58Z</time>
      </trkpt>
      <trkpt lat="45.94157" lon="4.81339">
        <ele>251</ele>
        <time>2017-06-14T08:16:01Z</time>
      </trkpt>
      <trkpt lat="45.94157" lon="4.81342">
        <ele>251</ele>
        <time>2017-06-14T08:16:02Z</time>
      </trkpt>
      <trkpt lat="45.94156" lon="4.81354">
        <ele>250</ele>
        <time>2017-06-14T08:16:06Z</time>
      </trkpt>
      <trkpt lat="45.94156" lon="4.81357">
        <ele>250</ele>
        <time>2017-06-14T08:16:07Z</time>
      </trkpt>
      <trkpt lat="45.94156" lon="4.81368">
        <ele>250</ele>
        <time>2017-06-14T08:16:11Z</time>
      </trkpt>
      <trkpt lat="45.94156" lon="4.8137">
        <ele>250</ele>
        <time>2017-06-14T08:16:12Z</time>
      </trkpt>
      <trkpt lat="45.94157" lon="4.8138">
        <ele>251</ele>
        <time>2017-06-14T08:16:15Z</time>
      </trkpt>
      <trkpt lat="45.94156" lon="4.81384">
        <ele>251</ele>
        <time>2017-06-14T08:16:16Z</time>
      </trkpt>
      <trkpt lat="45.94155" lon="4.81393">
        <ele>252</ele>
        <time>2017-06-14T08:16:19Z</time>
      </trkpt>
      <trkpt lat="45.94154" lon="4.81398">
        <ele>252</ele>
        <time>2017-06-14T08:16:20Z</time>
      </trkpt>
      <trkpt lat="45.94153" lon="4.81407">
        <ele>253</ele>
        <time>2017-06-14T08:16:22Z</time>
      </trkpt>
      <trkpt lat="45.94153" lon="4.81411">
        <ele>253</ele>
        <time>2017-06-14T08:16:23Z</time>
      </trkpt>
      <trkpt lat="45.94153" lon="4.81422">
        <ele>256</ele>
        <time>2017-06-14T08:16:26Z</time>
      </trkpt>
      <trkpt lat="45.94153" lon="4.81425">
        <ele>256</ele>
        <time>2017-06-14T08:16:27Z</time>
      </trkpt>
      <trkpt lat="45.94152" lon="4.81435">
        <ele>256</ele>
        <time>2017-06-14T08:16:30Z</time>
      </trkpt>
      <trkpt lat="45.94152" lon="4.81438">
        <ele>256</ele>
        <time>2017-06-14T08:16:31Z</time>
      </trkpt>
      <trkpt lat="45.9415" lon="4.8145">
        <ele>256</ele>
        <time>2017-06-14T08:16:35Z</time>
      </trkpt>
      <trkpt lat="45.94149" lon="4.81452">
        <ele>257</ele>
        <time>2017-06-14T08:16:36Z</time>
      </trkpt>
      <trkpt lat="45.94147" lon="4.81464">
        <ele>257</ele>
        <time>2017-06-14T08:16:40Z</time>
      </trkpt>
      <trkpt lat="45.94147" lon="4.81467">
        <ele>257</ele>
        <time>2017-06-14T08:16:41Z</time>
      </trkpt>
      <trkpt lat="45.94147" lon="4.81477">
        <ele>258</ele>
        <time>2017-06-14T08:16:44Z</time>
      </trkpt>
      <trkpt lat="45.94147" lon="4.8148">
        <ele>258</ele>
        <time>2017-06-14T08:16:45Z</time>
      </trkpt>
      <trkpt lat="45.94146" lon="4.81491">
        <ele>259</ele>
        <time>2017-06-14T08:16:49Z</time>
      </trkpt>
      <trkpt lat="45.94146" lon="4.81494">
        <ele>259</ele>
        <time>2017-06-14T08:16:50Z</time>
      </trkpt>
      <trkpt lat="45.94144" lon="4.81504">
        <ele>263</ele>
        <time>2017-06-14T08:16:53Z</time>
      </trkpt>
      <trkpt lat="45.94144" lon="4.81507">
        <ele>263</ele>
        <time>2017-06-14T08:16:54Z</time>
      </trkpt>
      <trkpt lat="45.94143" lon="4.81518">
        <ele>263</ele>
        <time>2017-06-14T08:16:58Z</time>
      </trkpt>
      <trkpt lat="45.94143" lon="4.81522">
        <ele>263</ele>
        <time>2017-06-14T08:16:59Z</time>
      </trkpt>
      <trkpt lat="45.94143" lon="4.81532">
        <ele>263</ele>
        <time>2017-06-14T08:17:01Z</time>
      </trkpt>
      <trkpt lat="45.94144" lon="4.81537">
        <ele>264</ele>
        <time>2017-06-14T08:17:02Z</time>
      </trkpt>
      <trkpt lat="45.94145" lon="4.81549">
        <ele>264</ele>
        <time>2017-06-14T08:17:05Z</time>
      </trkpt>
      <trkpt lat="45.94146" lon="4.81554">
        <ele>264</ele>
        <time>2017-06-14T08:17:06Z</time>
      </trkpt>
      <trkpt lat="45.94145" lon="4.81563">
        <ele>265</ele>
        <time>2017-06-14T08:17:08Z</time>
      </trkpt>
      <trkpt lat="45.94146" lon="4.81568">
        <ele>265</ele>
        <time>2017-06-14T08:17:09Z</time>
      </trkpt>
      <trkpt lat="45.94147" lon="4.81579">
        <ele>265</ele>
        <time>2017-06-14T08:17:12Z</time>
      </trkpt>
      <trkpt lat="45.94148" lon="4.81582">
        <ele>265</ele>
        <time>2017-06-14T08:17:13Z</time>
      </trkpt>
      <trkpt lat="45.94149" lon="4.81592">
        <ele>267</ele>
        <time>2017-06-14T08:17:15Z</time>
      </trkpt>
      <trkpt lat="45.94149" lon="4.81598">
        <ele>267</ele>
        <time>2017-06-14T08:17:16Z</time>
      </trkpt>
      <trkpt lat="45.9415" lon="4.81607">
        <ele>267</ele>
        <time>2017-06-14T08:17:18Z</time>
      </trkpt>
      <trkpt lat="45.94151" lon="4.81611">
        <ele>267</ele>
        <time>2017-06-14T08:17:19Z</time>
      </trkpt>
      <trkpt lat="45.94153" lon="4.81622">
        <ele>268</ele>
        <time>2017-06-14T08:17:22Z</time>
      </trkpt>
      <trkpt lat="45.94154" lon="4.81627">
        <ele>268</ele>
        <time>2017-06-14T08:17:23Z</time>
      </trkpt>
      <trkpt lat="45.94157" lon="4.81638">
        <ele>268</ele>
        <time>2017-06-14T08:17:26Z</time>
      </trkpt>
      <trkpt lat="45.94158" lon="4.81642">
        <ele>268</ele>
        <time>2017-06-14T08:17:27Z</time>
      </trkpt>
      <trkpt lat="45.94163" lon="4.81652">
        <ele>268</ele>
        <time>2017-06-14T08:17:30Z</time>
      </trkpt>
      <trkpt lat="45.94164" lon="4.81656">
        <ele>268</ele>
        <time>2017-06-14T08:17:31Z</time>
      </trkpt>
      <trkpt lat="45.94166" lon="4.81667">
        <ele>269</ele>
        <time>2017-06-14T08:17:34Z</time>
      </trkpt>
      <trkpt lat="45.94168" lon="4.81671">
        <ele>269</ele>
        <time>2017-06-14T08:17:35Z</time>
      </trkpt>
      <trkpt lat="45.9417" lon="4.81679">
        <ele>268</ele>
        <time>2017-06-14T08:17:37Z</time>
      </trkpt>
      <trkpt lat="45.94171" lon="4.81683">
        <ele>268</ele>
        <time>2017-06-14T08:17:38Z</time>
      </trkpt>
      <trkpt lat="45.94173" lon="4.81691">
        <ele>267</ele>
        <time>2017-06-14T08:17:40Z</time>
      </trkpt>
      <trkpt lat="45.94175" lon="4.81695">
        <ele>267</ele>
        <time>2017-06-14T08:17:41Z</time>
      </trkpt>
      <trkpt lat="45.9418" lon="4.81705">
        <ele>267</ele>
        <time>2017-06-14T08:17:44Z</time>
      </trkpt>
      <trkpt lat="45.9418" lon="4.81709">
        <ele>267</ele>
        <time>2017-06-14T08:17:45Z</time>
      </trkpt>
      <trkpt lat="45.94182" lon="4.81718">
        <ele>267</ele>
        <time>2017-06-14T08:17:47Z</time>
      </trkpt>
      <trkpt lat="45.94182" lon="4.81723">
        <ele>267</ele>
        <time>2017-06-14T08:17:48Z</time>
      </trkpt>
      <trkpt lat="45.94183" lon="4.81735">
        <ele>267</ele>
        <time>2017-06-14T08:17:51Z</time>
      </trkpt>
      <trkpt lat="45.94183" lon="4.81739">
        <ele>267</ele>
        <time>2017-06-14T08:17:52Z</time>
      </trkpt>
      <trkpt lat="45.94187" lon="4.81749">
        <ele>267</ele>
        <time>2017-06-14T08:17:55Z</time>
      </trkpt>
      <trkpt lat="45.94189" lon="4.81753">
        <ele>266</ele>
        <time>2017-06-14T08:17:56Z</time>
      </trkpt>
      <trkpt lat="45.94192" lon="4.81762">
        <ele>266</ele>
        <time>2017-06-14T08:17:58Z</time>
      </trkpt>
      <trkpt lat="45.94193" lon="4.81766">
        <ele>266</ele>
        <time>2017-06-14T08:17:59Z</time>
      </trkpt>
      <trkpt lat="45.94196" lon="4.81777">
        <ele>266</ele>
        <time>2017-06-14T08:18:02Z</time>
      </trkpt>
      <trkpt lat="45.94196" lon="4.81781">
        <ele>266</ele>
        <time>2017-06-14T08:18:03Z</time>
      </trkpt>
      <trkpt lat="45.94196" lon="4.8179">
        <ele>266</ele>
        <time>2017-06-14T08:18:05Z</time>
      </trkpt>
      <trkpt lat="45.94196" lon="4.81794">
        <ele>266</ele>
        <time>2017-06-14T08:18:06Z</time>
      </trkpt>
      <trkpt lat="45.94197" lon="4.81804">
        <ele>266</ele>
        <time>2017-06-14T08:18:08Z</time>
      </trkpt>
      <trkpt lat="45.94197" lon="4.81809">
        <ele>266</ele>
        <time>2017-06-14T08:18:09Z</time>
      </trkpt>
      <trkpt lat="45.94198" lon="4.81821">
        <ele>266</ele>
        <time>2017-06-14T08:18:12Z</time>
      </trkpt>
      <trkpt lat="45.94198" lon="4.81825">
        <ele>266</ele>
        <time>2017-06-14T08:18:13Z</time>
      </trkpt>
      <trkpt lat="45.942" lon="4.81837">
        <ele>266</ele>
        <time>2017-06-14T08:18:16Z</time>
      </trkpt>
      <trkpt lat="45.94201" lon="4.81841">
        <ele>266</ele>
        <time>2017-06-14T08:18:17Z</time>
      </trkpt>
      <trkpt lat="45.94202" lon="4.81852">
        <ele>266</ele>
        <time>2017-06-14T08:18:19Z</time>
      </trkpt>
      <trkpt lat="45.94203" lon="4.81857">
        <ele>266</ele>
        <time>2017-06-14T08:18:20Z</time>
      </trkpt>
      <trkpt lat="45.94204" lon="4.81867">
        <ele>265</ele>
        <time>2017-06-14T08:18:22Z</time>
      </trkpt>
      <trkpt lat="45.94205" lon="4.81872">
        <ele>265</ele>
        <time>2017-06-14T08:18:23Z</time>
      </trkpt>
      <trkpt lat="45.94207" lon="4.81882">
        <ele>265</ele>
        <time>2017-06-14T08:18:25Z</time>
      </trkpt>
      <trkpt lat="45.94208" lon="4.81887">
        <ele>265</ele>
        <time>2017-06-14T08:18:26Z</time>
      </trkpt>
      <trkpt lat="45.94211" lon="4.81897">
        <ele>265</ele>
        <time>2017-06-14T08:18:28Z</time>
      </trkpt>
      <trkpt lat="45.94212" lon="4.81902">
        <ele>265</ele>
        <time>2017-06-14T08:18:29Z</time>
      </trkpt>
      <trkpt lat="45.94214" lon="4.81912">
        <ele>265</ele>
        <time>2017-06-14T08:18:31Z</time>
      </trkpt>
      <trkpt lat="45.94215" lon="4.81917">
        <ele>265</ele>
        <time>2017-06-14T08:18:32Z</time>
      </trkpt>
      <trkpt lat="45.94217" lon="4.81926">
        <ele>264</ele>
        <time>2017-06-14T08:18:34Z</time>
      </trkpt>
      <trkpt lat="45.94218" lon="4.81931">
        <ele>264</ele>
        <time>2017-06-14T08:18:35Z</time>
      </trkpt>
      <trkpt lat="45.9422" lon="4.81941">
        <ele>264</ele>
        <time>2017-06-14T08:18:37Z</time>
      </trkpt>
      <trkpt lat="45.94221" lon="4.81945">
        <ele>264</ele>
        <time>2017-06-14T08:18:38Z</time>
      </trkpt>
      <trkpt lat="45.94224" lon="4.81955">
        <ele>264</ele>
        <time>2017-06-14T08:18:40Z</time>
      </trkpt>
      <trkpt lat="45.94225" lon="4.8196">
        <ele>264</ele>
        <time>2017-06-14T08:18:41Z</time>
      </trkpt>
      <trkpt lat="45.94227" lon="4.81972">
        <ele>264</ele>
        <time>2017-06-14T08:18:43Z</time>
      </trkpt>
      <trkpt lat="45.94228" lon="4.81978">
        <ele>264</ele>
        <time>2017-06-14T08:18:44Z</time>
      </trkpt>
      <trkpt lat="45.9423" lon="4.8199">
        <ele>263</ele>
        <time>2017-06-14T08:18:46Z</time>
      </trkpt>
      <trkpt lat="45.94231" lon="4.81996">
        <ele>263</ele>
        <time>2017-06-14T08:18:47Z</time>
      </trkpt>
      <trkpt lat="45.94234" lon="4.82007">
        <ele>263</ele>
        <time>2017-06-14T08:18:49Z</time>
      </trkpt>
      <trkpt lat="45.94235" lon="4.82012">
        <ele>263</ele>
        <time>2017-06-14T08:18:50Z</time>
      </trkpt>
      <trkpt lat="45.94237" lon="4.82023">
        <ele>263</ele>
        <time>2017-06-14T08:18:52Z</time>
      </trkpt>
      <trkpt lat="45.94238" lon="4.82029">
        <ele>263</ele>
        <time>2017-06-14T08:18:53Z</time>
      </trkpt>
      <trkpt lat="45.94241" lon="4.8204">
        <ele>263</ele>
        <time>2017-06-14T08:18:55Z</time>
      </trkpt>
      <trkpt lat="45.94242" lon="4.82045">
        <ele>263</ele>
        <time>2017-06-14T08:18:56Z</time>
      </trkpt>
      <trkpt lat="45.94245" lon="4.82057">
        <ele>263</ele>
        <time>2017-06-14T08:18:58Z</time>
      </trkpt>
      <trkpt lat="45.94246" lon="4.82064">
        <ele>263</ele>
        <time>2017-06-14T08:18:59Z</time>
      </trkpt>
      <trkpt lat="45.94247" lon="4.8207">
        <ele>263</ele>
        <time>2017-06-14T08:19:00Z</time>
      </trkpt>
      <trkpt lat="45.94249" lon="4.82076">
        <ele>262</ele>
        <time>2017-06-14T08:19:01Z</time>
      </trkpt>
      <trkpt lat="45.94252" lon="4.82088">
        <ele>262</ele>
        <time>2017-06-14T08:19:03Z</time>
      </trkpt>
      <trkpt lat="45.94253" lon="4.82094">
        <ele>262</ele>
        <time>2017-06-14T08:19:04Z</time>
      </trkpt>
      <trkpt lat="45.94256" lon="4.82105">
        <ele>262</ele>
        <time>2017-06-14T08:19:06Z</time>
      </trkpt>
      <trkpt lat="45.94257" lon="4.82111">
        <ele>263</ele>
        <time>2017-06-14T08:19:07Z</time>
      </trkpt>
      <trkpt lat="45.94258" lon="4.82117">
        <ele>263</ele>
        <time>2017-06-14T08:19:08Z</time>
      </trkpt>
      <trkpt lat="45.94259" lon="4.82124">
        <ele>263</ele>
        <time>2017-06-14T08:19:09Z</time>
      </trkpt>
      <trkpt lat="45.9426" lon="4.82131">
        <ele>263</ele>
        <time>2017-06-14T08:19:10Z</time>
      </trkpt>
      <trkpt lat="45.94262" lon="4.82137">
        <ele>263</ele>
        <time>2017-06-14T08:19:11Z</time>
      </trkpt>
      <trkpt lat="45.94263" lon="4.82144">
        <ele>263</ele>
        <time>2017-06-14T08:19:12Z</time>
      </trkpt>
      <trkpt lat="45.94264" lon="4.8215">
        <ele>263</ele>
        <time>2017-06-14T08:19:13Z</time>
      </trkpt>
      <trkpt lat="45.94266" lon="4.82157">
        <ele>263</ele>
        <time>2017-06-14T08:19:14Z</time>
      </trkpt>
      <trkpt lat="45.94267" lon="4.82164">
        <ele>263</ele>
        <time>2017-06-14T08:19:15Z</time>
      </trkpt>
      <trkpt lat="45.94269" lon="4.8217">
        <ele>263</ele>
        <time>2017-06-14T08:19:16Z</time>
      </trkpt>
      <trkpt lat="45.9427" lon="4.82177">
        <ele>264</ele>
        <time>2017-06-14T08:19:17Z</time>
      </trkpt>
      <trkpt lat="45.94272" lon="4.82189">
        <ele>264</ele>
        <time>2017-06-14T08:19:19Z</time>
      </trkpt>
      <trkpt lat="45.94273" lon="4.82195">
        <ele>264</ele>
        <time>2017-06-14T08:19:20Z</time>
      </trkpt>
      <trkpt lat="45.94275" lon="4.82202">
        <ele>264</ele>
        <time>2017-06-14T08:19:21Z</time>
      </trkpt>
      <trkpt lat="45.94276" lon="4.82209">
        <ele>264</ele>
        <time>2017-06-14T08:19:22Z</time>
      </trkpt>
      <trkpt lat="45.94277" lon="4.82217">
        <ele>264</ele>
        <time>2017-06-14T08:19:23Z</time>
      </trkpt>
      <trkpt lat="45.94278" lon="4.82224">
        <ele>264</ele>
        <time>2017-06-14T08:19:24Z</time>
      </trkpt>
      <trkpt lat="45.94279" lon="4.82232">
        <ele>264</ele>
        <time>2017-06-14T08:19:25Z</time>
      </trkpt>
      <trkpt lat="45.94279" lon="4.8224">
        <ele>264</ele>
        <time>2017-06-14T08:19:26Z</time>
      </trkpt>
      <trkpt lat="45.94279" lon="4.82248">
        <ele>264</ele>
        <time>2017-06-14T08:19:27Z</time>
      </trkpt>
      <trkpt lat="45.94279" lon="4.82257">
        <ele>265</ele>
        <time>2017-06-14T08:19:28Z</time>
      </trkpt>
      <trkpt lat="45.9428" lon="4.82264">
        <ele>265</ele>
        <time>2017-06-14T08:19:29Z</time>
      </trkpt>
      <trkpt lat="45.9428" lon="4.82272">
        <ele>265</ele>
        <time>2017-06-14T08:19:30Z</time>
      </trkpt>
      <trkpt lat="45.94281" lon="4.82279">
        <ele>265</ele>
        <time>2017-06-14T08:19:31Z</time>
      </trkpt>
      <trkpt lat="45.94281" lon="4.82286">
        <ele>265</ele>
        <time>2017-06-14T08:19:32Z</time>
      </trkpt>
      <trkpt lat="45.94281" lon="4.82292">
        <ele>265</ele>
        <time>2017-06-14T08:19:33Z</time>
      </trkpt>
      <trkpt lat="45.94282" lon="4.82299">
        <ele>265</ele>
        <time>2017-06-14T08:19:34Z</time>
      </trkpt>
      <trkpt lat="45.94282" lon="4.82306">
        <ele>265</ele>
        <time>2017-06-14T08:19:35Z</time>
      </trkpt>
      <trkpt lat="45.94282" lon="4.82312">
        <ele>265</ele>
        <time>2017-06-14T08:19:36Z</time>
      </trkpt>
      <trkpt lat="45.94283" lon="4.82319">
        <ele>265</ele>
        <time>2017-06-14T08:19:37Z</time>
      </trkpt>
      <trkpt lat="45.94283" lon="4.82326">
        <ele>265</ele>
        <time>2017-06-14T08:19:38Z</time>
      </trkpt>
      <trkpt lat="45.94283" lon="4.82333">
        <ele>265</ele>
        <time>2017-06-14T08:19:39Z</time>
      </trkpt>
      <trkpt lat="45.94283" lon="4.8234">
        <ele>264</ele>
        <time>2017-06-14T08:19:40Z</time>
      </trkpt>
      <trkpt lat="45.94284" lon="4.82346">
        <ele>264</ele>
        <time>2017-06-14T08:19:41Z</time>
      </trkpt>
      <trkpt lat="45.94284" lon="4.82353">
        <ele>264</ele>
        <time>2017-06-14T08:19:42Z</time>
      </trkpt>
      <trkpt lat="45.94285" lon="4.82365">
        <ele>264</ele>
        <time>2017-06-14T08:19:44Z</time>
      </trkpt>
      <trkpt lat="45.94285" lon="4.8237">
        <ele>264</ele>
        <time>2017-06-14T08:19:45Z</time>
      </trkpt>
      <trkpt lat="45.94285" lon="4.8238">
        <ele>264</ele>
        <time>2017-06-14T08:19:47Z</time>
      </trkpt>
      <trkpt lat="45.94286" lon="4.82386">
        <ele>264</ele>
        <time>2017-06-14T08:19:48Z</time>
      </trkpt>
      <trkpt lat="45.94286" lon="4.82392">
        <ele>264</ele>
        <time>2017-06-14T08:19:49Z</time>
      </trkpt>
      <trkpt lat="45.94287" lon="4.82398">
        <ele>264</ele>
        <time>2017-06-14T08:19:50Z</time>
      </trkpt>
      <trkpt lat="45.94287" lon="4.82406">
        <ele>264</ele>
        <time>2017-06-14T08:19:51Z</time>
      </trkpt>
      <trkpt lat="45.94288" lon="4.82413">
        <ele>264</ele>
        <time>2017-06-14T08:19:52Z</time>
      </trkpt>
      <trkpt lat="45.94288" lon="4.82421">
        <ele>264</ele>
        <time>2017-06-14T08:19:53Z</time>
      </trkpt>
      <trkpt lat="45.94289" lon="4.82429">
        <ele>264</ele>
        <time>2017-06-14T08:19:54Z</time>
      </trkpt>
      <trkpt lat="45.94289" lon="4.82437">
        <ele>264</ele>
        <time>2017-06-14T08:19:55Z</time>
      </trkpt>
      <trkpt lat="45.94289" lon="4.82445">
        <ele>264</ele>
        <time>2017-06-14T08:19:56Z</time>
      </trkpt>
      <trkpt lat="45.9429" lon="4.82452">
        <ele>264</ele>
        <time>2017-06-14T08:19:57Z</time>
      </trkpt>
      <trkpt lat="45.9429" lon="4.82459">
        <ele>264</ele>
        <time>2017-06-14T08:19:58Z</time>
      </trkpt>
      <trkpt lat="45.9429" lon="4.82465">
        <ele>264</ele>
        <time>2017-06-14T08:19:59Z</time>
      </trkpt>
      <trkpt lat="45.9429" lon="4.82472">
        <ele>264</ele>
        <time>2017-06-14T08:20:00Z</time>
      </trkpt>
      <trkpt lat="45.94291" lon="4.82484">
        <ele>264</ele>
        <time>2017-06-14T08:20:02Z</time>
      </trkpt>
      <trkpt lat="45.94291" lon="4.82491">
        <ele>264</ele>
        <time>2017-06-14T08:20:03Z</time>
      </trkpt>
      <trkpt lat="45.94291" lon="4.82504">
        <ele>264</ele>
        <time>2017-06-14T08:20:05Z</time>
      </trkpt>
      <trkpt lat="45.94291" lon="4.8251">
        <ele>264</ele>
        <time>2017-06-14T08:20:06Z</time>
      </trkpt>
      <trkpt lat="45.94291" lon="4.82521">
        <ele>264</ele>
        <time>2017-06-14T08:20:08Z</time>
      </trkpt>
      <trkpt lat="45.94291" lon="4.82526">
        <ele>264</ele>
        <time>2017-06-14T08:20:09Z</time>
      </trkpt>
      <trkpt lat="45.94291" lon="4.82537">
        <ele>264</ele>
        <time>2017-06-14T08:20:11Z</time>
      </trkpt>
      <trkpt lat="45.94291" lon="4.82543">
        <ele>264</ele>
        <time>2017-06-14T08:20:12Z</time>
      </trkpt>
      <trkpt lat="45.94291" lon="4.82555">
        <ele>264</ele>
        <time>2017-06-14T08:20:14Z</time>
      </trkpt>
      <trkpt lat="45.94291" lon="4.82562">
        <ele>264</ele>
        <time>2017-06-14T08:20:15Z</time>
      </trkpt>
      <trkpt lat="45.94291" lon="4.82569">
        <ele>264</ele>
        <time>2017-06-14T08:20:16Z</time>
      </trkpt>
      <trkpt lat="45.9429" lon="4.82576">
        <ele>265</ele>
        <time>2017-06-14T08:20:17Z</time>
      </trkpt>
      <trkpt lat="45.9429" lon="4.82582">
        <ele>265</ele>
        <time>2017-06-14T08:20:18Z</time>
      </trkpt>
      <trkpt lat="45.9429" lon="4.82589">
        <ele>265</ele>
        <time>2017-06-14T08:20:19Z</time>
      </trkpt>
      <trkpt lat="45.9429" lon="4.82601">
        <ele>265</ele>
        <time>2017-06-14T08:20:21Z</time>
      </trkpt>
      <trkpt lat="45.94289" lon="4.82606">
        <ele>265</ele>
        <time>2017-06-14T08:20:22Z</time>
      </trkpt>
      <trkpt lat="45.94289" lon="4.82618">
        <ele>265</ele>
        <time>2017-06-14T08:20:24Z</time>
      </trkpt>
      <trkpt lat="45.94289" lon="4.82624">
        <ele>265</ele>
        <time>2017-06-14T08:20:25Z</time>
      </trkpt>
      <trkpt lat="45.94289" lon="4.82635">
        <ele>265</ele>
        <time>2017-06-14T08:20:27Z</time>
      </trkpt>
      <trkpt lat="45.94289" lon="4.82642">
        <ele>265</ele>
        <time>2017-06-14T08:20:28Z</time>
      </trkpt>
      <trkpt lat="45.94289" lon="4.82648">
        <ele>265</ele>
        <time>2017-06-14T08:20:29Z</time>
      </trkpt>
      <trkpt lat="45.94289" lon="4.82655">
        <ele>265</ele>
        <time>2017-06-14T08:20:30Z</time>
      </trkpt>
      <trkpt lat="45.94289" lon="4.82662">
        <ele>265</ele>
        <time>2017-06-14T08:20:31Z</time>
      </trkpt>
      <trkpt lat="45.94288" lon="4.82669">
        <ele>265</ele>
        <time>2017-06-14T08:20:32Z</time>
      </trkpt>
      <trkpt lat="45.94288" lon="4.82677">
        <ele>265</ele>
        <time>2017-06-14T08:20:33Z</time>
      </trkpt>
      <trkpt lat="45.94288" lon="4.82684">
        <ele>265</ele>
        <time>2017-06-14T08:20:34Z</time>
      </trkpt>
      <trkpt lat="45.94288" lon="4.82692">
        <ele>265</ele>
        <time>2017-06-14T08:20:35Z</time>
      </trkpt>
      <trkpt lat="45.94288" lon="4.82699">
        <ele>265</ele>
        <time>2017-06-14T08:20:36Z</time>
      </trkpt>
      <trkpt lat="45.94288" lon="4.82706">
        <ele>265</ele>
        <time>2017-06-14T08:20:37Z</time>
      </trkpt>
      <trkpt lat="45.94288" lon="4.82713">
        <ele>265</ele>
        <time>2017-06-14T08:20:38Z</time>
      </trkpt>
      <trkpt lat="45.94288" lon="4.8272">
        <ele>265</ele>
        <time>2017-06-14T08:20:39Z</time>
      </trkpt>
      <trkpt lat="45.94288" lon="4.82727">
        <ele>265</ele>
        <time>2017-06-14T08:20:40Z</time>
      </trkpt>
      <trkpt lat="45.94288" lon="4.82734">
        <ele>265</ele>
        <time>2017-06-14T08:20:41Z</time>
      </trkpt>
      <trkpt lat="45.94288" lon="4.82742">
        <ele>265</ele>
        <time>2017-06-14T08:20:42Z</time>
      </trkpt>
      <trkpt lat="45.94288" lon="4.8275">
        <ele>265</ele>
        <time>2017-06-14T08:20:43Z</time>
      </trkpt>
      <trkpt lat="45.94288" lon="4.82757">
        <ele>265</ele>
        <time>2017-06-14T08:20:44Z</time>
      </trkpt>
      <trkpt lat="45.94287" lon="4.82765">
        <ele>265</ele>
        <time>2017-06-14T08:20:45Z</time>
      </trkpt>
      <trkpt lat="45.94287" lon="4.82772">
        <ele>265</ele>
        <time>2017-06-14T08:20:46Z</time>
      </trkpt>
      <trkpt lat="45.94287" lon="4.82779">
        <ele>265</ele>
        <time>2017-06-14T08:20:47Z</time>
      </trkpt>
      <trkpt lat="45.94287" lon="4.82785">
        <ele>265</ele>
        <time>2017-06-14T08:20:48Z</time>
      </trkpt>
      <trkpt lat="45.94286" lon="4.82798">
        <ele>265</ele>
        <time>2017-06-14T08:20:50Z</time>
      </trkpt>
      <trkpt lat="45.94286" lon="4.82804">
        <ele>265</ele>
        <time>2017-06-14T08:20:51Z</time>
      </trkpt>
      <trkpt lat="45.94287" lon="4.82815">
        <ele>265</ele>
        <time>2017-06-14T08:20:53Z</time>
      </trkpt>
      <trkpt lat="45.94287" lon="4.8282">
        <ele>265</ele>
        <time>2017-06-14T08:20:54Z</time>
      </trkpt>
      <trkpt lat="45.94286" lon="4.82832">
        <ele>265</ele>
        <time>2017-06-14T08:20:56Z</time>
      </trkpt>
      <trkpt lat="45.94286" lon="4.82838">
        <ele>265</ele>
        <time>2017-06-14T08:20:57Z</time>
      </trkpt>
      <trkpt lat="45.94286" lon="4.82851">
        <ele>265</ele>
        <time>2017-06-14T08:20:59Z</time>
      </trkpt>
      <trkpt lat="45.94286" lon="4.82857">
        <ele>265</ele>
        <time>2017-06-14T08:21:00Z</time>
      </trkpt>
      <trkpt lat="45.94286" lon="4.82864">
        <ele>265</ele>
        <time>2017-06-14T08:21:01Z</time>
      </trkpt>
      <trkpt lat="45.94286" lon="4.82871">
        <ele>265</ele>
        <time>2017-06-14T08:21:02Z</time>
      </trkpt>
      <trkpt lat="45.94285" lon="4.82878">
        <ele>265</ele>
        <time>2017-06-14T08:21:03Z</time>
      </trkpt>
      <trkpt lat="45.94285" lon="4.82885">
        <ele>265</ele>
        <time>2017-06-14T08:21:04Z</time>
      </trkpt>
      <trkpt lat="45.94284" lon="4.82892">
        <ele>265</ele>
        <time>2017-06-14T08:21:05Z</time>
      </trkpt>
      <trkpt lat="45.94284" lon="4.829">
        <ele>265</ele>
        <time>2017-06-14T08:21:06Z</time>
      </trkpt>
      <trkpt lat="45.94283" lon="4.82907">
        <ele>265</ele>
        <time>2017-06-14T08:21:07Z</time>
      </trkpt>
      <trkpt lat="45.94282" lon="4.82914">
        <ele>265</ele>
        <time>2017-06-14T08:21:08Z</time>
      </trkpt>
      <trkpt lat="45.94282" lon="4.82921">
        <ele>265</ele>
        <time>2017-06-14T08:21:09Z</time>
      </trkpt>
      <trkpt lat="45.94282" lon="4.82928">
        <ele>265</ele>
        <time>2017-06-14T08:21:10Z</time>
      </trkpt>
      <trkpt lat="45.94281" lon="4.82935">
        <ele>265</ele>
        <time>2017-06-14T08:21:11Z</time>
      </trkpt>
      <trkpt lat="45.9428" lon="4.82941">
        <ele>265</ele>
        <time>2017-06-14T08:21:12Z</time>
      </trkpt>
      <trkpt lat="45.94278" lon="4.82948">
        <ele>265</ele>
        <time>2017-06-14T08:21:13Z</time>
      </trkpt>
      <trkpt lat="45.94278" lon="4.82954">
        <ele>265</ele>
        <time>2017-06-14T08:21:14Z</time>
      </trkpt>
      <trkpt lat="45.94278" lon="4.82961">
        <ele>265</ele>
        <time>2017-06-14T08:21:15Z</time>
      </trkpt>
      <trkpt lat="45.94279" lon="4.82967">
        <ele>265</ele>
        <time>2017-06-14T08:21:16Z</time>
      </trkpt>
      <trkpt lat="45.94282" lon="4.82973">
        <ele>265</ele>
        <time>2017-06-14T08:21:17Z</time>
      </trkpt>
      <trkpt lat="45.94284" lon="4.8298">
        <ele>265</ele>
        <time>2017-06-14T08:21:18Z</time>
      </trkpt>
      <trkpt lat="45.94286" lon="4.82987">
        <ele>265</ele>
        <time>2017-06-14T08:21:19Z</time>
      </trkpt>
      <trkpt lat="45.94288" lon="4.82993">
        <ele>265</ele>
        <time>2017-06-14T08:21:20Z</time>
      </trkpt>
      <trkpt lat="45.9429" lon="4.83">
        <ele>266</ele>
        <time>2017-06-14T08:21:21Z</time>
      </trkpt>
      <trkpt lat="45.94292" lon="4.83007">
        <ele>266</ele>
        <time>2017-06-14T08:21:22Z</time>
      </trkpt>
      <trkpt lat="45.94293" lon="4.83013">
        <ele>266</ele>
        <time>2017-06-14T08:21:23Z</time>
      </trkpt>
      <trkpt lat="45.94294" lon="4.8302">
        <ele>266</ele>
        <time>2017-06-14T08:21:24Z</time>
      </trkpt>
      <trkpt lat="45.94297" lon="4.83032">
        <ele>266</ele>
        <time>2017-06-14T08:21:26Z</time>
      </trkpt>
      <trkpt lat="45.94298" lon="4.83038">
        <ele>266</ele>
        <time>2017-06-14T08:21:27Z</time>
      </trkpt>
      <trkpt lat="45.94299" lon="4.83045">
        <ele>266</ele>
        <time>2017-06-14T08:21:28Z</time>
      </trkpt>
      <trkpt lat="45.943" lon="4.83051">
        <ele>266</ele>
        <time>2017-06-14T08:21:29Z</time>
      </trkpt>
      <trkpt lat="45.94302" lon="4.83058">
        <ele>266</ele>
        <time>2017-06-14T08:21:30Z</time>
      </trkpt>
      <trkpt lat="45.94303" lon="4.83065">
        <ele>266</ele>
        <time>2017-06-14T08:21:31Z</time>
      </trkpt>
      <trkpt lat="45.94305" lon="4.83071">
        <ele>266</ele>
        <time>2017-06-14T08:21:32Z</time>
      </trkpt>
      <trkpt lat="45.94307" lon="4.83078">
        <ele>266</ele>
        <time>2017-06-14T08:21:33Z</time>
      </trkpt>
      <trkpt lat="45.94308" lon="4.83084">
        <ele>266</ele>
        <time>2017-06-14T08:21:34Z</time>
      </trkpt>
      <trkpt lat="45.9431" lon="4.8309">
        <ele>266</ele>
        <time>2017-06-14T08:21:35Z</time>
      </trkpt>
      <trkpt lat="45.94313" lon="4.83102">
        <ele>266</ele>
        <time>2017-06-14T08:21:37Z</time>
      </trkpt>
      <trkpt lat="45.94314" lon="4.83108">
        <ele>266</ele>
        <time>2017-06-14T08:21:38Z</time>
      </trkpt>
      <trkpt lat="45.94318" lon="4.8312">
        <ele>266</ele>
        <time>2017-06-14T08:21:40Z</time>
      </trkpt>
      <trkpt lat="45.9432" lon="4.83126">
        <ele>266</ele>
        <time>2017-06-14T08:21:41Z</time>
      </trkpt>
      <trkpt lat="45.94322" lon="4.83132">
        <ele>266</ele>
        <time>2017-06-14T08:21:42Z</time>
      </trkpt>
      <trkpt lat="45.94324" lon="4.83138">
        <ele>266</ele>
        <time>2017-06-14T08:21:43Z</time>
      </trkpt>
      <trkpt lat="45.94326" lon="4.83145">
        <ele>266</ele>
        <time>2017-06-14T08:21:44Z</time>
      </trkpt>
      <trkpt lat="45.94329" lon="4.83151">
        <ele>266</ele>
        <time>2017-06-14T08:21:45Z</time>
      </trkpt>
      <trkpt lat="45.94331" lon="4.83158">
        <ele>266</ele>
        <time>2017-06-14T08:21:46Z</time>
      </trkpt>
      <trkpt lat="45.94333" lon="4.83165">
        <ele>266</ele>
        <time>2017-06-14T08:21:47Z</time>
      </trkpt>
      <trkpt lat="45.94336" lon="4.83172">
        <ele>266</ele>
        <time>2017-06-14T08:21:48Z</time>
      </trkpt>
      <trkpt lat="45.94338" lon="4.83178">
        <ele>266</ele>
        <time>2017-06-14T08:21:49Z</time>
      </trkpt>
      <trkpt lat="45.9434" lon="4.83185">
        <ele>266</ele>
        <time>2017-06-14T08:21:50Z</time>
      </trkpt>
      <trkpt lat="45.94342" lon="4.83192">
        <ele>266</ele>
        <time>2017-06-14T08:21:51Z</time>
      </trkpt>
      <trkpt lat="45.94344" lon="4.83198">
        <ele>266</ele>
        <time>2017-06-14T08:21:52Z</time>
      </trkpt>
      <trkpt lat="45.94347" lon="4.83204">
        <ele>266</ele>
        <time>2017-06-14T08:21:53Z</time>
      </trkpt>
      <trkpt lat="45.94349" lon="4.8321">
        <ele>266</ele>
        <time>2017-06-14T08:21:54Z</time>
      </trkpt>
      <trkpt lat="45.94351" lon="4.83216">
        <ele>266</ele>
        <time>2017-06-14T08:21:55Z</time>
      </trkpt>
      <trkpt lat="45.94353" lon="4.83222">
        <ele>266</ele>
        <time>2017-06-14T08:21:56Z</time>
      </trkpt>
      <trkpt lat="45.94355" lon="4.83228">
        <ele>266</ele>
        <time>2017-06-14T08:21:57Z</time>
      </trkpt>
      <trkpt lat="45.94358" lon="4.83234">
        <ele>265</ele>
        <time>2017-06-14T08:21:58Z</time>
      </trkpt>
      <trkpt lat="45.9436" lon="4.8324">
        <ele>265</ele>
        <time>2017-06-14T08:21:59Z</time>
      </trkpt>
      <trkpt lat="45.94362" lon="4.83246">
        <ele>265</ele>
        <time>2017-06-14T08:22:00Z</time>
      </trkpt>
      <trkpt lat="45.94364" lon="4.83252">
        <ele>265</ele>
        <time>2017-06-14T08:22:01Z</time>
      </trkpt>
      <trkpt lat="45.94366" lon="4.83258">
        <ele>265</ele>
        <time>2017-06-14T08:22:02Z</time>
      </trkpt>
      <trkpt lat="45.94368" lon="4.83265">
        <ele>264</ele>
        <time>2017-06-14T08:22:03Z</time>
      </trkpt>
      <trkpt lat="45.94371" lon="4.83271">
        <ele>264</ele>
        <time>2017-06-14T08:22:04Z</time>
      </trkpt>
      <trkpt lat="45.94373" lon="4.83277">
        <ele>264</ele>
        <time>2017-06-14T08:22:05Z</time>
      </trkpt>
      <trkpt lat="45.94375" lon="4.83283">
        <ele>264</ele>
        <time>2017-06-14T08:22:06Z</time>
      </trkpt>
      <trkpt lat="45.94377" lon="4.8329">
        <ele>264</ele>
        <time>2017-06-14T08:22:07Z</time>
      </trkpt>
      <trkpt lat="45.94379" lon="4.83296">
        <ele>264</ele>
        <time>2017-06-14T08:22:08Z</time>
      </trkpt>
      <trkpt lat="45.94382" lon="4.83302">
        <ele>264</ele>
        <time>2017-06-14T08:22:09Z</time>
      </trkpt>
      <trkpt lat="45.94384" lon="4.83309">
        <ele>264</ele>
        <time>2017-06-14T08:22:10Z</time>
      </trkpt>
      <trkpt lat="45.94386" lon="4.83315">
        <ele>264</ele>
        <time>2017-06-14T08:22:11Z</time>
      </trkpt>
      <trkpt lat="45.94388" lon="4.83321">
        <ele>264</ele>
        <time>2017-06-14T08:22:12Z</time>
      </trkpt>
      <trkpt lat="45.9439" lon="4.83328">
        <ele>264</ele>
        <time>2017-06-14T08:22:13Z</time>
      </trkpt>
      <trkpt lat="45.94393" lon="4.83334">
        <ele>263</ele>
        <time>2017-06-14T08:22:14Z</time>
      </trkpt>
      <trkpt lat="45.94395" lon="4.83341">
        <ele>263</ele>
        <time>2017-06-14T08:22:15Z</time>
      </trkpt>
      <trkpt lat="45.94398" lon="4.83348">
        <ele>263</ele>
        <time>2017-06-14T08:22:16Z</time>
      </trkpt>
      <trkpt lat="45.94401" lon="4.83355">
        <ele>264</ele>
        <time>2017-06-14T08:22:17Z</time>
      </trkpt>
      <trkpt lat="45.94404" lon="4.83361">
        <ele>264</ele>
        <time>2017-06-14T08:22:18Z</time>
      </trkpt>
      <trkpt lat="45.94407" lon="4.83368">
        <ele>264</ele>
        <time>2017-06-14T08:22:19Z</time>
      </trkpt>
      <trkpt lat="45.9441" lon="4.83375">
        <ele>264</ele>
        <time>2017-06-14T08:22:20Z</time>
      </trkpt>
      <trkpt lat="45.94413" lon="4.83382">
        <ele>264</ele>
        <time>2017-06-14T08:22:21Z</time>
      </trkpt>
      <trkpt lat="45.94417" lon="4.83389">
        <ele>264</ele>
        <time>2017-06-14T08:22:22Z</time>
      </trkpt>
      <trkpt lat="45.9442" lon="4.83397">
        <ele>264</ele>
        <time>2017-06-14T08:22:23Z</time>
      </trkpt>
      <trkpt lat="45.94423" lon="4.83404">
        <ele>264</ele>
        <time>2017-06-14T08:22:24Z</time>
      </trkpt>
      <trkpt lat="45.94427" lon="4.83411">
        <ele>264</ele>
        <time>2017-06-14T08:22:25Z</time>
      </trkpt>
      <trkpt lat="45.9443" lon="4.83418">
        <ele>264</ele>
        <time>2017-06-14T08:22:26Z</time>
      </trkpt>
      <trkpt lat="45.94433" lon="4.83424">
        <ele>264</ele>
        <time>2017-06-14T08:22:27Z</time>
      </trkpt>
      <trkpt lat="45.94436" lon="4.8343">
        <ele>264</ele>
        <time>2017-06-14T08:22:28Z</time>
      </trkpt>
      <trkpt lat="45.9444" lon="4.83436">
        <ele>263</ele>
        <time>2017-06-14T08:22:29Z</time>
      </trkpt>
      <trkpt lat="45.94443" lon="4.83442">
        <ele>263</ele>
        <time>2017-06-14T08:22:30Z</time>
      </trkpt>
      <trkpt lat="45.94445" lon="4.83447">
        <ele>263</ele>
        <time>2017-06-14T08:22:31Z</time>
      </trkpt>
      <trkpt lat="45.94448" lon="4.83453">
        <ele>263</ele>
        <time>2017-06-14T08:22:32Z</time>
      </trkpt>
      <trkpt lat="45.94451" lon="4.83458">
        <ele>263</ele>
        <time>2017-06-14T08:22:33Z</time>
      </trkpt>
      <trkpt lat="45.94454" lon="4.83463">
        <ele>263</ele>
        <time>2017-06-14T08:22:34Z</time>
      </trkpt>
      <trkpt lat="45.94457" lon="4.83469">
        <ele>263</ele>
        <time>2017-06-14T08:22:35Z</time>
      </trkpt>
      <trkpt lat="45.94461" lon="4.83474">
        <ele>263</ele>
        <time>2017-06-14T08:22:36Z</time>
      </trkpt>
      <trkpt lat="45.94464" lon="4.8348">
        <ele>263</ele>
        <time>2017-06-14T08:22:37Z</time>
      </trkpt>
      <trkpt lat="45.94467" lon="4.83485">
        <ele>263</ele>
        <time>2017-06-14T08:22:38Z</time>
      </trkpt>
      <trkpt lat="45.9447" lon="4.83491">
        <ele>263</ele>
        <time>2017-06-14T08:22:39Z</time>
      </trkpt>
      <trkpt lat="45.94474" lon="4.83496">
        <ele>263</ele>
        <time>2017-06-14T08:22:40Z</time>
      </trkpt>
      <trkpt lat="45.94477" lon="4.83501">
        <ele>262</ele>
        <time>2017-06-14T08:22:41Z</time>
      </trkpt>
      <trkpt lat="45.94481" lon="4.83507">
        <ele>262</ele>
        <time>2017-06-14T08:22:42Z</time>
      </trkpt>
      <trkpt lat="45.94484" lon="4.83513">
        <ele>262</ele>
        <time>2017-06-14T08:22:43Z</time>
      </trkpt>
      <trkpt lat="45.94488" lon="4.83519">
        <ele>262</ele>
        <time>2017-06-14T08:22:44Z</time>
      </trkpt>
      <trkpt lat="45.94492" lon="4.83525">
        <ele>262</ele>
        <time>2017-06-14T08:22:45Z</time>
      </trkpt>
      <trkpt lat="45.94496" lon="4.83531">
        <ele>262</ele>
        <time>2017-06-14T08:22:46Z</time>
      </trkpt>
      <trkpt lat="45.945" lon="4.83537">
        <ele>262</ele>
        <time>2017-06-14T08:22:47Z</time>
      </trkpt>
      <trkpt lat="45.94503" lon="4.83544">
        <ele>261</ele>
        <time>2017-06-14T08:22:48Z</time>
      </trkpt>
      <trkpt lat="45.94507" lon="4.8355">
        <ele>261</ele>
        <time>2017-06-14T08:22:49Z</time>
      </trkpt>
      <trkpt lat="45.9451" lon="4.83557">
        <ele>261</ele>
        <time>2017-06-14T08:22:50Z</time>
      </trkpt>
      <trkpt lat="45.94513" lon="4.83564">
        <ele>261</ele>
        <time>2017-06-14T08:22:51Z</time>
      </trkpt>
      <trkpt lat="45.94516" lon="4.8357">
        <ele>261</ele>
        <time>2017-06-14T08:22:52Z</time>
      </trkpt>
      <trkpt lat="45.94518" lon="4.83577">
        <ele>261</ele>
        <time>2017-06-14T08:22:53Z</time>
      </trkpt>
      <trkpt lat="45.9452" lon="4.83583">
        <ele>261</ele>
        <time>2017-06-14T08:22:54Z</time>
      </trkpt>
      <trkpt lat="45.94522" lon="4.83589">
        <ele>261</ele>
        <time>2017-06-14T08:22:55Z</time>
      </trkpt>
      <trkpt lat="45.94524" lon="4.83597">
        <ele>261</ele>
        <time>2017-06-14T08:22:56Z</time>
      </trkpt>
      <trkpt lat="45.94526" lon="4.83603">
        <ele>261</ele>
        <time>2017-06-14T08:22:57Z</time>
      </trkpt>
      <trkpt lat="45.94527" lon="4.8361">
        <ele>261</ele>
        <time>2017-06-14T08:22:58Z</time>
      </trkpt>
      <trkpt lat="45.94529" lon="4.83616">
        <ele>261</ele>
        <time>2017-06-14T08:22:59Z</time>
      </trkpt>
      <trkpt lat="45.9453" lon="4.83623">
        <ele>261</ele>
        <time>2017-06-14T08:23:00Z</time>
      </trkpt>
      <trkpt lat="45.94532" lon="4.83629">
        <ele>261</ele>
        <time>2017-06-14T08:23:01Z</time>
      </trkpt>
      <trkpt lat="45.94534" lon="4.83641">
        <ele>261</ele>
        <time>2017-06-14T08:23:03Z</time>
      </trkpt>
      <trkpt lat="45.94535" lon="4.83648">
        <ele>261</ele>
        <time>2017-06-14T08:23:04Z</time>
      </trkpt>
      <trkpt lat="45.94536" lon="4.83655">
        <ele>261</ele>
        <time>2017-06-14T08:23:05Z</time>
      </trkpt>
      <trkpt lat="45.94537" lon="4.83663">
        <ele>261</ele>
        <time>2017-06-14T08:23:06Z</time>
      </trkpt>
      <trkpt lat="45.94538" lon="4.83671">
        <ele>262</ele>
        <time>2017-06-14T08:23:07Z</time>
      </trkpt>
      <trkpt lat="45.94539" lon="4.83679">
        <ele>262</ele>
        <time>2017-06-14T08:23:08Z</time>
      </trkpt>
      <trkpt lat="45.9454" lon="4.83687">
        <ele>262</ele>
        <time>2017-06-14T08:23:09Z</time>
      </trkpt>
      <trkpt lat="45.94542" lon="4.83695">
        <ele>262</ele>
        <time>2017-06-14T08:23:10Z</time>
      </trkpt>
      <trkpt lat="45.94543" lon="4.83702">
        <ele>262</ele>
        <time>2017-06-14T08:23:11Z</time>
      </trkpt>
      <trkpt lat="45.94544" lon="4.8371">
        <ele>262</ele>
        <time>2017-06-14T08:23:12Z</time>
      </trkpt>
      <trkpt lat="45.94545" lon="4.83717">
        <ele>262</ele>
        <time>2017-06-14T08:23:13Z</time>
      </trkpt>
      <trkpt lat="45.94546" lon="4.83724">
        <ele>262</ele>
        <time>2017-06-14T08:23:14Z</time>
      </trkpt>
      <trkpt lat="45.94547" lon="4.8373">
        <ele>262</ele>
        <time>2017-06-14T08:23:15Z</time>
      </trkpt>
      <trkpt lat="45.94548" lon="4.83737">
        <ele>262</ele>
        <time>2017-06-14T08:23:16Z</time>
      </trkpt>
      <trkpt lat="45.94549" lon="4.83744">
        <ele>262</ele>
        <time>2017-06-14T08:23:17Z</time>
      </trkpt>
      <trkpt lat="45.9455" lon="4.83751">
        <ele>263</ele>
        <time>2017-06-14T08:23:18Z</time>
      </trkpt>
      <trkpt lat="45.94552" lon="4.83758">
        <ele>263</ele>
        <time>2017-06-14T08:23:19Z</time>
      </trkpt>
      <trkpt lat="45.94553" lon="4.83765">
        <ele>263</ele>
        <time>2017-06-14T08:23:20Z</time>
      </trkpt>
      <trkpt lat="45.94554" lon="4.83773">
        <ele>264</ele>
        <time>2017-06-14T08:23:21Z</time>
      </trkpt>
      <trkpt lat="45.94555" lon="4.8378">
        <ele>264</ele>
        <time>2017-06-14T08:23:22Z</time>
      </trkpt>
      <trkpt lat="45.94556" lon="4.83788">
        <ele>264</ele>
        <time>2017-06-14T08:23:23Z</time>
      </trkpt>
      <trkpt lat="45.94557" lon="4.83795">
        <ele>264</ele>
        <time>2017-06-14T08:23:24Z</time>
      </trkpt>
      <trkpt lat="45.94558" lon="4.83803">
        <ele>264</ele>
        <time>2017-06-14T08:23:25Z</time>
      </trkpt>
      <trkpt lat="45.94559" lon="4.8381">
        <ele>264</ele>
        <time>2017-06-14T08:23:26Z</time>
      </trkpt>
      <trkpt lat="45.9456" lon="4.83817">
        <ele>264</ele>
        <time>2017-06-14T08:23:27Z</time>
      </trkpt>
      <trkpt lat="45.94561" lon="4.83822">
        <ele>264</ele>
        <time>2017-06-14T08:23:28Z</time>
      </trkpt>
      <trkpt lat="45.94562" lon="4.83829">
        <ele>265</ele>
        <time>2017-06-14T08:23:29Z</time>
      </trkpt>
      <trkpt lat="45.94563" lon="4.83835">
        <ele>266</ele>
        <time>2017-06-14T08:23:30Z</time>
      </trkpt>
      <trkpt lat="45.94565" lon="4.83842">
        <ele>266</ele>
        <time>2017-06-14T08:23:31Z</time>
      </trkpt>
      <trkpt lat="45.94565" lon="4.83849">
        <ele>266</ele>
        <time>2017-06-14T08:23:32Z</time>
      </trkpt>
      <trkpt lat="45.94566" lon="4.83857">
        <ele>267</ele>
        <time>2017-06-14T08:23:33Z</time>
      </trkpt>
      <trkpt lat="45.94567" lon="4.83865">
        <ele>267</ele>
        <time>2017-06-14T08:23:34Z</time>
      </trkpt>
      <trkpt lat="45.94569" lon="4.83872">
        <ele>267</ele>
        <time>2017-06-14T08:23:35Z</time>
      </trkpt>
      <trkpt lat="45.9457" lon="4.8388">
        <ele>267</ele>
        <time>2017-06-14T08:23:36Z</time>
      </trkpt>
      <trkpt lat="45.94571" lon="4.83887">
        <ele>267</ele>
        <time>2017-06-14T08:23:37Z</time>
      </trkpt>
      <trkpt lat="45.94573" lon="4.83895">
        <ele>267</ele>
        <time>2017-06-14T08:23:38Z</time>
      </trkpt>
      <trkpt lat="45.94574" lon="4.83903">
        <ele>268</ele>
        <time>2017-06-14T08:23:39Z</time>
      </trkpt>
      <trkpt lat="45.94575" lon="4.8391">
        <ele>268</ele>
        <time>2017-06-14T08:23:40Z</time>
      </trkpt>
      <trkpt lat="45.94576" lon="4.83918">
        <ele>268</ele>
        <time>2017-06-14T08:23:41Z</time>
      </trkpt>
      <trkpt lat="45.94577" lon="4.83926">
        <ele>268</ele>
        <time>2017-06-14T08:23:42Z</time>
      </trkpt>
      <trkpt lat="45.94578" lon="4.83933">
        <ele>269</ele>
        <time>2017-06-14T08:23:43Z</time>
      </trkpt>
      <trkpt lat="45.9458" lon="4.83941">
        <ele>269</ele>
        <time>2017-06-14T08:23:44Z</time>
      </trkpt>
      <trkpt lat="45.94581" lon="4.83949">
        <ele>269</ele>
        <time>2017-06-14T08:23:45Z</time>
      </trkpt>
      <trkpt lat="45.94583" lon="4.83956">
        <ele>269</ele>
        <time>2017-06-14T08:23:46Z</time>
      </trkpt>
      <trkpt lat="45.94584" lon="4.83964">
        <ele>268</ele>
        <time>2017-06-14T08:23:47Z</time>
      </trkpt>
      <trkpt lat="45.94585" lon="4.83971">
        <ele>268</ele>
        <time>2017-06-14T08:23:48Z</time>
      </trkpt>
      <trkpt lat="45.94586" lon="4.83978">
        <ele>268</ele>
        <time>2017-06-14T08:23:49Z</time>
      </trkpt>
      <trkpt lat="45.94587" lon="4.83985">
        <ele>269</ele>
        <time>2017-06-14T08:23:50Z</time>
      </trkpt>
      <trkpt lat="45.94587" lon="4.83992">
        <ele>269</ele>
        <time>2017-06-14T08:23:51Z</time>
      </trkpt>
      <trkpt lat="45.94588" lon="4.83998">
        <ele>269</ele>
        <time>2017-06-14T08:23:52Z</time>
      </trkpt>
      <trkpt lat="45.94589" lon="4.84005">
        <ele>269</ele>
        <time>2017-06-14T08:23:53Z</time>
      </trkpt>
      <trkpt lat="45.9459" lon="4.84011">
        <ele>269</ele>
        <time>2017-06-14T08:23:54Z</time>
      </trkpt>
      <trkpt lat="45.94592" lon="4.84023">
        <ele>269</ele>
        <time>2017-06-14T08:23:56Z</time>
      </trkpt>
      <trkpt lat="45.94593" lon="4.84028">
        <ele>269</ele>
        <time>2017-06-14T08:23:57Z</time>
      </trkpt>
      <trkpt lat="45.94594" lon="4.84039">
        <ele>269</ele>
        <time>2017-06-14T08:23:59Z</time>
      </trkpt>
      <trkpt lat="45.94595" lon="4.84045">
        <ele>269</ele>
        <time>2017-06-14T08:24:00Z</time>
      </trkpt>
      <trkpt lat="45.94597" lon="4.84056">
        <ele>269</ele>
        <time>2017-06-14T08:24:02Z</time>
      </trkpt>
      <trkpt lat="45.94598" lon="4.84062">
        <ele>269</ele>
        <time>2017-06-14T08:24:03Z</time>
      </trkpt>
      <trkpt lat="45.94599" lon="4.84074">
        <ele>269</ele>
        <time>2017-06-14T08:24:05Z</time>
      </trkpt>
      <trkpt lat="45.946" lon="4.8408">
        <ele>269</ele>
        <time>2017-06-14T08:24:06Z</time>
      </trkpt>
      <trkpt lat="45.94602" lon="4.8409">
        <ele>269</ele>
        <time>2017-06-14T08:24:08Z</time>
      </trkpt>
      <trkpt lat="45.94602" lon="4.84095">
        <ele>269</ele>
        <time>2017-06-14T08:24:09Z</time>
      </trkpt>
      <trkpt lat="45.94604" lon="4.84107">
        <ele>269</ele>
        <time>2017-06-14T08:24:11Z</time>
      </trkpt>
      <trkpt lat="45.94605" lon="4.84113">
        <ele>269</ele>
        <time>2017-06-14T08:24:12Z</time>
      </trkpt>
      <trkpt lat="45.94607" lon="4.84125">
        <ele>269</ele>
        <time>2017-06-14T08:24:14Z</time>
      </trkpt>
      <trkpt lat="45.94608" lon="4.8413">
        <ele>269</ele>
        <time>2017-06-14T08:24:15Z</time>
      </trkpt>
      <trkpt lat="45.9461" lon="4.84142">
        <ele>269</ele>
        <time>2017-06-14T08:24:17Z</time>
      </trkpt>
      <trkpt lat="45.94611" lon="4.84148">
        <ele>269</ele>
        <time>2017-06-14T08:24:18Z</time>
      </trkpt>
      <trkpt lat="45.94612" lon="4.84155">
        <ele>269</ele>
        <time>2017-06-14T08:24:19Z</time>
      </trkpt>
      <trkpt lat="45.94613" lon="4.84162">
        <ele>269</ele>
        <time>2017-06-14T08:24:20Z</time>
      </trkpt>
      <trkpt lat="45.94614" lon="4.84168">
        <ele>269</ele>
        <time>2017-06-14T08:24:21Z</time>
      </trkpt>
      <trkpt lat="45.94615" lon="4.84175">
        <ele>269</ele>
        <time>2017-06-14T08:24:22Z</time>
      </trkpt>
      <trkpt lat="45.94617" lon="4.84187">
        <ele>269</ele>
        <time>2017-06-14T08:24:24Z</time>
      </trkpt>
      <trkpt lat="45.94618" lon="4.84193">
        <ele>269</ele>
        <time>2017-06-14T08:24:25Z</time>
      </trkpt>
      <trkpt lat="45.9462" lon="4.84205">
        <ele>269</ele>
        <time>2017-06-14T08:24:27Z</time>
      </trkpt>
      <trkpt lat="45.94621" lon="4.84211">
        <ele>269</ele>
        <time>2017-06-14T08:24:28Z</time>
      </trkpt>
      <trkpt lat="45.94623" lon="4.84221">
        <ele>269</ele>
        <time>2017-06-14T08:24:30Z</time>
      </trkpt>
      <trkpt lat="45.94624" lon="4.84228">
        <ele>269</ele>
        <time>2017-06-14T08:24:31Z</time>
      </trkpt>
      <trkpt lat="45.94625" lon="4.84234">
        <ele>269</ele>
        <time>2017-06-14T08:24:32Z</time>
      </trkpt>
      <trkpt lat="45.94626" lon="4.84241">
        <ele>269</ele>
        <time>2017-06-14T08:24:33Z</time>
      </trkpt>
      <trkpt lat="45.94627" lon="4.84248">
        <ele>269</ele>
        <time>2017-06-14T08:24:34Z</time>
      </trkpt>
      <trkpt lat="45.94628" lon="4.84255">
        <ele>269</ele>
        <time>2017-06-14T08:24:35Z</time>
      </trkpt>
      <trkpt lat="45.94629" lon="4.84262">
        <ele>269</ele>
        <time>2017-06-14T08:24:36Z</time>
      </trkpt>
      <trkpt lat="45.9463" lon="4.84269">
        <ele>269</ele>
        <time>2017-06-14T08:24:37Z</time>
      </trkpt>
      <trkpt lat="45.9463" lon="4.84276">
        <ele>269</ele>
        <time>2017-06-14T08:24:38Z</time>
      </trkpt>
      <trkpt lat="45.94631" lon="4.84283">
        <ele>269</ele>
        <time>2017-06-14T08:24:39Z</time>
      </trkpt>
      <trkpt lat="45.94632" lon="4.84289">
        <ele>269</ele>
        <time>2017-06-14T08:24:40Z</time>
      </trkpt>
      <trkpt lat="45.94633" lon="4.84296">
        <ele>269</ele>
        <time>2017-06-14T08:24:41Z</time>
      </trkpt>
      <trkpt lat="45.94635" lon="4.84308">
        <ele>269</ele>
        <time>2017-06-14T08:24:43Z</time>
      </trkpt>
      <trkpt lat="45.94636" lon="4.84314">
        <ele>269</ele>
        <time>2017-06-14T08:24:44Z</time>
      </trkpt>
      <trkpt lat="45.94637" lon="4.84326">
        <ele>269</ele>
        <time>2017-06-14T08:24:46Z</time>
      </trkpt>
      <trkpt lat="45.94638" lon="4.84332">
        <ele>269</ele>
        <time>2017-06-14T08:24:47Z</time>
      </trkpt>
      <trkpt lat="45.94639" lon="4.84345">
        <ele>268</ele>
        <time>2017-06-14T08:24:49Z</time>
      </trkpt>
      <trkpt lat="45.9464" lon="4.84351">
        <ele>268</ele>
        <time>2017-06-14T08:24:50Z</time>
      </trkpt>
      <trkpt lat="45.94641" lon="4.84358">
        <ele>268</ele>
        <time>2017-06-14T08:24:51Z</time>
      </trkpt>
      <trkpt lat="45.94642" lon="4.84365">
        <ele>268</ele>
        <time>2017-06-14T08:24:52Z</time>
      </trkpt>
      <trkpt lat="45.94642" lon="4.84372">
        <ele>268</ele>
        <time>2017-06-14T08:24:53Z</time>
      </trkpt>
      <trkpt lat="45.94643" lon="4.84379">
        <ele>268</ele>
        <time>2017-06-14T08:24:54Z</time>
      </trkpt>
      <trkpt lat="45.94644" lon="4.84386">
        <ele>268</ele>
        <time>2017-06-14T08:24:55Z</time>
      </trkpt>
      <trkpt lat="45.94645" lon="4.84393">
        <ele>268</ele>
        <time>2017-06-14T08:24:56Z</time>
      </trkpt>
      <trkpt lat="45.94647" lon="4.84405">
        <ele>268</ele>
        <time>2017-06-14T08:24:58Z</time>
      </trkpt>
      <trkpt lat="45.94647" lon="4.84411">
        <ele>268</ele>
        <time>2017-06-14T08:24:59Z</time>
      </trkpt>
      <trkpt lat="45.94648" lon="4.84424">
        <ele>268</ele>
        <time>2017-06-14T08:25:01Z</time>
      </trkpt>
      <trkpt lat="45.94649" lon="4.8443">
        <ele>268</ele>
        <time>2017-06-14T08:25:02Z</time>
      </trkpt>
      <trkpt lat="45.9465" lon="4.84442">
        <ele>268</ele>
        <time>2017-06-14T08:25:04Z</time>
      </trkpt>
      <trkpt lat="45.94651" lon="4.84448">
        <ele>268</ele>
        <time>2017-06-14T08:25:05Z</time>
      </trkpt>
      <trkpt lat="45.94651" lon="4.84454">
        <ele>268</ele>
        <time>2017-06-14T08:25:06Z</time>
      </trkpt>
      <trkpt lat="45.94652" lon="4.84461">
        <ele>268</ele>
        <time>2017-06-14T08:25:07Z</time>
      </trkpt>
      <trkpt lat="45.94653" lon="4.84468">
        <ele>268</ele>
        <time>2017-06-14T08:25:08Z</time>
      </trkpt>
      <trkpt lat="45.94653" lon="4.84475">
        <ele>268</ele>
        <time>2017-06-14T08:25:09Z</time>
      </trkpt>
      <trkpt lat="45.94654" lon="4.84482">
        <ele>268</ele>
        <time>2017-06-14T08:25:10Z</time>
      </trkpt>
      <trkpt lat="45.94655" lon="4.84489">
        <ele>268</ele>
        <time>2017-06-14T08:25:11Z</time>
      </trkpt>
      <trkpt lat="45.94656" lon="4.84496">
        <ele>268</ele>
        <time>2017-06-14T08:25:12Z</time>
      </trkpt>
      <trkpt lat="45.94656" lon="4.84503">
        <ele>268</ele>
        <time>2017-06-14T08:25:13Z</time>
      </trkpt>
      <trkpt lat="45.94658" lon="4.84515">
        <ele>268</ele>
        <time>2017-06-14T08:25:15Z</time>
      </trkpt>
      <trkpt lat="45.94658" lon="4.84522">
        <ele>268</ele>
        <time>2017-06-14T08:25:16Z</time>
      </trkpt>
      <trkpt lat="45.94659" lon="4.84528">
        <ele>268</ele>
        <time>2017-06-14T08:25:17Z</time>
      </trkpt>
      <trkpt lat="45.94659" lon="4.84535">
        <ele>268</ele>
        <time>2017-06-14T08:25:18Z</time>
      </trkpt>
      <trkpt lat="45.94661" lon="4.84547">
        <ele>268</ele>
        <time>2017-06-14T08:25:20Z</time>
      </trkpt>
      <trkpt lat="45.94661" lon="4.84553">
        <ele>268</ele>
        <time>2017-06-14T08:25:21Z</time>
      </trkpt>
      <trkpt lat="45.94662" lon="4.84564">
        <ele>268</ele>
        <time>2017-06-14T08:25:23Z</time>
      </trkpt>
      <trkpt lat="45.94663" lon="4.8457">
        <ele>268</ele>
        <time>2017-06-14T08:25:24Z</time>
      </trkpt>
      <trkpt lat="45.94663" lon="4.8458">
        <ele>268</ele>
        <time>2017-06-14T08:25:26Z</time>
      </trkpt>
      <trkpt lat="45.94664" lon="4.84586">
        <ele>268</ele>
        <time>2017-06-14T08:25:27Z</time>
      </trkpt>
      <trkpt lat="45.94664" lon="4.84598">
        <ele>268</ele>
        <time>2017-06-14T08:25:29Z</time>
      </trkpt>
      <trkpt lat="45.94665" lon="4.84604">
        <ele>268</ele>
        <time>2017-06-14T08:25:30Z</time>
      </trkpt>
      <trkpt lat="45.94665" lon="4.84611">
        <ele>268</ele>
        <time>2017-06-14T08:25:31Z</time>
      </trkpt>
      <trkpt lat="45.94665" lon="4.84618">
        <ele>268</ele>
        <time>2017-06-14T08:25:32Z</time>
      </trkpt>
      <trkpt lat="45.94666" lon="4.84625">
        <ele>268</ele>
        <time>2017-06-14T08:25:33Z</time>
      </trkpt>
      <trkpt lat="45.94666" lon="4.84632">
        <ele>268</ele>
        <time>2017-06-14T08:25:34Z</time>
      </trkpt>
      <trkpt lat="45.94667" lon="4.8464">
        <ele>268</ele>
        <time>2017-06-14T08:25:35Z</time>
      </trkpt>
      <trkpt lat="45.94667" lon="4.84647">
        <ele>268</ele>
        <time>2017-06-14T08:25:36Z</time>
      </trkpt>
      <trkpt lat="45.94667" lon="4.84655">
        <ele>268</ele>
        <time>2017-06-14T08:25:37Z</time>
      </trkpt>
      <trkpt lat="45.94668" lon="4.84662">
        <ele>269</ele>
        <time>2017-06-14T08:25:38Z</time>
      </trkpt>
      <trkpt lat="45.94668" lon="4.8467">
        <ele>269</ele>
        <time>2017-06-14T08:25:39Z</time>
      </trkpt>
      <trkpt lat="45.94668" lon="4.84677">
        <ele>269</ele>
        <time>2017-06-14T08:25:40Z</time>
      </trkpt>
      <trkpt lat="45.94668" lon="4.84683">
        <ele>269</ele>
        <time>2017-06-14T08:25:41Z</time>
      </trkpt>
      <trkpt lat="45.94668" lon="4.8469">
        <ele>269</ele>
        <time>2017-06-14T08:25:42Z</time>
      </trkpt>
      <trkpt lat="45.94668" lon="4.84702">
        <ele>269</ele>
        <time>2017-06-14T08:25:44Z</time>
      </trkpt>
      <trkpt lat="45.94669" lon="4.84708">
        <ele>269</ele>
        <time>2017-06-14T08:25:45Z</time>
      </trkpt>
      <trkpt lat="45.94669" lon="4.8472">
        <ele>269</ele>
        <time>2017-06-14T08:25:47Z</time>
      </trkpt>
      <trkpt lat="45.9467" lon="4.84727">
        <ele>269</ele>
        <time>2017-06-14T08:25:48Z</time>
      </trkpt>
      <trkpt lat="45.9467" lon="4.84733">
        <ele>269</ele>
        <time>2017-06-14T08:25:49Z</time>
      </trkpt>
      <trkpt lat="45.9467" lon="4.8474">
        <ele>269</ele>
        <time>2017-06-14T08:25:50Z</time>
      </trkpt>
      <trkpt lat="45.94671" lon="4.84746">
        <ele>269</ele>
        <time>2017-06-14T08:25:51Z</time>
      </trkpt>
      <trkpt lat="45.94671" lon="4.84753">
        <ele>269</ele>
        <time>2017-06-14T08:25:52Z</time>
      </trkpt>
      <trkpt lat="45.94672" lon="4.8476">
        <ele>269</ele>
        <time>2017-06-14T08:25:53Z</time>
      </trkpt>
      <trkpt lat="45.94672" lon="4.84767">
        <ele>269</ele>
        <time>2017-06-14T08:25:54Z</time>
      </trkpt>
      <trkpt lat="45.94672" lon="4.84774">
        <ele>269</ele>
        <time>2017-06-14T08:25:55Z</time>
      </trkpt>
      <trkpt lat="45.94673" lon="4.84782">
        <ele>269</ele>
        <time>2017-06-14T08:25:56Z</time>
      </trkpt>
      <trkpt lat="45.94673" lon="4.84789">
        <ele>269</ele>
        <time>2017-06-14T08:25:57Z</time>
      </trkpt>
      <trkpt lat="45.94674" lon="4.84796">
        <ele>268</ele>
        <time>2017-06-14T08:25:58Z</time>
      </trkpt>
      <trkpt lat="45.94674" lon="4.84804">
        <ele>268</ele>
        <time>2017-06-14T08:25:59Z</time>
      </trkpt>
      <trkpt lat="45.94675" lon="4.8481">
        <ele>268</ele>
        <time>2017-06-14T08:26:00Z</time>
      </trkpt>
      <trkpt lat="45.94676" lon="4.84817">
        <ele>268</ele>
        <time>2017-06-14T08:26:01Z</time>
      </trkpt>
      <trkpt lat="45.94676" lon="4.84824">
        <ele>268</ele>
        <time>2017-06-14T08:26:02Z</time>
      </trkpt>
      <trkpt lat="45.94677" lon="4.84836">
        <ele>268</ele>
        <time>2017-06-14T08:26:04Z</time>
      </trkpt>
      <trkpt lat="45.94678" lon="4.84842">
        <ele>268</ele>
        <time>2017-06-14T08:26:05Z</time>
      </trkpt>
      <trkpt lat="45.94678" lon="4.84849">
        <ele>268</ele>
        <time>2017-06-14T08:26:06Z</time>
      </trkpt>
      <trkpt lat="45.94679" lon="4.84855">
        <ele>268</ele>
        <time>2017-06-14T08:26:07Z</time>
      </trkpt>
      <trkpt lat="45.9468" lon="4.84861">
        <ele>268</ele>
        <time>2017-06-14T08:26:08Z</time>
      </trkpt>
      <trkpt lat="45.9468" lon="4.84868">
        <ele>268</ele>
        <time>2017-06-14T08:26:09Z</time>
      </trkpt>
      <trkpt lat="45.94681" lon="4.84875">
        <ele>268</ele>
        <time>2017-06-14T08:26:10Z</time>
      </trkpt>
      <trkpt lat="45.94682" lon="4.84881">
        <ele>268</ele>
        <time>2017-06-14T08:26:11Z</time>
      </trkpt>
      <trkpt lat="45.94682" lon="4.84888">
        <ele>268</ele>
        <time>2017-06-14T08:26:12Z</time>
      </trkpt>
      <trkpt lat="45.94683" lon="4.84896">
        <ele>268</ele>
        <time>2017-06-14T08:26:13Z</time>
      </trkpt>
      <trkpt lat="45.94683" lon="4.84903">
        <ele>269</ele>
        <time>2017-06-14T08:26:14Z</time>
      </trkpt>
      <trkpt lat="45.94684" lon="4.8491">
        <ele>269</ele>
        <time>2017-06-14T08:26:15Z</time>
      </trkpt>
      <trkpt lat="45.94684" lon="4.84917">
        <ele>269</ele>
        <time>2017-06-14T08:26:16Z</time>
      </trkpt>
      <trkpt lat="45.94685" lon="4.84925">
        <ele>269</ele>
        <time>2017-06-14T08:26:17Z</time>
      </trkpt>
      <trkpt lat="45.94686" lon="4.84932">
        <ele>269</ele>
        <time>2017-06-14T08:26:18Z</time>
      </trkpt>
      <trkpt lat="45.94687" lon="4.84939">
        <ele>269</ele>
        <time>2017-06-14T08:26:19Z</time>
      </trkpt>
      <trkpt lat="45.94688" lon="4.84947">
        <ele>269</ele>
        <time>2017-06-14T08:26:20Z</time>
      </trkpt>
      <trkpt lat="45.94689" lon="4.84954">
        <ele>269</ele>
        <time>2017-06-14T08:26:21Z</time>
      </trkpt>
      <trkpt lat="45.9469" lon="4.84961">
        <ele>269</ele>
        <time>2017-06-14T08:26:22Z</time>
      </trkpt>
      <trkpt lat="45.9469" lon="4.84968">
        <ele>269</ele>
        <time>2017-06-14T08:26:23Z</time>
      </trkpt>
      <trkpt lat="45.94691" lon="4.84974">
        <ele>269</ele>
        <time>2017-06-14T08:26:24Z</time>
      </trkpt>
      <trkpt lat="45.94692" lon="4.84981">
        <ele>269</ele>
        <time>2017-06-14T08:26:25Z</time>
      </trkpt>
      <trkpt lat="45.94693" lon="4.84988">
        <ele>269</ele>
        <time>2017-06-14T08:26:26Z</time>
      </trkpt>
      <trkpt lat="45.94694" lon="4.84994">
        <ele>269</ele>
        <time>2017-06-14T08:26:27Z</time>
      </trkpt>
      <trkpt lat="45.94694" lon="4.85001">
        <ele>269</ele>
        <time>2017-06-14T08:26:28Z</time>
      </trkpt>
      <trkpt lat="45.94695" lon="4.85008">
        <ele>269</ele>
        <time>2017-06-14T08:26:29Z</time>
      </trkpt>
      <trkpt lat="45.94696" lon="4.85014">
        <ele>269</ele>
        <time>2017-06-14T08:26:30Z</time>
      </trkpt>
      <trkpt lat="45.94697" lon="4.85021">
        <ele>269</ele>
        <time>2017-06-14T08:26:31Z</time>
      </trkpt>
      <trkpt lat="45.94697" lon="4.85028">
        <ele>269</ele>
        <time>2017-06-14T08:26:32Z</time>
      </trkpt>
      <trkpt lat="45.94698" lon="4.85035">
        <ele>269</ele>
        <time>2017-06-14T08:26:33Z</time>
      </trkpt>
      <trkpt lat="45.94699" lon="4.85043">
        <ele>269</ele>
        <time>2017-06-14T08:26:34Z</time>
      </trkpt>
      <trkpt lat="45.947" lon="4.8505">
        <ele>269</ele>
        <time>2017-06-14T08:26:35Z</time>
      </trkpt>
      <trkpt lat="45.947" lon="4.85058">
        <ele>269</ele>
        <time>2017-06-14T08:26:36Z</time>
      </trkpt>
      <trkpt lat="45.94701" lon="4.85065">
        <ele>269</ele>
        <time>2017-06-14T08:26:37Z</time>
      </trkpt>
      <trkpt lat="45.94702" lon="4.85073">
        <ele>269</ele>
        <time>2017-06-14T08:26:38Z</time>
      </trkpt>
      <trkpt lat="45.94703" lon="4.85081">
        <ele>269</ele>
        <time>2017-06-14T08:26:39Z</time>
      </trkpt>
      <trkpt lat="45.94703" lon="4.85089">
        <ele>269</ele>
        <time>2017-06-14T08:26:40Z</time>
      </trkpt>
      <trkpt lat="45.94704" lon="4.85097">
        <ele>269</ele>
        <time>2017-06-14T08:26:41Z</time>
      </trkpt>
      <trkpt lat="45.94705" lon="4.85105">
        <ele>269</ele>
        <time>2017-06-14T08:26:42Z</time>
      </trkpt>
      <trkpt lat="45.94706" lon="4.85113">
        <ele>269</ele>
        <time>2017-06-14T08:26:43Z</time>
      </trkpt>
      <trkpt lat="45.94707" lon="4.85121">
        <ele>269</ele>
        <time>2017-06-14T08:26:44Z</time>
      </trkpt>
      <trkpt lat="45.94708" lon="4.85129">
        <ele>269</ele>
        <time>2017-06-14T08:26:45Z</time>
      </trkpt>
      <trkpt lat="45.94709" lon="4.85138">
        <ele>269</ele>
        <time>2017-06-14T08:26:46Z</time>
      </trkpt>
      <trkpt lat="45.94709" lon="4.85146">
        <ele>269</ele>
        <time>2017-06-14T08:26:47Z</time>
      </trkpt>
      <trkpt lat="45.9471" lon="4.85153">
        <ele>269</ele>
        <time>2017-06-14T08:26:48Z</time>
      </trkpt>
      <trkpt lat="45.94711" lon="4.85161">
        <ele>269</ele>
        <time>2017-06-14T08:26:49Z</time>
      </trkpt>
      <trkpt lat="45.94712" lon="4.85168">
        <ele>269</ele>
        <time>2017-06-14T08:26:50Z</time>
      </trkpt>
      <trkpt lat="45.94713" lon="4.85175">
        <ele>269</ele>
        <time>2017-06-14T08:26:51Z</time>
      </trkpt>
      <trkpt lat="45.94713" lon="4.85182">
        <ele>269</ele>
        <time>2017-06-14T08:26:52Z</time>
      </trkpt>
      <trkpt lat="45.94714" lon="4.85189">
        <ele>269</ele>
        <time>2017-06-14T08:26:53Z</time>
      </trkpt>
      <trkpt lat="45.94715" lon="4.85201">
        <ele>269</ele>
        <time>2017-06-14T08:26:55Z</time>
      </trkpt>
      <trkpt lat="45.94716" lon="4.85208">
        <ele>269</ele>
        <time>2017-06-14T08:26:56Z</time>
      </trkpt>
      <trkpt lat="45.94717" lon="4.85214">
        <ele>269</ele>
        <time>2017-06-14T08:26:57Z</time>
      </trkpt>
      <trkpt lat="45.94718" lon="4.8522">
        <ele>269</ele>
        <time>2017-06-14T08:26:58Z</time>
      </trkpt>
      <trkpt lat="45.94718" lon="4.85227">
        <ele>269</ele>
        <time>2017-06-14T08:26:59Z</time>
      </trkpt>
      <trkpt lat="45.94719" lon="4.85234">
        <ele>269</ele>
        <time>2017-06-14T08:27:00Z</time>
      </trkpt>
      <trkpt lat="45.9472" lon="4.85241">
        <ele>269</ele>
        <time>2017-06-14T08:27:01Z</time>
      </trkpt>
      <trkpt lat="45.9472" lon="4.85247">
        <ele>269</ele>
        <time>2017-06-14T08:27:02Z</time>
      </trkpt>
      <trkpt lat="45.94721" lon="4.85259">
        <ele>269</ele>
        <time>2017-06-14T08:27:04Z</time>
      </trkpt>
      <trkpt lat="45.94721" lon="4.85265">
        <ele>269</ele>
        <time>2017-06-14T08:27:05Z</time>
      </trkpt>
      <trkpt lat="45.94722" lon="4.85277">
        <ele>269</ele>
        <time>2017-06-14T08:27:07Z</time>
      </trkpt>
      <trkpt lat="45.94723" lon="4.85284">
        <ele>269</ele>
        <time>2017-06-14T08:27:08Z</time>
      </trkpt>
      <trkpt lat="45.94725" lon="4.85295">
        <ele>270</ele>
        <time>2017-06-14T08:27:10Z</time>
      </trkpt>
      <trkpt lat="45.94725" lon="4.85301">
        <ele>270</ele>
        <time>2017-06-14T08:27:11Z</time>
      </trkpt>
      <trkpt lat="45.94727" lon="4.85314">
        <ele>270</ele>
        <time>2017-06-14T08:27:13Z</time>
      </trkpt>
      <trkpt lat="45.94727" lon="4.85321">
        <ele>270</ele>
        <time>2017-06-14T08:27:14Z</time>
      </trkpt>
      <trkpt lat="45.94728" lon="4.85328">
        <ele>270</ele>
        <time>2017-06-14T08:27:15Z</time>
      </trkpt>
      <trkpt lat="45.94729" lon="4.85334">
        <ele>271</ele>
        <time>2017-06-14T08:27:16Z</time>
      </trkpt>
      <trkpt lat="45.94729" lon="4.85341">
        <ele>271</ele>
        <time>2017-06-14T08:27:17Z</time>
      </trkpt>
      <trkpt lat="45.9473" lon="4.85349">
        <ele>271</ele>
        <time>2017-06-14T08:27:18Z</time>
      </trkpt>
      <trkpt lat="45.94731" lon="4.85356">
        <ele>271</ele>
        <time>2017-06-14T08:27:19Z</time>
      </trkpt>
      <trkpt lat="45.94732" lon="4.85363">
        <ele>271</ele>
        <time>2017-06-14T08:27:20Z</time>
      </trkpt>
      <trkpt lat="45.94732" lon="4.85371">
        <ele>271</ele>
        <time>2017-06-14T08:27:21Z</time>
      </trkpt>
      <trkpt lat="45.94733" lon="4.85378">
        <ele>271</ele>
        <time>2017-06-14T08:27:22Z</time>
      </trkpt>
      <trkpt lat="45.94734" lon="4.85386">
        <ele>272</ele>
        <time>2017-06-14T08:27:23Z</time>
      </trkpt>
      <trkpt lat="45.94734" lon="4.85393">
        <ele>272</ele>
        <time>2017-06-14T08:27:24Z</time>
      </trkpt>
      <trkpt lat="45.94735" lon="4.854">
        <ele>272</ele>
        <time>2017-06-14T08:27:25Z</time>
      </trkpt>
      <trkpt lat="45.94736" lon="4.85407">
        <ele>272</ele>
        <time>2017-06-14T08:27:26Z</time>
      </trkpt>
      <trkpt lat="45.94737" lon="4.85414">
        <ele>272</ele>
        <time>2017-06-14T08:27:27Z</time>
      </trkpt>
      <trkpt lat="45.94738" lon="4.85421">
        <ele>273</ele>
        <time>2017-06-14T08:27:28Z</time>
      </trkpt>
      <trkpt lat="45.94739" lon="4.85427">
        <ele>273</ele>
        <time>2017-06-14T08:27:29Z</time>
      </trkpt>
      <trkpt lat="45.9474" lon="4.85434">
        <ele>273</ele>
        <time>2017-06-14T08:27:30Z</time>
      </trkpt>
      <trkpt lat="45.9474" lon="4.85441">
        <ele>274</ele>
        <time>2017-06-14T08:27:31Z</time>
      </trkpt>
      <trkpt lat="45.94741" lon="4.85447">
        <ele>274</ele>
        <time>2017-06-14T08:27:32Z</time>
      </trkpt>
      <trkpt lat="45.94742" lon="4.85454">
        <ele>274</ele>
        <time>2017-06-14T08:27:33Z</time>
      </trkpt>
      <trkpt lat="45.94743" lon="4.85461">
        <ele>274</ele>
        <time>2017-06-14T08:27:34Z</time>
      </trkpt>
      <trkpt lat="45.94744" lon="4.85469">
        <ele>274</ele>
        <time>2017-06-14T08:27:35Z</time>
      </trkpt>
      <trkpt lat="45.94744" lon="4.85476">
        <ele>275</ele>
        <time>2017-06-14T08:27:36Z</time>
      </trkpt>
      <trkpt lat="45.94745" lon="4.85483">
        <ele>275</ele>
        <time>2017-06-14T08:27:37Z</time>
      </trkpt>
      <trkpt lat="45.94746" lon="4.85491">
        <ele>275</ele>
        <time>2017-06-14T08:27:38Z</time>
      </trkpt>
      <trkpt lat="45.94748" lon="4.85498">
        <ele>276</ele>
        <time>2017-06-14T08:27:39Z</time>
      </trkpt>
      <trkpt lat="45.94749" lon="4.85505">
        <ele>276</ele>
        <time>2017-06-14T08:27:40Z</time>
      </trkpt>
      <trkpt lat="45.9475" lon="4.85513">
        <ele>276</ele>
        <time>2017-06-14T08:27:41Z</time>
      </trkpt>
      <trkpt lat="45.94751" lon="4.8552">
        <ele>277</ele>
        <time>2017-06-14T08:27:42Z</time>
      </trkpt>
      <trkpt lat="45.94752" lon="4.85528">
        <ele>278</ele>
        <time>2017-06-14T08:27:43Z</time>
      </trkpt>
      <trkpt lat="45.94754" lon="4.85535">
        <ele>278</ele>
        <time>2017-06-14T08:27:44Z</time>
      </trkpt>
      <trkpt lat="45.94755" lon="4.85542">
        <ele>278</ele>
        <time>2017-06-14T08:27:45Z</time>
      </trkpt>
      <trkpt lat="45.94756" lon="4.8555">
        <ele>278</ele>
        <time>2017-06-14T08:27:46Z</time>
      </trkpt>
      <trkpt lat="45.94757" lon="4.85557">
        <ele>278</ele>
        <time>2017-06-14T08:27:47Z</time>
      </trkpt>
      <trkpt lat="45.94758" lon="4.85564">
        <ele>279</ele>
        <time>2017-06-14T08:27:48Z</time>
      </trkpt>
      <trkpt lat="45.9476" lon="4.85571">
        <ele>279</ele>
        <time>2017-06-14T08:27:49Z</time>
      </trkpt>
      <trkpt lat="45.94761" lon="4.85578">
        <ele>279</ele>
        <time>2017-06-14T08:27:50Z</time>
      </trkpt>
      <trkpt lat="45.94762" lon="4.85585">
        <ele>280</ele>
        <time>2017-06-14T08:27:51Z</time>
      </trkpt>
      <trkpt lat="45.94764" lon="4.85592">
        <ele>280</ele>
        <time>2017-06-14T08:27:52Z</time>
      </trkpt>
      <trkpt lat="45.94765" lon="4.856">
        <ele>280</ele>
        <time>2017-06-14T08:27:53Z</time>
      </trkpt>
      <trkpt lat="45.94767" lon="4.85607">
        <ele>280</ele>
        <time>2017-06-14T08:27:54Z</time>
      </trkpt>
      <trkpt lat="45.94769" lon="4.85615">
        <ele>280</ele>
        <time>2017-06-14T08:27:55Z</time>
      </trkpt>
      <trkpt lat="45.9477" lon="4.85622">
        <ele>280</ele>
        <time>2017-06-14T08:27:56Z</time>
      </trkpt>
      <trkpt lat="45.94772" lon="4.85629">
        <ele>280</ele>
        <time>2017-06-14T08:27:57Z</time>
      </trkpt>
      <trkpt lat="45.94773" lon="4.85636">
        <ele>281</ele>
        <time>2017-06-14T08:27:58Z</time>
      </trkpt>
      <trkpt lat="45.94776" lon="4.85648">
        <ele>281</ele>
        <time>2017-06-14T08:28:00Z</time>
      </trkpt>
      <trkpt lat="45.94778" lon="4.85653">
        <ele>281</ele>
        <time>2017-06-14T08:28:01Z</time>
      </trkpt>
      <trkpt lat="45.9478" lon="4.85664">
        <ele>281</ele>
        <time>2017-06-14T08:28:03Z</time>
      </trkpt>
      <trkpt lat="45.94781" lon="4.8567">
        <ele>280</ele>
        <time>2017-06-14T08:28:04Z</time>
      </trkpt>
      <trkpt lat="45.94784" lon="4.8568">
        <ele>280</ele>
        <time>2017-06-14T08:28:06Z</time>
      </trkpt>
      <trkpt lat="45.94785" lon="4.85686">
        <ele>280</ele>
        <time>2017-06-14T08:28:07Z</time>
      </trkpt>
      <trkpt lat="45.94788" lon="4.85696">
        <ele>280</ele>
        <time>2017-06-14T08:28:09Z</time>
      </trkpt>
      <trkpt lat="45.94789" lon="4.85702">
        <ele>280</ele>
        <time>2017-06-14T08:28:10Z</time>
      </trkpt>
      <trkpt lat="45.94792" lon="4.85712">
        <ele>280</ele>
        <time>2017-06-14T08:28:12Z</time>
      </trkpt>
      <trkpt lat="45.94793" lon="4.85718">
        <ele>280</ele>
        <time>2017-06-14T08:28:13Z</time>
      </trkpt>
      <trkpt lat="45.94797" lon="4.85728">
        <ele>280</ele>
        <time>2017-06-14T08:28:15Z</time>
      </trkpt>
      <trkpt lat="45.94799" lon="4.85734">
        <ele>280</ele>
        <time>2017-06-14T08:28:16Z</time>
      </trkpt>
      <trkpt lat="45.94802" lon="4.85745">
        <ele>279</ele>
        <time>2017-06-14T08:28:18Z</time>
      </trkpt>
      <trkpt lat="45.94803" lon="4.85751">
        <ele>278</ele>
        <time>2017-06-14T08:28:19Z</time>
      </trkpt>
      <trkpt lat="45.94805" lon="4.85757">
        <ele>278</ele>
        <time>2017-06-14T08:28:20Z</time>
      </trkpt>
      <trkpt lat="45.94807" lon="4.85763">
        <ele>278</ele>
        <time>2017-06-14T08:28:21Z</time>
      </trkpt>
      <trkpt lat="45.94808" lon="4.8577">
        <ele>278</ele>
        <time>2017-06-14T08:28:22Z</time>
      </trkpt>
      <trkpt lat="45.9481" lon="4.85777">
        <ele>278</ele>
        <time>2017-06-14T08:28:23Z</time>
      </trkpt>
      <trkpt lat="45.94812" lon="4.85783">
        <ele>278</ele>
        <time>2017-06-14T08:28:24Z</time>
      </trkpt>
      <trkpt lat="45.94814" lon="4.85791">
        <ele>278</ele>
        <time>2017-06-14T08:28:25Z</time>
      </trkpt>
      <trkpt lat="45.94816" lon="4.85798">
        <ele>278</ele>
        <time>2017-06-14T08:28:26Z</time>
      </trkpt>
      <trkpt lat="45.94817" lon="4.85805">
        <ele>278</ele>
        <time>2017-06-14T08:28:27Z</time>
      </trkpt>
      <trkpt lat="45.94819" lon="4.85812">
        <ele>278</ele>
        <time>2017-06-14T08:28:28Z</time>
      </trkpt>
      <trkpt lat="45.94821" lon="4.85819">
        <ele>278</ele>
        <time>2017-06-14T08:28:29Z</time>
      </trkpt>
      <trkpt lat="45.94822" lon="4.85826">
        <ele>277</ele>
        <time>2017-06-14T08:28:30Z</time>
      </trkpt>
      <trkpt lat="45.94824" lon="4.85834">
        <ele>277</ele>
        <time>2017-06-14T08:28:31Z</time>
      </trkpt>
      <trkpt lat="45.94826" lon="4.8584">
        <ele>277</ele>
        <time>2017-06-14T08:28:32Z</time>
      </trkpt>
      <trkpt lat="45.94828" lon="4.85847">
        <ele>277</ele>
        <time>2017-06-14T08:28:33Z</time>
      </trkpt>
      <trkpt lat="45.9483" lon="4.85853">
        <ele>277</ele>
        <time>2017-06-14T08:28:34Z</time>
      </trkpt>
      <trkpt lat="45.94832" lon="4.8586">
        <ele>277</ele>
        <time>2017-06-14T08:28:35Z</time>
      </trkpt>
      <trkpt lat="45.94834" lon="4.85867">
        <ele>276</ele>
        <time>2017-06-14T08:28:36Z</time>
      </trkpt>
      <trkpt lat="45.94835" lon="4.85874">
        <ele>276</ele>
        <time>2017-06-14T08:28:37Z</time>
      </trkpt>
      <trkpt lat="45.94837" lon="4.85882">
        <ele>276</ele>
        <time>2017-06-14T08:28:38Z</time>
      </trkpt>
      <trkpt lat="45.94839" lon="4.85888">
        <ele>276</ele>
        <time>2017-06-14T08:28:39Z</time>
      </trkpt>
      <trkpt lat="45.94841" lon="4.85895">
        <ele>276</ele>
        <time>2017-06-14T08:28:40Z</time>
      </trkpt>
      <trkpt lat="45.94843" lon="4.85903">
        <ele>276</ele>
        <time>2017-06-14T08:28:41Z</time>
      </trkpt>
      <trkpt lat="45.94845" lon="4.8591">
        <ele>275</ele>
        <time>2017-06-14T08:28:42Z</time>
      </trkpt>
      <trkpt lat="45.94847" lon="4.85917">
        <ele>275</ele>
        <time>2017-06-14T08:28:43Z</time>
      </trkpt>
      <trkpt lat="45.94849" lon="4.85925">
        <ele>275</ele>
        <time>2017-06-14T08:28:44Z</time>
      </trkpt>
      <trkpt lat="45.94851" lon="4.85932">
        <ele>275</ele>
        <time>2017-06-14T08:28:45Z</time>
      </trkpt>
      <trkpt lat="45.94853" lon="4.85939">
        <ele>275</ele>
        <time>2017-06-14T08:28:46Z</time>
      </trkpt>
      <trkpt lat="45.94855" lon="4.85946">
        <ele>275</ele>
        <time>2017-06-14T08:28:47Z</time>
      </trkpt>
      <trkpt lat="45.94857" lon="4.85953">
        <ele>275</ele>
        <time>2017-06-14T08:28:48Z</time>
      </trkpt>
      <trkpt lat="45.94858" lon="4.85961">
        <ele>275</ele>
        <time>2017-06-14T08:28:49Z</time>
      </trkpt>
      <trkpt lat="45.9486" lon="4.85968">
        <ele>275</ele>
        <time>2017-06-14T08:28:50Z</time>
      </trkpt>
      <trkpt lat="45.94862" lon="4.85976">
        <ele>275</ele>
        <time>2017-06-14T08:28:51Z</time>
      </trkpt>
      <trkpt lat="45.94864" lon="4.85984">
        <ele>275</ele>
        <time>2017-06-14T08:28:52Z</time>
      </trkpt>
      <trkpt lat="45.94867" lon="4.85992">
        <ele>275</ele>
        <time>2017-06-14T08:28:53Z</time>
      </trkpt>
      <trkpt lat="45.94869" lon="4.86">
        <ele>275</ele>
        <time>2017-06-14T08:28:54Z</time>
      </trkpt>
      <trkpt lat="45.94871" lon="4.86007">
        <ele>274</ele>
        <time>2017-06-14T08:28:55Z</time>
      </trkpt>
      <trkpt lat="45.94873" lon="4.86015">
        <ele>274</ele>
        <time>2017-06-14T08:28:56Z</time>
      </trkpt>
      <trkpt lat="45.94875" lon="4.86022">
        <ele>274</ele>
        <time>2017-06-14T08:28:57Z</time>
      </trkpt>
      <trkpt lat="45.94877" lon="4.8603">
        <ele>274</ele>
        <time>2017-06-14T08:28:58Z</time>
      </trkpt>
      <trkpt lat="45.94878" lon="4.86037">
        <ele>274</ele>
        <time>2017-06-14T08:28:59Z</time>
      </trkpt>
      <trkpt lat="45.9488" lon="4.86044">
        <ele>274</ele>
        <time>2017-06-14T08:29:00Z</time>
      </trkpt>
      <trkpt lat="45.94882" lon="4.86051">
        <ele>274</ele>
        <time>2017-06-14T08:29:01Z</time>
      </trkpt>
      <trkpt lat="45.94884" lon="4.86058">
        <ele>274</ele>
        <time>2017-06-14T08:29:02Z</time>
      </trkpt>
      <trkpt lat="45.94886" lon="4.86064">
        <ele>274</ele>
        <time>2017-06-14T08:29:03Z</time>
      </trkpt>
      <trkpt lat="45.94888" lon="4.86071">
        <ele>274</ele>
        <time>2017-06-14T08:29:04Z</time>
      </trkpt>
      <trkpt lat="45.9489" lon="4.86078">
        <ele>274</ele>
        <time>2017-06-14T08:29:05Z</time>
      </trkpt>
      <trkpt lat="45.94892" lon="4.86085">
        <ele>274</ele>
        <time>2017-06-14T08:29:06Z</time>
      </trkpt>
      <trkpt lat="45.94895" lon="4.86092">
        <ele>274</ele>
        <time>2017-06-14T08:29:07Z</time>
      </trkpt>
      <trkpt lat="45.94897" lon="4.86098">
        <ele>274</ele>
        <time>2017-06-14T08:29:08Z</time>
      </trkpt>
      <trkpt lat="45.949" lon="4.86104">
        <ele>274</ele>
        <time>2017-06-14T08:29:09Z</time>
      </trkpt>
      <trkpt lat="45.94902" lon="4.86111">
        <ele>274</ele>
        <time>2017-06-14T08:29:10Z</time>
      </trkpt>
      <trkpt lat="45.94905" lon="4.86117">
        <ele>274</ele>
        <time>2017-06-14T08:29:11Z</time>
      </trkpt>
      <trkpt lat="45.94907" lon="4.86124">
        <ele>274</ele>
        <time>2017-06-14T08:29:12Z</time>
      </trkpt>
      <trkpt lat="45.94911" lon="4.8613">
        <ele>274</ele>
        <time>2017-06-14T08:29:13Z</time>
      </trkpt>
      <trkpt lat="45.94914" lon="4.86136">
        <ele>274</ele>
        <time>2017-06-14T08:29:14Z</time>
      </trkpt>
      <trkpt lat="45.94918" lon="4.86141">
        <ele>273</ele>
        <time>2017-06-14T08:29:15Z</time>
      </trkpt>
      <trkpt lat="45.94922" lon="4.86147">
        <ele>273</ele>
        <time>2017-06-14T08:29:16Z</time>
      </trkpt>
      <trkpt lat="45.94925" lon="4.86152">
        <ele>273</ele>
        <time>2017-06-14T08:29:17Z</time>
      </trkpt>
      <trkpt lat="45.94929" lon="4.86158">
        <ele>273</ele>
        <time>2017-06-14T08:29:18Z</time>
      </trkpt>
      <trkpt lat="45.94933" lon="4.86163">
        <ele>273</ele>
        <time>2017-06-14T08:29:19Z</time>
      </trkpt>
      <trkpt lat="45.94937" lon="4.86168">
        <ele>273</ele>
        <time>2017-06-14T08:29:20Z</time>
      </trkpt>
      <trkpt lat="45.94941" lon="4.86174">
        <ele>273</ele>
        <time>2017-06-14T08:29:21Z</time>
      </trkpt>
      <trkpt lat="45.94945" lon="4.86179">
        <ele>273</ele>
        <time>2017-06-14T08:29:22Z</time>
      </trkpt>
      <trkpt lat="45.94949" lon="4.86184">
        <ele>273</ele>
        <time>2017-06-14T08:29:23Z</time>
      </trkpt>
      <trkpt lat="45.94953" lon="4.86189">
        <ele>273</ele>
        <time>2017-06-14T08:29:24Z</time>
      </trkpt>
      <trkpt lat="45.94957" lon="4.86194">
        <ele>273</ele>
        <time>2017-06-14T08:29:25Z</time>
      </trkpt>
      <trkpt lat="45.94961" lon="4.86199">
        <ele>272</ele>
        <time>2017-06-14T08:29:26Z</time>
      </trkpt>
      <trkpt lat="45.94966" lon="4.86204">
        <ele>272</ele>
        <time>2017-06-14T08:29:27Z</time>
      </trkpt>
      <trkpt lat="45.9497" lon="4.8621">
        <ele>272</ele>
        <time>2017-06-14T08:29:28Z</time>
      </trkpt>
      <trkpt lat="45.94974" lon="4.86215">
        <ele>272</ele>
        <time>2017-06-14T08:29:29Z</time>
      </trkpt>
      <trkpt lat="45.94978" lon="4.8622">
        <ele>272</ele>
        <time>2017-06-14T08:29:30Z</time>
      </trkpt>
      <trkpt lat="45.94982" lon="4.86224">
        <ele>272</ele>
        <time>2017-06-14T08:29:31Z</time>
      </trkpt>
      <trkpt lat="45.94986" lon="4.86229">
        <ele>272</ele>
        <time>2017-06-14T08:29:32Z</time>
      </trkpt>
      <trkpt lat="45.9499" lon="4.86234">
        <ele>272</ele>
        <time>2017-06-14T08:29:33Z</time>
      </trkpt>
      <trkpt lat="45.94994" lon="4.86239">
        <ele>272</ele>
        <time>2017-06-14T08:29:34Z</time>
      </trkpt>
      <trkpt lat="45.94999" lon="4.86244">
        <ele>272</ele>
        <time>2017-06-14T08:29:35Z</time>
      </trkpt>
      <trkpt lat="45.95003" lon="4.8625">
        <ele>272</ele>
        <time>2017-06-14T08:29:36Z</time>
      </trkpt>
      <trkpt lat="45.95007" lon="4.86255">
        <ele>272</ele>
        <time>2017-06-14T08:29:37Z</time>
      </trkpt>
      <trkpt lat="45.95012" lon="4.86261">
        <ele>272</ele>
        <time>2017-06-14T08:29:38Z</time>
      </trkpt>
      <trkpt lat="45.95017" lon="4.86267">
        <ele>271</ele>
        <time>2017-06-14T08:29:39Z</time>
      </trkpt>
      <trkpt lat="45.95021" lon="4.86272">
        <ele>271</ele>
        <time>2017-06-14T08:29:40Z</time>
      </trkpt>
      <trkpt lat="45.95025" lon="4.86278">
        <ele>271</ele>
        <time>2017-06-14T08:29:41Z</time>
      </trkpt>
      <trkpt lat="45.9503" lon="4.86284">
        <ele>271</ele>
        <time>2017-06-14T08:29:42Z</time>
      </trkpt>
      <trkpt lat="45.95034" lon="4.86289">
        <ele>271</ele>
        <time>2017-06-14T08:29:43Z</time>
      </trkpt>
      <trkpt lat="45.95039" lon="4.86295">
        <ele>271</ele>
        <time>2017-06-14T08:29:44Z</time>
      </trkpt>
      <trkpt lat="45.95044" lon="4.86301">
        <ele>271</ele>
        <time>2017-06-14T08:29:45Z</time>
      </trkpt>
      <trkpt lat="45.95048" lon="4.86307">
        <ele>271</ele>
        <time>2017-06-14T08:29:46Z</time>
      </trkpt>
      <trkpt lat="45.95052" lon="4.86312">
        <ele>271</ele>
        <time>2017-06-14T08:29:47Z</time>
      </trkpt>
      <trkpt lat="45.95057" lon="4.86318">
        <ele>271</ele>
        <time>2017-06-14T08:29:48Z</time>
      </trkpt>
      <trkpt lat="45.95062" lon="4.86323">
        <ele>270</ele>
        <time>2017-06-14T08:29:49Z</time>
      </trkpt>
      <trkpt lat="45.95066" lon="4.86329">
        <ele>270</ele>
        <time>2017-06-14T08:29:50Z</time>
      </trkpt>
      <trkpt lat="45.95071" lon="4.86335">
        <ele>270</ele>
        <time>2017-06-14T08:29:51Z</time>
      </trkpt>
      <trkpt lat="45.95075" lon="4.8634">
        <ele>270</ele>
        <time>2017-06-14T08:29:52Z</time>
      </trkpt>
      <trkpt lat="45.9508" lon="4.86346">
        <ele>270</ele>
        <time>2017-06-14T08:29:53Z</time>
      </trkpt>
      <trkpt lat="45.95084" lon="4.86352">
        <ele>269</ele>
        <time>2017-06-14T08:29:54Z</time>
      </trkpt>
      <trkpt lat="45.95089" lon="4.86358">
        <ele>269</ele>
        <time>2017-06-14T08:29:55Z</time>
      </trkpt>
      <trkpt lat="45.95093" lon="4.86363">
        <ele>269</ele>
        <time>2017-06-14T08:29:56Z</time>
      </trkpt>
      <trkpt lat="45.95098" lon="4.86368">
        <ele>269</ele>
        <time>2017-06-14T08:29:57Z</time>
      </trkpt>
      <trkpt lat="45.95102" lon="4.86373">
        <ele>269</ele>
        <time>2017-06-14T08:29:58Z</time>
      </trkpt>
      <trkpt lat="45.95107" lon="4.86379">
        <ele>269</ele>
        <time>2017-06-14T08:29:59Z</time>
      </trkpt>
      <trkpt lat="45.95111" lon="4.86384">
        <ele>269</ele>
        <time>2017-06-14T08:30:00Z</time>
      </trkpt>
      <trkpt lat="45.95115" lon="4.86389">
        <ele>269</ele>
        <time>2017-06-14T08:30:01Z</time>
      </trkpt>
      <trkpt lat="45.9512" lon="4.86394">
        <ele>269</ele>
        <time>2017-06-14T08:30:02Z</time>
      </trkpt>
      <trkpt lat="45.95124" lon="4.864">
        <ele>269</ele>
        <time>2017-06-14T08:30:03Z</time>
      </trkpt>
      <trkpt lat="45.95128" lon="4.86405">
        <ele>268</ele>
        <time>2017-06-14T08:30:04Z</time>
      </trkpt>
      <trkpt lat="45.95132" lon="4.8641">
        <ele>268</ele>
        <time>2017-06-14T08:30:05Z</time>
      </trkpt>
      <trkpt lat="45.95136" lon="4.86415">
        <ele>268</ele>
        <time>2017-06-14T08:30:06Z</time>
      </trkpt>
      <trkpt lat="45.95139" lon="4.86419">
        <ele>269</ele>
        <time>2017-06-14T08:30:07Z</time>
      </trkpt>
      <trkpt lat="45.95143" lon="4.86424">
        <ele>268</ele>
        <time>2017-06-14T08:30:08Z</time>
      </trkpt>
      <trkpt lat="45.95146" lon="4.86428">
        <ele>268</ele>
        <time>2017-06-14T08:30:09Z</time>
      </trkpt>
      <trkpt lat="45.95154" lon="4.86436">
        <ele>268</ele>
        <time>2017-06-14T08:30:11Z</time>
      </trkpt>
      <trkpt lat="45.95157" lon="4.8644">
        <ele>268</ele>
        <time>2017-06-14T08:30:12Z</time>
      </trkpt>
      <trkpt lat="45.95161" lon="4.86443">
        <ele>268</ele>
        <time>2017-06-14T08:30:13Z</time>
      </trkpt>
      <trkpt lat="45.95165" lon="4.86448">
        <ele>269</ele>
        <time>2017-06-14T08:30:14Z</time>
      </trkpt>
      <trkpt lat="45.95169" lon="4.86453">
        <ele>268</ele>
        <time>2017-06-14T08:30:15Z</time>
      </trkpt>
      <trkpt lat="45.95173" lon="4.86458">
        <ele>268</ele>
        <time>2017-06-14T08:30:16Z</time>
      </trkpt>
      <trkpt lat="45.95178" lon="4.86464">
        <ele>268</ele>
        <time>2017-06-14T08:30:17Z</time>
      </trkpt>
      <trkpt lat="45.95183" lon="4.8647">
        <ele>268</ele>
        <time>2017-06-14T08:30:18Z</time>
      </trkpt>
      <trkpt lat="45.95187" lon="4.86475">
        <ele>268</ele>
        <time>2017-06-14T08:30:19Z</time>
      </trkpt>
      <trkpt lat="45.95192" lon="4.86481">
        <ele>268</ele>
        <time>2017-06-14T08:30:20Z</time>
      </trkpt>
      <trkpt lat="45.95197" lon="4.86486">
        <ele>268</ele>
        <time>2017-06-14T08:30:21Z</time>
      </trkpt>
      <trkpt lat="45.95201" lon="4.8649">
        <ele>268</ele>
        <time>2017-06-14T08:30:22Z</time>
      </trkpt>
      <trkpt lat="45.95206" lon="4.86499">
        <ele>268</ele>
        <time>2017-06-14T08:30:25Z</time>
      </trkpt>
      <trkpt lat="45.95207" lon="4.865">
        <ele>268</ele>
        <time>2017-06-14T08:30:26Z</time>
      </trkpt>
      <trkpt lat="45.95207" lon="4.865">
        <ele>268</ele>
        <time>2017-06-14T08:30:37Z</time>
      </trkpt>
      <trkpt lat="45.95209" lon="4.86502">
        <ele>268</ele>
        <time>2017-06-14T08:30:38Z</time>
      </trkpt>
      <trkpt lat="45.95213" lon="4.86507">
        <ele>268</ele>
        <time>2017-06-14T08:30:40Z</time>
      </trkpt>
      <trkpt lat="45.95216" lon="4.86511">
        <ele>268</ele>
        <time>2017-06-14T08:30:41Z</time>
      </trkpt>
      <trkpt lat="45.9522" lon="4.86518">
        <ele>268</ele>
        <time>2017-06-14T08:30:43Z</time>
      </trkpt>
      <trkpt lat="45.95223" lon="4.86523">
        <ele>268</ele>
        <time>2017-06-14T08:30:44Z</time>
      </trkpt>
      <trkpt lat="45.95229" lon="4.8653">
        <ele>268</ele>
        <time>2017-06-14T08:30:46Z</time>
      </trkpt>
      <trkpt lat="45.95232" lon="4.86534">
        <ele>268</ele>
        <time>2017-06-14T08:30:47Z</time>
      </trkpt>
      <trkpt lat="45.95238" lon="4.86542">
        <ele>268</ele>
        <time>2017-06-14T08:30:49Z</time>
      </trkpt>
      <trkpt lat="45.95241" lon="4.86546">
        <ele>268</ele>
        <time>2017-06-14T08:30:50Z</time>
      </trkpt>
      <trkpt lat="45.95244" lon="4.86551">
        <ele>268</ele>
        <time>2017-06-14T08:30:51Z</time>
      </trkpt>
      <trkpt lat="45.95249" lon="4.86555">
        <ele>268</ele>
        <time>2017-06-14T08:30:52Z</time>
      </trkpt>
      <trkpt lat="45.95255" lon="4.86565">
        <ele>267</ele>
        <time>2017-06-14T08:30:54Z</time>
      </trkpt>
      <trkpt lat="45.95257" lon="4.86569">
        <ele>267</ele>
        <time>2017-06-14T08:30:55Z</time>
      </trkpt>
      <trkpt lat="45.95256" lon="4.8658">
        <ele>268</ele>
        <time>2017-06-14T08:30:57Z</time>
      </trkpt>
      <trkpt lat="45.95254" lon="4.86584">
        <ele>268</ele>
        <time>2017-06-14T08:30:58Z</time>
      </trkpt>
      <trkpt lat="45.95247" lon="4.86588">
        <ele>268</ele>
        <time>2017-06-14T08:31:00Z</time>
      </trkpt>
      <trkpt lat="45.95242" lon="4.86589">
        <ele>268</ele>
        <time>2017-06-14T08:31:01Z</time>
      </trkpt>
      <trkpt lat="45.95237" lon="4.86589">
        <ele>269</ele>
        <time>2017-06-14T08:31:02Z</time>
      </trkpt>
      <trkpt lat="45.95232" lon="4.86588">
        <ele>269</ele>
        <time>2017-06-14T08:31:03Z</time>
      </trkpt>
      <trkpt lat="45.95227" lon="4.86587">
        <ele>269</ele>
        <time>2017-06-14T08:31:04Z</time>
      </trkpt>
      <trkpt lat="45.95222" lon="4.86585">
        <ele>269</ele>
        <time>2017-06-14T08:31:05Z</time>
      </trkpt>
      <trkpt lat="45.95217" lon="4.86584">
        <ele>269</ele>
        <time>2017-06-14T08:31:06Z</time>
      </trkpt>
      <trkpt lat="45.95212" lon="4.86583">
        <ele>268</ele>
        <time>2017-06-14T08:31:07Z</time>
      </trkpt>
      <trkpt lat="45.95207" lon="4.86582">
        <ele>268</ele>
        <time>2017-06-14T08:31:08Z</time>
      </trkpt>
      <trkpt lat="45.95202" lon="4.86582">
        <ele>268</ele>
        <time>2017-06-14T08:31:09Z</time>
      </trkpt>
      <trkpt lat="45.95197" lon="4.86582">
        <ele>268</ele>
        <time>2017-06-14T08:31:10Z</time>
      </trkpt>
      <trkpt lat="45.95191" lon="4.86582">
        <ele>269</ele>
        <time>2017-06-14T08:31:11Z</time>
      </trkpt>
      <trkpt lat="45.95186" lon="4.86581">
        <ele>269</ele>
        <time>2017-06-14T08:31:12Z</time>
      </trkpt>
      <trkpt lat="45.95181" lon="4.86582">
        <ele>269</ele>
        <time>2017-06-14T08:31:13Z</time>
      </trkpt>
      <trkpt lat="45.95176" lon="4.86582">
        <ele>269</ele>
        <time>2017-06-14T08:31:14Z</time>
      </trkpt>
      <trkpt lat="45.95171" lon="4.86583">
        <ele>269</ele>
        <time>2017-06-14T08:31:15Z</time>
      </trkpt>
      <trkpt lat="45.95166" lon="4.86584">
        <ele>269</ele>
        <time>2017-06-14T08:31:16Z</time>
      </trkpt>
      <trkpt lat="45.95161" lon="4.86584">
        <ele>269</ele>
        <time>2017-06-14T08:31:17Z</time>
      </trkpt>
      <trkpt lat="45.95156" lon="4.86584">
        <ele>270</ele>
        <time>2017-06-14T08:31:18Z</time>
      </trkpt>
      <trkpt lat="45.95152" lon="4.86585">
        <ele>270</ele>
        <time>2017-06-14T08:31:19Z</time>
      </trkpt>
      <trkpt lat="45.95143" lon="4.86586">
        <ele>270</ele>
        <time>2017-06-14T08:31:21Z</time>
      </trkpt>
      <trkpt lat="45.95138" lon="4.86586">
        <ele>270</ele>
        <time>2017-06-14T08:31:22Z</time>
      </trkpt>
      <trkpt lat="45.9513" lon="4.86587">
        <ele>270</ele>
        <time>2017-06-14T08:31:24Z</time>
      </trkpt>
      <trkpt lat="45.95126" lon="4.86587">
        <ele>270</ele>
        <time>2017-06-14T08:31:25Z</time>
      </trkpt>
      <trkpt lat="45.95118" lon="4.86588">
        <ele>270</ele>
        <time>2017-06-14T08:31:27Z</time>
      </trkpt>
      <trkpt lat="45.95113" lon="4.86589">
        <ele>271</ele>
        <time>2017-06-14T08:31:28Z</time>
      </trkpt>
      <trkpt lat="45.95109" lon="4.8659">
        <ele>271</ele>
        <time>2017-06-14T08:31:29Z</time>
      </trkpt>
      <trkpt lat="45.95104" lon="4.8659">
        <ele>271</ele>
        <time>2017-06-14T08:31:30Z</time>
      </trkpt>
      <trkpt lat="45.95099" lon="4.86591">
        <ele>271</ele>
        <time>2017-06-14T08:31:31Z</time>
      </trkpt>
      <trkpt lat="45.95095" lon="4.86591">
        <ele>271</ele>
        <time>2017-06-14T08:31:32Z</time>
      </trkpt>
      <trkpt lat="45.9509" lon="4.86592">
        <ele>271</ele>
        <time>2017-06-14T08:31:33Z</time>
      </trkpt>
      <trkpt lat="45.95086" lon="4.86593">
        <ele>271</ele>
        <time>2017-06-14T08:31:34Z</time>
      </trkpt>
      <trkpt lat="45.95077" lon="4.86596">
        <ele>272</ele>
        <time>2017-06-14T08:31:36Z</time>
      </trkpt>
      <trkpt lat="45.95073" lon="4.86597">
        <ele>272</ele>
        <time>2017-06-14T08:31:37Z</time>
      </trkpt>
      <trkpt lat="45.95065" lon="4.866">
        <ele>272</ele>
        <time>2017-06-14T08:31:39Z</time>
      </trkpt>
      <trkpt lat="45.95061" lon="4.86601">
        <ele>272</ele>
        <time>2017-06-14T08:31:40Z</time>
      </trkpt>
      <trkpt lat="45.95053" lon="4.86603">
        <ele>272</ele>
        <time>2017-06-14T08:31:42Z</time>
      </trkpt>
      <trkpt lat="45.95049" lon="4.86605">
        <ele>272</ele>
        <time>2017-06-14T08:31:43Z</time>
      </trkpt>
      <trkpt lat="45.95041" lon="4.86607">
        <ele>273</ele>
        <time>2017-06-14T08:31:45Z</time>
      </trkpt>
      <trkpt lat="45.95037" lon="4.86609">
        <ele>273</ele>
        <time>2017-06-14T08:31:46Z</time>
      </trkpt>
      <trkpt lat="45.95029" lon="4.8661">
        <ele>273</ele>
        <time>2017-06-14T08:31:48Z</time>
      </trkpt>
      <trkpt lat="45.95025" lon="4.8661">
        <ele>273</ele>
        <time>2017-06-14T08:31:49Z</time>
      </trkpt>
      <trkpt lat="45.95017" lon="4.86613">
        <ele>273</ele>
        <time>2017-06-14T08:31:51Z</time>
      </trkpt>
      <trkpt lat="45.95013" lon="4.86614">
        <ele>273</ele>
        <time>2017-06-14T08:31:52Z</time>
      </trkpt>
      <trkpt lat="45.95006" lon="4.86615">
        <ele>273</ele>
        <time>2017-06-14T08:31:54Z</time>
      </trkpt>
      <trkpt lat="45.95002" lon="4.86615">
        <ele>273</ele>
        <time>2017-06-14T08:31:55Z</time>
      </trkpt>
      <trkpt lat="45.94995" lon="4.86617">
        <ele>275</ele>
        <time>2017-06-14T08:31:57Z</time>
      </trkpt>
      <trkpt lat="45.94991" lon="4.86618">
        <ele>275</ele>
        <time>2017-06-14T08:31:58Z</time>
      </trkpt>
      <trkpt lat="45.94983" lon="4.86618">
        <ele>275</ele>
        <time>2017-06-14T08:32:00Z</time>
      </trkpt>
      <trkpt lat="45.94979" lon="4.86619">
        <ele>275</ele>
        <time>2017-06-14T08:32:01Z</time>
      </trkpt>
      <trkpt lat="45.94972" lon="4.86621">
        <ele>275</ele>
        <time>2017-06-14T08:32:03Z</time>
      </trkpt>
      <trkpt lat="45.94968" lon="4.86623">
        <ele>275</ele>
        <time>2017-06-14T08:32:04Z</time>
      </trkpt>
      <trkpt lat="45.94962" lon="4.86627">
        <ele>275</ele>
        <time>2017-06-14T08:32:06Z</time>
      </trkpt>
      <trkpt lat="45.94958" lon="4.8663">
        <ele>276</ele>
        <time>2017-06-14T08:32:07Z</time>
      </trkpt>
      <trkpt lat="45.94952" lon="4.86636">
        <ele>276</ele>
        <time>2017-06-14T08:32:09Z</time>
      </trkpt>
      <trkpt lat="45.94949" lon="4.8664">
        <ele>276</ele>
        <time>2017-06-14T08:32:10Z</time>
      </trkpt>
      <trkpt lat="45.94944" lon="4.8665">
        <ele>276</ele>
        <time>2017-06-14T08:32:12Z</time>
      </trkpt>
      <trkpt lat="45.94942" lon="4.86656">
        <ele>276</ele>
        <time>2017-06-14T08:32:13Z</time>
      </trkpt>
      <trkpt lat="45.94941" lon="4.86663">
        <ele>276</ele>
        <time>2017-06-14T08:32:14Z</time>
      </trkpt>
      <trkpt lat="45.9494" lon="4.86669">
        <ele>276</ele>
        <time>2017-06-14T08:32:15Z</time>
      </trkpt>
      <trkpt lat="45.94941" lon="4.86682">
        <ele>276</ele>
        <time>2017-06-14T08:32:17Z</time>
      </trkpt>
      <trkpt lat="45.94941" lon="4.86688">
        <ele>276</ele>
        <time>2017-06-14T08:32:18Z</time>
      </trkpt>
      <trkpt lat="45.94943" lon="4.867">
        <ele>276</ele>
        <time>2017-06-14T08:32:20Z</time>
      </trkpt>
      <trkpt lat="45.94944" lon="4.86705">
        <ele>275</ele>
        <time>2017-06-14T08:32:21Z</time>
      </trkpt>
      <trkpt lat="45.94946" lon="4.86716">
        <ele>275</ele>
        <time>2017-06-14T08:32:23Z</time>
      </trkpt>
      <trkpt lat="45.94947" lon="4.86722">
        <ele>275</ele>
        <time>2017-06-14T08:32:24Z</time>
      </trkpt>
      <trkpt lat="45.94951" lon="4.86732">
        <ele>275</ele>
        <time>2017-06-14T08:32:26Z</time>
      </trkpt>
      <trkpt lat="45.94953" lon="4.86738">
        <ele>275</ele>
        <time>2017-06-14T08:32:27Z</time>
      </trkpt>
      <trkpt lat="45.94956" lon="4.86743">
        <ele>275</ele>
        <time>2017-06-14T08:32:28Z</time>
      </trkpt>
      <trkpt lat="45.94958" lon="4.86749">
        <ele>275</ele>
        <time>2017-06-14T08:32:29Z</time>
      </trkpt>
      <trkpt lat="45.94961" lon="4.86754">
        <ele>275</ele>
        <time>2017-06-14T08:32:30Z</time>
      </trkpt>
      <trkpt lat="45.94964" lon="4.86759">
        <ele>275</ele>
        <time>2017-06-14T08:32:31Z</time>
      </trkpt>
      <trkpt lat="45.94967" lon="4.86765">
        <ele>275</ele>
        <time>2017-06-14T08:32:32Z</time>
      </trkpt>
      <trkpt lat="45.9497" lon="4.8677">
        <ele>275</ele>
        <time>2017-06-14T08:32:33Z</time>
      </trkpt>
      <trkpt lat="45.94973" lon="4.86775">
        <ele>275</ele>
        <time>2017-06-14T08:32:34Z</time>
      </trkpt>
      <trkpt lat="45.94976" lon="4.86781">
        <ele>275</ele>
        <time>2017-06-14T08:32:35Z</time>
      </trkpt>
      <trkpt lat="45.94979" lon="4.86786">
        <ele>275</ele>
        <time>2017-06-14T08:32:36Z</time>
      </trkpt>
      <trkpt lat="45.94983" lon="4.86792">
        <ele>276</ele>
        <time>2017-06-14T08:32:37Z</time>
      </trkpt>
      <trkpt lat="45.94986" lon="4.86798">
        <ele>276</ele>
        <time>2017-06-14T08:32:38Z</time>
      </trkpt>
      <trkpt lat="45.94989" lon="4.86804">
        <ele>276</ele>
        <time>2017-06-14T08:32:39Z</time>
      </trkpt>
      <trkpt lat="45.94992" lon="4.8681">
        <ele>276</ele>
        <time>2017-06-14T08:32:40Z</time>
      </trkpt>
      <trkpt lat="45.94995" lon="4.86816">
        <ele>276</ele>
        <time>2017-06-14T08:32:41Z</time>
      </trkpt>
      <trkpt lat="45.94998" lon="4.86822">
        <ele>276</ele>
        <time>2017-06-14T08:32:42Z</time>
      </trkpt>
      <trkpt lat="45.95001" lon="4.86828">
        <ele>276</ele>
        <time>2017-06-14T08:32:43Z</time>
      </trkpt>
      <trkpt lat="45.95003" lon="4.86835">
        <ele>276</ele>
        <time>2017-06-14T08:32:44Z</time>
      </trkpt>
      <trkpt lat="45.95006" lon="4.86842">
        <ele>276</ele>
        <time>2017-06-14T08:32:45Z</time>
      </trkpt>
      <trkpt lat="45.95008" lon="4.86849">
        <ele>275</ele>
        <time>2017-06-14T08:32:46Z</time>
      </trkpt>
      <trkpt lat="45.95011" lon="4.86855">
        <ele>275</ele>
        <time>2017-06-14T08:32:47Z</time>
      </trkpt>
      <trkpt lat="45.95013" lon="4.86862">
        <ele>275</ele>
        <time>2017-06-14T08:32:48Z</time>
      </trkpt>
      <trkpt lat="45.95015" lon="4.86869">
        <ele>275</ele>
        <time>2017-06-14T08:32:49Z</time>
      </trkpt>
      <trkpt lat="45.95017" lon="4.86875">
        <ele>275</ele>
        <time>2017-06-14T08:32:50Z</time>
      </trkpt>
      <trkpt lat="45.95019" lon="4.86881">
        <ele>275</ele>
        <time>2017-06-14T08:32:51Z</time>
      </trkpt>
      <trkpt lat="45.95021" lon="4.86888">
        <ele>275</ele>
        <time>2017-06-14T08:32:52Z</time>
      </trkpt>
      <trkpt lat="45.95023" lon="4.86894">
        <ele>275</ele>
        <time>2017-06-14T08:32:53Z</time>
      </trkpt>
      <trkpt lat="45.95024" lon="4.869">
        <ele>275</ele>
        <time>2017-06-14T08:32:54Z</time>
      </trkpt>
      <trkpt lat="45.95026" lon="4.86906">
        <ele>275</ele>
        <time>2017-06-14T08:32:55Z</time>
      </trkpt>
      <trkpt lat="45.95028" lon="4.86912">
        <ele>275</ele>
        <time>2017-06-14T08:32:56Z</time>
      </trkpt>
      <trkpt lat="45.9503" lon="4.86918">
        <ele>276</ele>
        <time>2017-06-14T08:32:57Z</time>
      </trkpt>
      <trkpt lat="45.95032" lon="4.86925">
        <ele>276</ele>
        <time>2017-06-14T08:32:58Z</time>
      </trkpt>
      <trkpt lat="45.95034" lon="4.86931">
        <ele>276</ele>
        <time>2017-06-14T08:32:59Z</time>
      </trkpt>
      <trkpt lat="45.95036" lon="4.86937">
        <ele>276</ele>
        <time>2017-06-14T08:33:00Z</time>
      </trkpt>
      <trkpt lat="45.95038" lon="4.86944">
        <ele>276</ele>
        <time>2017-06-14T08:33:01Z</time>
      </trkpt>
      <trkpt lat="45.9504" lon="4.8695">
        <ele>276</ele>
        <time>2017-06-14T08:33:02Z</time>
      </trkpt>
      <trkpt lat="45.95042" lon="4.86956">
        <ele>276</ele>
        <time>2017-06-14T08:33:03Z</time>
      </trkpt>
      <trkpt lat="45.95045" lon="4.86962">
        <ele>276</ele>
        <time>2017-06-14T08:33:04Z</time>
      </trkpt>
      <trkpt lat="45.95047" lon="4.86969">
        <ele>276</ele>
        <time>2017-06-14T08:33:05Z</time>
      </trkpt>
      <trkpt lat="45.9505" lon="4.86975">
        <ele>276</ele>
        <time>2017-06-14T08:33:06Z</time>
      </trkpt>
      <trkpt lat="45.95052" lon="4.86981">
        <ele>276</ele>
        <time>2017-06-14T08:33:07Z</time>
      </trkpt>
      <trkpt lat="45.95055" lon="4.86987">
        <ele>276</ele>
        <time>2017-06-14T08:33:08Z</time>
      </trkpt>
      <trkpt lat="45.95057" lon="4.86993">
        <ele>276</ele>
        <time>2017-06-14T08:33:09Z</time>
      </trkpt>
      <trkpt lat="45.95062" lon="4.87003">
        <ele>277</ele>
        <time>2017-06-14T08:33:11Z</time>
      </trkpt>
      <trkpt lat="45.95064" lon="4.87008">
        <ele>277</ele>
        <time>2017-06-14T08:33:12Z</time>
      </trkpt>
      <trkpt lat="45.95067" lon="4.87013">
        <ele>277</ele>
        <time>2017-06-14T08:33:13Z</time>
      </trkpt>
      <trkpt lat="45.9507" lon="4.87019">
        <ele>277</ele>
        <time>2017-06-14T08:33:14Z</time>
      </trkpt>
      <trkpt lat="45.95073" lon="4.87025">
        <ele>277</ele>
        <time>2017-06-14T08:33:15Z</time>
      </trkpt>
      <trkpt lat="45.95076" lon="4.87031">
        <ele>277</ele>
        <time>2017-06-14T08:33:16Z</time>
      </trkpt>
      <trkpt lat="45.95079" lon="4.87038">
        <ele>277</ele>
        <time>2017-06-14T08:33:17Z</time>
      </trkpt>
      <trkpt lat="45.95082" lon="4.87045">
        <ele>277</ele>
        <time>2017-06-14T08:33:18Z</time>
      </trkpt>
      <trkpt lat="45.95086" lon="4.87052">
        <ele>277</ele>
        <time>2017-06-14T08:33:19Z</time>
      </trkpt>
      <trkpt lat="45.95089" lon="4.87059">
        <ele>277</ele>
        <time>2017-06-14T08:33:20Z</time>
      </trkpt>
      <trkpt lat="45.95092" lon="4.87066">
        <ele>277</ele>
        <time>2017-06-14T08:33:21Z</time>
      </trkpt>
      <trkpt lat="45.95094" lon="4.87072">
        <ele>277</ele>
        <time>2017-06-14T08:33:22Z</time>
      </trkpt>
      <trkpt lat="45.95097" lon="4.87079">
        <ele>277</ele>
        <time>2017-06-14T08:33:23Z</time>
      </trkpt>
      <trkpt lat="45.95099" lon="4.87085">
        <ele>277</ele>
        <time>2017-06-14T08:33:24Z</time>
      </trkpt>
      <trkpt lat="45.951" lon="4.87092">
        <ele>277</ele>
        <time>2017-06-14T08:33:25Z</time>
      </trkpt>
      <trkpt lat="45.95103" lon="4.87098">
        <ele>277</ele>
        <time>2017-06-14T08:33:26Z</time>
      </trkpt>
      <trkpt lat="45.95105" lon="4.87104">
        <ele>277</ele>
        <time>2017-06-14T08:33:27Z</time>
      </trkpt>
      <trkpt lat="45.95106" lon="4.87111">
        <ele>277</ele>
        <time>2017-06-14T08:33:28Z</time>
      </trkpt>
      <trkpt lat="45.95107" lon="4.87117">
        <ele>277</ele>
        <time>2017-06-14T08:33:29Z</time>
      </trkpt>
      <trkpt lat="45.95109" lon="4.87123">
        <ele>277</ele>
        <time>2017-06-14T08:33:30Z</time>
      </trkpt>
      <trkpt lat="45.95112" lon="4.87135">
        <ele>277</ele>
        <time>2017-06-14T08:33:32Z</time>
      </trkpt>
      <trkpt lat="45.95113" lon="4.87142">
        <ele>277</ele>
        <time>2017-06-14T08:33:33Z</time>
      </trkpt>
      <trkpt lat="45.95115" lon="4.87149">
        <ele>277</ele>
        <time>2017-06-14T08:33:34Z</time>
      </trkpt>
      <trkpt lat="45.95116" lon="4.87156">
        <ele>277</ele>
        <time>2017-06-14T08:33:35Z</time>
      </trkpt>
      <trkpt lat="45.95118" lon="4.87163">
        <ele>277</ele>
        <time>2017-06-14T08:33:36Z</time>
      </trkpt>
      <trkpt lat="45.9512" lon="4.8717">
        <ele>277</ele>
        <time>2017-06-14T08:33:37Z</time>
      </trkpt>
      <trkpt lat="45.95121" lon="4.87178">
        <ele>276</ele>
        <time>2017-06-14T08:33:38Z</time>
      </trkpt>
      <trkpt lat="45.95123" lon="4.87187">
        <ele>276</ele>
        <time>2017-06-14T08:33:39Z</time>
      </trkpt>
      <trkpt lat="45.95125" lon="4.87195">
        <ele>276</ele>
        <time>2017-06-14T08:33:40Z</time>
      </trkpt>
      <trkpt lat="45.95126" lon="4.87204">
        <ele>276</ele>
        <time>2017-06-14T08:33:41Z</time>
      </trkpt>
      <trkpt lat="45.95128" lon="4.87212">
        <ele>276</ele>
        <time>2017-06-14T08:33:42Z</time>
      </trkpt>
      <trkpt lat="45.9513" lon="4.87221">
        <ele>276</ele>
        <time>2017-06-14T08:33:43Z</time>
      </trkpt>
      <trkpt lat="45.95132" lon="4.8723">
        <ele>276</ele>
        <time>2017-06-14T08:33:44Z</time>
      </trkpt>
      <trkpt lat="45.95135" lon="4.8724">
        <ele>276</ele>
        <time>2017-06-14T08:33:45Z</time>
      </trkpt>
      <trkpt lat="45.95137" lon="4.87249">
        <ele>276</ele>
        <time>2017-06-14T08:33:46Z</time>
      </trkpt>
      <trkpt lat="45.95139" lon="4.8726">
        <ele>275</ele>
        <time>2017-06-14T08:33:47Z</time>
      </trkpt>
      <trkpt lat="45.95141" lon="4.87269">
        <ele>274</ele>
        <time>2017-06-14T08:33:48Z</time>
      </trkpt>
      <trkpt lat="45.95143" lon="4.8728">
        <ele>274</ele>
        <time>2017-06-14T08:33:49Z</time>
      </trkpt>
      <trkpt lat="45.95145" lon="4.8729">
        <ele>274</ele>
        <time>2017-06-14T08:33:50Z</time>
      </trkpt>
      <trkpt lat="45.95148" lon="4.873">
        <ele>274</ele>
        <time>2017-06-14T08:33:51Z</time>
      </trkpt>
      <trkpt lat="45.9515" lon="4.87311">
        <ele>273</ele>
        <time>2017-06-14T08:33:52Z</time>
      </trkpt>
      <trkpt lat="45.95153" lon="4.87321">
        <ele>273</ele>
        <time>2017-06-14T08:33:53Z</time>
      </trkpt>
      <trkpt lat="45.95155" lon="4.87332">
        <ele>272</ele>
        <time>2017-06-14T08:33:54Z</time>
      </trkpt>
      <trkpt lat="45.95157" lon="4.87342">
        <ele>272</ele>
        <time>2017-06-14T08:33:55Z</time>
      </trkpt>
      <trkpt lat="45.95159" lon="4.87353">
        <ele>272</ele>
        <time>2017-06-14T08:33:56Z</time>
      </trkpt>
      <trkpt lat="45.95161" lon="4.87363">
        <ele>272</ele>
        <time>2017-06-14T08:33:57Z</time>
      </trkpt>
      <trkpt lat="45.95164" lon="4.87372">
        <ele>272</ele>
        <time>2017-06-14T08:33:58Z</time>
      </trkpt>
      <trkpt lat="45.95165" lon="4.87382">
        <ele>272</ele>
        <time>2017-06-14T08:33:59Z</time>
      </trkpt>
      <trkpt lat="45.95167" lon="4.87392">
        <ele>271</ele>
        <time>2017-06-14T08:34:00Z</time>
      </trkpt>
      <trkpt lat="45.95169" lon="4.874">
        <ele>271</ele>
        <time>2017-06-14T08:34:01Z</time>
      </trkpt>
      <trkpt lat="45.95171" lon="4.87409">
        <ele>271</ele>
        <time>2017-06-14T08:34:02Z</time>
      </trkpt>
      <trkpt lat="45.95174" lon="4.87417">
        <ele>271</ele>
        <time>2017-06-14T08:34:03Z</time>
      </trkpt>
      <trkpt lat="45.95176" lon="4.87426">
        <ele>271</ele>
        <time>2017-06-14T08:34:04Z</time>
      </trkpt>
      <trkpt lat="45.95178" lon="4.87434">
        <ele>271</ele>
        <time>2017-06-14T08:34:05Z</time>
      </trkpt>
      <trkpt lat="45.9518" lon="4.87443">
        <ele>272</ele>
        <time>2017-06-14T08:34:06Z</time>
      </trkpt>
      <trkpt lat="45.95182" lon="4.87451">
        <ele>272</ele>
        <time>2017-06-14T08:34:07Z</time>
      </trkpt>
      <trkpt lat="45.95184" lon="4.87459">
        <ele>272</ele>
        <time>2017-06-14T08:34:08Z</time>
      </trkpt>
      <trkpt lat="45.95186" lon="4.87466">
        <ele>272</ele>
        <time>2017-06-14T08:34:09Z</time>
      </trkpt>
      <trkpt lat="45.95188" lon="4.87474">
        <ele>272</ele>
        <time>2017-06-14T08:34:10Z</time>
      </trkpt>
      <trkpt lat="45.95189" lon="4.87481">
        <ele>272</ele>
        <time>2017-06-14T08:34:11Z</time>
      </trkpt>
      <trkpt lat="45.95191" lon="4.87488">
        <ele>272</ele>
        <time>2017-06-14T08:34:12Z</time>
      </trkpt>
      <trkpt lat="45.95192" lon="4.87494">
        <ele>272</ele>
        <time>2017-06-14T08:34:13Z</time>
      </trkpt>
      <trkpt lat="45.95194" lon="4.87501">
        <ele>273</ele>
        <time>2017-06-14T08:34:14Z</time>
      </trkpt>
      <trkpt lat="45.95196" lon="4.87507">
        <ele>273</ele>
        <time>2017-06-14T08:34:15Z</time>
      </trkpt>
      <trkpt lat="45.95197" lon="4.87514">
        <ele>273</ele>
        <time>2017-06-14T08:34:16Z</time>
      </trkpt>
      <trkpt lat="45.95199" lon="4.87521">
        <ele>274</ele>
        <time>2017-06-14T08:34:17Z</time>
      </trkpt>
      <trkpt lat="45.952" lon="4.87528">
        <ele>274</ele>
        <time>2017-06-14T08:34:18Z</time>
      </trkpt>
      <trkpt lat="45.95202" lon="4.87535">
        <ele>274</ele>
        <time>2017-06-14T08:34:19Z</time>
      </trkpt>
      <trkpt lat="45.95203" lon="4.87542">
        <ele>274</ele>
        <time>2017-06-14T08:34:20Z</time>
      </trkpt>
      <trkpt lat="45.95204" lon="4.8755">
        <ele>274</ele>
        <time>2017-06-14T08:34:21Z</time>
      </trkpt>
      <trkpt lat="45.95205" lon="4.87557">
        <ele>274</ele>
        <time>2017-06-14T08:34:22Z</time>
      </trkpt>
      <trkpt lat="45.95206" lon="4.87565">
        <ele>274</ele>
        <time>2017-06-14T08:34:23Z</time>
      </trkpt>
      <trkpt lat="45.95206" lon="4.87573">
        <ele>274</ele>
        <time>2017-06-14T08:34:24Z</time>
      </trkpt>
      <trkpt lat="45.95206" lon="4.8758">
        <ele>274</ele>
        <time>2017-06-14T08:34:25Z</time>
      </trkpt>
      <trkpt lat="45.95206" lon="4.87586">
        <ele>276</ele>
        <time>2017-06-14T08:34:26Z</time>
      </trkpt>
      <trkpt lat="45.95206" lon="4.87593">
        <ele>276</ele>
        <time>2017-06-14T08:34:27Z</time>
      </trkpt>
      <trkpt lat="45.95207" lon="4.876">
        <ele>276</ele>
        <time>2017-06-14T08:34:28Z</time>
      </trkpt>
      <trkpt lat="45.95207" lon="4.87607">
        <ele>276</ele>
        <time>2017-06-14T08:34:29Z</time>
      </trkpt>
      <trkpt lat="45.95208" lon="4.87619">
        <ele>276</ele>
        <time>2017-06-14T08:34:31Z</time>
      </trkpt>
      <trkpt lat="45.95209" lon="4.87626">
        <ele>276</ele>
        <time>2017-06-14T08:34:32Z</time>
      </trkpt>
      <trkpt lat="45.95209" lon="4.87632">
        <ele>276</ele>
        <time>2017-06-14T08:34:33Z</time>
      </trkpt>
      <trkpt lat="45.9521" lon="4.87639">
        <ele>276</ele>
        <time>2017-06-14T08:34:34Z</time>
      </trkpt>
      <trkpt lat="45.95211" lon="4.87646">
        <ele>276</ele>
        <time>2017-06-14T08:34:35Z</time>
      </trkpt>
      <trkpt lat="45.95212" lon="4.87654">
        <ele>277</ele>
        <time>2017-06-14T08:34:36Z</time>
      </trkpt>
      <trkpt lat="45.95213" lon="4.87661">
        <ele>277</ele>
        <time>2017-06-14T08:34:37Z</time>
      </trkpt>
      <trkpt lat="45.95215" lon="4.87668">
        <ele>279</ele>
        <time>2017-06-14T08:34:38Z</time>
      </trkpt>
      <trkpt lat="45.95216" lon="4.87676">
        <ele>279</ele>
        <time>2017-06-14T08:34:39Z</time>
      </trkpt>
      <trkpt lat="45.95218" lon="4.87684">
        <ele>279</ele>
        <time>2017-06-14T08:34:40Z</time>
      </trkpt>
      <trkpt lat="45.95219" lon="4.87691">
        <ele>279</ele>
        <time>2017-06-14T08:34:41Z</time>
      </trkpt>
      <trkpt lat="45.9522" lon="4.87698">
        <ele>279</ele>
        <time>2017-06-14T08:34:42Z</time>
      </trkpt>
      <trkpt lat="45.95222" lon="4.87706">
        <ele>279</ele>
        <time>2017-06-14T08:34:43Z</time>
      </trkpt>
      <trkpt lat="45.95223" lon="4.87712">
        <ele>279</ele>
        <time>2017-06-14T08:34:44Z</time>
      </trkpt>
      <trkpt lat="45.95224" lon="4.87719">
        <ele>279</ele>
        <time>2017-06-14T08:34:45Z</time>
      </trkpt>
      <trkpt lat="45.95226" lon="4.87725">
        <ele>280</ele>
        <time>2017-06-14T08:34:46Z</time>
      </trkpt>
      <trkpt lat="45.95227" lon="4.87731">
        <ele>280</ele>
        <time>2017-06-14T08:34:47Z</time>
      </trkpt>
      <trkpt lat="45.95228" lon="4.87738">
        <ele>280</ele>
        <time>2017-06-14T08:34:48Z</time>
      </trkpt>
      <trkpt lat="45.95229" lon="4.87746">
        <ele>280</ele>
        <time>2017-06-14T08:34:49Z</time>
      </trkpt>
      <trkpt lat="45.95231" lon="4.87754">
        <ele>281</ele>
        <time>2017-06-14T08:34:50Z</time>
      </trkpt>
      <trkpt lat="45.95232" lon="4.87761">
        <ele>282</ele>
        <time>2017-06-14T08:34:51Z</time>
      </trkpt>
      <trkpt lat="45.95234" lon="4.87768">
        <ele>282</ele>
        <time>2017-06-14T08:34:52Z</time>
      </trkpt>
      <trkpt lat="45.95237" lon="4.87779">
        <ele>282</ele>
        <time>2017-06-14T08:34:54Z</time>
      </trkpt>
      <trkpt lat="45.95237" lon="4.87785">
        <ele>282</ele>
        <time>2017-06-14T08:34:55Z</time>
      </trkpt>
      <trkpt lat="45.95238" lon="4.87791">
        <ele>282</ele>
        <time>2017-06-14T08:34:56Z</time>
      </trkpt>
      <trkpt lat="45.95239" lon="4.87798">
        <ele>282</ele>
        <time>2017-06-14T08:34:57Z</time>
      </trkpt>
      <trkpt lat="45.9524" lon="4.87804">
        <ele>282</ele>
        <time>2017-06-14T08:34:58Z</time>
      </trkpt>
      <trkpt lat="45.95241" lon="4.87811">
        <ele>282</ele>
        <time>2017-06-14T08:34:59Z</time>
      </trkpt>
      <trkpt lat="45.95242" lon="4.87818">
        <ele>282</ele>
        <time>2017-06-14T08:35:00Z</time>
      </trkpt>
      <trkpt lat="45.95243" lon="4.87825">
        <ele>282</ele>
        <time>2017-06-14T08:35:01Z</time>
      </trkpt>
      <trkpt lat="45.95244" lon="4.87833">
        <ele>282</ele>
        <time>2017-06-14T08:35:02Z</time>
      </trkpt>
      <trkpt lat="45.95246" lon="4.8784">
        <ele>283</ele>
        <time>2017-06-14T08:35:03Z</time>
      </trkpt>
      <trkpt lat="45.95247" lon="4.87848">
        <ele>283</ele>
        <time>2017-06-14T08:35:04Z</time>
      </trkpt>
      <trkpt lat="45.95249" lon="4.87854">
        <ele>283</ele>
        <time>2017-06-14T08:35:05Z</time>
      </trkpt>
      <trkpt lat="45.9525" lon="4.87861">
        <ele>281</ele>
        <time>2017-06-14T08:35:06Z</time>
      </trkpt>
      <trkpt lat="45.95252" lon="4.87867">
        <ele>281</ele>
        <time>2017-06-14T08:35:07Z</time>
      </trkpt>
      <trkpt lat="45.95254" lon="4.8788">
        <ele>281</ele>
        <time>2017-06-14T08:35:09Z</time>
      </trkpt>
      <trkpt lat="45.95255" lon="4.87886">
        <ele>281</ele>
        <time>2017-06-14T08:35:10Z</time>
      </trkpt>
      <trkpt lat="45.95258" lon="4.87898">
        <ele>281</ele>
        <time>2017-06-14T08:35:12Z</time>
      </trkpt>
      <trkpt lat="45.95259" lon="4.87904">
        <ele>281</ele>
        <time>2017-06-14T08:35:13Z</time>
      </trkpt>
      <trkpt lat="45.9526" lon="4.87916">
        <ele>282</ele>
        <time>2017-06-14T08:35:15Z</time>
      </trkpt>
      <trkpt lat="45.9526" lon="4.87922">
        <ele>281</ele>
        <time>2017-06-14T08:35:16Z</time>
      </trkpt>
      <trkpt lat="45.95258" lon="4.87932">
        <ele>281</ele>
        <time>2017-06-14T08:35:18Z</time>
      </trkpt>
      <trkpt lat="45.95258" lon="4.87937">
        <ele>281</ele>
        <time>2017-06-14T08:35:19Z</time>
      </trkpt>
      <trkpt lat="45.95255" lon="4.87949">
        <ele>280</ele>
        <time>2017-06-14T08:35:21Z</time>
      </trkpt>
      <trkpt lat="45.95254" lon="4.87954">
        <ele>280</ele>
        <time>2017-06-14T08:35:22Z</time>
      </trkpt>
      <trkpt lat="45.9525" lon="4.87963">
        <ele>282</ele>
        <time>2017-06-14T08:35:24Z</time>
      </trkpt>
      <trkpt lat="45.95248" lon="4.87967">
        <ele>282</ele>
        <time>2017-06-14T08:35:25Z</time>
      </trkpt>
      <trkpt lat="45.95243" lon="4.87974">
        <ele>282</ele>
        <time>2017-06-14T08:35:27Z</time>
      </trkpt>
      <trkpt lat="45.95241" lon="4.87978">
        <ele>282</ele>
        <time>2017-06-14T08:35:28Z</time>
      </trkpt>
      <trkpt lat="45.95235" lon="4.87987">
        <ele>281</ele>
        <time>2017-06-14T08:35:30Z</time>
      </trkpt>
      <trkpt lat="45.95232" lon="4.87992">
        <ele>281</ele>
        <time>2017-06-14T08:35:31Z</time>
      </trkpt>
      <trkpt lat="45.95228" lon="4.87996">
        <ele>281</ele>
        <time>2017-06-14T08:35:32Z</time>
      </trkpt>
      <trkpt lat="45.95224" lon="4.88001">
        <ele>281</ele>
        <time>2017-06-14T08:35:33Z</time>
      </trkpt>
      <trkpt lat="45.95221" lon="4.88005">
        <ele>281</ele>
        <time>2017-06-14T08:35:34Z</time>
      </trkpt>
      <trkpt lat="45.95217" lon="4.8801">
        <ele>281</ele>
        <time>2017-06-14T08:35:35Z</time>
      </trkpt>
      <trkpt lat="45.95214" lon="4.88015">
        <ele>281</ele>
        <time>2017-06-14T08:35:36Z</time>
      </trkpt>
      <trkpt lat="45.95211" lon="4.8802">
        <ele>281</ele>
        <time>2017-06-14T08:35:37Z</time>
      </trkpt>
      <trkpt lat="45.95208" lon="4.88025">
        <ele>281</ele>
        <time>2017-06-14T08:35:38Z</time>
      </trkpt>
      <trkpt lat="45.95205" lon="4.8803">
        <ele>281</ele>
        <time>2017-06-14T08:35:39Z</time>
      </trkpt>
      <trkpt lat="45.95199" lon="4.8804">
        <ele>281</ele>
        <time>2017-06-14T08:35:41Z</time>
      </trkpt>
      <trkpt lat="45.95197" lon="4.88045">
        <ele>281</ele>
        <time>2017-06-14T08:35:42Z</time>
      </trkpt>
      <trkpt lat="45.95192" lon="4.88054">
        <ele>281</ele>
        <time>2017-06-14T08:35:44Z</time>
      </trkpt>
      <trkpt lat="45.95191" lon="4.8806">
        <ele>281</ele>
        <time>2017-06-14T08:35:45Z</time>
      </trkpt>
      <trkpt lat="45.95188" lon="4.8807">
        <ele>281</ele>
        <time>2017-06-14T08:35:47Z</time>
      </trkpt>
      <trkpt lat="45.95187" lon="4.88075">
        <ele>281</ele>
        <time>2017-06-14T08:35:48Z</time>
      </trkpt>
      <trkpt lat="45.95185" lon="4.88084">
        <ele>282</ele>
        <time>2017-06-14T08:35:50Z</time>
      </trkpt>
      <trkpt lat="45.95184" lon="4.88089">
        <ele>282</ele>
        <time>2017-06-14T08:35:51Z</time>
      </trkpt>
      <trkpt lat="45.95182" lon="4.88097">
        <ele>282</ele>
        <time>2017-06-14T08:35:53Z</time>
      </trkpt>
      <trkpt lat="45.95181" lon="4.88102">
        <ele>282</ele>
        <time>2017-06-14T08:35:54Z</time>
      </trkpt>
      <trkpt lat="45.95179" lon="4.88112">
        <ele>282</ele>
        <time>2017-06-14T08:35:56Z</time>
      </trkpt>
      <trkpt lat="45.95177" lon="4.88118">
        <ele>282</ele>
        <time>2017-06-14T08:35:57Z</time>
      </trkpt>
      <trkpt lat="45.95174" lon="4.88129">
        <ele>282</ele>
        <time>2017-06-14T08:35:59Z</time>
      </trkpt>
      <trkpt lat="45.95173" lon="4.88134">
        <ele>283</ele>
        <time>2017-06-14T08:36:00Z</time>
      </trkpt>
      <trkpt lat="45.9517" lon="4.88146">
        <ele>283</ele>
        <time>2017-06-14T08:36:02Z</time>
      </trkpt>
      <trkpt lat="45.95169" lon="4.88151">
        <ele>284</ele>
        <time>2017-06-14T08:36:03Z</time>
      </trkpt>
      <trkpt lat="45.95168" lon="4.88163">
        <ele>285</ele>
        <time>2017-06-14T08:36:05Z</time>
      </trkpt>
      <trkpt lat="45.95169" lon="4.88169">
        <ele>285</ele>
        <time>2017-06-14T08:36:06Z</time>
      </trkpt>
      <trkpt lat="45.95176" lon="4.88176">
        <ele>285</ele>
        <time>2017-06-14T08:36:08Z</time>
      </trkpt>
      <trkpt lat="45.95181" lon="4.88176">
        <ele>285</ele>
        <time>2017-06-14T08:36:09Z</time>
      </trkpt>
      <trkpt lat="45.95185" lon="4.88175">
        <ele>285</ele>
        <time>2017-06-14T08:36:10Z</time>
      </trkpt>
      <trkpt lat="45.9519" lon="4.88175">
        <ele>285</ele>
        <time>2017-06-14T08:36:11Z</time>
      </trkpt>
      <trkpt lat="45.95195" lon="4.88175">
        <ele>285</ele>
        <time>2017-06-14T08:36:12Z</time>
      </trkpt>
      <trkpt lat="45.95199" lon="4.88174">
        <ele>285</ele>
        <time>2017-06-14T08:36:13Z</time>
      </trkpt>
      <trkpt lat="45.95204" lon="4.88174">
        <ele>285</ele>
        <time>2017-06-14T08:36:14Z</time>
      </trkpt>
      <trkpt lat="45.95209" lon="4.88174">
        <ele>284</ele>
        <time>2017-06-14T08:36:15Z</time>
      </trkpt>
      <trkpt lat="45.95214" lon="4.88174">
        <ele>284</ele>
        <time>2017-06-14T08:36:16Z</time>
      </trkpt>
      <trkpt lat="45.9522" lon="4.88174">
        <ele>284</ele>
        <time>2017-06-14T08:36:17Z</time>
      </trkpt>
      <trkpt lat="45.95225" lon="4.88174">
        <ele>284</ele>
        <time>2017-06-14T08:36:18Z</time>
      </trkpt>
      <trkpt lat="45.95231" lon="4.88174">
        <ele>283</ele>
        <time>2017-06-14T08:36:19Z</time>
      </trkpt>
      <trkpt lat="45.95237" lon="4.88174">
        <ele>283</ele>
        <time>2017-06-14T08:36:20Z</time>
      </trkpt>
      <trkpt lat="45.95244" lon="4.88174">
        <ele>282</ele>
        <time>2017-06-14T08:36:21Z</time>
      </trkpt>
      <trkpt lat="45.9525" lon="4.88176">
        <ele>281</ele>
        <time>2017-06-14T08:36:22Z</time>
      </trkpt>
      <trkpt lat="45.95256" lon="4.88176">
        <ele>281</ele>
        <time>2017-06-14T08:36:23Z</time>
      </trkpt>
      <trkpt lat="45.95263" lon="4.88176">
        <ele>281</ele>
        <time>2017-06-14T08:36:24Z</time>
      </trkpt>
      <trkpt lat="45.95269" lon="4.88177">
        <ele>281</ele>
        <time>2017-06-14T08:36:25Z</time>
      </trkpt>
      <trkpt lat="45.95276" lon="4.88177">
        <ele>281</ele>
        <time>2017-06-14T08:36:26Z</time>
      </trkpt>
      <trkpt lat="45.95283" lon="4.88177">
        <ele>281</ele>
        <time>2017-06-14T08:36:27Z</time>
      </trkpt>
      <trkpt lat="45.9529" lon="4.88178">
        <ele>281</ele>
        <time>2017-06-14T08:36:28Z</time>
      </trkpt>
      <trkpt lat="45.95297" lon="4.88178">
        <ele>281</ele>
        <time>2017-06-14T08:36:29Z</time>
      </trkpt>
      <trkpt lat="45.95304" lon="4.88179">
        <ele>281</ele>
        <time>2017-06-14T08:36:30Z</time>
      </trkpt>
      <trkpt lat="45.95311" lon="4.88179">
        <ele>280</ele>
        <time>2017-06-14T08:36:31Z</time>
      </trkpt>
      <trkpt lat="45.95318" lon="4.8818">
        <ele>280</ele>
        <time>2017-06-14T08:36:32Z</time>
      </trkpt>
      <trkpt lat="45.95325" lon="4.8818">
        <ele>280</ele>
        <time>2017-06-14T08:36:33Z</time>
      </trkpt>
      <trkpt lat="45.95332" lon="4.8818">
        <ele>279</ele>
        <time>2017-06-14T08:36:34Z</time>
      </trkpt>
      <trkpt lat="45.9534" lon="4.88179">
        <ele>278</ele>
        <time>2017-06-14T08:36:35Z</time>
      </trkpt>
      <trkpt lat="45.95347" lon="4.88179">
        <ele>278</ele>
        <time>2017-06-14T08:36:36Z</time>
      </trkpt>
      <trkpt lat="45.95354" lon="4.88178">
        <ele>278</ele>
        <time>2017-06-14T08:36:37Z</time>
      </trkpt>
      <trkpt lat="45.95361" lon="4.88177">
        <ele>278</ele>
        <time>2017-06-14T08:36:38Z</time>
      </trkpt>
      <trkpt lat="45.95368" lon="4.88176">
        <ele>278</ele>
        <time>2017-06-14T08:36:39Z</time>
      </trkpt>
      <trkpt lat="45.95375" lon="4.88174">
        <ele>278</ele>
        <time>2017-06-14T08:36:40Z</time>
      </trkpt>
      <trkpt lat="45.95382" lon="4.8817">
        <ele>278</ele>
        <time>2017-06-14T08:36:41Z</time>
      </trkpt>
      <trkpt lat="45.95389" lon="4.88168">
        <ele>278</ele>
        <time>2017-06-14T08:36:42Z</time>
      </trkpt>
      <trkpt lat="45.95395" lon="4.88166">
        <ele>276</ele>
        <time>2017-06-14T08:36:43Z</time>
      </trkpt>
      <trkpt lat="45.954" lon="4.88164">
        <ele>276</ele>
        <time>2017-06-14T08:36:44Z</time>
      </trkpt>
      <trkpt lat="45.95406" lon="4.88162">
        <ele>276</ele>
        <time>2017-06-14T08:36:45Z</time>
      </trkpt>
      <trkpt lat="45.95411" lon="4.88159">
        <ele>276</ele>
        <time>2017-06-14T08:36:46Z</time>
      </trkpt>
      <trkpt lat="45.95416" lon="4.88157">
        <ele>276</ele>
        <time>2017-06-14T08:36:47Z</time>
      </trkpt>
      <trkpt lat="45.95421" lon="4.88155">
        <ele>276</ele>
        <time>2017-06-14T08:36:48Z</time>
      </trkpt>
      <trkpt lat="45.95425" lon="4.88153">
        <ele>276</ele>
        <time>2017-06-14T08:36:49Z</time>
      </trkpt>
      <trkpt lat="45.9543" lon="4.88151">
        <ele>276</ele>
        <time>2017-06-14T08:36:50Z</time>
      </trkpt>
      <trkpt lat="45.95434" lon="4.88149">
        <ele>276</ele>
        <time>2017-06-14T08:36:51Z</time>
      </trkpt>
      <trkpt lat="45.95439" lon="4.88147">
        <ele>276</ele>
        <time>2017-06-14T08:36:52Z</time>
      </trkpt>
      <trkpt lat="45.95444" lon="4.88145">
        <ele>276</ele>
        <time>2017-06-14T08:36:53Z</time>
      </trkpt>
      <trkpt lat="45.95449" lon="4.88142">
        <ele>276</ele>
        <time>2017-06-14T08:36:54Z</time>
      </trkpt>
      <trkpt lat="45.95454" lon="4.88139">
        <ele>276</ele>
        <time>2017-06-14T08:36:55Z</time>
      </trkpt>
      <trkpt lat="45.95459" lon="4.88136">
        <ele>276</ele>
        <time>2017-06-14T08:36:56Z</time>
      </trkpt>
      <trkpt lat="45.95464" lon="4.88134">
        <ele>276</ele>
        <time>2017-06-14T08:36:57Z</time>
      </trkpt>
      <trkpt lat="45.95469" lon="4.88132">
        <ele>276</ele>
        <time>2017-06-14T08:36:58Z</time>
      </trkpt>
      <trkpt lat="45.95474" lon="4.8813">
        <ele>276</ele>
        <time>2017-06-14T08:36:59Z</time>
      </trkpt>
      <trkpt lat="45.95479" lon="4.88128">
        <ele>276</ele>
        <time>2017-06-14T08:37:00Z</time>
      </trkpt>
      <trkpt lat="45.95483" lon="4.88127">
        <ele>276</ele>
        <time>2017-06-14T08:37:01Z</time>
      </trkpt>
      <trkpt lat="45.95488" lon="4.88125">
        <ele>276</ele>
        <time>2017-06-14T08:37:02Z</time>
      </trkpt>
      <trkpt lat="45.95493" lon="4.88123">
        <ele>276</ele>
        <time>2017-06-14T08:37:03Z</time>
      </trkpt>
      <trkpt lat="45.95497" lon="4.88121">
        <ele>276</ele>
        <time>2017-06-14T08:37:04Z</time>
      </trkpt>
      <trkpt lat="45.95502" lon="4.88118">
        <ele>276</ele>
        <time>2017-06-14T08:37:05Z</time>
      </trkpt>
      <trkpt lat="45.95507" lon="4.88116">
        <ele>276</ele>
        <time>2017-06-14T08:37:06Z</time>
      </trkpt>
      <trkpt lat="45.95512" lon="4.88113">
        <ele>276</ele>
        <time>2017-06-14T08:37:07Z</time>
      </trkpt>
      <trkpt lat="45.95517" lon="4.88111">
        <ele>277</ele>
        <time>2017-06-14T08:37:08Z</time>
      </trkpt>
      <trkpt lat="45.95522" lon="4.88108">
        <ele>277</ele>
        <time>2017-06-14T08:37:09Z</time>
      </trkpt>
      <trkpt lat="45.95527" lon="4.88106">
        <ele>277</ele>
        <time>2017-06-14T08:37:10Z</time>
      </trkpt>
      <trkpt lat="45.95531" lon="4.88104">
        <ele>277</ele>
        <time>2017-06-14T08:37:11Z</time>
      </trkpt>
      <trkpt lat="45.9554" lon="4.881">
        <ele>277</ele>
        <time>2017-06-14T08:37:13Z</time>
      </trkpt>
      <trkpt lat="45.95544" lon="4.88098">
        <ele>277</ele>
        <time>2017-06-14T08:37:14Z</time>
      </trkpt>
      <trkpt lat="45.95552" lon="4.88094">
        <ele>277</ele>
        <time>2017-06-14T08:37:16Z</time>
      </trkpt>
      <trkpt lat="45.95557" lon="4.88092">
        <ele>277</ele>
        <time>2017-06-14T08:37:17Z</time>
      </trkpt>
      <trkpt lat="45.95561" lon="4.88089">
        <ele>277</ele>
        <time>2017-06-14T08:37:18Z</time>
      </trkpt>
      <trkpt lat="45.95566" lon="4.88087">
        <ele>277</ele>
        <time>2017-06-14T08:37:19Z</time>
      </trkpt>
      <trkpt lat="45.95571" lon="4.88084">
        <ele>277</ele>
        <time>2017-06-14T08:37:20Z</time>
      </trkpt>
      <trkpt lat="45.95575" lon="4.88082">
        <ele>277</ele>
        <time>2017-06-14T08:37:21Z</time>
      </trkpt>
      <trkpt lat="45.9558" lon="4.88079">
        <ele>277</ele>
        <time>2017-06-14T08:37:22Z</time>
      </trkpt>
      <trkpt lat="45.95584" lon="4.88075">
        <ele>277</ele>
        <time>2017-06-14T08:37:23Z</time>
      </trkpt>
      <trkpt lat="45.95588" lon="4.88071">
        <ele>278</ele>
        <time>2017-06-14T08:37:24Z</time>
      </trkpt>
      <trkpt lat="45.95592" lon="4.88067">
        <ele>278</ele>
        <time>2017-06-14T08:37:25Z</time>
      </trkpt>
      <trkpt lat="45.95597" lon="4.88064">
        <ele>278</ele>
        <time>2017-06-14T08:37:26Z</time>
      </trkpt>
      <trkpt lat="45.95601" lon="4.8806">
        <ele>278</ele>
        <time>2017-06-14T08:37:27Z</time>
      </trkpt>
      <trkpt lat="45.95606" lon="4.88056">
        <ele>278</ele>
        <time>2017-06-14T08:37:28Z</time>
      </trkpt>
      <trkpt lat="45.9561" lon="4.88052">
        <ele>278</ele>
        <time>2017-06-14T08:37:29Z</time>
      </trkpt>
      <trkpt lat="45.95614" lon="4.88048">
        <ele>278</ele>
        <time>2017-06-14T08:37:30Z</time>
      </trkpt>
      <trkpt lat="45.95618" lon="4.88044">
        <ele>278</ele>
        <time>2017-06-14T08:37:31Z</time>
      </trkpt>
      <trkpt lat="45.95622" lon="4.8804">
        <ele>278</ele>
        <time>2017-06-14T08:37:32Z</time>
      </trkpt>
      <trkpt lat="45.95626" lon="4.88036">
        <ele>279</ele>
        <time>2017-06-14T08:37:33Z</time>
      </trkpt>
      <trkpt lat="45.9563" lon="4.88032">
        <ele>279</ele>
        <time>2017-06-14T08:37:34Z</time>
      </trkpt>
      <trkpt lat="45.95633" lon="4.88029">
        <ele>279</ele>
        <time>2017-06-14T08:37:35Z</time>
      </trkpt>
      <trkpt lat="45.95637" lon="4.88025">
        <ele>279</ele>
        <time>2017-06-14T08:37:36Z</time>
      </trkpt>
      <trkpt lat="45.95641" lon="4.88021">
        <ele>279</ele>
        <time>2017-06-14T08:37:37Z</time>
      </trkpt>
      <trkpt lat="45.95648" lon="4.88014">
        <ele>279</ele>
        <time>2017-06-14T08:37:39Z</time>
      </trkpt>
      <trkpt lat="45.95652" lon="4.88011">
        <ele>280</ele>
        <time>2017-06-14T08:37:40Z</time>
      </trkpt>
      <trkpt lat="45.95656" lon="4.88008">
        <ele>280</ele>
        <time>2017-06-14T08:37:41Z</time>
      </trkpt>
      <trkpt lat="45.9566" lon="4.88004">
        <ele>280</ele>
        <time>2017-06-14T08:37:42Z</time>
      </trkpt>
      <trkpt lat="45.95664" lon="4.88001">
        <ele>281</ele>
        <time>2017-06-14T08:37:43Z</time>
      </trkpt>
      <trkpt lat="45.95668" lon="4.87997">
        <ele>281</ele>
        <time>2017-06-14T08:37:44Z</time>
      </trkpt>
      <trkpt lat="45.95672" lon="4.87994">
        <ele>281</ele>
        <time>2017-06-14T08:37:45Z</time>
      </trkpt>
      <trkpt lat="45.95676" lon="4.8799">
        <ele>282</ele>
        <time>2017-06-14T08:37:46Z</time>
      </trkpt>
      <trkpt lat="45.95681" lon="4.87986">
        <ele>282</ele>
        <time>2017-06-14T08:37:47Z</time>
      </trkpt>
      <trkpt lat="45.95685" lon="4.87982">
        <ele>282</ele>
        <time>2017-06-14T08:37:48Z</time>
      </trkpt>
      <trkpt lat="45.95689" lon="4.87978">
        <ele>282</ele>
        <time>2017-06-14T08:37:49Z</time>
      </trkpt>
      <trkpt lat="45.95694" lon="4.87974">
        <ele>282</ele>
        <time>2017-06-14T08:37:50Z</time>
      </trkpt>
      <trkpt lat="45.95698" lon="4.8797">
        <ele>282</ele>
        <time>2017-06-14T08:37:51Z</time>
      </trkpt>
      <trkpt lat="45.95702" lon="4.87967">
        <ele>283</ele>
        <time>2017-06-14T08:37:52Z</time>
      </trkpt>
      <trkpt lat="45.95706" lon="4.87963">
        <ele>283</ele>
        <time>2017-06-14T08:37:53Z</time>
      </trkpt>
      <trkpt lat="45.9571" lon="4.8796">
        <ele>283</ele>
        <time>2017-06-14T08:37:54Z</time>
      </trkpt>
      <trkpt lat="45.95714" lon="4.87956">
        <ele>283</ele>
        <time>2017-06-14T08:37:55Z</time>
      </trkpt>
      <trkpt lat="45.95718" lon="4.87952">
        <ele>283</ele>
        <time>2017-06-14T08:37:56Z</time>
      </trkpt>
      <trkpt lat="45.95722" lon="4.87948">
        <ele>283</ele>
        <time>2017-06-14T08:37:57Z</time>
      </trkpt>
      <trkpt lat="45.95726" lon="4.87944">
        <ele>283</ele>
        <time>2017-06-14T08:37:58Z</time>
      </trkpt>
      <trkpt lat="45.95733" lon="4.87938">
        <ele>284</ele>
        <time>2017-06-14T08:38:00Z</time>
      </trkpt>
      <trkpt lat="45.95737" lon="4.87934">
        <ele>284</ele>
        <time>2017-06-14T08:38:01Z</time>
      </trkpt>
      <trkpt lat="45.95744" lon="4.87929">
        <ele>284</ele>
        <time>2017-06-14T08:38:03Z</time>
      </trkpt>
      <trkpt lat="45.95747" lon="4.87926">
        <ele>284</ele>
        <time>2017-06-14T08:38:04Z</time>
      </trkpt>
      <trkpt lat="45.95754" lon="4.87921">
        <ele>285</ele>
        <time>2017-06-14T08:38:06Z</time>
      </trkpt>
      <trkpt lat="45.95757" lon="4.87919">
        <ele>286</ele>
        <time>2017-06-14T08:38:07Z</time>
      </trkpt>
      <trkpt lat="45.95764" lon="4.87915">
        <ele>286</ele>
        <time>2017-06-14T08:38:09Z</time>
      </trkpt>
      <trkpt lat="45.95767" lon="4.87913">
        <ele>286</ele>
        <time>2017-06-14T08:38:10Z</time>
      </trkpt>
      <trkpt lat="45.95773" lon="4.8791">
        <ele>286</ele>
        <time>2017-06-14T08:38:12Z</time>
      </trkpt>
      <trkpt lat="45.95777" lon="4.87908">
        <ele>286</ele>
        <time>2017-06-14T08:38:13Z</time>
      </trkpt>
      <trkpt lat="45.95783" lon="4.87904">
        <ele>286</ele>
        <time>2017-06-14T08:38:15Z</time>
      </trkpt>
      <trkpt lat="45.95786" lon="4.87902">
        <ele>286</ele>
        <time>2017-06-14T08:38:16Z</time>
      </trkpt>
      <trkpt lat="45.95791" lon="4.87898">
        <ele>286</ele>
        <time>2017-06-14T08:38:18Z</time>
      </trkpt>
      <trkpt lat="45.95794" lon="4.87896">
        <ele>286</ele>
        <time>2017-06-14T08:38:19Z</time>
      </trkpt>
      <trkpt lat="45.95801" lon="4.87891">
        <ele>287</ele>
        <time>2017-06-14T08:38:21Z</time>
      </trkpt>
      <trkpt lat="45.95804" lon="4.8789">
        <ele>287</ele>
        <time>2017-06-14T08:38:22Z</time>
      </trkpt>
      <trkpt lat="45.95811" lon="4.87887">
        <ele>287</ele>
        <time>2017-06-14T08:38:24Z</time>
      </trkpt>
      <trkpt lat="45.95814" lon="4.87886">
        <ele>287</ele>
        <time>2017-06-14T08:38:25Z</time>
      </trkpt>
      <trkpt lat="45.95821" lon="4.87883">
        <ele>287</ele>
        <time>2017-06-14T08:38:28Z</time>
      </trkpt>
      <trkpt lat="45.95824" lon="4.87883">
        <ele>287</ele>
        <time>2017-06-14T08:38:29Z</time>
      </trkpt>
      <trkpt lat="45.9583" lon="4.8788">
        <ele>287</ele>
        <time>2017-06-14T08:38:32Z</time>
      </trkpt>
      <trkpt lat="45.95833" lon="4.87878">
        <ele>287</ele>
        <time>2017-06-14T08:38:33Z</time>
      </trkpt>
      <trkpt lat="45.95838" lon="4.87872">
        <ele>289</ele>
        <time>2017-06-14T08:38:35Z</time>
      </trkpt>
      <trkpt lat="45.95841" lon="4.87869">
        <ele>289</ele>
        <time>2017-06-14T08:38:36Z</time>
      </trkpt>
      <trkpt lat="45.95846" lon="4.87864">
        <ele>289</ele>
        <time>2017-06-14T08:38:38Z</time>
      </trkpt>
      <trkpt lat="45.95848" lon="4.87862">
        <ele>289</ele>
        <time>2017-06-14T08:38:39Z</time>
      </trkpt>
      <trkpt lat="45.95856" lon="4.87855">
        <ele>289</ele>
        <time>2017-06-14T08:38:42Z</time>
      </trkpt>
      <trkpt lat="45.95858" lon="4.87852">
        <ele>289</ele>
        <time>2017-06-14T08:38:43Z</time>
      </trkpt>
      <trkpt lat="45.95864" lon="4.87846">
        <ele>289</ele>
        <time>2017-06-14T08:38:45Z</time>
      </trkpt>
      <trkpt lat="45.95867" lon="4.87843">
        <ele>289</ele>
        <time>2017-06-14T08:38:46Z</time>
      </trkpt>
      <trkpt lat="45.95873" lon="4.87836">
        <ele>289</ele>
        <time>2017-06-14T08:38:48Z</time>
      </trkpt>
      <trkpt lat="45.95876" lon="4.87833">
        <ele>288</ele>
        <time>2017-06-14T08:38:49Z</time>
      </trkpt>
      <trkpt lat="45.95883" lon="4.87828">
        <ele>288</ele>
        <time>2017-06-14T08:38:51Z</time>
      </trkpt>
      <trkpt lat="45.95886" lon="4.87825">
        <ele>288</ele>
        <time>2017-06-14T08:38:52Z</time>
      </trkpt>
      <trkpt lat="45.95891" lon="4.87818">
        <ele>288</ele>
        <time>2017-06-14T08:38:54Z</time>
      </trkpt>
      <trkpt lat="45.95894" lon="4.87813">
        <ele>288</ele>
        <time>2017-06-14T08:38:55Z</time>
      </trkpt>
      <trkpt lat="45.959" lon="4.87804">
        <ele>288</ele>
        <time>2017-06-14T08:38:57Z</time>
      </trkpt>
      <trkpt lat="45.95903" lon="4.878">
        <ele>288</ele>
        <time>2017-06-14T08:38:58Z</time>
      </trkpt>
      <trkpt lat="45.95908" lon="4.87791">
        <ele>288</ele>
        <time>2017-06-14T08:39:00Z</time>
      </trkpt>
      <trkpt lat="45.95911" lon="4.87787">
        <ele>288</ele>
        <time>2017-06-14T08:39:01Z</time>
      </trkpt>
      <trkpt lat="45.95915" lon="4.87779">
        <ele>288</ele>
        <time>2017-06-14T08:39:03Z</time>
      </trkpt>
      <trkpt lat="45.95918" lon="4.87776">
        <ele>289</ele>
        <time>2017-06-14T08:39:04Z</time>
      </trkpt>
      <trkpt lat="45.95923" lon="4.87768">
        <ele>289</ele>
        <time>2017-06-14T08:39:06Z</time>
      </trkpt>
      <trkpt lat="45.95926" lon="4.87764">
        <ele>288</ele>
        <time>2017-06-14T08:39:07Z</time>
      </trkpt>
      <trkpt lat="45.95931" lon="4.87755">
        <ele>288</ele>
        <time>2017-06-14T08:39:09Z</time>
      </trkpt>
      <trkpt lat="45.95934" lon="4.8775">
        <ele>288</ele>
        <time>2017-06-14T08:39:10Z</time>
      </trkpt>
      <trkpt lat="45.95939" lon="4.87743">
        <ele>288</ele>
        <time>2017-06-14T08:39:12Z</time>
      </trkpt>
      <trkpt lat="45.95942" lon="4.87739">
        <ele>289</ele>
        <time>2017-06-14T08:39:13Z</time>
      </trkpt>
      <trkpt lat="45.95948" lon="4.8773">
        <ele>289</ele>
        <time>2017-06-14T08:39:15Z</time>
      </trkpt>
      <trkpt lat="45.95951" lon="4.87726">
        <ele>289</ele>
        <time>2017-06-14T08:39:16Z</time>
      </trkpt>
      <trkpt lat="45.95957" lon="4.87717">
        <ele>289</ele>
        <time>2017-06-14T08:39:18Z</time>
      </trkpt>
      <trkpt lat="45.9596" lon="4.87713">
        <ele>289</ele>
        <time>2017-06-14T08:39:19Z</time>
      </trkpt>
      <trkpt lat="45.95966" lon="4.87706">
        <ele>289</ele>
        <time>2017-06-14T08:39:21Z</time>
      </trkpt>
      <trkpt lat="45.9597" lon="4.87702">
        <ele>289</ele>
        <time>2017-06-14T08:39:22Z</time>
      </trkpt>
      <trkpt lat="45.95976" lon="4.87695">
        <ele>289</ele>
        <time>2017-06-14T08:39:24Z</time>
      </trkpt>
      <trkpt lat="45.95979" lon="4.87692">
        <ele>289</ele>
        <time>2017-06-14T08:39:25Z</time>
      </trkpt>
      <trkpt lat="45.95985" lon="4.87685">
        <ele>289</ele>
        <time>2017-06-14T08:39:27Z</time>
      </trkpt>
      <trkpt lat="45.95988" lon="4.87681">
        <ele>289</ele>
        <time>2017-06-14T08:39:28Z</time>
      </trkpt>
      <trkpt lat="45.95992" lon="4.87677">
        <ele>289</ele>
        <time>2017-06-14T08:39:29Z</time>
      </trkpt>
      <trkpt lat="45.95996" lon="4.87673">
        <ele>290</ele>
        <time>2017-06-14T08:39:30Z</time>
      </trkpt>
      <trkpt lat="45.95999" lon="4.87669">
        <ele>290</ele>
        <time>2017-06-14T08:39:31Z</time>
      </trkpt>
      <trkpt lat="45.96003" lon="4.87665">
        <ele>290</ele>
        <time>2017-06-14T08:39:32Z</time>
      </trkpt>
      <trkpt lat="45.96007" lon="4.87661">
        <ele>290</ele>
        <time>2017-06-14T08:39:33Z</time>
      </trkpt>
      <trkpt lat="45.9601" lon="4.87656">
        <ele>289</ele>
        <time>2017-06-14T08:39:34Z</time>
      </trkpt>
      <trkpt lat="45.96017" lon="4.87648">
        <ele>289</ele>
        <time>2017-06-14T08:39:36Z</time>
      </trkpt>
      <trkpt lat="45.9602" lon="4.87644">
        <ele>289</ele>
        <time>2017-06-14T08:39:37Z</time>
      </trkpt>
      <trkpt lat="45.96027" lon="4.87637">
        <ele>289</ele>
        <time>2017-06-14T08:39:39Z</time>
      </trkpt>
      <trkpt lat="45.9603" lon="4.87633">
        <ele>289</ele>
        <time>2017-06-14T08:39:40Z</time>
      </trkpt>
      <trkpt lat="45.96036" lon="4.87625">
        <ele>289</ele>
        <time>2017-06-14T08:39:42Z</time>
      </trkpt>
      <trkpt lat="45.96039" lon="4.87621">
        <ele>289</ele>
        <time>2017-06-14T08:39:43Z</time>
      </trkpt>
      <trkpt lat="45.96043" lon="4.87617">
        <ele>289</ele>
        <time>2017-06-14T08:39:44Z</time>
      </trkpt>
      <trkpt lat="45.96047" lon="4.87613">
        <ele>289</ele>
        <time>2017-06-14T08:39:45Z</time>
      </trkpt>
      <trkpt lat="45.96051" lon="4.87607">
        <ele>289</ele>
        <time>2017-06-14T08:39:46Z</time>
      </trkpt>
      <trkpt lat="45.96055" lon="4.87603">
        <ele>289</ele>
        <time>2017-06-14T08:39:47Z</time>
      </trkpt>
      <trkpt lat="45.96059" lon="4.87598">
        <ele>288</ele>
        <time>2017-06-14T08:39:48Z</time>
      </trkpt>
      <trkpt lat="45.96063" lon="4.87594">
        <ele>288</ele>
        <time>2017-06-14T08:39:49Z</time>
      </trkpt>
      <trkpt lat="45.96067" lon="4.8759">
        <ele>288</ele>
        <time>2017-06-14T08:39:50Z</time>
      </trkpt>
      <trkpt lat="45.96071" lon="4.87586">
        <ele>288</ele>
        <time>2017-06-14T08:39:51Z</time>
      </trkpt>
      <trkpt lat="45.96075" lon="4.87582">
        <ele>288</ele>
        <time>2017-06-14T08:39:52Z</time>
      </trkpt>
      <trkpt lat="45.9608" lon="4.87577">
        <ele>288</ele>
        <time>2017-06-14T08:39:53Z</time>
      </trkpt>
      <trkpt lat="45.96084" lon="4.87573">
        <ele>287</ele>
        <time>2017-06-14T08:39:54Z</time>
      </trkpt>
      <trkpt lat="45.96088" lon="4.87568">
        <ele>287</ele>
        <time>2017-06-14T08:39:55Z</time>
      </trkpt>
      <trkpt lat="45.96092" lon="4.87563">
        <ele>287</ele>
        <time>2017-06-14T08:39:56Z</time>
      </trkpt>
      <trkpt lat="45.96096" lon="4.87559">
        <ele>287</ele>
        <time>2017-06-14T08:39:57Z</time>
      </trkpt>
      <trkpt lat="45.961" lon="4.87554">
        <ele>287</ele>
        <time>2017-06-14T08:39:58Z</time>
      </trkpt>
      <trkpt lat="45.96104" lon="4.8755">
        <ele>287</ele>
        <time>2017-06-14T08:39:59Z</time>
      </trkpt>
      <trkpt lat="45.96108" lon="4.87546">
        <ele>287</ele>
        <time>2017-06-14T08:40:00Z</time>
      </trkpt>
      <trkpt lat="45.96111" lon="4.87541">
        <ele>287</ele>
        <time>2017-06-14T08:40:01Z</time>
      </trkpt>
      <trkpt lat="45.96116" lon="4.87536">
        <ele>287</ele>
        <time>2017-06-14T08:40:02Z</time>
      </trkpt>
      <trkpt lat="45.9612" lon="4.87531">
        <ele>286</ele>
        <time>2017-06-14T08:40:03Z</time>
      </trkpt>
      <trkpt lat="45.96125" lon="4.87526">
        <ele>286</ele>
        <time>2017-06-14T08:40:04Z</time>
      </trkpt>
      <trkpt lat="45.96129" lon="4.87522">
        <ele>286</ele>
        <time>2017-06-14T08:40:05Z</time>
      </trkpt>
      <trkpt lat="45.96133" lon="4.87517">
        <ele>286</ele>
        <time>2017-06-14T08:40:06Z</time>
      </trkpt>
      <trkpt lat="45.96138" lon="4.87512">
        <ele>286</ele>
        <time>2017-06-14T08:40:07Z</time>
      </trkpt>
      <trkpt lat="45.96142" lon="4.87507">
        <ele>286</ele>
        <time>2017-06-14T08:40:08Z</time>
      </trkpt>
      <trkpt lat="45.96147" lon="4.87502">
        <ele>286</ele>
        <time>2017-06-14T08:40:09Z</time>
      </trkpt>
      <trkpt lat="45.96151" lon="4.87496">
        <ele>285</ele>
        <time>2017-06-14T08:40:10Z</time>
      </trkpt>
      <trkpt lat="45.96156" lon="4.87491">
        <ele>285</ele>
        <time>2017-06-14T08:40:11Z</time>
      </trkpt>
      <trkpt lat="45.96161" lon="4.87485">
        <ele>285</ele>
        <time>2017-06-14T08:40:12Z</time>
      </trkpt>
      <trkpt lat="45.96166" lon="4.8748">
        <ele>285</ele>
        <time>2017-06-14T08:40:13Z</time>
      </trkpt>
      <trkpt lat="45.96171" lon="4.87474">
        <ele>284</ele>
        <time>2017-06-14T08:40:14Z</time>
      </trkpt>
      <trkpt lat="45.96175" lon="4.87469">
        <ele>284</ele>
        <time>2017-06-14T08:40:15Z</time>
      </trkpt>
      <trkpt lat="45.9618" lon="4.87463">
        <ele>284</ele>
        <time>2017-06-14T08:40:16Z</time>
      </trkpt>
      <trkpt lat="45.96185" lon="4.87457">
        <ele>284</ele>
        <time>2017-06-14T08:40:17Z</time>
      </trkpt>
      <trkpt lat="45.9619" lon="4.87452">
        <ele>284</ele>
        <time>2017-06-14T08:40:18Z</time>
      </trkpt>
      <trkpt lat="45.96195" lon="4.87446">
        <ele>284</ele>
        <time>2017-06-14T08:40:19Z</time>
      </trkpt>
      <trkpt lat="45.962" lon="4.87441">
        <ele>284</ele>
        <time>2017-06-14T08:40:20Z</time>
      </trkpt>
      <trkpt lat="45.96204" lon="4.87435">
        <ele>284</ele>
        <time>2017-06-14T08:40:21Z</time>
      </trkpt>
      <trkpt lat="45.96209" lon="4.8743">
        <ele>284</ele>
        <time>2017-06-14T08:40:22Z</time>
      </trkpt>
      <trkpt lat="45.96213" lon="4.87425">
        <ele>284</ele>
        <time>2017-06-14T08:40:23Z</time>
      </trkpt>
      <trkpt lat="45.96218" lon="4.87419">
        <ele>284</ele>
        <time>2017-06-14T08:40:24Z</time>
      </trkpt>
      <trkpt lat="45.96222" lon="4.87414">
        <ele>283</ele>
        <time>2017-06-14T08:40:25Z</time>
      </trkpt>
      <trkpt lat="45.96227" lon="4.87408">
        <ele>283</ele>
        <time>2017-06-14T08:40:26Z</time>
      </trkpt>
      <trkpt lat="45.96231" lon="4.87403">
        <ele>283</ele>
        <time>2017-06-14T08:40:27Z</time>
      </trkpt>
      <trkpt lat="45.96236" lon="4.87398">
        <ele>283</ele>
        <time>2017-06-14T08:40:28Z</time>
      </trkpt>
      <trkpt lat="45.9624" lon="4.87393">
        <ele>283</ele>
        <time>2017-06-14T08:40:29Z</time>
      </trkpt>
      <trkpt lat="45.96244" lon="4.87387">
        <ele>283</ele>
        <time>2017-06-14T08:40:30Z</time>
      </trkpt>
      <trkpt lat="45.96249" lon="4.87381">
        <ele>283</ele>
        <time>2017-06-14T08:40:31Z</time>
      </trkpt>
      <trkpt lat="45.96254" lon="4.87376">
        <ele>283</ele>
        <time>2017-06-14T08:40:32Z</time>
      </trkpt>
      <trkpt lat="45.96259" lon="4.8737">
        <ele>283</ele>
        <time>2017-06-14T08:40:33Z</time>
      </trkpt>
      <trkpt lat="45.96263" lon="4.87364">
        <ele>283</ele>
        <time>2017-06-14T08:40:34Z</time>
      </trkpt>
      <trkpt lat="45.96268" lon="4.87358">
        <ele>283</ele>
        <time>2017-06-14T08:40:35Z</time>
      </trkpt>
      <trkpt lat="45.96273" lon="4.87352">
        <ele>284</ele>
        <time>2017-06-14T08:40:36Z</time>
      </trkpt>
      <trkpt lat="45.96277" lon="4.87346">
        <ele>284</ele>
        <time>2017-06-14T08:40:37Z</time>
      </trkpt>
      <trkpt lat="45.96282" lon="4.8734">
        <ele>284</ele>
        <time>2017-06-14T08:40:38Z</time>
      </trkpt>
      <trkpt lat="45.96286" lon="4.87335">
        <ele>284</ele>
        <time>2017-06-14T08:40:39Z</time>
      </trkpt>
      <trkpt lat="45.9629" lon="4.87329">
        <ele>283</ele>
        <time>2017-06-14T08:40:40Z</time>
      </trkpt>
      <trkpt lat="45.96294" lon="4.87324">
        <ele>283</ele>
        <time>2017-06-14T08:40:41Z</time>
      </trkpt>
      <trkpt lat="45.96299" lon="4.87318">
        <ele>283</ele>
        <time>2017-06-14T08:40:42Z</time>
      </trkpt>
      <trkpt lat="45.96303" lon="4.87313">
        <ele>283</ele>
        <time>2017-06-14T08:40:43Z</time>
      </trkpt>
      <trkpt lat="45.96308" lon="4.87308">
        <ele>283</ele>
        <time>2017-06-14T08:40:44Z</time>
      </trkpt>
      <trkpt lat="45.96312" lon="4.87303">
        <ele>283</ele>
        <time>2017-06-14T08:40:45Z</time>
      </trkpt>
      <trkpt lat="45.96316" lon="4.87298">
        <ele>283</ele>
        <time>2017-06-14T08:40:46Z</time>
      </trkpt>
      <trkpt lat="45.96319" lon="4.87293">
        <ele>283</ele>
        <time>2017-06-14T08:40:47Z</time>
      </trkpt>
      <trkpt lat="45.96323" lon="4.87288">
        <ele>283</ele>
        <time>2017-06-14T08:40:48Z</time>
      </trkpt>
      <trkpt lat="45.96327" lon="4.87283">
        <ele>283</ele>
        <time>2017-06-14T08:40:49Z</time>
      </trkpt>
      <trkpt lat="45.96331" lon="4.87277">
        <ele>283</ele>
        <time>2017-06-14T08:40:50Z</time>
      </trkpt>
      <trkpt lat="45.96335" lon="4.87272">
        <ele>283</ele>
        <time>2017-06-14T08:40:51Z</time>
      </trkpt>
      <trkpt lat="45.96339" lon="4.87267">
        <ele>283</ele>
        <time>2017-06-14T08:40:52Z</time>
      </trkpt>
      <trkpt lat="45.96344" lon="4.87261">
        <ele>283</ele>
        <time>2017-06-14T08:40:53Z</time>
      </trkpt>
      <trkpt lat="45.96348" lon="4.87255">
        <ele>283</ele>
        <time>2017-06-14T08:40:54Z</time>
      </trkpt>
      <trkpt lat="45.96353" lon="4.87249">
        <ele>282</ele>
        <time>2017-06-14T08:40:55Z</time>
      </trkpt>
      <trkpt lat="45.96357" lon="4.87243">
        <ele>282</ele>
        <time>2017-06-14T08:40:56Z</time>
      </trkpt>
      <trkpt lat="45.96362" lon="4.87237">
        <ele>282</ele>
        <time>2017-06-14T08:40:57Z</time>
      </trkpt>
      <trkpt lat="45.96366" lon="4.8723">
        <ele>282</ele>
        <time>2017-06-14T08:40:58Z</time>
      </trkpt>
      <trkpt lat="45.96371" lon="4.87224">
        <ele>282</ele>
        <time>2017-06-14T08:40:59Z</time>
      </trkpt>
      <trkpt lat="45.96375" lon="4.87219">
        <ele>282</ele>
        <time>2017-06-14T08:41:00Z</time>
      </trkpt>
      <trkpt lat="45.9638" lon="4.87213">
        <ele>282</ele>
        <time>2017-06-14T08:41:01Z</time>
      </trkpt>
      <trkpt lat="45.96384" lon="4.87207">
        <ele>282</ele>
        <time>2017-06-14T08:41:02Z</time>
      </trkpt>
      <trkpt lat="45.96389" lon="4.87201">
        <ele>282</ele>
        <time>2017-06-14T08:41:03Z</time>
      </trkpt>
      <trkpt lat="45.96393" lon="4.87195">
        <ele>282</ele>
        <time>2017-06-14T08:41:04Z</time>
      </trkpt>
      <trkpt lat="45.96398" lon="4.87189">
        <ele>282</ele>
        <time>2017-06-14T08:41:05Z</time>
      </trkpt>
      <trkpt lat="45.96402" lon="4.87183">
        <ele>282</ele>
        <time>2017-06-14T08:41:06Z</time>
      </trkpt>
      <trkpt lat="45.96406" lon="4.87177">
        <ele>281</ele>
        <time>2017-06-14T08:41:07Z</time>
      </trkpt>
      <trkpt lat="45.9641" lon="4.87171">
        <ele>281</ele>
        <time>2017-06-14T08:41:08Z</time>
      </trkpt>
      <trkpt lat="45.96415" lon="4.87166">
        <ele>281</ele>
        <time>2017-06-14T08:41:09Z</time>
      </trkpt>
      <trkpt lat="45.96419" lon="4.87161">
        <ele>281</ele>
        <time>2017-06-14T08:41:10Z</time>
      </trkpt>
      <trkpt lat="45.96422" lon="4.87156">
        <ele>281</ele>
        <time>2017-06-14T08:41:11Z</time>
      </trkpt>
      <trkpt lat="45.96426" lon="4.8715">
        <ele>281</ele>
        <time>2017-06-14T08:41:12Z</time>
      </trkpt>
      <trkpt lat="45.96429" lon="4.87146">
        <ele>281</ele>
        <time>2017-06-14T08:41:13Z</time>
      </trkpt>
      <trkpt lat="45.96433" lon="4.87141">
        <ele>281</ele>
        <time>2017-06-14T08:41:14Z</time>
      </trkpt>
      <trkpt lat="45.96436" lon="4.87136">
        <ele>281</ele>
        <time>2017-06-14T08:41:15Z</time>
      </trkpt>
      <trkpt lat="45.9644" lon="4.87131">
        <ele>281</ele>
        <time>2017-06-14T08:41:16Z</time>
      </trkpt>
      <trkpt lat="45.96443" lon="4.87126">
        <ele>281</ele>
        <time>2017-06-14T08:41:17Z</time>
      </trkpt>
      <trkpt lat="45.96447" lon="4.87121">
        <ele>281</ele>
        <time>2017-06-14T08:41:18Z</time>
      </trkpt>
      <trkpt lat="45.96451" lon="4.87116">
        <ele>281</ele>
        <time>2017-06-14T08:41:19Z</time>
      </trkpt>
      <trkpt lat="45.96454" lon="4.87112">
        <ele>281</ele>
        <time>2017-06-14T08:41:20Z</time>
      </trkpt>
      <trkpt lat="45.96458" lon="4.87107">
        <ele>281</ele>
        <time>2017-06-14T08:41:21Z</time>
      </trkpt>
      <trkpt lat="45.96465" lon="4.87099">
        <ele>282</ele>
        <time>2017-06-14T08:41:23Z</time>
      </trkpt>
      <trkpt lat="45.96468" lon="4.87095">
        <ele>282</ele>
        <time>2017-06-14T08:41:24Z</time>
      </trkpt>
      <trkpt lat="45.96474" lon="4.87087">
        <ele>282</ele>
        <time>2017-06-14T08:41:26Z</time>
      </trkpt>
      <trkpt lat="45.96477" lon="4.87083">
        <ele>282</ele>
        <time>2017-06-14T08:41:27Z</time>
      </trkpt>
      <trkpt lat="45.96483" lon="4.87075">
        <ele>282</ele>
        <time>2017-06-14T08:41:29Z</time>
      </trkpt>
      <trkpt lat="45.96486" lon="4.8707">
        <ele>282</ele>
        <time>2017-06-14T08:41:30Z</time>
      </trkpt>
      <trkpt lat="45.9649" lon="4.87066">
        <ele>282</ele>
        <time>2017-06-14T08:41:31Z</time>
      </trkpt>
      <trkpt lat="45.96494" lon="4.87061">
        <ele>282</ele>
        <time>2017-06-14T08:41:32Z</time>
      </trkpt>
      <trkpt lat="45.965" lon="4.87052">
        <ele>281</ele>
        <time>2017-06-14T08:41:34Z</time>
      </trkpt>
      <trkpt lat="45.96504" lon="4.8705">
        <ele>282</ele>
        <time>2017-06-14T08:41:35Z</time>
      </trkpt>
      <trkpt lat="45.9651" lon="4.87052">
        <ele>283</ele>
        <time>2017-06-14T08:41:37Z</time>
      </trkpt>
      <trkpt lat="45.96512" lon="4.87054">
        <ele>283</ele>
        <time>2017-06-14T08:41:38Z</time>
      </trkpt>
      <trkpt lat="45.96517" lon="4.87062">
        <ele>283</ele>
        <time>2017-06-14T08:41:41Z</time>
      </trkpt>
      <trkpt lat="45.96519" lon="4.87065">
        <ele>283</ele>
        <time>2017-06-14T08:41:42Z</time>
      </trkpt>
      <trkpt lat="45.96526" lon="4.8707">
        <ele>283</ele>
        <time>2017-06-14T08:41:46Z</time>
      </trkpt>
      <trkpt lat="45.96528" lon="4.87069">
        <ele>283</ele>
        <time>2017-06-14T08:41:47Z</time>
      </trkpt>
      <trkpt lat="45.96537" lon="4.8707">
        <ele>283</ele>
        <time>2017-06-14T08:41:54Z</time>
      </trkpt>
      <trkpt lat="45.96538" lon="4.87072">
        <ele>283</ele>
        <time>2017-06-14T08:41:55Z</time>
      </trkpt>
      <trkpt lat="45.96544" lon="4.87076">
        <ele>283</ele>
        <time>2017-06-14T08:41:58Z</time>
      </trkpt>
      <trkpt lat="45.96547" lon="4.87077">
        <ele>283</ele>
        <time>2017-06-14T08:41:59Z</time>
      </trkpt>
      <trkpt lat="45.96554" lon="4.87077">
        <ele>283</ele>
        <time>2017-06-14T08:42:02Z</time>
      </trkpt>
      <trkpt lat="45.96557" lon="4.87076">
        <ele>283</ele>
        <time>2017-06-14T08:42:03Z</time>
      </trkpt>
      <trkpt lat="45.96559" lon="4.87068">
        <ele>283</ele>
        <time>2017-06-14T08:42:05Z</time>
      </trkpt>
      <trkpt lat="45.96559" lon="4.87063">
        <ele>283</ele>
        <time>2017-06-14T08:42:06Z</time>
      </trkpt>
      <trkpt lat="45.96558" lon="4.87053">
        <ele>283</ele>
        <time>2017-06-14T08:42:08Z</time>
      </trkpt>
      <trkpt lat="45.96558" lon="4.87047">
        <ele>283</ele>
        <time>2017-06-14T08:42:09Z</time>
      </trkpt>
      <trkpt lat="45.96557" lon="4.87038">
        <ele>283</ele>
        <time>2017-06-14T08:42:11Z</time>
      </trkpt>
      <trkpt lat="45.96555" lon="4.87033">
        <ele>283</ele>
        <time>2017-06-14T08:42:12Z</time>
      </trkpt>
      <trkpt lat="45.96548" lon="4.87028">
        <ele>283</ele>
        <time>2017-06-14T08:42:26Z</time>
      </trkpt>
      <trkpt lat="45.96548" lon="4.87029">
        <ele>283</ele>
        <time>2017-06-14T08:42:27Z</time>
      </trkpt>
      <trkpt lat="45.96548" lon="4.8703">
        <ele>283</ele>
        <time>2017-06-14T08:42:28Z</time>
      </trkpt>
      <trkpt lat="45.96539" lon="4.87028">
        <ele>283</ele>
        <time>2017-06-14T08:48:54Z</time>
      </trkpt>
      <trkpt lat="45.96539" lon="4.87028">
        <ele>283</ele>
        <time>2017-06-14T08:48:55Z</time>
      </trkpt>
      <trkpt lat="45.96545" lon="4.87024">
        <ele>283</ele>
        <time>2017-06-14T08:49:22Z</time>
      </trkpt>
      <trkpt lat="45.96548" lon="4.87025">
        <ele>283</ele>
        <time>2017-06-14T08:49:23Z</time>
      </trkpt>
      <trkpt lat="45.96545" lon="4.87013">
        <ele>283</ele>
        <time>2017-06-14T08:49:43Z</time>
      </trkpt>
      <trkpt lat="45.96545" lon="4.87009">
        <ele>283</ele>
        <time>2017-06-14T08:49:44Z</time>
      </trkpt>
      <trkpt lat="45.96543" lon="4.86998">
        <ele>283</ele>
        <time>2017-06-14T08:49:47Z</time>
      </trkpt>
      <trkpt lat="45.96544" lon="4.86994">
        <ele>283</ele>
        <time>2017-06-14T08:49:48Z</time>
      </trkpt>
      <trkpt lat="45.96548" lon="4.86988">
        <ele>283</ele>
        <time>2017-06-14T08:49:50Z</time>
      </trkpt>
      <trkpt lat="45.96551" lon="4.86984">
        <ele>283</ele>
        <time>2017-06-14T08:49:51Z</time>
      </trkpt>
      <trkpt lat="45.96556" lon="4.86977">
        <ele>283</ele>
        <time>2017-06-14T08:49:53Z</time>
      </trkpt>
      <trkpt lat="45.96558" lon="4.86973">
        <ele>283</ele>
        <time>2017-06-14T08:49:54Z</time>
      </trkpt>
      <trkpt lat="45.96562" lon="4.86969">
        <ele>283</ele>
        <time>2017-06-14T08:49:55Z</time>
      </trkpt>
      <trkpt lat="45.96565" lon="4.86964">
        <ele>284</ele>
        <time>2017-06-14T08:49:56Z</time>
      </trkpt>
      <trkpt lat="45.9657" lon="4.86955">
        <ele>284</ele>
        <time>2017-06-14T08:49:58Z</time>
      </trkpt>
      <trkpt lat="45.96573" lon="4.8695">
        <ele>284</ele>
        <time>2017-06-14T08:49:59Z</time>
      </trkpt>
      <trkpt lat="45.96576" lon="4.86945">
        <ele>284</ele>
        <time>2017-06-14T08:50:00Z</time>
      </trkpt>
      <trkpt lat="45.96578" lon="4.8694">
        <ele>284</ele>
        <time>2017-06-14T08:50:01Z</time>
      </trkpt>
      <trkpt lat="45.96581" lon="4.86934">
        <ele>284</ele>
        <time>2017-06-14T08:50:02Z</time>
      </trkpt>
      <trkpt lat="45.96585" lon="4.86929">
        <ele>285</ele>
        <time>2017-06-14T08:50:03Z</time>
      </trkpt>
      <trkpt lat="45.9659" lon="4.86919">
        <ele>285</ele>
        <time>2017-06-14T08:50:05Z</time>
      </trkpt>
      <trkpt lat="45.96593" lon="4.86914">
        <ele>286</ele>
        <time>2017-06-14T08:50:06Z</time>
      </trkpt>
      <trkpt lat="45.96599" lon="4.86905">
        <ele>286</ele>
        <time>2017-06-14T08:50:08Z</time>
      </trkpt>
      <trkpt lat="45.96601" lon="4.86901">
        <ele>286</ele>
        <time>2017-06-14T08:50:09Z</time>
      </trkpt>
      <trkpt lat="45.96606" lon="4.86894">
        <ele>287</ele>
        <time>2017-06-14T08:50:11Z</time>
      </trkpt>
      <trkpt lat="45.96608" lon="4.86891">
        <ele>287</ele>
        <time>2017-06-14T08:50:12Z</time>
      </trkpt>
      <trkpt lat="45.96613" lon="4.86881">
        <ele>287</ele>
        <time>2017-06-14T08:50:15Z</time>
      </trkpt>
      <trkpt lat="45.96615" lon="4.86877">
        <ele>287</ele>
        <time>2017-06-14T08:50:16Z</time>
      </trkpt>
      <trkpt lat="45.9662" lon="4.86869">
        <ele>287</ele>
        <time>2017-06-14T08:50:18Z</time>
      </trkpt>
      <trkpt lat="45.96622" lon="4.86865">
        <ele>287</ele>
        <time>2017-06-14T08:50:19Z</time>
      </trkpt>
      <trkpt lat="45.96627" lon="4.86857">
        <ele>287</ele>
        <time>2017-06-14T08:50:21Z</time>
      </trkpt>
      <trkpt lat="45.9663" lon="4.86853">
        <ele>287</ele>
        <time>2017-06-14T08:50:22Z</time>
      </trkpt>
      <trkpt lat="45.96633" lon="4.86844">
        <ele>287</ele>
        <time>2017-06-14T08:50:24Z</time>
      </trkpt>
      <trkpt lat="45.96636" lon="4.8684">
        <ele>287</ele>
        <time>2017-06-14T08:50:25Z</time>
      </trkpt>
      <trkpt lat="45.96639" lon="4.86835">
        <ele>287</ele>
        <time>2017-06-14T08:50:26Z</time>
      </trkpt>
      <trkpt lat="45.96642" lon="4.8683">
        <ele>288</ele>
        <time>2017-06-14T08:50:27Z</time>
      </trkpt>
      <trkpt lat="45.96645" lon="4.86825">
        <ele>288</ele>
        <time>2017-06-14T08:50:28Z</time>
      </trkpt>
      <trkpt lat="45.96648" lon="4.8682">
        <ele>288</ele>
        <time>2017-06-14T08:50:29Z</time>
      </trkpt>
      <trkpt lat="45.96654" lon="4.86811">
        <ele>288</ele>
        <time>2017-06-14T08:50:31Z</time>
      </trkpt>
      <trkpt lat="45.96656" lon="4.86807">
        <ele>288</ele>
        <time>2017-06-14T08:50:32Z</time>
      </trkpt>
      <trkpt lat="45.96662" lon="4.86797">
        <ele>288</ele>
        <time>2017-06-14T08:50:34Z</time>
      </trkpt>
      <trkpt lat="45.96666" lon="4.86792">
        <ele>288</ele>
        <time>2017-06-14T08:50:35Z</time>
      </trkpt>
      <trkpt lat="45.96672" lon="4.86784">
        <ele>289</ele>
        <time>2017-06-14T08:50:37Z</time>
      </trkpt>
      <trkpt lat="45.96674" lon="4.86779">
        <ele>289</ele>
        <time>2017-06-14T08:50:38Z</time>
      </trkpt>
      <trkpt lat="45.96679" lon="4.86771">
        <ele>289</ele>
        <time>2017-06-14T08:50:40Z</time>
      </trkpt>
      <trkpt lat="45.96682" lon="4.86766">
        <ele>289</ele>
        <time>2017-06-14T08:50:41Z</time>
      </trkpt>
      <trkpt lat="45.96688" lon="4.86758">
        <ele>289</ele>
        <time>2017-06-14T08:50:43Z</time>
      </trkpt>
      <trkpt lat="45.96691" lon="4.86753">
        <ele>289</ele>
        <time>2017-06-14T08:50:44Z</time>
      </trkpt>
      <trkpt lat="45.96697" lon="4.86744">
        <ele>289</ele>
        <time>2017-06-14T08:50:46Z</time>
      </trkpt>
      <trkpt lat="45.96699" lon="4.86739">
        <ele>289</ele>
        <time>2017-06-14T08:50:47Z</time>
      </trkpt>
      <trkpt lat="45.96705" lon="4.8673">
        <ele>289</ele>
        <time>2017-06-14T08:50:49Z</time>
      </trkpt>
      <trkpt lat="45.96708" lon="4.86725">
        <ele>289</ele>
        <time>2017-06-14T08:50:50Z</time>
      </trkpt>
      <trkpt lat="45.96711" lon="4.8672">
        <ele>289</ele>
        <time>2017-06-14T08:50:51Z</time>
      </trkpt>
      <trkpt lat="45.96714" lon="4.86715">
        <ele>289</ele>
        <time>2017-06-14T08:50:52Z</time>
      </trkpt>
      <trkpt lat="45.96719" lon="4.86707">
        <ele>289</ele>
        <time>2017-06-14T08:50:54Z</time>
      </trkpt>
      <trkpt lat="45.96721" lon="4.86702">
        <ele>289</ele>
        <time>2017-06-14T08:50:55Z</time>
      </trkpt>
      <trkpt lat="45.96726" lon="4.86694">
        <ele>289</ele>
        <time>2017-06-14T08:50:57Z</time>
      </trkpt>
      <trkpt lat="45.96728" lon="4.86689">
        <ele>289</ele>
        <time>2017-06-14T08:50:58Z</time>
      </trkpt>
      <trkpt lat="45.96733" lon="4.86681">
        <ele>290</ele>
        <time>2017-06-14T08:51:00Z</time>
      </trkpt>
      <trkpt lat="45.96736" lon="4.86677">
        <ele>290</ele>
        <time>2017-06-14T08:51:01Z</time>
      </trkpt>
      <trkpt lat="45.96742" lon="4.86669">
        <ele>290</ele>
        <time>2017-06-14T08:51:03Z</time>
      </trkpt>
      <trkpt lat="45.96745" lon="4.86664">
        <ele>290</ele>
        <time>2017-06-14T08:51:04Z</time>
      </trkpt>
      <trkpt lat="45.9675" lon="4.86656">
        <ele>290</ele>
        <time>2017-06-14T08:51:06Z</time>
      </trkpt>
      <trkpt lat="45.96752" lon="4.86653">
        <ele>290</ele>
        <time>2017-06-14T08:51:07Z</time>
      </trkpt>
      <trkpt lat="45.96757" lon="4.86645">
        <ele>290</ele>
        <time>2017-06-14T08:51:09Z</time>
      </trkpt>
      <trkpt lat="45.96759" lon="4.86641">
        <ele>290</ele>
        <time>2017-06-14T08:51:10Z</time>
      </trkpt>
      <trkpt lat="45.96764" lon="4.86632">
        <ele>289</ele>
        <time>2017-06-14T08:51:12Z</time>
      </trkpt>
      <trkpt lat="45.96767" lon="4.86627">
        <ele>289</ele>
        <time>2017-06-14T08:51:13Z</time>
      </trkpt>
      <trkpt lat="45.96773" lon="4.86617">
        <ele>289</ele>
        <time>2017-06-14T08:51:15Z</time>
      </trkpt>
      <trkpt lat="45.96775" lon="4.86613">
        <ele>289</ele>
        <time>2017-06-14T08:51:16Z</time>
      </trkpt>
      <trkpt lat="45.96781" lon="4.86603">
        <ele>289</ele>
        <time>2017-06-14T08:51:18Z</time>
      </trkpt>
      <trkpt lat="45.96784" lon="4.86599">
        <ele>289</ele>
        <time>2017-06-14T08:51:19Z</time>
      </trkpt>
      <trkpt lat="45.96789" lon="4.8659">
        <ele>289</ele>
        <time>2017-06-14T08:51:21Z</time>
      </trkpt>
      <trkpt lat="45.96791" lon="4.86586">
        <ele>289</ele>
        <time>2017-06-14T08:51:22Z</time>
      </trkpt>
      <trkpt lat="45.96797" lon="4.86578">
        <ele>290</ele>
        <time>2017-06-14T08:51:24Z</time>
      </trkpt>
      <trkpt lat="45.96799" lon="4.86573">
        <ele>290</ele>
        <time>2017-06-14T08:51:25Z</time>
      </trkpt>
      <trkpt lat="45.96805" lon="4.86564">
        <ele>290</ele>
        <time>2017-06-14T08:51:27Z</time>
      </trkpt>
      <trkpt lat="45.96808" lon="4.86559">
        <ele>290</ele>
        <time>2017-06-14T08:51:28Z</time>
      </trkpt>
      <trkpt lat="45.96811" lon="4.86554">
        <ele>290</ele>
        <time>2017-06-14T08:51:29Z</time>
      </trkpt>
      <trkpt lat="45.96814" lon="4.8655">
        <ele>290</ele>
        <time>2017-06-14T08:51:30Z</time>
      </trkpt>
      <trkpt lat="45.9682" lon="4.86541">
        <ele>290</ele>
        <time>2017-06-14T08:51:32Z</time>
      </trkpt>
      <trkpt lat="45.96822" lon="4.86536">
        <ele>290</ele>
        <time>2017-06-14T08:51:33Z</time>
      </trkpt>
      <trkpt lat="45.96827" lon="4.86527">
        <ele>289</ele>
        <time>2017-06-14T08:51:35Z</time>
      </trkpt>
      <trkpt lat="45.96829" lon="4.86522">
        <ele>289</ele>
        <time>2017-06-14T08:51:36Z</time>
      </trkpt>
      <trkpt lat="45.96834" lon="4.86513">
        <ele>288</ele>
        <time>2017-06-14T08:51:38Z</time>
      </trkpt>
      <trkpt lat="45.96837" lon="4.86508">
        <ele>289</ele>
        <time>2017-06-14T08:51:39Z</time>
      </trkpt>
      <trkpt lat="45.96842" lon="4.86498">
        <ele>289</ele>
        <time>2017-06-14T08:51:41Z</time>
      </trkpt>
      <trkpt lat="45.96844" lon="4.86492">
        <ele>289</ele>
        <time>2017-06-14T08:51:42Z</time>
      </trkpt>
      <trkpt lat="45.96846" lon="4.86487">
        <ele>289</ele>
        <time>2017-06-14T08:51:43Z</time>
      </trkpt>
      <trkpt lat="45.96848" lon="4.86481">
        <ele>289</ele>
        <time>2017-06-14T08:51:44Z</time>
      </trkpt>
      <trkpt lat="45.9685" lon="4.86475">
        <ele>289</ele>
        <time>2017-06-14T08:51:45Z</time>
      </trkpt>
      <trkpt lat="45.96852" lon="4.86468">
        <ele>289</ele>
        <time>2017-06-14T08:51:46Z</time>
      </trkpt>
      <trkpt lat="45.96854" lon="4.86462">
        <ele>289</ele>
        <time>2017-06-14T08:51:47Z</time>
      </trkpt>
      <trkpt lat="45.96855" lon="4.86455">
        <ele>289</ele>
        <time>2017-06-14T08:51:48Z</time>
      </trkpt>
      <trkpt lat="45.96857" lon="4.86449">
        <ele>289</ele>
        <time>2017-06-14T08:51:49Z</time>
      </trkpt>
      <trkpt lat="45.96858" lon="4.86442">
        <ele>289</ele>
        <time>2017-06-14T08:51:50Z</time>
      </trkpt>
      <trkpt lat="45.9686" lon="4.8643">
        <ele>290</ele>
        <time>2017-06-14T08:51:52Z</time>
      </trkpt>
      <trkpt lat="45.96861" lon="4.86424">
        <ele>290</ele>
        <time>2017-06-14T08:51:53Z</time>
      </trkpt>
      <trkpt lat="45.96863" lon="4.86413">
        <ele>290</ele>
        <time>2017-06-14T08:51:55Z</time>
      </trkpt>
      <trkpt lat="45.96864" lon="4.86407">
        <ele>290</ele>
        <time>2017-06-14T08:51:56Z</time>
      </trkpt>
      <trkpt lat="45.96866" lon="4.86396">
        <ele>290</ele>
        <time>2017-06-14T08:51:58Z</time>
      </trkpt>
      <trkpt lat="45.96866" lon="4.86389">
        <ele>290</ele>
        <time>2017-06-14T08:51:59Z</time>
      </trkpt>
      <trkpt lat="45.96867" lon="4.86377">
        <ele>290</ele>
        <time>2017-06-14T08:52:01Z</time>
      </trkpt>
      <trkpt lat="45.96868" lon="4.86371">
        <ele>290</ele>
        <time>2017-06-14T08:52:02Z</time>
      </trkpt>
      <trkpt lat="45.96869" lon="4.86364">
        <ele>290</ele>
        <time>2017-06-14T08:52:03Z</time>
      </trkpt>
      <trkpt lat="45.9687" lon="4.86357">
        <ele>290</ele>
        <time>2017-06-14T08:52:04Z</time>
      </trkpt>
      <trkpt lat="45.96871" lon="4.86351">
        <ele>290</ele>
        <time>2017-06-14T08:52:05Z</time>
      </trkpt>
      <trkpt lat="45.96871" lon="4.86344">
        <ele>290</ele>
        <time>2017-06-14T08:52:06Z</time>
      </trkpt>
      <trkpt lat="45.96872" lon="4.86337">
        <ele>290</ele>
        <time>2017-06-14T08:52:07Z</time>
      </trkpt>
      <trkpt lat="45.96873" lon="4.8633">
        <ele>289</ele>
        <time>2017-06-14T08:52:08Z</time>
      </trkpt>
      <trkpt lat="45.96875" lon="4.86318">
        <ele>289</ele>
        <time>2017-06-14T08:52:10Z</time>
      </trkpt>
      <trkpt lat="45.96876" lon="4.86313">
        <ele>289</ele>
        <time>2017-06-14T08:52:11Z</time>
      </trkpt>
      <trkpt lat="45.96877" lon="4.86301">
        <ele>289</ele>
        <time>2017-06-14T08:52:13Z</time>
      </trkpt>
      <trkpt lat="45.96878" lon="4.86296">
        <ele>289</ele>
        <time>2017-06-14T08:52:14Z</time>
      </trkpt>
      <trkpt lat="45.96879" lon="4.86284">
        <ele>289</ele>
        <time>2017-06-14T08:52:16Z</time>
      </trkpt>
      <trkpt lat="45.9688" lon="4.86278">
        <ele>289</ele>
        <time>2017-06-14T08:52:17Z</time>
      </trkpt>
      <trkpt lat="45.96882" lon="4.86266">
        <ele>288</ele>
        <time>2017-06-14T08:52:19Z</time>
      </trkpt>
      <trkpt lat="45.96883" lon="4.86259">
        <ele>288</ele>
        <time>2017-06-14T08:52:20Z</time>
      </trkpt>
      <trkpt lat="45.96883" lon="4.86253">
        <ele>288</ele>
        <time>2017-06-14T08:52:21Z</time>
      </trkpt>
      <trkpt lat="45.96884" lon="4.86247">
        <ele>288</ele>
        <time>2017-06-14T08:52:22Z</time>
      </trkpt>
      <trkpt lat="45.96885" lon="4.8624">
        <ele>288</ele>
        <time>2017-06-14T08:52:23Z</time>
      </trkpt>
      <trkpt lat="45.96886" lon="4.86234">
        <ele>288</ele>
        <time>2017-06-14T08:52:24Z</time>
      </trkpt>
      <trkpt lat="45.96887" lon="4.86227">
        <ele>289</ele>
        <time>2017-06-14T08:52:25Z</time>
      </trkpt>
      <trkpt lat="45.96888" lon="4.86221">
        <ele>289</ele>
        <time>2017-06-14T08:52:26Z</time>
      </trkpt>
      <trkpt lat="45.96889" lon="4.86214">
        <ele>289</ele>
        <time>2017-06-14T08:52:27Z</time>
      </trkpt>
      <trkpt lat="45.9689" lon="4.86208">
        <ele>289</ele>
        <time>2017-06-14T08:52:28Z</time>
      </trkpt>
      <trkpt lat="45.96891" lon="4.86201">
        <ele>289</ele>
        <time>2017-06-14T08:52:29Z</time>
      </trkpt>
      <trkpt lat="45.96892" lon="4.86194">
        <ele>289</ele>
        <time>2017-06-14T08:52:30Z</time>
      </trkpt>
      <trkpt lat="45.96893" lon="4.86187">
        <ele>289</ele>
        <time>2017-06-14T08:52:31Z</time>
      </trkpt>
      <trkpt lat="45.96894" lon="4.86181">
        <ele>289</ele>
        <time>2017-06-14T08:52:32Z</time>
      </trkpt>
      <trkpt lat="45.96895" lon="4.86174">
        <ele>288</ele>
        <time>2017-06-14T08:52:33Z</time>
      </trkpt>
      <trkpt lat="45.96896" lon="4.86166">
        <ele>289</ele>
        <time>2017-06-14T08:52:34Z</time>
      </trkpt>
      <trkpt lat="45.96896" lon="4.86159">
        <ele>289</ele>
        <time>2017-06-14T08:52:35Z</time>
      </trkpt>
      <trkpt lat="45.96897" lon="4.86152">
        <ele>289</ele>
        <time>2017-06-14T08:52:36Z</time>
      </trkpt>
      <trkpt lat="45.96898" lon="4.86144">
        <ele>289</ele>
        <time>2017-06-14T08:52:37Z</time>
      </trkpt>
      <trkpt lat="45.96898" lon="4.86136">
        <ele>289</ele>
        <time>2017-06-14T08:52:38Z</time>
      </trkpt>
      <trkpt lat="45.96899" lon="4.86129">
        <ele>289</ele>
        <time>2017-06-14T08:52:39Z</time>
      </trkpt>
      <trkpt lat="45.96901" lon="4.86121">
        <ele>289</ele>
        <time>2017-06-14T08:52:40Z</time>
      </trkpt>
      <trkpt lat="45.96902" lon="4.86113">
        <ele>289</ele>
        <time>2017-06-14T08:52:41Z</time>
      </trkpt>
      <trkpt lat="45.96903" lon="4.86106">
        <ele>289</ele>
        <time>2017-06-14T08:52:42Z</time>
      </trkpt>
      <trkpt lat="45.96904" lon="4.86098">
        <ele>288</ele>
        <time>2017-06-14T08:52:43Z</time>
      </trkpt>
      <trkpt lat="45.96905" lon="4.86089">
        <ele>288</ele>
        <time>2017-06-14T08:52:44Z</time>
      </trkpt>
      <trkpt lat="45.96905" lon="4.86081">
        <ele>288</ele>
        <time>2017-06-14T08:52:45Z</time>
      </trkpt>
      <trkpt lat="45.96906" lon="4.86073">
        <ele>288</ele>
        <time>2017-06-14T08:52:46Z</time>
      </trkpt>
      <trkpt lat="45.96907" lon="4.86065">
        <ele>288</ele>
        <time>2017-06-14T08:52:47Z</time>
      </trkpt>
      <trkpt lat="45.96907" lon="4.86057">
        <ele>288</ele>
        <time>2017-06-14T08:52:48Z</time>
      </trkpt>
      <trkpt lat="45.96908" lon="4.86049">
        <ele>289</ele>
        <time>2017-06-14T08:52:49Z</time>
      </trkpt>
      <trkpt lat="45.96909" lon="4.86042">
        <ele>289</ele>
        <time>2017-06-14T08:52:50Z</time>
      </trkpt>
      <trkpt lat="45.9691" lon="4.86035">
        <ele>289</ele>
        <time>2017-06-14T08:52:51Z</time>
      </trkpt>
      <trkpt lat="45.96911" lon="4.86027">
        <ele>289</ele>
        <time>2017-06-14T08:52:52Z</time>
      </trkpt>
      <trkpt lat="45.96912" lon="4.86019">
        <ele>289</ele>
        <time>2017-06-14T08:52:53Z</time>
      </trkpt>
      <trkpt lat="45.96913" lon="4.86011">
        <ele>288</ele>
        <time>2017-06-14T08:52:54Z</time>
      </trkpt>
      <trkpt lat="45.96915" lon="4.86004">
        <ele>288</ele>
        <time>2017-06-14T08:52:55Z</time>
      </trkpt>
      <trkpt lat="45.96916" lon="4.85996">
        <ele>288</ele>
        <time>2017-06-14T08:52:56Z</time>
      </trkpt>
      <trkpt lat="45.96918" lon="4.85988">
        <ele>287</ele>
        <time>2017-06-14T08:52:57Z</time>
      </trkpt>
      <trkpt lat="45.9692" lon="4.85981">
        <ele>287</ele>
        <time>2017-06-14T08:52:58Z</time>
      </trkpt>
      <trkpt lat="45.96922" lon="4.85973">
        <ele>287</ele>
        <time>2017-06-14T08:52:59Z</time>
      </trkpt>
      <trkpt lat="45.96924" lon="4.85966">
        <ele>287</ele>
        <time>2017-06-14T08:53:00Z</time>
      </trkpt>
      <trkpt lat="45.96926" lon="4.85958">
        <ele>287</ele>
        <time>2017-06-14T08:53:01Z</time>
      </trkpt>
      <trkpt lat="45.96929" lon="4.85951">
        <ele>287</ele>
        <time>2017-06-14T08:53:02Z</time>
      </trkpt>
      <trkpt lat="45.96931" lon="4.85944">
        <ele>286</ele>
        <time>2017-06-14T08:53:03Z</time>
      </trkpt>
      <trkpt lat="45.96933" lon="4.85936">
        <ele>286</ele>
        <time>2017-06-14T08:53:04Z</time>
      </trkpt>
      <trkpt lat="45.96935" lon="4.85928">
        <ele>286</ele>
        <time>2017-06-14T08:53:05Z</time>
      </trkpt>
      <trkpt lat="45.96937" lon="4.8592">
        <ele>286</ele>
        <time>2017-06-14T08:53:06Z</time>
      </trkpt>
      <trkpt lat="45.96939" lon="4.85912">
        <ele>286</ele>
        <time>2017-06-14T08:53:07Z</time>
      </trkpt>
      <trkpt lat="45.96941" lon="4.85904">
        <ele>285</ele>
        <time>2017-06-14T08:53:08Z</time>
      </trkpt>
      <trkpt lat="45.96943" lon="4.85896">
        <ele>285</ele>
        <time>2017-06-14T08:53:09Z</time>
      </trkpt>
      <trkpt lat="45.96946" lon="4.85887">
        <ele>285</ele>
        <time>2017-06-14T08:53:10Z</time>
      </trkpt>
      <trkpt lat="45.96948" lon="4.85878">
        <ele>285</ele>
        <time>2017-06-14T08:53:11Z</time>
      </trkpt>
      <trkpt lat="45.9695" lon="4.85869">
        <ele>285</ele>
        <time>2017-06-14T08:53:12Z</time>
      </trkpt>
      <trkpt lat="45.96953" lon="4.85861">
        <ele>285</ele>
        <time>2017-06-14T08:53:13Z</time>
      </trkpt>
      <trkpt lat="45.96955" lon="4.85852">
        <ele>285</ele>
        <time>2017-06-14T08:53:14Z</time>
      </trkpt>
      <trkpt lat="45.96957" lon="4.85843">
        <ele>285</ele>
        <time>2017-06-14T08:53:15Z</time>
      </trkpt>
      <trkpt lat="45.96959" lon="4.85835">
        <ele>285</ele>
        <time>2017-06-14T08:53:16Z</time>
      </trkpt>
      <trkpt lat="45.96961" lon="4.85827">
        <ele>285</ele>
        <time>2017-06-14T08:53:17Z</time>
      </trkpt>
      <trkpt lat="45.96963" lon="4.85819">
        <ele>285</ele>
        <time>2017-06-14T08:53:18Z</time>
      </trkpt>
      <trkpt lat="45.96965" lon="4.85811">
        <ele>285</ele>
        <time>2017-06-14T08:53:19Z</time>
      </trkpt>
      <trkpt lat="45.96967" lon="4.85803">
        <ele>285</ele>
        <time>2017-06-14T08:53:20Z</time>
      </trkpt>
      <trkpt lat="45.96969" lon="4.85796">
        <ele>285</ele>
        <time>2017-06-14T08:53:21Z</time>
      </trkpt>
      <trkpt lat="45.96971" lon="4.85788">
        <ele>285</ele>
        <time>2017-06-14T08:53:22Z</time>
      </trkpt>
      <trkpt lat="45.96973" lon="4.8578">
        <ele>285</ele>
        <time>2017-06-14T08:53:23Z</time>
      </trkpt>
      <trkpt lat="45.96975" lon="4.85771">
        <ele>285</ele>
        <time>2017-06-14T08:53:24Z</time>
      </trkpt>
      <trkpt lat="45.96978" lon="4.85762">
        <ele>285</ele>
        <time>2017-06-14T08:53:25Z</time>
      </trkpt>
      <trkpt lat="45.9698" lon="4.85753">
        <ele>285</ele>
        <time>2017-06-14T08:53:26Z</time>
      </trkpt>
      <trkpt lat="45.96983" lon="4.85744">
        <ele>285</ele>
        <time>2017-06-14T08:53:27Z</time>
      </trkpt>
      <trkpt lat="45.96985" lon="4.85735">
        <ele>285</ele>
        <time>2017-06-14T08:53:28Z</time>
      </trkpt>
      <trkpt lat="45.96988" lon="4.85726">
        <ele>285</ele>
        <time>2017-06-14T08:53:29Z</time>
      </trkpt>
      <trkpt lat="45.9699" lon="4.85716">
        <ele>285</ele>
        <time>2017-06-14T08:53:30Z</time>
      </trkpt>
      <trkpt lat="45.96992" lon="4.85708">
        <ele>285</ele>
        <time>2017-06-14T08:53:31Z</time>
      </trkpt>
      <trkpt lat="45.96994" lon="4.857">
        <ele>285</ele>
        <time>2017-06-14T08:53:32Z</time>
      </trkpt>
      <trkpt lat="45.96996" lon="4.85692">
        <ele>285</ele>
        <time>2017-06-14T08:53:33Z</time>
      </trkpt>
      <trkpt lat="45.96998" lon="4.85685">
        <ele>285</ele>
        <time>2017-06-14T08:53:34Z</time>
      </trkpt>
      <trkpt lat="45.96999" lon="4.85677">
        <ele>286</ele>
        <time>2017-06-14T08:53:35Z</time>
      </trkpt>
      <trkpt lat="45.97" lon="4.8567">
        <ele>286</ele>
        <time>2017-06-14T08:53:36Z</time>
      </trkpt>
      <trkpt lat="45.97002" lon="4.85663">
        <ele>286</ele>
        <time>2017-06-14T08:53:37Z</time>
      </trkpt>
      <trkpt lat="45.97004" lon="4.85655">
        <ele>285</ele>
        <time>2017-06-14T08:53:38Z</time>
      </trkpt>
      <trkpt lat="45.97006" lon="4.85648">
        <ele>285</ele>
        <time>2017-06-14T08:53:39Z</time>
      </trkpt>
      <trkpt lat="45.97009" lon="4.8564">
        <ele>284</ele>
        <time>2017-06-14T08:53:40Z</time>
      </trkpt>
      <trkpt lat="45.9701" lon="4.85633">
        <ele>284</ele>
        <time>2017-06-14T08:53:41Z</time>
      </trkpt>
      <trkpt lat="45.97012" lon="4.85625">
        <ele>284</ele>
        <time>2017-06-14T08:53:42Z</time>
      </trkpt>
      <trkpt lat="45.97015" lon="4.85617">
        <ele>284</ele>
        <time>2017-06-14T08:53:43Z</time>
      </trkpt>
      <trkpt lat="45.97017" lon="4.85609">
        <ele>284</ele>
        <time>2017-06-14T08:53:44Z</time>
      </trkpt>
      <trkpt lat="45.97019" lon="4.85601">
        <ele>284</ele>
        <time>2017-06-14T08:53:45Z</time>
      </trkpt>
      <trkpt lat="45.97021" lon="4.85593">
        <ele>284</ele>
        <time>2017-06-14T08:53:46Z</time>
      </trkpt>
      <trkpt lat="45.97024" lon="4.85584">
        <ele>284</ele>
        <time>2017-06-14T08:53:47Z</time>
      </trkpt>
      <trkpt lat="45.97026" lon="4.85575">
        <ele>283</ele>
        <time>2017-06-14T08:53:48Z</time>
      </trkpt>
      <trkpt lat="45.97029" lon="4.85567">
        <ele>283</ele>
        <time>2017-06-14T08:53:49Z</time>
      </trkpt>
      <trkpt lat="45.97032" lon="4.85558">
        <ele>283</ele>
        <time>2017-06-14T08:53:50Z</time>
      </trkpt>
      <trkpt lat="45.97034" lon="4.8555">
        <ele>283</ele>
        <time>2017-06-14T08:53:51Z</time>
      </trkpt>
      <trkpt lat="45.97037" lon="4.85542">
        <ele>282</ele>
        <time>2017-06-14T08:53:52Z</time>
      </trkpt>
      <trkpt lat="45.97039" lon="4.85533">
        <ele>282</ele>
        <time>2017-06-14T08:53:53Z</time>
      </trkpt>
      <trkpt lat="45.97041" lon="4.85526">
        <ele>282</ele>
        <time>2017-06-14T08:53:54Z</time>
      </trkpt>
      <trkpt lat="45.97044" lon="4.85518">
        <ele>282</ele>
        <time>2017-06-14T08:53:55Z</time>
      </trkpt>
      <trkpt lat="45.97047" lon="4.8551">
        <ele>282</ele>
        <time>2017-06-14T08:53:56Z</time>
      </trkpt>
      <trkpt lat="45.9705" lon="4.85501">
        <ele>282</ele>
        <time>2017-06-14T08:53:57Z</time>
      </trkpt>
      <trkpt lat="45.97052" lon="4.85493">
        <ele>281</ele>
        <time>2017-06-14T08:53:58Z</time>
      </trkpt>
      <trkpt lat="45.97055" lon="4.85485">
        <ele>281</ele>
        <time>2017-06-14T08:53:59Z</time>
      </trkpt>
      <trkpt lat="45.97058" lon="4.85477">
        <ele>281</ele>
        <time>2017-06-14T08:54:00Z</time>
      </trkpt>
      <trkpt lat="45.97061" lon="4.85469">
        <ele>281</ele>
        <time>2017-06-14T08:54:01Z</time>
      </trkpt>
      <trkpt lat="45.97063" lon="4.85461">
        <ele>281</ele>
        <time>2017-06-14T08:54:02Z</time>
      </trkpt>
      <trkpt lat="45.97066" lon="4.85453">
        <ele>281</ele>
        <time>2017-06-14T08:54:03Z</time>
      </trkpt>
      <trkpt lat="45.97068" lon="4.85445">
        <ele>281</ele>
        <time>2017-06-14T08:54:04Z</time>
      </trkpt>
      <trkpt lat="45.97071" lon="4.85437">
        <ele>281</ele>
        <time>2017-06-14T08:54:05Z</time>
      </trkpt>
      <trkpt lat="45.97074" lon="4.85429">
        <ele>281</ele>
        <time>2017-06-14T08:54:06Z</time>
      </trkpt>
      <trkpt lat="45.97077" lon="4.85421">
        <ele>280</ele>
        <time>2017-06-14T08:54:07Z</time>
      </trkpt>
      <trkpt lat="45.9708" lon="4.85412">
        <ele>280</ele>
        <time>2017-06-14T08:54:08Z</time>
      </trkpt>
      <trkpt lat="45.97083" lon="4.85403">
        <ele>281</ele>
        <time>2017-06-14T08:54:09Z</time>
      </trkpt>
      <trkpt lat="45.97086" lon="4.85394">
        <ele>280</ele>
        <time>2017-06-14T08:54:10Z</time>
      </trkpt>
      <trkpt lat="45.97089" lon="4.85385">
        <ele>280</ele>
        <time>2017-06-14T08:54:11Z</time>
      </trkpt>
      <trkpt lat="45.97091" lon="4.85376">
        <ele>280</ele>
        <time>2017-06-14T08:54:12Z</time>
      </trkpt>
      <trkpt lat="45.97094" lon="4.85366">
        <ele>280</ele>
        <time>2017-06-14T08:54:13Z</time>
      </trkpt>
      <trkpt lat="45.97098" lon="4.85356">
        <ele>280</ele>
        <time>2017-06-14T08:54:14Z</time>
      </trkpt>
      <trkpt lat="45.97101" lon="4.85347">
        <ele>280</ele>
        <time>2017-06-14T08:54:15Z</time>
      </trkpt>
      <trkpt lat="45.97104" lon="4.85338">
        <ele>280</ele>
        <time>2017-06-14T08:54:16Z</time>
      </trkpt>
      <trkpt lat="45.97107" lon="4.85329">
        <ele>280</ele>
        <time>2017-06-14T08:54:17Z</time>
      </trkpt>
      <trkpt lat="45.9711" lon="4.85321">
        <ele>280</ele>
        <time>2017-06-14T08:54:18Z</time>
      </trkpt>
      <trkpt lat="45.97113" lon="4.85312">
        <ele>280</ele>
        <time>2017-06-14T08:54:19Z</time>
      </trkpt>
      <trkpt lat="45.97117" lon="4.85305">
        <ele>280</ele>
        <time>2017-06-14T08:54:20Z</time>
      </trkpt>
      <trkpt lat="45.9712" lon="4.85297">
        <ele>280</ele>
        <time>2017-06-14T08:54:21Z</time>
      </trkpt>
      <trkpt lat="45.97124" lon="4.85289">
        <ele>280</ele>
        <time>2017-06-14T08:54:22Z</time>
      </trkpt>
      <trkpt lat="45.97127" lon="4.85282">
        <ele>279</ele>
        <time>2017-06-14T08:54:23Z</time>
      </trkpt>
      <trkpt lat="45.9713" lon="4.85276">
        <ele>279</ele>
        <time>2017-06-14T08:54:24Z</time>
      </trkpt>
      <trkpt lat="45.97134" lon="4.85269">
        <ele>279</ele>
        <time>2017-06-14T08:54:25Z</time>
      </trkpt>
      <trkpt lat="45.97137" lon="4.85261">
        <ele>279</ele>
        <time>2017-06-14T08:54:26Z</time>
      </trkpt>
      <trkpt lat="45.97141" lon="4.85253">
        <ele>279</ele>
        <time>2017-06-14T08:54:27Z</time>
      </trkpt>
      <trkpt lat="45.97144" lon="4.85244">
        <ele>279</ele>
        <time>2017-06-14T08:54:28Z</time>
      </trkpt>
      <trkpt lat="45.97148" lon="4.85235">
        <ele>279</ele>
        <time>2017-06-14T08:54:29Z</time>
      </trkpt>
      <trkpt lat="45.97153" lon="4.85227">
        <ele>279</ele>
        <time>2017-06-14T08:54:30Z</time>
      </trkpt>
      <trkpt lat="45.97157" lon="4.85218">
        <ele>279</ele>
        <time>2017-06-14T08:54:31Z</time>
      </trkpt>
      <trkpt lat="45.97161" lon="4.8521">
        <ele>279</ele>
        <time>2017-06-14T08:54:32Z</time>
      </trkpt>
      <trkpt lat="45.97164" lon="4.85203">
        <ele>279</ele>
        <time>2017-06-14T08:54:33Z</time>
      </trkpt>
      <trkpt lat="45.97168" lon="4.85195">
        <ele>278</ele>
        <time>2017-06-14T08:54:34Z</time>
      </trkpt>
      <trkpt lat="45.97172" lon="4.85187">
        <ele>278</ele>
        <time>2017-06-14T08:54:35Z</time>
      </trkpt>
      <trkpt lat="45.97176" lon="4.8518">
        <ele>278</ele>
        <time>2017-06-14T08:54:36Z</time>
      </trkpt>
      <trkpt lat="45.9718" lon="4.85173">
        <ele>278</ele>
        <time>2017-06-14T08:54:37Z</time>
      </trkpt>
      <trkpt lat="45.97183" lon="4.85166">
        <ele>278</ele>
        <time>2017-06-14T08:54:38Z</time>
      </trkpt>
      <trkpt lat="45.97187" lon="4.85158">
        <ele>278</ele>
        <time>2017-06-14T08:54:39Z</time>
      </trkpt>
      <trkpt lat="45.9719" lon="4.85151">
        <ele>278</ele>
        <time>2017-06-14T08:54:40Z</time>
      </trkpt>
      <trkpt lat="45.97194" lon="4.85143">
        <ele>278</ele>
        <time>2017-06-14T08:54:41Z</time>
      </trkpt>
      <trkpt lat="45.97197" lon="4.85136">
        <ele>278</ele>
        <time>2017-06-14T08:54:42Z</time>
      </trkpt>
      <trkpt lat="45.97201" lon="4.85128">
        <ele>278</ele>
        <time>2017-06-14T08:54:43Z</time>
      </trkpt>
      <trkpt lat="45.97204" lon="4.8512">
        <ele>278</ele>
        <time>2017-06-14T08:54:44Z</time>
      </trkpt>
      <trkpt lat="45.97207" lon="4.85113">
        <ele>278</ele>
        <time>2017-06-14T08:54:45Z</time>
      </trkpt>
      <trkpt lat="45.97211" lon="4.85105">
        <ele>278</ele>
        <time>2017-06-14T08:54:46Z</time>
      </trkpt>
      <trkpt lat="45.97214" lon="4.85098">
        <ele>278</ele>
        <time>2017-06-14T08:54:47Z</time>
      </trkpt>
      <trkpt lat="45.97217" lon="4.85091">
        <ele>278</ele>
        <time>2017-06-14T08:54:48Z</time>
      </trkpt>
      <trkpt lat="45.9722" lon="4.85085">
        <ele>278</ele>
        <time>2017-06-14T08:54:49Z</time>
      </trkpt>
      <trkpt lat="45.97223" lon="4.85078">
        <ele>278</ele>
        <time>2017-06-14T08:54:50Z</time>
      </trkpt>
      <trkpt lat="45.97226" lon="4.85072">
        <ele>278</ele>
        <time>2017-06-14T08:54:51Z</time>
      </trkpt>
      <trkpt lat="45.97229" lon="4.85065">
        <ele>278</ele>
        <time>2017-06-14T08:54:52Z</time>
      </trkpt>
      <trkpt lat="45.97232" lon="4.85059">
        <ele>279</ele>
        <time>2017-06-14T08:54:53Z</time>
      </trkpt>
      <trkpt lat="45.97235" lon="4.85053">
        <ele>279</ele>
        <time>2017-06-14T08:54:54Z</time>
      </trkpt>
      <trkpt lat="45.97238" lon="4.85047">
        <ele>279</ele>
        <time>2017-06-14T08:54:55Z</time>
      </trkpt>
      <trkpt lat="45.97241" lon="4.85041">
        <ele>279</ele>
        <time>2017-06-14T08:54:56Z</time>
      </trkpt>
      <trkpt lat="45.97244" lon="4.85035">
        <ele>279</ele>
        <time>2017-06-14T08:54:57Z</time>
      </trkpt>
      <trkpt lat="45.97247" lon="4.85029">
        <ele>279</ele>
        <time>2017-06-14T08:54:58Z</time>
      </trkpt>
      <trkpt lat="45.9725" lon="4.85022">
        <ele>279</ele>
        <time>2017-06-14T08:54:59Z</time>
      </trkpt>
      <trkpt lat="45.97253" lon="4.85016">
        <ele>279</ele>
        <time>2017-06-14T08:55:00Z</time>
      </trkpt>
      <trkpt lat="45.97256" lon="4.85009">
        <ele>279</ele>
        <time>2017-06-14T08:55:01Z</time>
      </trkpt>
      <trkpt lat="45.97259" lon="4.85002">
        <ele>279</ele>
        <time>2017-06-14T08:55:02Z</time>
      </trkpt>
      <trkpt lat="45.97263" lon="4.84995">
        <ele>279</ele>
        <time>2017-06-14T08:55:03Z</time>
      </trkpt>
      <trkpt lat="45.97266" lon="4.84987">
        <ele>279</ele>
        <time>2017-06-14T08:55:04Z</time>
      </trkpt>
      <trkpt lat="45.97269" lon="4.84979">
        <ele>279</ele>
        <time>2017-06-14T08:55:05Z</time>
      </trkpt>
      <trkpt lat="45.97272" lon="4.84972">
        <ele>278</ele>
        <time>2017-06-14T08:55:06Z</time>
      </trkpt>
      <trkpt lat="45.97276" lon="4.84964">
        <ele>278</ele>
        <time>2017-06-14T08:55:07Z</time>
      </trkpt>
      <trkpt lat="45.97279" lon="4.84958">
        <ele>278</ele>
        <time>2017-06-14T08:55:08Z</time>
      </trkpt>
      <trkpt lat="45.97283" lon="4.84952">
        <ele>278</ele>
        <time>2017-06-14T08:55:09Z</time>
      </trkpt>
      <trkpt lat="45.97286" lon="4.84945">
        <ele>278</ele>
        <time>2017-06-14T08:55:10Z</time>
      </trkpt>
      <trkpt lat="45.97289" lon="4.8494">
        <ele>278</ele>
        <time>2017-06-14T08:55:11Z</time>
      </trkpt>
      <trkpt lat="45.97293" lon="4.84934">
        <ele>278</ele>
        <time>2017-06-14T08:55:12Z</time>
      </trkpt>
      <trkpt lat="45.97296" lon="4.84928">
        <ele>278</ele>
        <time>2017-06-14T08:55:13Z</time>
      </trkpt>
      <trkpt lat="45.973" lon="4.84922">
        <ele>278</ele>
        <time>2017-06-14T08:55:14Z</time>
      </trkpt>
      <trkpt lat="45.97304" lon="4.84916">
        <ele>278</ele>
        <time>2017-06-14T08:55:15Z</time>
      </trkpt>
      <trkpt lat="45.97308" lon="4.84909">
        <ele>278</ele>
        <time>2017-06-14T08:55:16Z</time>
      </trkpt>
      <trkpt lat="45.97313" lon="4.84902">
        <ele>278</ele>
        <time>2017-06-14T08:55:17Z</time>
      </trkpt>
      <trkpt lat="45.97317" lon="4.84896">
        <ele>278</ele>
        <time>2017-06-14T08:55:18Z</time>
      </trkpt>
      <trkpt lat="45.97321" lon="4.84889">
        <ele>278</ele>
        <time>2017-06-14T08:55:19Z</time>
      </trkpt>
      <trkpt lat="45.97325" lon="4.84883">
        <ele>278</ele>
        <time>2017-06-14T08:55:20Z</time>
      </trkpt>
      <trkpt lat="45.97329" lon="4.84876">
        <ele>278</ele>
        <time>2017-06-14T08:55:21Z</time>
      </trkpt>
      <trkpt lat="45.97333" lon="4.8487">
        <ele>278</ele>
        <time>2017-06-14T08:55:22Z</time>
      </trkpt>
      <trkpt lat="45.97336" lon="4.84864">
        <ele>277</ele>
        <time>2017-06-14T08:55:23Z</time>
      </trkpt>
      <trkpt lat="45.97339" lon="4.84858">
        <ele>277</ele>
        <time>2017-06-14T08:55:24Z</time>
      </trkpt>
      <trkpt lat="45.97342" lon="4.84851">
        <ele>277</ele>
        <time>2017-06-14T08:55:25Z</time>
      </trkpt>
      <trkpt lat="45.97345" lon="4.84845">
        <ele>277</ele>
        <time>2017-06-14T08:55:26Z</time>
      </trkpt>
      <trkpt lat="45.97348" lon="4.84837">
        <ele>277</ele>
        <time>2017-06-14T08:55:27Z</time>
      </trkpt>
      <trkpt lat="45.97351" lon="4.8483">
        <ele>278</ele>
        <time>2017-06-14T08:55:28Z</time>
      </trkpt>
      <trkpt lat="45.97354" lon="4.84824">
        <ele>278</ele>
        <time>2017-06-14T08:55:29Z</time>
      </trkpt>
      <trkpt lat="45.97356" lon="4.84817">
        <ele>278</ele>
        <time>2017-06-14T08:55:30Z</time>
      </trkpt>
      <trkpt lat="45.97359" lon="4.8481">
        <ele>278</ele>
        <time>2017-06-14T08:55:31Z</time>
      </trkpt>
      <trkpt lat="45.97362" lon="4.84802">
        <ele>278</ele>
        <time>2017-06-14T08:55:32Z</time>
      </trkpt>
      <trkpt lat="45.97364" lon="4.84794">
        <ele>278</ele>
        <time>2017-06-14T08:55:33Z</time>
      </trkpt>
      <trkpt lat="45.97367" lon="4.84786">
        <ele>278</ele>
        <time>2017-06-14T08:55:34Z</time>
      </trkpt>
      <trkpt lat="45.97369" lon="4.84779">
        <ele>278</ele>
        <time>2017-06-14T08:55:35Z</time>
      </trkpt>
      <trkpt lat="45.97372" lon="4.84772">
        <ele>278</ele>
        <time>2017-06-14T08:55:36Z</time>
      </trkpt>
      <trkpt lat="45.97374" lon="4.84766">
        <ele>278</ele>
        <time>2017-06-14T08:55:37Z</time>
      </trkpt>
      <trkpt lat="45.97377" lon="4.8476">
        <ele>278</ele>
        <time>2017-06-14T08:55:38Z</time>
      </trkpt>
      <trkpt lat="45.9738" lon="4.84754">
        <ele>278</ele>
        <time>2017-06-14T08:55:39Z</time>
      </trkpt>
      <trkpt lat="45.97383" lon="4.84748">
        <ele>278</ele>
        <time>2017-06-14T08:55:40Z</time>
      </trkpt>
      <trkpt lat="45.97386" lon="4.84743">
        <ele>278</ele>
        <time>2017-06-14T08:55:41Z</time>
      </trkpt>
      <trkpt lat="45.97389" lon="4.84737">
        <ele>278</ele>
        <time>2017-06-14T08:55:42Z</time>
      </trkpt>
      <trkpt lat="45.97393" lon="4.84733">
        <ele>278</ele>
        <time>2017-06-14T08:55:43Z</time>
      </trkpt>
      <trkpt lat="45.97397" lon="4.84729">
        <ele>278</ele>
        <time>2017-06-14T08:55:44Z</time>
      </trkpt>
      <trkpt lat="45.97402" lon="4.84725">
        <ele>278</ele>
        <time>2017-06-14T08:55:45Z</time>
      </trkpt>
      <trkpt lat="45.97407" lon="4.84721">
        <ele>278</ele>
        <time>2017-06-14T08:55:46Z</time>
      </trkpt>
      <trkpt lat="45.97412" lon="4.84717">
        <ele>278</ele>
        <time>2017-06-14T08:55:47Z</time>
      </trkpt>
      <trkpt lat="45.97418" lon="4.84714">
        <ele>276</ele>
        <time>2017-06-14T08:55:48Z</time>
      </trkpt>
      <trkpt lat="45.97424" lon="4.84709">
        <ele>276</ele>
        <time>2017-06-14T08:55:49Z</time>
      </trkpt>
      <trkpt lat="45.9743" lon="4.84705">
        <ele>276</ele>
        <time>2017-06-14T08:55:50Z</time>
      </trkpt>
      <trkpt lat="45.97436" lon="4.84701">
        <ele>276</ele>
        <time>2017-06-14T08:55:51Z</time>
      </trkpt>
      <trkpt lat="45.97442" lon="4.84697">
        <ele>276</ele>
        <time>2017-06-14T08:55:52Z</time>
      </trkpt>
      <trkpt lat="45.97447" lon="4.84693">
        <ele>276</ele>
        <time>2017-06-14T08:55:53Z</time>
      </trkpt>
      <trkpt lat="45.97453" lon="4.84689">
        <ele>276</ele>
        <time>2017-06-14T08:55:54Z</time>
      </trkpt>
      <trkpt lat="45.97458" lon="4.84686">
        <ele>276</ele>
        <time>2017-06-14T08:55:55Z</time>
      </trkpt>
      <trkpt lat="45.97464" lon="4.84682">
        <ele>276</ele>
        <time>2017-06-14T08:55:56Z</time>
      </trkpt>
      <trkpt lat="45.97469" lon="4.84679">
        <ele>276</ele>
        <time>2017-06-14T08:55:57Z</time>
      </trkpt>
      <trkpt lat="45.97474" lon="4.84675">
        <ele>276</ele>
        <time>2017-06-14T08:55:58Z</time>
      </trkpt>
      <trkpt lat="45.97479" lon="4.84672">
        <ele>276</ele>
        <time>2017-06-14T08:55:59Z</time>
      </trkpt>
      <trkpt lat="45.97484" lon="4.84668">
        <ele>276</ele>
        <time>2017-06-14T08:56:00Z</time>
      </trkpt>
      <trkpt lat="45.97489" lon="4.84665">
        <ele>275</ele>
        <time>2017-06-14T08:56:01Z</time>
      </trkpt>
      <trkpt lat="45.97494" lon="4.84661">
        <ele>275</ele>
        <time>2017-06-14T08:56:02Z</time>
      </trkpt>
      <trkpt lat="45.97499" lon="4.84657">
        <ele>275</ele>
        <time>2017-06-14T08:56:03Z</time>
      </trkpt>
      <trkpt lat="45.97504" lon="4.84654">
        <ele>275</ele>
        <time>2017-06-14T08:56:04Z</time>
      </trkpt>
      <trkpt lat="45.97509" lon="4.84651">
        <ele>275</ele>
        <time>2017-06-14T08:56:05Z</time>
      </trkpt>
      <trkpt lat="45.97514" lon="4.84647">
        <ele>275</ele>
        <time>2017-06-14T08:56:06Z</time>
      </trkpt>
      <trkpt lat="45.97518" lon="4.84644">
        <ele>275</ele>
        <time>2017-06-14T08:56:07Z</time>
      </trkpt>
      <trkpt lat="45.97523" lon="4.8464">
        <ele>275</ele>
        <time>2017-06-14T08:56:08Z</time>
      </trkpt>
      <trkpt lat="45.97528" lon="4.84635">
        <ele>275</ele>
        <time>2017-06-14T08:56:09Z</time>
      </trkpt>
      <trkpt lat="45.97533" lon="4.84631">
        <ele>275</ele>
        <time>2017-06-14T08:56:10Z</time>
      </trkpt>
      <trkpt lat="45.97537" lon="4.84627">
        <ele>275</ele>
        <time>2017-06-14T08:56:11Z</time>
      </trkpt>
      <trkpt lat="45.97542" lon="4.84623">
        <ele>275</ele>
        <time>2017-06-14T08:56:12Z</time>
      </trkpt>
      <trkpt lat="45.97546" lon="4.84619">
        <ele>274</ele>
        <time>2017-06-14T08:56:13Z</time>
      </trkpt>
      <trkpt lat="45.9755" lon="4.84615">
        <ele>274</ele>
        <time>2017-06-14T08:56:14Z</time>
      </trkpt>
      <trkpt lat="45.97554" lon="4.84611">
        <ele>274</ele>
        <time>2017-06-14T08:56:15Z</time>
      </trkpt>
      <trkpt lat="45.97558" lon="4.84608">
        <ele>274</ele>
        <time>2017-06-14T08:56:16Z</time>
      </trkpt>
      <trkpt lat="45.97562" lon="4.84604">
        <ele>274</ele>
        <time>2017-06-14T08:56:17Z</time>
      </trkpt>
      <trkpt lat="45.97565" lon="4.846">
        <ele>274</ele>
        <time>2017-06-14T08:56:18Z</time>
      </trkpt>
      <trkpt lat="45.97569" lon="4.84595">
        <ele>274</ele>
        <time>2017-06-14T08:56:19Z</time>
      </trkpt>
      <trkpt lat="45.97573" lon="4.8459">
        <ele>274</ele>
        <time>2017-06-14T08:56:20Z</time>
      </trkpt>
      <trkpt lat="45.97577" lon="4.84585">
        <ele>274</ele>
        <time>2017-06-14T08:56:21Z</time>
      </trkpt>
      <trkpt lat="45.97581" lon="4.8458">
        <ele>274</ele>
        <time>2017-06-14T08:56:22Z</time>
      </trkpt>
      <trkpt lat="45.97585" lon="4.84576">
        <ele>274</ele>
        <time>2017-06-14T08:56:23Z</time>
      </trkpt>
      <trkpt lat="45.97589" lon="4.84572">
        <ele>274</ele>
        <time>2017-06-14T08:56:24Z</time>
      </trkpt>
      <trkpt lat="45.97593" lon="4.84567">
        <ele>274</ele>
        <time>2017-06-14T08:56:25Z</time>
      </trkpt>
      <trkpt lat="45.97597" lon="4.84563">
        <ele>274</ele>
        <time>2017-06-14T08:56:26Z</time>
      </trkpt>
      <trkpt lat="45.976" lon="4.84558">
        <ele>275</ele>
        <time>2017-06-14T08:56:27Z</time>
      </trkpt>
      <trkpt lat="45.97604" lon="4.84553">
        <ele>275</ele>
        <time>2017-06-14T08:56:28Z</time>
      </trkpt>
      <trkpt lat="45.97608" lon="4.84548">
        <ele>275</ele>
        <time>2017-06-14T08:56:29Z</time>
      </trkpt>
      <trkpt lat="45.97611" lon="4.84544">
        <ele>275</ele>
        <time>2017-06-14T08:56:30Z</time>
      </trkpt>
      <trkpt lat="45.97615" lon="4.84538">
        <ele>275</ele>
        <time>2017-06-14T08:56:31Z</time>
      </trkpt>
      <trkpt lat="45.9762" lon="4.84533">
        <ele>275</ele>
        <time>2017-06-14T08:56:32Z</time>
      </trkpt>
      <trkpt lat="45.97624" lon="4.84528">
        <ele>275</ele>
        <time>2017-06-14T08:56:33Z</time>
      </trkpt>
      <trkpt lat="45.97628" lon="4.84522">
        <ele>275</ele>
        <time>2017-06-14T08:56:34Z</time>
      </trkpt>
      <trkpt lat="45.97632" lon="4.84517">
        <ele>275</ele>
        <time>2017-06-14T08:56:35Z</time>
      </trkpt>
      <trkpt lat="45.97636" lon="4.84512">
        <ele>275</ele>
        <time>2017-06-14T08:56:36Z</time>
      </trkpt>
      <trkpt lat="45.9764" lon="4.84508">
        <ele>275</ele>
        <time>2017-06-14T08:56:37Z</time>
      </trkpt>
      <trkpt lat="45.97644" lon="4.84504">
        <ele>275</ele>
        <time>2017-06-14T08:56:38Z</time>
      </trkpt>
      <trkpt lat="45.97648" lon="4.845">
        <ele>275</ele>
        <time>2017-06-14T08:56:39Z</time>
      </trkpt>
      <trkpt lat="45.97652" lon="4.84496">
        <ele>275</ele>
        <time>2017-06-14T08:56:40Z</time>
      </trkpt>
      <trkpt lat="45.97659" lon="4.84488">
        <ele>275</ele>
        <time>2017-06-14T08:56:42Z</time>
      </trkpt>
      <trkpt lat="45.97663" lon="4.84485">
        <ele>275</ele>
        <time>2017-06-14T08:56:43Z</time>
      </trkpt>
      <trkpt lat="45.97667" lon="4.84481">
        <ele>276</ele>
        <time>2017-06-14T08:56:44Z</time>
      </trkpt>
      <trkpt lat="45.97672" lon="4.84477">
        <ele>276</ele>
        <time>2017-06-14T08:56:45Z</time>
      </trkpt>
      <trkpt lat="45.97676" lon="4.84474">
        <ele>276</ele>
        <time>2017-06-14T08:56:46Z</time>
      </trkpt>
      <trkpt lat="45.97681" lon="4.84471">
        <ele>277</ele>
        <time>2017-06-14T08:56:47Z</time>
      </trkpt>
      <trkpt lat="45.97686" lon="4.84467">
        <ele>277</ele>
        <time>2017-06-14T08:56:48Z</time>
      </trkpt>
      <trkpt lat="45.97691" lon="4.84464">
        <ele>277</ele>
        <time>2017-06-14T08:56:49Z</time>
      </trkpt>
      <trkpt lat="45.97697" lon="4.84461">
        <ele>277</ele>
        <time>2017-06-14T08:56:50Z</time>
      </trkpt>
      <trkpt lat="45.97702" lon="4.84459">
        <ele>277</ele>
        <time>2017-06-14T08:56:51Z</time>
      </trkpt>
      <trkpt lat="45.97707" lon="4.84456">
        <ele>277</ele>
        <time>2017-06-14T08:56:52Z</time>
      </trkpt>
      <trkpt lat="45.97712" lon="4.84454">
        <ele>277</ele>
        <time>2017-06-14T08:56:53Z</time>
      </trkpt>
      <trkpt lat="45.97717" lon="4.84453">
        <ele>277</ele>
        <time>2017-06-14T08:56:54Z</time>
      </trkpt>
      <trkpt lat="45.97722" lon="4.84451">
        <ele>277</ele>
        <time>2017-06-14T08:56:55Z</time>
      </trkpt>
      <trkpt lat="45.97727" lon="4.84449">
        <ele>277</ele>
        <time>2017-06-14T08:56:56Z</time>
      </trkpt>
      <trkpt lat="45.97731" lon="4.84448">
        <ele>277</ele>
        <time>2017-06-14T08:56:57Z</time>
      </trkpt>
      <trkpt lat="45.97737" lon="4.84446">
        <ele>277</ele>
        <time>2017-06-14T08:56:58Z</time>
      </trkpt>
      <trkpt lat="45.97742" lon="4.84444">
        <ele>277</ele>
        <time>2017-06-14T08:56:59Z</time>
      </trkpt>
      <trkpt lat="45.97747" lon="4.84442">
        <ele>277</ele>
        <time>2017-06-14T08:57:00Z</time>
      </trkpt>
      <trkpt lat="45.97752" lon="4.84441">
        <ele>277</ele>
        <time>2017-06-14T08:57:01Z</time>
      </trkpt>
      <trkpt lat="45.97758" lon="4.84439">
        <ele>277</ele>
        <time>2017-06-14T08:57:02Z</time>
      </trkpt>
      <trkpt lat="45.97763" lon="4.84437">
        <ele>277</ele>
        <time>2017-06-14T08:57:03Z</time>
      </trkpt>
      <trkpt lat="45.97769" lon="4.84435">
        <ele>277</ele>
        <time>2017-06-14T08:57:04Z</time>
      </trkpt>
      <trkpt lat="45.97774" lon="4.84433">
        <ele>277</ele>
        <time>2017-06-14T08:57:05Z</time>
      </trkpt>
      <trkpt lat="45.9778" lon="4.84432">
        <ele>277</ele>
        <time>2017-06-14T08:57:06Z</time>
      </trkpt>
      <trkpt lat="45.97785" lon="4.8443">
        <ele>277</ele>
        <time>2017-06-14T08:57:07Z</time>
      </trkpt>
      <trkpt lat="45.9779" lon="4.84427">
        <ele>277</ele>
        <time>2017-06-14T08:57:08Z</time>
      </trkpt>
      <trkpt lat="45.97795" lon="4.84425">
        <ele>277</ele>
        <time>2017-06-14T08:57:09Z</time>
      </trkpt>
      <trkpt lat="45.97799" lon="4.84423">
        <ele>277</ele>
        <time>2017-06-14T08:57:10Z</time>
      </trkpt>
      <trkpt lat="45.97804" lon="4.8442">
        <ele>277</ele>
        <time>2017-06-14T08:57:11Z</time>
      </trkpt>
      <trkpt lat="45.97809" lon="4.84417">
        <ele>277</ele>
        <time>2017-06-14T08:57:12Z</time>
      </trkpt>
      <trkpt lat="45.97814" lon="4.84414">
        <ele>276</ele>
        <time>2017-06-14T08:57:13Z</time>
      </trkpt>
      <trkpt lat="45.97819" lon="4.8441">
        <ele>276</ele>
        <time>2017-06-14T08:57:14Z</time>
      </trkpt>
      <trkpt lat="45.97823" lon="4.84407">
        <ele>276</ele>
        <time>2017-06-14T08:57:15Z</time>
      </trkpt>
      <trkpt lat="45.97828" lon="4.84402">
        <ele>276</ele>
        <time>2017-06-14T08:57:16Z</time>
      </trkpt>
      <trkpt lat="45.97833" lon="4.84398">
        <ele>276</ele>
        <time>2017-06-14T08:57:17Z</time>
      </trkpt>
      <trkpt lat="45.97838" lon="4.84394">
        <ele>276</ele>
        <time>2017-06-14T08:57:18Z</time>
      </trkpt>
      <trkpt lat="45.97842" lon="4.8439">
        <ele>276</ele>
        <time>2017-06-14T08:57:19Z</time>
      </trkpt>
      <trkpt lat="45.97847" lon="4.84385">
        <ele>276</ele>
        <time>2017-06-14T08:57:20Z</time>
      </trkpt>
      <trkpt lat="45.97851" lon="4.8438">
        <ele>276</ele>
        <time>2017-06-14T08:57:21Z</time>
      </trkpt>
      <trkpt lat="45.97854" lon="4.84376">
        <ele>276</ele>
        <time>2017-06-14T08:57:22Z</time>
      </trkpt>
      <trkpt lat="45.97858" lon="4.84371">
        <ele>276</ele>
        <time>2017-06-14T08:57:23Z</time>
      </trkpt>
      <trkpt lat="45.97862" lon="4.84366">
        <ele>276</ele>
        <time>2017-06-14T08:57:24Z</time>
      </trkpt>
      <trkpt lat="45.97865" lon="4.84361">
        <ele>276</ele>
        <time>2017-06-14T08:57:25Z</time>
      </trkpt>
      <trkpt lat="45.97868" lon="4.84356">
        <ele>276</ele>
        <time>2017-06-14T08:57:26Z</time>
      </trkpt>
      <trkpt lat="45.97871" lon="4.84351">
        <ele>276</ele>
        <time>2017-06-14T08:57:27Z</time>
      </trkpt>
      <trkpt lat="45.97875" lon="4.84346">
        <ele>276</ele>
        <time>2017-06-14T08:57:28Z</time>
      </trkpt>
      <trkpt lat="45.97878" lon="4.84341">
        <ele>275</ele>
        <time>2017-06-14T08:57:29Z</time>
      </trkpt>
      <trkpt lat="45.97881" lon="4.84336">
        <ele>275</ele>
        <time>2017-06-14T08:57:30Z</time>
      </trkpt>
      <trkpt lat="45.97884" lon="4.8433">
        <ele>275</ele>
        <time>2017-06-14T08:57:31Z</time>
      </trkpt>
      <trkpt lat="45.97888" lon="4.84324">
        <ele>275</ele>
        <time>2017-06-14T08:57:32Z</time>
      </trkpt>
      <trkpt lat="45.97892" lon="4.84318">
        <ele>275</ele>
        <time>2017-06-14T08:57:33Z</time>
      </trkpt>
      <trkpt lat="45.97895" lon="4.84313">
        <ele>275</ele>
        <time>2017-06-14T08:57:34Z</time>
      </trkpt>
      <trkpt lat="45.97898" lon="4.84308">
        <ele>275</ele>
        <time>2017-06-14T08:57:35Z</time>
      </trkpt>
      <trkpt lat="45.97902" lon="4.84302">
        <ele>275</ele>
        <time>2017-06-14T08:57:36Z</time>
      </trkpt>
      <trkpt lat="45.97905" lon="4.84298">
        <ele>275</ele>
        <time>2017-06-14T08:57:37Z</time>
      </trkpt>
      <trkpt lat="45.97909" lon="4.84293">
        <ele>275</ele>
        <time>2017-06-14T08:57:38Z</time>
      </trkpt>
      <trkpt lat="45.97913" lon="4.84288">
        <ele>275</ele>
        <time>2017-06-14T08:57:39Z</time>
      </trkpt>
      <trkpt lat="45.97917" lon="4.84283">
        <ele>275</ele>
        <time>2017-06-14T08:57:40Z</time>
      </trkpt>
      <trkpt lat="45.97921" lon="4.84278">
        <ele>275</ele>
        <time>2017-06-14T08:57:41Z</time>
      </trkpt>
      <trkpt lat="45.97925" lon="4.84273">
        <ele>275</ele>
        <time>2017-06-14T08:57:42Z</time>
      </trkpt>
      <trkpt lat="45.97929" lon="4.84268">
        <ele>275</ele>
        <time>2017-06-14T08:57:43Z</time>
      </trkpt>
      <trkpt lat="45.97933" lon="4.84264">
        <ele>275</ele>
        <time>2017-06-14T08:57:44Z</time>
      </trkpt>
      <trkpt lat="45.97937" lon="4.8426">
        <ele>275</ele>
        <time>2017-06-14T08:57:45Z</time>
      </trkpt>
      <trkpt lat="45.97942" lon="4.84256">
        <ele>275</ele>
        <time>2017-06-14T08:57:46Z</time>
      </trkpt>
      <trkpt lat="45.97947" lon="4.84252">
        <ele>275</ele>
        <time>2017-06-14T08:57:47Z</time>
      </trkpt>
      <trkpt lat="45.97951" lon="4.84247">
        <ele>275</ele>
        <time>2017-06-14T08:57:48Z</time>
      </trkpt>
      <trkpt lat="45.97956" lon="4.84242">
        <ele>275</ele>
        <time>2017-06-14T08:57:49Z</time>
      </trkpt>
      <trkpt lat="45.97961" lon="4.84238">
        <ele>274</ele>
        <time>2017-06-14T08:57:50Z</time>
      </trkpt>
      <trkpt lat="45.97967" lon="4.84233">
        <ele>274</ele>
        <time>2017-06-14T08:57:51Z</time>
      </trkpt>
      <trkpt lat="45.97972" lon="4.84228">
        <ele>274</ele>
        <time>2017-06-14T08:57:52Z</time>
      </trkpt>
      <trkpt lat="45.97977" lon="4.84224">
        <ele>274</ele>
        <time>2017-06-14T08:57:53Z</time>
      </trkpt>
      <trkpt lat="45.97982" lon="4.84219">
        <ele>274</ele>
        <time>2017-06-14T08:57:54Z</time>
      </trkpt>
      <trkpt lat="45.97987" lon="4.84215">
        <ele>274</ele>
        <time>2017-06-14T08:57:55Z</time>
      </trkpt>
      <trkpt lat="45.97991" lon="4.8421">
        <ele>274</ele>
        <time>2017-06-14T08:57:56Z</time>
      </trkpt>
      <trkpt lat="45.97996" lon="4.84206">
        <ele>274</ele>
        <time>2017-06-14T08:57:57Z</time>
      </trkpt>
      <trkpt lat="45.98" lon="4.84201">
        <ele>274</ele>
        <time>2017-06-14T08:57:58Z</time>
      </trkpt>
      <trkpt lat="45.98005" lon="4.84196">
        <ele>274</ele>
        <time>2017-06-14T08:57:59Z</time>
      </trkpt>
      <trkpt lat="45.98011" lon="4.84191">
        <ele>274</ele>
        <time>2017-06-14T08:58:00Z</time>
      </trkpt>
      <trkpt lat="45.98016" lon="4.84187">
        <ele>274</ele>
        <time>2017-06-14T08:58:01Z</time>
      </trkpt>
      <trkpt lat="45.98021" lon="4.84181">
        <ele>274</ele>
        <time>2017-06-14T08:58:02Z</time>
      </trkpt>
      <trkpt lat="45.98026" lon="4.84176">
        <ele>274</ele>
        <time>2017-06-14T08:58:03Z</time>
      </trkpt>
      <trkpt lat="45.98031" lon="4.84171">
        <ele>273</ele>
        <time>2017-06-14T08:58:04Z</time>
      </trkpt>
      <trkpt lat="45.98035" lon="4.84166">
        <ele>273</ele>
        <time>2017-06-14T08:58:05Z</time>
      </trkpt>
      <trkpt lat="45.9804" lon="4.84161">
        <ele>273</ele>
        <time>2017-06-14T08:58:06Z</time>
      </trkpt>
      <trkpt lat="45.98045" lon="4.84158">
        <ele>273</ele>
        <time>2017-06-14T08:58:07Z</time>
      </trkpt>
      <trkpt lat="45.9805" lon="4.84154">
        <ele>273</ele>
        <time>2017-06-14T08:58:08Z</time>
      </trkpt>
      <trkpt lat="45.98054" lon="4.8415">
        <ele>273</ele>
        <time>2017-06-14T08:58:09Z</time>
      </trkpt>
      <trkpt lat="45.98058" lon="4.84146">
        <ele>273</ele>
        <time>2017-06-14T08:58:10Z</time>
      </trkpt>
      <trkpt lat="45.98063" lon="4.84143">
        <ele>273</ele>
        <time>2017-06-14T08:58:11Z</time>
      </trkpt>
      <trkpt lat="45.98067" lon="4.84138">
        <ele>273</ele>
        <time>2017-06-14T08:58:12Z</time>
      </trkpt>
      <trkpt lat="45.98072" lon="4.84134">
        <ele>273</ele>
        <time>2017-06-14T08:58:13Z</time>
      </trkpt>
      <trkpt lat="45.98077" lon="4.84129">
        <ele>273</ele>
        <time>2017-06-14T08:58:14Z</time>
      </trkpt>
      <trkpt lat="45.98082" lon="4.84124">
        <ele>273</ele>
        <time>2017-06-14T08:58:15Z</time>
      </trkpt>
      <trkpt lat="45.98087" lon="4.8412">
        <ele>273</ele>
        <time>2017-06-14T08:58:16Z</time>
      </trkpt>
      <trkpt lat="45.98092" lon="4.84114">
        <ele>273</ele>
        <time>2017-06-14T08:58:17Z</time>
      </trkpt>
      <trkpt lat="45.98097" lon="4.84109">
        <ele>273</ele>
        <time>2017-06-14T08:58:18Z</time>
      </trkpt>
      <trkpt lat="45.98102" lon="4.84104">
        <ele>273</ele>
        <time>2017-06-14T08:58:19Z</time>
      </trkpt>
      <trkpt lat="45.98107" lon="4.84099">
        <ele>273</ele>
        <time>2017-06-14T08:58:20Z</time>
      </trkpt>
      <trkpt lat="45.98112" lon="4.84095">
        <ele>273</ele>
        <time>2017-06-14T08:58:21Z</time>
      </trkpt>
      <trkpt lat="45.98117" lon="4.84091">
        <ele>273</ele>
        <time>2017-06-14T08:58:22Z</time>
      </trkpt>
      <trkpt lat="45.98122" lon="4.84086">
        <ele>273</ele>
        <time>2017-06-14T08:58:23Z</time>
      </trkpt>
      <trkpt lat="45.98127" lon="4.84081">
        <ele>273</ele>
        <time>2017-06-14T08:58:24Z</time>
      </trkpt>
      <trkpt lat="45.98131" lon="4.84076">
        <ele>273</ele>
        <time>2017-06-14T08:58:25Z</time>
      </trkpt>
      <trkpt lat="45.98136" lon="4.84071">
        <ele>273</ele>
        <time>2017-06-14T08:58:26Z</time>
      </trkpt>
      <trkpt lat="45.9814" lon="4.84066">
        <ele>273</ele>
        <time>2017-06-14T08:58:27Z</time>
      </trkpt>
      <trkpt lat="45.98143" lon="4.8406">
        <ele>273</ele>
        <time>2017-06-14T08:58:28Z</time>
      </trkpt>
      <trkpt lat="45.98147" lon="4.84055">
        <ele>273</ele>
        <time>2017-06-14T08:58:29Z</time>
      </trkpt>
      <trkpt lat="45.98151" lon="4.84049">
        <ele>273</ele>
        <time>2017-06-14T08:58:30Z</time>
      </trkpt>
      <trkpt lat="45.98154" lon="4.84043">
        <ele>273</ele>
        <time>2017-06-14T08:58:31Z</time>
      </trkpt>
      <trkpt lat="45.98158" lon="4.84038">
        <ele>273</ele>
        <time>2017-06-14T08:58:32Z</time>
      </trkpt>
      <trkpt lat="45.98161" lon="4.84032">
        <ele>273</ele>
        <time>2017-06-14T08:58:33Z</time>
      </trkpt>
      <trkpt lat="45.98165" lon="4.84026">
        <ele>273</ele>
        <time>2017-06-14T08:58:34Z</time>
      </trkpt>
      <trkpt lat="45.98169" lon="4.84019">
        <ele>273</ele>
        <time>2017-06-14T08:58:35Z</time>
      </trkpt>
      <trkpt lat="45.98172" lon="4.84012">
        <ele>273</ele>
        <time>2017-06-14T08:58:36Z</time>
      </trkpt>
      <trkpt lat="45.98175" lon="4.84004">
        <ele>273</ele>
        <time>2017-06-14T08:58:37Z</time>
      </trkpt>
      <trkpt lat="45.98178" lon="4.83998">
        <ele>273</ele>
        <time>2017-06-14T08:58:38Z</time>
      </trkpt>
      <trkpt lat="45.98181" lon="4.83991">
        <ele>273</ele>
        <time>2017-06-14T08:58:39Z</time>
      </trkpt>
      <trkpt lat="45.98184" lon="4.83984">
        <ele>273</ele>
        <time>2017-06-14T08:58:40Z</time>
      </trkpt>
      <trkpt lat="45.98186" lon="4.83977">
        <ele>273</ele>
        <time>2017-06-14T08:58:41Z</time>
      </trkpt>
      <trkpt lat="45.98189" lon="4.83971">
        <ele>273</ele>
        <time>2017-06-14T08:58:42Z</time>
      </trkpt>
      <trkpt lat="45.98192" lon="4.83964">
        <ele>273</ele>
        <time>2017-06-14T08:58:43Z</time>
      </trkpt>
      <trkpt lat="45.98194" lon="4.83957">
        <ele>273</ele>
        <time>2017-06-14T08:58:44Z</time>
      </trkpt>
      <trkpt lat="45.98196" lon="4.83951">
        <ele>273</ele>
        <time>2017-06-14T08:58:45Z</time>
      </trkpt>
      <trkpt lat="45.98197" lon="4.83944">
        <ele>273</ele>
        <time>2017-06-14T08:58:46Z</time>
      </trkpt>
      <trkpt lat="45.982" lon="4.83938">
        <ele>273</ele>
        <time>2017-06-14T08:58:47Z</time>
      </trkpt>
      <trkpt lat="45.98203" lon="4.83931">
        <ele>273</ele>
        <time>2017-06-14T08:58:48Z</time>
      </trkpt>
      <trkpt lat="45.98205" lon="4.83923">
        <ele>273</ele>
        <time>2017-06-14T08:58:49Z</time>
      </trkpt>
      <trkpt lat="45.98208" lon="4.83916">
        <ele>273</ele>
        <time>2017-06-14T08:58:50Z</time>
      </trkpt>
      <trkpt lat="45.9821" lon="4.83908">
        <ele>273</ele>
        <time>2017-06-14T08:58:51Z</time>
      </trkpt>
      <trkpt lat="45.98213" lon="4.83901">
        <ele>273</ele>
        <time>2017-06-14T08:58:52Z</time>
      </trkpt>
      <trkpt lat="45.98215" lon="4.83894">
        <ele>273</ele>
        <time>2017-06-14T08:58:53Z</time>
      </trkpt>
      <trkpt lat="45.98218" lon="4.83886">
        <ele>272</ele>
        <time>2017-06-14T08:58:54Z</time>
      </trkpt>
      <trkpt lat="45.9822" lon="4.83879">
        <ele>272</ele>
        <time>2017-06-14T08:58:55Z</time>
      </trkpt>
      <trkpt lat="45.98223" lon="4.83873">
        <ele>272</ele>
        <time>2017-06-14T08:58:56Z</time>
      </trkpt>
      <trkpt lat="45.98225" lon="4.83866">
        <ele>272</ele>
        <time>2017-06-14T08:58:57Z</time>
      </trkpt>
      <trkpt lat="45.98228" lon="4.83859">
        <ele>272</ele>
        <time>2017-06-14T08:58:58Z</time>
      </trkpt>
      <trkpt lat="45.9823" lon="4.83852">
        <ele>272</ele>
        <time>2017-06-14T08:58:59Z</time>
      </trkpt>
      <trkpt lat="45.98232" lon="4.83846">
        <ele>272</ele>
        <time>2017-06-14T08:59:00Z</time>
      </trkpt>
      <trkpt lat="45.98234" lon="4.8384">
        <ele>272</ele>
        <time>2017-06-14T08:59:01Z</time>
      </trkpt>
      <trkpt lat="45.98236" lon="4.83834">
        <ele>272</ele>
        <time>2017-06-14T08:59:02Z</time>
      </trkpt>
      <trkpt lat="45.98239" lon="4.83827">
        <ele>272</ele>
        <time>2017-06-14T08:59:03Z</time>
      </trkpt>
      <trkpt lat="45.98241" lon="4.8382">
        <ele>272</ele>
        <time>2017-06-14T08:59:04Z</time>
      </trkpt>
      <trkpt lat="45.98244" lon="4.83813">
        <ele>272</ele>
        <time>2017-06-14T08:59:05Z</time>
      </trkpt>
      <trkpt lat="45.98247" lon="4.83805">
        <ele>272</ele>
        <time>2017-06-14T08:59:06Z</time>
      </trkpt>
      <trkpt lat="45.98249" lon="4.83796">
        <ele>272</ele>
        <time>2017-06-14T08:59:07Z</time>
      </trkpt>
      <trkpt lat="45.98252" lon="4.83788">
        <ele>272</ele>
        <time>2017-06-14T08:59:08Z</time>
      </trkpt>
      <trkpt lat="45.98255" lon="4.8378">
        <ele>272</ele>
        <time>2017-06-14T08:59:09Z</time>
      </trkpt>
      <trkpt lat="45.98257" lon="4.83772">
        <ele>272</ele>
        <time>2017-06-14T08:59:10Z</time>
      </trkpt>
      <trkpt lat="45.9826" lon="4.83764">
        <ele>272</ele>
        <time>2017-06-14T08:59:11Z</time>
      </trkpt>
      <trkpt lat="45.98262" lon="4.83756">
        <ele>272</ele>
        <time>2017-06-14T08:59:12Z</time>
      </trkpt>
      <trkpt lat="45.98265" lon="4.83749">
        <ele>272</ele>
        <time>2017-06-14T08:59:13Z</time>
      </trkpt>
      <trkpt lat="45.98267" lon="4.83741">
        <ele>272</ele>
        <time>2017-06-14T08:59:14Z</time>
      </trkpt>
      <trkpt lat="45.9827" lon="4.83734">
        <ele>272</ele>
        <time>2017-06-14T08:59:15Z</time>
      </trkpt>
      <trkpt lat="45.98273" lon="4.83728">
        <ele>272</ele>
        <time>2017-06-14T08:59:16Z</time>
      </trkpt>
      <trkpt lat="45.98275" lon="4.83721">
        <ele>272</ele>
        <time>2017-06-14T08:59:17Z</time>
      </trkpt>
      <trkpt lat="45.98278" lon="4.83715">
        <ele>272</ele>
        <time>2017-06-14T08:59:18Z</time>
      </trkpt>
      <trkpt lat="45.9828" lon="4.83708">
        <ele>272</ele>
        <time>2017-06-14T08:59:19Z</time>
      </trkpt>
      <trkpt lat="45.98283" lon="4.83702">
        <ele>272</ele>
        <time>2017-06-14T08:59:20Z</time>
      </trkpt>
      <trkpt lat="45.98285" lon="4.83695">
        <ele>272</ele>
        <time>2017-06-14T08:59:21Z</time>
      </trkpt>
      <trkpt lat="45.98287" lon="4.83688">
        <ele>272</ele>
        <time>2017-06-14T08:59:22Z</time>
      </trkpt>
      <trkpt lat="45.9829" lon="4.83681">
        <ele>272</ele>
        <time>2017-06-14T08:59:23Z</time>
      </trkpt>
      <trkpt lat="45.98292" lon="4.83673">
        <ele>272</ele>
        <time>2017-06-14T08:59:24Z</time>
      </trkpt>
      <trkpt lat="45.98295" lon="4.83666">
        <ele>271</ele>
        <time>2017-06-14T08:59:25Z</time>
      </trkpt>
      <trkpt lat="45.98298" lon="4.83658">
        <ele>271</ele>
        <time>2017-06-14T08:59:26Z</time>
      </trkpt>
      <trkpt lat="45.98301" lon="4.8365">
        <ele>271</ele>
        <time>2017-06-14T08:59:27Z</time>
      </trkpt>
      <trkpt lat="45.98305" lon="4.83643">
        <ele>271</ele>
        <time>2017-06-14T08:59:28Z</time>
      </trkpt>
      <trkpt lat="45.98308" lon="4.83636">
        <ele>271</ele>
        <time>2017-06-14T08:59:29Z</time>
      </trkpt>
      <trkpt lat="45.98312" lon="4.8363">
        <ele>271</ele>
        <time>2017-06-14T08:59:30Z</time>
      </trkpt>
      <trkpt lat="45.98316" lon="4.83623">
        <ele>271</ele>
        <time>2017-06-14T08:59:31Z</time>
      </trkpt>
      <trkpt lat="45.98319" lon="4.83617">
        <ele>271</ele>
        <time>2017-06-14T08:59:32Z</time>
      </trkpt>
      <trkpt lat="45.98323" lon="4.83611">
        <ele>271</ele>
        <time>2017-06-14T08:59:33Z</time>
      </trkpt>
      <trkpt lat="45.98326" lon="4.83605">
        <ele>271</ele>
        <time>2017-06-14T08:59:34Z</time>
      </trkpt>
      <trkpt lat="45.9833" lon="4.83599">
        <ele>271</ele>
        <time>2017-06-14T08:59:35Z</time>
      </trkpt>
      <trkpt lat="45.98334" lon="4.83594">
        <ele>270</ele>
        <time>2017-06-14T08:59:36Z</time>
      </trkpt>
      <trkpt lat="45.98338" lon="4.83589">
        <ele>270</ele>
        <time>2017-06-14T08:59:37Z</time>
      </trkpt>
      <trkpt lat="45.98342" lon="4.83583">
        <ele>270</ele>
        <time>2017-06-14T08:59:38Z</time>
      </trkpt>
      <trkpt lat="45.98346" lon="4.83578">
        <ele>270</ele>
        <time>2017-06-14T08:59:39Z</time>
      </trkpt>
      <trkpt lat="45.9835" lon="4.83572">
        <ele>269</ele>
        <time>2017-06-14T08:59:40Z</time>
      </trkpt>
      <trkpt lat="45.98354" lon="4.83567">
        <ele>269</ele>
        <time>2017-06-14T08:59:41Z</time>
      </trkpt>
      <trkpt lat="45.98358" lon="4.83562">
        <ele>269</ele>
        <time>2017-06-14T08:59:42Z</time>
      </trkpt>
      <trkpt lat="45.98362" lon="4.83556">
        <ele>269</ele>
        <time>2017-06-14T08:59:43Z</time>
      </trkpt>
      <trkpt lat="45.98366" lon="4.8355">
        <ele>269</ele>
        <time>2017-06-14T08:59:44Z</time>
      </trkpt>
      <trkpt lat="45.9837" lon="4.83544">
        <ele>269</ele>
        <time>2017-06-14T08:59:45Z</time>
      </trkpt>
      <trkpt lat="45.98375" lon="4.83538">
        <ele>269</ele>
        <time>2017-06-14T08:59:46Z</time>
      </trkpt>
      <trkpt lat="45.9838" lon="4.83532">
        <ele>269</ele>
        <time>2017-06-14T08:59:47Z</time>
      </trkpt>
      <trkpt lat="45.98384" lon="4.83526">
        <ele>269</ele>
        <time>2017-06-14T08:59:48Z</time>
      </trkpt>
      <trkpt lat="45.98389" lon="4.8352">
        <ele>269</ele>
        <time>2017-06-14T08:59:49Z</time>
      </trkpt>
      <trkpt lat="45.98394" lon="4.83514">
        <ele>269</ele>
        <time>2017-06-14T08:59:50Z</time>
      </trkpt>
      <trkpt lat="45.98398" lon="4.83508">
        <ele>269</ele>
        <time>2017-06-14T08:59:51Z</time>
      </trkpt>
      <trkpt lat="45.98402" lon="4.83502">
        <ele>268</ele>
        <time>2017-06-14T08:59:52Z</time>
      </trkpt>
      <trkpt lat="45.98407" lon="4.83496">
        <ele>268</ele>
        <time>2017-06-14T08:59:53Z</time>
      </trkpt>
      <trkpt lat="45.98411" lon="4.83491">
        <ele>268</ele>
        <time>2017-06-14T08:59:54Z</time>
      </trkpt>
      <trkpt lat="45.98415" lon="4.83485">
        <ele>269</ele>
        <time>2017-06-14T08:59:55Z</time>
      </trkpt>
      <trkpt lat="45.98419" lon="4.83479">
        <ele>268</ele>
        <time>2017-06-14T08:59:56Z</time>
      </trkpt>
      <trkpt lat="45.98423" lon="4.83474">
        <ele>268</ele>
        <time>2017-06-14T08:59:57Z</time>
      </trkpt>
      <trkpt lat="45.98427" lon="4.83469">
        <ele>268</ele>
        <time>2017-06-14T08:59:58Z</time>
      </trkpt>
      <trkpt lat="45.98431" lon="4.83464">
        <ele>268</ele>
        <time>2017-06-14T08:59:59Z</time>
      </trkpt>
      <trkpt lat="45.98435" lon="4.83458">
        <ele>268</ele>
        <time>2017-06-14T09:00:00Z</time>
      </trkpt>
      <trkpt lat="45.98439" lon="4.83452">
        <ele>268</ele>
        <time>2017-06-14T09:00:01Z</time>
      </trkpt>
      <trkpt lat="45.98443" lon="4.83447">
        <ele>268</ele>
        <time>2017-06-14T09:00:02Z</time>
      </trkpt>
      <trkpt lat="45.98447" lon="4.83441">
        <ele>268</ele>
        <time>2017-06-14T09:00:03Z</time>
      </trkpt>
      <trkpt lat="45.98452" lon="4.83436">
        <ele>268</ele>
        <time>2017-06-14T09:00:04Z</time>
      </trkpt>
      <trkpt lat="45.98456" lon="4.8343">
        <ele>268</ele>
        <time>2017-06-14T09:00:05Z</time>
      </trkpt>
      <trkpt lat="45.98461" lon="4.83424">
        <ele>269</ele>
        <time>2017-06-14T09:00:06Z</time>
      </trkpt>
      <trkpt lat="45.98464" lon="4.83418">
        <ele>269</ele>
        <time>2017-06-14T09:00:07Z</time>
      </trkpt>
      <trkpt lat="45.98468" lon="4.83413">
        <ele>269</ele>
        <time>2017-06-14T09:00:08Z</time>
      </trkpt>
      <trkpt lat="45.98472" lon="4.83408">
        <ele>269</ele>
        <time>2017-06-14T09:00:09Z</time>
      </trkpt>
      <trkpt lat="45.98476" lon="4.83403">
        <ele>269</ele>
        <time>2017-06-14T09:00:10Z</time>
      </trkpt>
      <trkpt lat="45.98479" lon="4.83398">
        <ele>269</ele>
        <time>2017-06-14T09:00:11Z</time>
      </trkpt>
      <trkpt lat="45.98483" lon="4.83393">
        <ele>269</ele>
        <time>2017-06-14T09:00:12Z</time>
      </trkpt>
      <trkpt lat="45.98487" lon="4.83388">
        <ele>269</ele>
        <time>2017-06-14T09:00:13Z</time>
      </trkpt>
      <trkpt lat="45.98491" lon="4.83382">
        <ele>269</ele>
        <time>2017-06-14T09:00:14Z</time>
      </trkpt>
      <trkpt lat="45.98495" lon="4.83377">
        <ele>269</ele>
        <time>2017-06-14T09:00:15Z</time>
      </trkpt>
      <trkpt lat="45.985" lon="4.83371">
        <ele>270</ele>
        <time>2017-06-14T09:00:16Z</time>
      </trkpt>
      <trkpt lat="45.98504" lon="4.83365">
        <ele>269</ele>
        <time>2017-06-14T09:00:17Z</time>
      </trkpt>
      <trkpt lat="45.98509" lon="4.83359">
        <ele>269</ele>
        <time>2017-06-14T09:00:18Z</time>
      </trkpt>
      <trkpt lat="45.98513" lon="4.83353">
        <ele>270</ele>
        <time>2017-06-14T09:00:19Z</time>
      </trkpt>
      <trkpt lat="45.98517" lon="4.83347">
        <ele>270</ele>
        <time>2017-06-14T09:00:20Z</time>
      </trkpt>
      <trkpt lat="45.98521" lon="4.83342">
        <ele>270</ele>
        <time>2017-06-14T09:00:21Z</time>
      </trkpt>
      <trkpt lat="45.98525" lon="4.83337">
        <ele>270</ele>
        <time>2017-06-14T09:00:22Z</time>
      </trkpt>
      <trkpt lat="45.98528" lon="4.83332">
        <ele>269</ele>
        <time>2017-06-14T09:00:23Z</time>
      </trkpt>
      <trkpt lat="45.98532" lon="4.83328">
        <ele>269</ele>
        <time>2017-06-14T09:00:24Z</time>
      </trkpt>
      <trkpt lat="45.98536" lon="4.83323">
        <ele>269</ele>
        <time>2017-06-14T09:00:25Z</time>
      </trkpt>
      <trkpt lat="45.98539" lon="4.83319">
        <ele>269</ele>
        <time>2017-06-14T09:00:26Z</time>
      </trkpt>
      <trkpt lat="45.98543" lon="4.83314">
        <ele>269</ele>
        <time>2017-06-14T09:00:27Z</time>
      </trkpt>
      <trkpt lat="45.98546" lon="4.83309">
        <ele>269</ele>
        <time>2017-06-14T09:00:28Z</time>
      </trkpt>
      <trkpt lat="45.9855" lon="4.83304">
        <ele>269</ele>
        <time>2017-06-14T09:00:29Z</time>
      </trkpt>
      <trkpt lat="45.98554" lon="4.83299">
        <ele>269</ele>
        <time>2017-06-14T09:00:30Z</time>
      </trkpt>
      <trkpt lat="45.98558" lon="4.83294">
        <ele>269</ele>
        <time>2017-06-14T09:00:31Z</time>
      </trkpt>
      <trkpt lat="45.98562" lon="4.83288">
        <ele>269</ele>
        <time>2017-06-14T09:00:32Z</time>
      </trkpt>
      <trkpt lat="45.98566" lon="4.83283">
        <ele>269</ele>
        <time>2017-06-14T09:00:33Z</time>
      </trkpt>
      <trkpt lat="45.9857" lon="4.83278">
        <ele>269</ele>
        <time>2017-06-14T09:00:34Z</time>
      </trkpt>
      <trkpt lat="45.98573" lon="4.83273">
        <ele>269</ele>
        <time>2017-06-14T09:00:35Z</time>
      </trkpt>
      <trkpt lat="45.98577" lon="4.83268">
        <ele>269</ele>
        <time>2017-06-14T09:00:36Z</time>
      </trkpt>
      <trkpt lat="45.98581" lon="4.83263">
        <ele>269</ele>
        <time>2017-06-14T09:00:37Z</time>
      </trkpt>
      <trkpt lat="45.98584" lon="4.83258">
        <ele>268</ele>
        <time>2017-06-14T09:00:38Z</time>
      </trkpt>
      <trkpt lat="45.98588" lon="4.83253">
        <ele>268</ele>
        <time>2017-06-14T09:00:39Z</time>
      </trkpt>
      <trkpt lat="45.98592" lon="4.83248">
        <ele>268</ele>
        <time>2017-06-14T09:00:40Z</time>
      </trkpt>
      <trkpt lat="45.98595" lon="4.83243">
        <ele>268</ele>
        <time>2017-06-14T09:00:41Z</time>
      </trkpt>
      <trkpt lat="45.98599" lon="4.83238">
        <ele>268</ele>
        <time>2017-06-14T09:00:42Z</time>
      </trkpt>
      <trkpt lat="45.98604" lon="4.83232">
        <ele>268</ele>
        <time>2017-06-14T09:00:43Z</time>
      </trkpt>
      <trkpt lat="45.98608" lon="4.83227">
        <ele>267</ele>
        <time>2017-06-14T09:00:44Z</time>
      </trkpt>
      <trkpt lat="45.98612" lon="4.83221">
        <ele>267</ele>
        <time>2017-06-14T09:00:45Z</time>
      </trkpt>
      <trkpt lat="45.98616" lon="4.83215">
        <ele>267</ele>
        <time>2017-06-14T09:00:46Z</time>
      </trkpt>
      <trkpt lat="45.98619" lon="4.83209">
        <ele>267</ele>
        <time>2017-06-14T09:00:47Z</time>
      </trkpt>
      <trkpt lat="45.98624" lon="4.83204">
        <ele>267</ele>
        <time>2017-06-14T09:00:48Z</time>
      </trkpt>
      <trkpt lat="45.98628" lon="4.832">
        <ele>267</ele>
        <time>2017-06-14T09:00:49Z</time>
      </trkpt>
      <trkpt lat="45.98633" lon="4.83195">
        <ele>267</ele>
        <time>2017-06-14T09:00:50Z</time>
      </trkpt>
      <trkpt lat="45.98637" lon="4.8319">
        <ele>267</ele>
        <time>2017-06-14T09:00:51Z</time>
      </trkpt>
      <trkpt lat="45.98642" lon="4.83185">
        <ele>267</ele>
        <time>2017-06-14T09:00:52Z</time>
      </trkpt>
      <trkpt lat="45.98647" lon="4.8318">
        <ele>267</ele>
        <time>2017-06-14T09:00:53Z</time>
      </trkpt>
      <trkpt lat="45.98652" lon="4.83175">
        <ele>267</ele>
        <time>2017-06-14T09:00:54Z</time>
      </trkpt>
      <trkpt lat="45.98657" lon="4.83171">
        <ele>266</ele>
        <time>2017-06-14T09:00:55Z</time>
      </trkpt>
      <trkpt lat="45.98662" lon="4.83168">
        <ele>266</ele>
        <time>2017-06-14T09:00:56Z</time>
      </trkpt>
      <trkpt lat="45.98667" lon="4.83164">
        <ele>266</ele>
        <time>2017-06-14T09:00:57Z</time>
      </trkpt>
      <trkpt lat="45.98672" lon="4.8316">
        <ele>266</ele>
        <time>2017-06-14T09:00:58Z</time>
      </trkpt>
      <trkpt lat="45.98677" lon="4.83156">
        <ele>266</ele>
        <time>2017-06-14T09:00:59Z</time>
      </trkpt>
      <trkpt lat="45.98682" lon="4.83153">
        <ele>266</ele>
        <time>2017-06-14T09:01:00Z</time>
      </trkpt>
      <trkpt lat="45.98686" lon="4.83149">
        <ele>266</ele>
        <time>2017-06-14T09:01:01Z</time>
      </trkpt>
      <trkpt lat="45.98691" lon="4.83146">
        <ele>266</ele>
        <time>2017-06-14T09:01:02Z</time>
      </trkpt>
      <trkpt lat="45.98696" lon="4.83143">
        <ele>266</ele>
        <time>2017-06-14T09:01:03Z</time>
      </trkpt>
      <trkpt lat="45.987" lon="4.8314">
        <ele>266</ele>
        <time>2017-06-14T09:01:04Z</time>
      </trkpt>
      <trkpt lat="45.98704" lon="4.83136">
        <ele>266</ele>
        <time>2017-06-14T09:01:05Z</time>
      </trkpt>
      <trkpt lat="45.98709" lon="4.83131">
        <ele>266</ele>
        <time>2017-06-14T09:01:06Z</time>
      </trkpt>
      <trkpt lat="45.98714" lon="4.83127">
        <ele>266</ele>
        <time>2017-06-14T09:01:07Z</time>
      </trkpt>
      <trkpt lat="45.98719" lon="4.83123">
        <ele>266</ele>
        <time>2017-06-14T09:01:08Z</time>
      </trkpt>
      <trkpt lat="45.98724" lon="4.83119">
        <ele>266</ele>
        <time>2017-06-14T09:01:09Z</time>
      </trkpt>
      <trkpt lat="45.98729" lon="4.83115">
        <ele>267</ele>
        <time>2017-06-14T09:01:10Z</time>
      </trkpt>
      <trkpt lat="45.98735" lon="4.8311">
        <ele>267</ele>
        <time>2017-06-14T09:01:11Z</time>
      </trkpt>
      <trkpt lat="45.9874" lon="4.83105">
        <ele>267</ele>
        <time>2017-06-14T09:01:12Z</time>
      </trkpt>
      <trkpt lat="45.98745" lon="4.83101">
        <ele>267</ele>
        <time>2017-06-14T09:01:13Z</time>
      </trkpt>
      <trkpt lat="45.9875" lon="4.83097">
        <ele>267</ele>
        <time>2017-06-14T09:01:14Z</time>
      </trkpt>
      <trkpt lat="45.98755" lon="4.83093">
        <ele>266</ele>
        <time>2017-06-14T09:01:15Z</time>
      </trkpt>
      <trkpt lat="45.9876" lon="4.83089">
        <ele>266</ele>
        <time>2017-06-14T09:01:16Z</time>
      </trkpt>
      <trkpt lat="45.98765" lon="4.83086">
        <ele>265</ele>
        <time>2017-06-14T09:01:17Z</time>
      </trkpt>
      <trkpt lat="45.98771" lon="4.83081">
        <ele>266</ele>
        <time>2017-06-14T09:01:18Z</time>
      </trkpt>
      <trkpt lat="45.98776" lon="4.83077">
        <ele>265</ele>
        <time>2017-06-14T09:01:19Z</time>
      </trkpt>
      <trkpt lat="45.98781" lon="4.83073">
        <ele>265</ele>
        <time>2017-06-14T09:01:20Z</time>
      </trkpt>
      <trkpt lat="45.98787" lon="4.83068">
        <ele>265</ele>
        <time>2017-06-14T09:01:21Z</time>
      </trkpt>
      <trkpt lat="45.98792" lon="4.83063">
        <ele>265</ele>
        <time>2017-06-14T09:01:22Z</time>
      </trkpt>
      <trkpt lat="45.98798" lon="4.83058">
        <ele>264</ele>
        <time>2017-06-14T09:01:23Z</time>
      </trkpt>
      <trkpt lat="45.98804" lon="4.83052">
        <ele>264</ele>
        <time>2017-06-14T09:01:24Z</time>
      </trkpt>
      <trkpt lat="45.9881" lon="4.83047">
        <ele>264</ele>
        <time>2017-06-14T09:01:25Z</time>
      </trkpt>
      <trkpt lat="45.98817" lon="4.83041">
        <ele>264</ele>
        <time>2017-06-14T09:01:26Z</time>
      </trkpt>
      <trkpt lat="45.98823" lon="4.83036">
        <ele>264</ele>
        <time>2017-06-14T09:01:27Z</time>
      </trkpt>
      <trkpt lat="45.9883" lon="4.8303">
        <ele>264</ele>
        <time>2017-06-14T09:01:28Z</time>
      </trkpt>
      <trkpt lat="45.98837" lon="4.83025">
        <ele>261</ele>
        <time>2017-06-14T09:01:29Z</time>
      </trkpt>
      <trkpt lat="45.98845" lon="4.83019">
        <ele>261</ele>
        <time>2017-06-14T09:01:30Z</time>
      </trkpt>
      <trkpt lat="45.98852" lon="4.83014">
        <ele>261</ele>
        <time>2017-06-14T09:01:31Z</time>
      </trkpt>
      <trkpt lat="45.9886" lon="4.83009">
        <ele>260</ele>
        <time>2017-06-14T09:01:32Z</time>
      </trkpt>
      <trkpt lat="45.98868" lon="4.83003">
        <ele>260</ele>
        <time>2017-06-14T09:01:33Z</time>
      </trkpt>
      <trkpt lat="45.98876" lon="4.82997">
        <ele>260</ele>
        <time>2017-06-14T09:01:34Z</time>
      </trkpt>
      <trkpt lat="45.98884" lon="4.82991">
        <ele>259</ele>
        <time>2017-06-14T09:01:35Z</time>
      </trkpt>
      <trkpt lat="45.98893" lon="4.82985">
        <ele>259</ele>
        <time>2017-06-14T09:01:36Z</time>
      </trkpt>
      <trkpt lat="45.98901" lon="4.82978">
        <ele>259</ele>
        <time>2017-06-14T09:01:37Z</time>
      </trkpt>
      <trkpt lat="45.98909" lon="4.82968">
        <ele>259</ele>
        <time>2017-06-14T09:01:38Z</time>
      </trkpt>
      <trkpt lat="45.98917" lon="4.82958">
        <ele>255</ele>
        <time>2017-06-14T09:01:39Z</time>
      </trkpt>
      <trkpt lat="45.98924" lon="4.82945">
        <ele>255</ele>
        <time>2017-06-14T09:01:40Z</time>
      </trkpt>
      <trkpt lat="45.9893" lon="4.82932">
        <ele>255</ele>
        <time>2017-06-14T09:01:41Z</time>
      </trkpt>
      <trkpt lat="45.98937" lon="4.82917">
        <ele>255</ele>
        <time>2017-06-14T09:01:42Z</time>
      </trkpt>
      <trkpt lat="45.98943" lon="4.82902">
        <ele>253</ele>
        <time>2017-06-14T09:01:43Z</time>
      </trkpt>
      <trkpt lat="45.98949" lon="4.82887">
        <ele>253</ele>
        <time>2017-06-14T09:01:44Z</time>
      </trkpt>
      <trkpt lat="45.98955" lon="4.82872">
        <ele>253</ele>
        <time>2017-06-14T09:01:45Z</time>
      </trkpt>
      <trkpt lat="45.98962" lon="4.82857">
        <ele>252</ele>
        <time>2017-06-14T09:01:46Z</time>
      </trkpt>
      <trkpt lat="45.98968" lon="4.8284">
        <ele>251</ele>
        <time>2017-06-14T09:01:47Z</time>
      </trkpt>
      <trkpt lat="45.98975" lon="4.82824">
        <ele>249</ele>
        <time>2017-06-14T09:01:48Z</time>
      </trkpt>
      <trkpt lat="45.98982" lon="4.82808">
        <ele>248</ele>
        <time>2017-06-14T09:01:49Z</time>
      </trkpt>
      <trkpt lat="45.98989" lon="4.82791">
        <ele>247</ele>
        <time>2017-06-14T09:01:50Z</time>
      </trkpt>
      <trkpt lat="45.98997" lon="4.82775">
        <ele>246</ele>
        <time>2017-06-14T09:01:51Z</time>
      </trkpt>
      <trkpt lat="45.99004" lon="4.82758">
        <ele>241</ele>
        <time>2017-06-14T09:01:52Z</time>
      </trkpt>
      <trkpt lat="45.99011" lon="4.82742">
        <ele>240</ele>
        <time>2017-06-14T09:01:53Z</time>
      </trkpt>
      <trkpt lat="45.99018" lon="4.82726">
        <ele>239</ele>
        <time>2017-06-14T09:01:54Z</time>
      </trkpt>
      <trkpt lat="45.99026" lon="4.8271">
        <ele>238</ele>
        <time>2017-06-14T09:01:55Z</time>
      </trkpt>
      <trkpt lat="45.99032" lon="4.82695">
        <ele>238</ele>
        <time>2017-06-14T09:01:56Z</time>
      </trkpt>
      <trkpt lat="45.99039" lon="4.8268">
        <ele>238</ele>
        <time>2017-06-14T09:01:57Z</time>
      </trkpt>
      <trkpt lat="45.99044" lon="4.82665">
        <ele>236</ele>
        <time>2017-06-14T09:01:58Z</time>
      </trkpt>
      <trkpt lat="45.9905" lon="4.82651">
        <ele>236</ele>
        <time>2017-06-14T09:01:59Z</time>
      </trkpt>
      <trkpt lat="45.99055" lon="4.82639">
        <ele>236</ele>
        <time>2017-06-14T09:02:00Z</time>
      </trkpt>
      <trkpt lat="45.9906" lon="4.82627">
        <ele>236</ele>
        <time>2017-06-14T09:02:01Z</time>
      </trkpt>
      <trkpt lat="45.99065" lon="4.82617">
        <ele>236</ele>
        <time>2017-06-14T09:02:02Z</time>
      </trkpt>
      <trkpt lat="45.99069" lon="4.82608">
        <ele>236</ele>
        <time>2017-06-14T09:02:03Z</time>
      </trkpt>
      <trkpt lat="45.99072" lon="4.826">
        <ele>235</ele>
        <time>2017-06-14T09:02:04Z</time>
      </trkpt>
      <trkpt lat="45.99075" lon="4.82594">
        <ele>235</ele>
        <time>2017-06-14T09:02:05Z</time>
      </trkpt>
      <trkpt lat="45.99075" lon="4.82581">
        <ele>235</ele>
        <time>2017-06-14T09:02:07Z</time>
      </trkpt>
      <trkpt lat="45.99073" lon="4.82576">
        <ele>235</ele>
        <time>2017-06-14T09:02:08Z</time>
      </trkpt>
      <trkpt lat="45.99069" lon="4.82571">
        <ele>235</ele>
        <time>2017-06-14T09:02:09Z</time>
      </trkpt>
      <trkpt lat="45.99063" lon="4.82569">
        <ele>235</ele>
        <time>2017-06-14T09:02:10Z</time>
      </trkpt>
      <trkpt lat="45.99058" lon="4.82567">
        <ele>235</ele>
        <time>2017-06-14T09:02:11Z</time>
      </trkpt>
      <trkpt lat="45.99052" lon="4.82565">
        <ele>235</ele>
        <time>2017-06-14T09:02:12Z</time>
      </trkpt>
      <trkpt lat="45.99047" lon="4.82563">
        <ele>235</ele>
        <time>2017-06-14T09:02:13Z</time>
      </trkpt>
      <trkpt lat="45.99043" lon="4.82561">
        <ele>235</ele>
        <time>2017-06-14T09:02:14Z</time>
      </trkpt>
      <trkpt lat="45.99035" lon="4.82555">
        <ele>235</ele>
        <time>2017-06-14T09:02:16Z</time>
      </trkpt>
      <trkpt lat="45.99031" lon="4.82552">
        <ele>235</ele>
        <time>2017-06-14T09:02:17Z</time>
      </trkpt>
      <trkpt lat="45.99024" lon="4.82546">
        <ele>235</ele>
        <time>2017-06-14T09:02:19Z</time>
      </trkpt>
      <trkpt lat="45.99021" lon="4.82542">
        <ele>235</ele>
        <time>2017-06-14T09:02:20Z</time>
      </trkpt>
      <trkpt lat="45.99016" lon="4.82534">
        <ele>235</ele>
        <time>2017-06-14T09:02:22Z</time>
      </trkpt>
      <trkpt lat="45.99013" lon="4.8253">
        <ele>235</ele>
        <time>2017-06-14T09:02:23Z</time>
      </trkpt>
      <trkpt lat="45.99009" lon="4.8252">
        <ele>235</ele>
        <time>2017-06-14T09:02:25Z</time>
      </trkpt>
      <trkpt lat="45.99007" lon="4.82515">
        <ele>235</ele>
        <time>2017-06-14T09:02:26Z</time>
      </trkpt>
      <trkpt lat="45.99001" lon="4.82507">
        <ele>235</ele>
        <time>2017-06-14T09:02:29Z</time>
      </trkpt>
      <trkpt lat="45.98999" lon="4.82503">
        <ele>235</ele>
        <time>2017-06-14T09:02:30Z</time>
      </trkpt>
      <trkpt lat="45.98996" lon="4.82493">
        <ele>235</ele>
        <time>2017-06-14T09:02:32Z</time>
      </trkpt>
      <trkpt lat="45.98995" lon="4.82486">
        <ele>236</ele>
        <time>2017-06-14T09:02:33Z</time>
      </trkpt>
      <trkpt lat="45.98993" lon="4.82479">
        <ele>236</ele>
        <time>2017-06-14T09:02:34Z</time>
      </trkpt>
      <trkpt lat="45.9899" lon="4.82472">
        <ele>236</ele>
        <time>2017-06-14T09:02:35Z</time>
      </trkpt>
      <trkpt lat="45.98988" lon="4.82464">
        <ele>236</ele>
        <time>2017-06-14T09:02:36Z</time>
      </trkpt>
      <trkpt lat="45.98986" lon="4.82456">
        <ele>236</ele>
        <time>2017-06-14T09:02:37Z</time>
      </trkpt>
      <trkpt lat="45.98983" lon="4.82448">
        <ele>236</ele>
        <time>2017-06-14T09:02:38Z</time>
      </trkpt>
      <trkpt lat="45.98982" lon="4.8244">
        <ele>236</ele>
        <time>2017-06-14T09:02:39Z</time>
      </trkpt>
      <trkpt lat="45.9898" lon="4.82432">
        <ele>236</ele>
        <time>2017-06-14T09:02:40Z</time>
      </trkpt>
      <trkpt lat="45.98978" lon="4.82425">
        <ele>236</ele>
        <time>2017-06-14T09:02:41Z</time>
      </trkpt>
      <trkpt lat="45.98976" lon="4.82417">
        <ele>236</ele>
        <time>2017-06-14T09:02:42Z</time>
      </trkpt>
      <trkpt lat="45.98974" lon="4.8241">
        <ele>235</ele>
        <time>2017-06-14T09:02:43Z</time>
      </trkpt>
      <trkpt lat="45.98972" lon="4.82403">
        <ele>235</ele>
        <time>2017-06-14T09:02:44Z</time>
      </trkpt>
      <trkpt lat="45.98971" lon="4.82396">
        <ele>235</ele>
        <time>2017-06-14T09:02:45Z</time>
      </trkpt>
      <trkpt lat="45.9897" lon="4.82389">
        <ele>235</ele>
        <time>2017-06-14T09:02:46Z</time>
      </trkpt>
      <trkpt lat="45.98968" lon="4.82383">
        <ele>235</ele>
        <time>2017-06-14T09:02:47Z</time>
      </trkpt>
      <trkpt lat="45.98966" lon="4.82376">
        <ele>235</ele>
        <time>2017-06-14T09:02:48Z</time>
      </trkpt>
      <trkpt lat="45.98964" lon="4.8237">
        <ele>235</ele>
        <time>2017-06-14T09:02:49Z</time>
      </trkpt>
      <trkpt lat="45.98963" lon="4.82363">
        <ele>235</ele>
        <time>2017-06-14T09:02:50Z</time>
      </trkpt>
      <trkpt lat="45.9896" lon="4.82356">
        <ele>235</ele>
        <time>2017-06-14T09:02:51Z</time>
      </trkpt>
      <trkpt lat="45.98957" lon="4.8235">
        <ele>235</ele>
        <time>2017-06-14T09:02:52Z</time>
      </trkpt>
      <trkpt lat="45.98953" lon="4.82343">
        <ele>235</ele>
        <time>2017-06-14T09:02:53Z</time>
      </trkpt>
      <trkpt lat="45.9895" lon="4.82337">
        <ele>235</ele>
        <time>2017-06-14T09:02:54Z</time>
      </trkpt>
      <trkpt lat="45.98945" lon="4.82332">
        <ele>234</ele>
        <time>2017-06-14T09:02:55Z</time>
      </trkpt>
      <trkpt lat="45.98941" lon="4.82326">
        <ele>234</ele>
        <time>2017-06-14T09:02:56Z</time>
      </trkpt>
      <trkpt lat="45.98937" lon="4.8232">
        <ele>235</ele>
        <time>2017-06-14T09:02:57Z</time>
      </trkpt>
      <trkpt lat="45.98932" lon="4.82314">
        <ele>235</ele>
        <time>2017-06-14T09:02:58Z</time>
      </trkpt>
      <trkpt lat="45.98927" lon="4.82309">
        <ele>234</ele>
        <time>2017-06-14T09:02:59Z</time>
      </trkpt>
      <trkpt lat="45.98923" lon="4.82304">
        <ele>234</ele>
        <time>2017-06-14T09:03:00Z</time>
      </trkpt>
      <trkpt lat="45.98918" lon="4.82299">
        <ele>234</ele>
        <time>2017-06-14T09:03:01Z</time>
      </trkpt>
      <trkpt lat="45.98914" lon="4.82294">
        <ele>236</ele>
        <time>2017-06-14T09:03:02Z</time>
      </trkpt>
      <trkpt lat="45.98909" lon="4.82289">
        <ele>236</ele>
        <time>2017-06-14T09:03:03Z</time>
      </trkpt>
      <trkpt lat="45.98905" lon="4.82285">
        <ele>236</ele>
        <time>2017-06-14T09:03:04Z</time>
      </trkpt>
      <trkpt lat="45.98902" lon="4.8228">
        <ele>236</ele>
        <time>2017-06-14T09:03:05Z</time>
      </trkpt>
      <trkpt lat="45.98898" lon="4.82274">
        <ele>236</ele>
        <time>2017-06-14T09:03:06Z</time>
      </trkpt>
      <trkpt lat="45.98895" lon="4.82268">
        <ele>236</ele>
        <time>2017-06-14T09:03:07Z</time>
      </trkpt>
      <trkpt lat="45.98892" lon="4.82262">
        <ele>236</ele>
        <time>2017-06-14T09:03:08Z</time>
      </trkpt>
      <trkpt lat="45.98888" lon="4.82257">
        <ele>236</ele>
        <time>2017-06-14T09:03:09Z</time>
      </trkpt>
      <trkpt lat="45.98885" lon="4.82251">
        <ele>236</ele>
        <time>2017-06-14T09:03:10Z</time>
      </trkpt>
      <trkpt lat="45.98882" lon="4.82246">
        <ele>236</ele>
        <time>2017-06-14T09:03:11Z</time>
      </trkpt>
      <trkpt lat="45.98877" lon="4.82236">
        <ele>236</ele>
        <time>2017-06-14T09:03:13Z</time>
      </trkpt>
      <trkpt lat="45.98874" lon="4.8223">
        <ele>236</ele>
        <time>2017-06-14T09:03:14Z</time>
      </trkpt>
      <trkpt lat="45.98872" lon="4.82224">
        <ele>236</ele>
        <time>2017-06-14T09:03:15Z</time>
      </trkpt>
      <trkpt lat="45.98869" lon="4.82218">
        <ele>236</ele>
        <time>2017-06-14T09:03:16Z</time>
      </trkpt>
      <trkpt lat="45.98867" lon="4.82211">
        <ele>236</ele>
        <time>2017-06-14T09:03:17Z</time>
      </trkpt>
      <trkpt lat="45.98864" lon="4.82203">
        <ele>236</ele>
        <time>2017-06-14T09:03:18Z</time>
      </trkpt>
      <trkpt lat="45.98861" lon="4.82195">
        <ele>236</ele>
        <time>2017-06-14T09:03:19Z</time>
      </trkpt>
      <trkpt lat="45.98858" lon="4.82187">
        <ele>236</ele>
        <time>2017-06-14T09:03:20Z</time>
      </trkpt>
      <trkpt lat="45.98855" lon="4.82178">
        <ele>236</ele>
        <time>2017-06-14T09:03:21Z</time>
      </trkpt>
      <trkpt lat="45.98852" lon="4.8217">
        <ele>236</ele>
        <time>2017-06-14T09:03:22Z</time>
      </trkpt>
      <trkpt lat="45.9885" lon="4.82162">
        <ele>236</ele>
        <time>2017-06-14T09:03:23Z</time>
      </trkpt>
      <trkpt lat="45.98848" lon="4.82154">
        <ele>236</ele>
        <time>2017-06-14T09:03:24Z</time>
      </trkpt>
      <trkpt lat="45.98846" lon="4.82146">
        <ele>236</ele>
        <time>2017-06-14T09:03:25Z</time>
      </trkpt>
      <trkpt lat="45.98844" lon="4.82139">
        <ele>236</ele>
        <time>2017-06-14T09:03:26Z</time>
      </trkpt>
      <trkpt lat="45.98842" lon="4.82131">
        <ele>236</ele>
        <time>2017-06-14T09:03:27Z</time>
      </trkpt>
      <trkpt lat="45.98841" lon="4.82124">
        <ele>236</ele>
        <time>2017-06-14T09:03:28Z</time>
      </trkpt>
      <trkpt lat="45.9884" lon="4.82117">
        <ele>235</ele>
        <time>2017-06-14T09:03:29Z</time>
      </trkpt>
      <trkpt lat="45.98839" lon="4.8211">
        <ele>235</ele>
        <time>2017-06-14T09:03:30Z</time>
      </trkpt>
      <trkpt lat="45.98837" lon="4.82103">
        <ele>236</ele>
        <time>2017-06-14T09:03:31Z</time>
      </trkpt>
      <trkpt lat="45.98836" lon="4.82096">
        <ele>236</ele>
        <time>2017-06-14T09:03:32Z</time>
      </trkpt>
      <trkpt lat="45.98835" lon="4.8209">
        <ele>236</ele>
        <time>2017-06-14T09:03:33Z</time>
      </trkpt>
      <trkpt lat="45.98834" lon="4.82084">
        <ele>236</ele>
        <time>2017-06-14T09:03:34Z</time>
      </trkpt>
      <trkpt lat="45.98832" lon="4.82071">
        <ele>237</ele>
        <time>2017-06-14T09:03:36Z</time>
      </trkpt>
      <trkpt lat="45.9883" lon="4.82065">
        <ele>237</ele>
        <time>2017-06-14T09:03:37Z</time>
      </trkpt>
      <trkpt lat="45.98829" lon="4.82058">
        <ele>237</ele>
        <time>2017-06-14T09:03:38Z</time>
      </trkpt>
      <trkpt lat="45.98828" lon="4.82051">
        <ele>237</ele>
        <time>2017-06-14T09:03:39Z</time>
      </trkpt>
      <trkpt lat="45.98827" lon="4.82044">
        <ele>238</ele>
        <time>2017-06-14T09:03:40Z</time>
      </trkpt>
      <trkpt lat="45.98826" lon="4.82036">
        <ele>238</ele>
        <time>2017-06-14T09:03:41Z</time>
      </trkpt>
      <trkpt lat="45.98824" lon="4.82029">
        <ele>238</ele>
        <time>2017-06-14T09:03:42Z</time>
      </trkpt>
      <trkpt lat="45.98823" lon="4.82021">
        <ele>238</ele>
        <time>2017-06-14T09:03:43Z</time>
      </trkpt>
      <trkpt lat="45.98822" lon="4.82013">
        <ele>238</ele>
        <time>2017-06-14T09:03:44Z</time>
      </trkpt>
      <trkpt lat="45.98821" lon="4.82005">
        <ele>238</ele>
        <time>2017-06-14T09:03:45Z</time>
      </trkpt>
      <trkpt lat="45.9882" lon="4.81996">
        <ele>238</ele>
        <time>2017-06-14T09:03:46Z</time>
      </trkpt>
      <trkpt lat="45.98818" lon="4.81988">
        <ele>238</ele>
        <time>2017-06-14T09:03:47Z</time>
      </trkpt>
      <trkpt lat="45.98817" lon="4.81979">
        <ele>239</ele>
        <time>2017-06-14T09:03:48Z</time>
      </trkpt>
      <trkpt lat="45.98816" lon="4.8197">
        <ele>239</ele>
        <time>2017-06-14T09:03:49Z</time>
      </trkpt>
      <trkpt lat="45.98815" lon="4.81961">
        <ele>239</ele>
        <time>2017-06-14T09:03:50Z</time>
      </trkpt>
      <trkpt lat="45.98814" lon="4.81953">
        <ele>239</ele>
        <time>2017-06-14T09:03:51Z</time>
      </trkpt>
      <trkpt lat="45.98813" lon="4.81944">
        <ele>239</ele>
        <time>2017-06-14T09:03:52Z</time>
      </trkpt>
      <trkpt lat="45.98812" lon="4.81935">
        <ele>239</ele>
        <time>2017-06-14T09:03:53Z</time>
      </trkpt>
      <trkpt lat="45.98811" lon="4.81927">
        <ele>239</ele>
        <time>2017-06-14T09:03:54Z</time>
      </trkpt>
      <trkpt lat="45.9881" lon="4.81919">
        <ele>239</ele>
        <time>2017-06-14T09:03:55Z</time>
      </trkpt>
      <trkpt lat="45.98808" lon="4.81911">
        <ele>239</ele>
        <time>2017-06-14T09:03:56Z</time>
      </trkpt>
      <trkpt lat="45.98806" lon="4.81904">
        <ele>239</ele>
        <time>2017-06-14T09:03:57Z</time>
      </trkpt>
      <trkpt lat="45.98805" lon="4.81897">
        <ele>239</ele>
        <time>2017-06-14T09:03:58Z</time>
      </trkpt>
      <trkpt lat="45.98803" lon="4.8189">
        <ele>239</ele>
        <time>2017-06-14T09:03:59Z</time>
      </trkpt>
      <trkpt lat="45.98802" lon="4.81884">
        <ele>239</ele>
        <time>2017-06-14T09:04:00Z</time>
      </trkpt>
      <trkpt lat="45.98799" lon="4.81877">
        <ele>239</ele>
        <time>2017-06-14T09:04:01Z</time>
      </trkpt>
      <trkpt lat="45.98797" lon="4.8187">
        <ele>239</ele>
        <time>2017-06-14T09:04:02Z</time>
      </trkpt>
      <trkpt lat="45.98795" lon="4.81864">
        <ele>239</ele>
        <time>2017-06-14T09:04:03Z</time>
      </trkpt>
      <trkpt lat="45.98791" lon="4.81853">
        <ele>239</ele>
        <time>2017-06-14T09:04:05Z</time>
      </trkpt>
      <trkpt lat="45.98788" lon="4.81847">
        <ele>239</ele>
        <time>2017-06-14T09:04:06Z</time>
      </trkpt>
      <trkpt lat="45.98783" lon="4.81837">
        <ele>239</ele>
        <time>2017-06-14T09:04:08Z</time>
      </trkpt>
      <trkpt lat="45.9878" lon="4.81831">
        <ele>240</ele>
        <time>2017-06-14T09:04:09Z</time>
      </trkpt>
      <trkpt lat="45.98777" lon="4.81824">
        <ele>240</ele>
        <time>2017-06-14T09:04:10Z</time>
      </trkpt>
      <trkpt lat="45.98774" lon="4.81818">
        <ele>240</ele>
        <time>2017-06-14T09:04:11Z</time>
      </trkpt>
      <trkpt lat="45.98771" lon="4.81811">
        <ele>240</ele>
        <time>2017-06-14T09:04:12Z</time>
      </trkpt>
      <trkpt lat="45.98768" lon="4.81805">
        <ele>240</ele>
        <time>2017-06-14T09:04:13Z</time>
      </trkpt>
      <trkpt lat="45.98763" lon="4.81795">
        <ele>240</ele>
        <time>2017-06-14T09:04:15Z</time>
      </trkpt>
      <trkpt lat="45.9876" lon="4.8179">
        <ele>241</ele>
        <time>2017-06-14T09:04:16Z</time>
      </trkpt>
      <trkpt lat="45.98756" lon="4.81781">
        <ele>241</ele>
        <time>2017-06-14T09:04:18Z</time>
      </trkpt>
      <trkpt lat="45.98754" lon="4.81775">
        <ele>241</ele>
        <time>2017-06-14T09:04:19Z</time>
      </trkpt>
      <trkpt lat="45.9875" lon="4.81766">
        <ele>240</ele>
        <time>2017-06-14T09:04:21Z</time>
      </trkpt>
      <trkpt lat="45.98747" lon="4.81762">
        <ele>240</ele>
        <time>2017-06-14T09:04:22Z</time>
      </trkpt>
      <trkpt lat="45.98745" lon="4.81757">
        <ele>240</ele>
        <time>2017-06-14T09:04:23Z</time>
      </trkpt>
      <trkpt lat="45.98741" lon="4.81751">
        <ele>240</ele>
        <time>2017-06-14T09:04:24Z</time>
      </trkpt>
      <trkpt lat="45.98737" lon="4.81745">
        <ele>240</ele>
        <time>2017-06-14T09:04:25Z</time>
      </trkpt>
      <trkpt lat="45.98732" lon="4.81739">
        <ele>240</ele>
        <time>2017-06-14T09:04:26Z</time>
      </trkpt>
      <trkpt lat="45.98727" lon="4.81735">
        <ele>239</ele>
        <time>2017-06-14T09:04:27Z</time>
      </trkpt>
      <trkpt lat="45.98723" lon="4.81732">
        <ele>239</ele>
        <time>2017-06-14T09:04:28Z</time>
      </trkpt>
      <trkpt lat="45.98714" lon="4.81731">
        <ele>239</ele>
        <time>2017-06-14T09:04:30Z</time>
      </trkpt>
      <trkpt lat="45.9871" lon="4.81732">
        <ele>239</ele>
        <time>2017-06-14T09:04:31Z</time>
      </trkpt>
      <trkpt lat="45.98702" lon="4.81734">
        <ele>239</ele>
        <time>2017-06-14T09:04:33Z</time>
      </trkpt>
      <trkpt lat="45.98699" lon="4.81735">
        <ele>239</ele>
        <time>2017-06-14T09:04:34Z</time>
      </trkpt>
      <trkpt lat="45.98692" lon="4.81736">
        <ele>238</ele>
        <time>2017-06-14T09:04:36Z</time>
      </trkpt>
      <trkpt lat="45.98688" lon="4.81737">
        <ele>238</ele>
        <time>2017-06-14T09:04:37Z</time>
      </trkpt>
      <trkpt lat="45.98681" lon="4.81739">
        <ele>238</ele>
        <time>2017-06-14T09:04:39Z</time>
      </trkpt>
      <trkpt lat="45.98678" lon="4.8174">
        <ele>238</ele>
        <time>2017-06-14T09:04:40Z</time>
      </trkpt>
      <trkpt lat="45.98674" lon="4.81742">
        <ele>238</ele>
        <time>2017-06-14T09:04:41Z</time>
      </trkpt>
      <trkpt lat="45.98669" lon="4.81743">
        <ele>238</ele>
        <time>2017-06-14T09:04:42Z</time>
      </trkpt>
      <trkpt lat="45.98664" lon="4.81745">
        <ele>238</ele>
        <time>2017-06-14T09:04:43Z</time>
      </trkpt>
      <trkpt lat="45.98659" lon="4.81746">
        <ele>238</ele>
        <time>2017-06-14T09:04:44Z</time>
      </trkpt>
      <trkpt lat="45.98654" lon="4.81747">
        <ele>237</ele>
        <time>2017-06-14T09:04:45Z</time>
      </trkpt>
      <trkpt lat="45.98649" lon="4.81748">
        <ele>237</ele>
        <time>2017-06-14T09:04:46Z</time>
      </trkpt>
      <trkpt lat="45.98643" lon="4.81749">
        <ele>237</ele>
        <time>2017-06-14T09:04:47Z</time>
      </trkpt>
      <trkpt lat="45.98637" lon="4.81751">
        <ele>238</ele>
        <time>2017-06-14T09:04:48Z</time>
      </trkpt>
      <trkpt lat="45.98631" lon="4.81753">
        <ele>238</ele>
        <time>2017-06-14T09:04:49Z</time>
      </trkpt>
      <trkpt lat="45.98625" lon="4.81755">
        <ele>238</ele>
        <time>2017-06-14T09:04:50Z</time>
      </trkpt>
      <trkpt lat="45.9862" lon="4.81757">
        <ele>238</ele>
        <time>2017-06-14T09:04:51Z</time>
      </trkpt>
      <trkpt lat="45.98614" lon="4.8176">
        <ele>238</ele>
        <time>2017-06-14T09:04:52Z</time>
      </trkpt>
      <trkpt lat="45.98609" lon="4.81762">
        <ele>238</ele>
        <time>2017-06-14T09:04:53Z</time>
      </trkpt>
      <trkpt lat="45.98603" lon="4.81765">
        <ele>238</ele>
        <time>2017-06-14T09:04:54Z</time>
      </trkpt>
      <trkpt lat="45.98598" lon="4.81769">
        <ele>238</ele>
        <time>2017-06-14T09:04:55Z</time>
      </trkpt>
      <trkpt lat="45.98593" lon="4.81773">
        <ele>238</ele>
        <time>2017-06-14T09:04:56Z</time>
      </trkpt>
      <trkpt lat="45.98588" lon="4.81778">
        <ele>238</ele>
        <time>2017-06-14T09:04:57Z</time>
      </trkpt>
      <trkpt lat="45.98582" lon="4.81784">
        <ele>238</ele>
        <time>2017-06-14T09:04:58Z</time>
      </trkpt>
      <trkpt lat="45.98576" lon="4.81789">
        <ele>238</ele>
        <time>2017-06-14T09:04:59Z</time>
      </trkpt>
      <trkpt lat="45.98571" lon="4.81794">
        <ele>238</ele>
        <time>2017-06-14T09:05:00Z</time>
      </trkpt>
      <trkpt lat="45.98567" lon="4.81799">
        <ele>238</ele>
        <time>2017-06-14T09:05:01Z</time>
      </trkpt>
      <trkpt lat="45.98561" lon="4.81803">
        <ele>238</ele>
        <time>2017-06-14T09:05:02Z</time>
      </trkpt>
      <trkpt lat="45.98556" lon="4.81806">
        <ele>238</ele>
        <time>2017-06-14T09:05:03Z</time>
      </trkpt>
      <trkpt lat="45.98552" lon="4.81806">
        <ele>238</ele>
        <time>2017-06-14T09:05:04Z</time>
      </trkpt>
      <trkpt lat="45.98547" lon="4.81804">
        <ele>238</ele>
        <time>2017-06-14T09:05:05Z</time>
      </trkpt>
      <trkpt lat="45.98543" lon="4.81801">
        <ele>238</ele>
        <time>2017-06-14T09:05:06Z</time>
      </trkpt>
      <trkpt lat="45.98539" lon="4.81798">
        <ele>238</ele>
        <time>2017-06-14T09:05:07Z</time>
      </trkpt>
      <trkpt lat="45.98536" lon="4.81793">
        <ele>238</ele>
        <time>2017-06-14T09:05:08Z</time>
      </trkpt>
      <trkpt lat="45.98532" lon="4.81788">
        <ele>238</ele>
        <time>2017-06-14T09:05:09Z</time>
      </trkpt>
      <trkpt lat="45.98529" lon="4.81783">
        <ele>238</ele>
        <time>2017-06-14T09:05:10Z</time>
      </trkpt>
      <trkpt lat="45.98525" lon="4.81778">
        <ele>238</ele>
        <time>2017-06-14T09:05:11Z</time>
      </trkpt>
      <trkpt lat="45.98521" lon="4.81773">
        <ele>238</ele>
        <time>2017-06-14T09:05:12Z</time>
      </trkpt>
      <trkpt lat="45.98515" lon="4.81764">
        <ele>237</ele>
        <time>2017-06-14T09:05:14Z</time>
      </trkpt>
      <trkpt lat="45.98512" lon="4.8176">
        <ele>237</ele>
        <time>2017-06-14T09:05:15Z</time>
      </trkpt>
      <trkpt lat="45.98508" lon="4.81755">
        <ele>237</ele>
        <time>2017-06-14T09:05:16Z</time>
      </trkpt>
      <trkpt lat="45.98504" lon="4.81751">
        <ele>237</ele>
        <time>2017-06-14T09:05:17Z</time>
      </trkpt>
      <trkpt lat="45.98499" lon="4.81747">
        <ele>237</ele>
        <time>2017-06-14T09:05:18Z</time>
      </trkpt>
      <trkpt lat="45.98495" lon="4.81743">
        <ele>238</ele>
        <time>2017-06-14T09:05:19Z</time>
      </trkpt>
      <trkpt lat="45.98491" lon="4.81739">
        <ele>238</ele>
        <time>2017-06-14T09:05:20Z</time>
      </trkpt>
      <trkpt lat="45.98487" lon="4.81736">
        <ele>238</ele>
        <time>2017-06-14T09:05:21Z</time>
      </trkpt>
      <trkpt lat="45.98483" lon="4.81732">
        <ele>238</ele>
        <time>2017-06-14T09:05:22Z</time>
      </trkpt>
      <trkpt lat="45.98479" lon="4.81727">
        <ele>238</ele>
        <time>2017-06-14T09:05:23Z</time>
      </trkpt>
      <trkpt lat="45.98476" lon="4.81723">
        <ele>239</ele>
        <time>2017-06-14T09:05:24Z</time>
      </trkpt>
      <trkpt lat="45.98472" lon="4.81718">
        <ele>239</ele>
        <time>2017-06-14T09:05:25Z</time>
      </trkpt>
      <trkpt lat="45.98469" lon="4.81714">
        <ele>239</ele>
        <time>2017-06-14T09:05:26Z</time>
      </trkpt>
      <trkpt lat="45.98466" lon="4.81709">
        <ele>239</ele>
        <time>2017-06-14T09:05:27Z</time>
      </trkpt>
      <trkpt lat="45.9846" lon="4.81699">
        <ele>239</ele>
        <time>2017-06-14T09:05:29Z</time>
      </trkpt>
      <trkpt lat="45.98457" lon="4.81694">
        <ele>239</ele>
        <time>2017-06-14T09:05:30Z</time>
      </trkpt>
      <trkpt lat="45.98455" lon="4.81689">
        <ele>239</ele>
        <time>2017-06-14T09:05:31Z</time>
      </trkpt>
      <trkpt lat="45.98452" lon="4.81684">
        <ele>239</ele>
        <time>2017-06-14T09:05:32Z</time>
      </trkpt>
      <trkpt lat="45.98449" lon="4.81679">
        <ele>239</ele>
        <time>2017-06-14T09:05:33Z</time>
      </trkpt>
      <trkpt lat="45.98445" lon="4.81675">
        <ele>239</ele>
        <time>2017-06-14T09:05:34Z</time>
      </trkpt>
      <trkpt lat="45.98441" lon="4.81671">
        <ele>240</ele>
        <time>2017-06-14T09:05:35Z</time>
      </trkpt>
      <trkpt lat="45.98437" lon="4.81668">
        <ele>240</ele>
        <time>2017-06-14T09:05:36Z</time>
      </trkpt>
      <trkpt lat="45.98433" lon="4.81665">
        <ele>239</ele>
        <time>2017-06-14T09:05:37Z</time>
      </trkpt>
      <trkpt lat="45.98428" lon="4.81664">
        <ele>240</ele>
        <time>2017-06-14T09:05:38Z</time>
      </trkpt>
      <trkpt lat="45.98423" lon="4.81663">
        <ele>240</ele>
        <time>2017-06-14T09:05:39Z</time>
      </trkpt>
      <trkpt lat="45.98418" lon="4.81664">
        <ele>241</ele>
        <time>2017-06-14T09:05:40Z</time>
      </trkpt>
      <trkpt lat="45.98412" lon="4.81665">
        <ele>241</ele>
        <time>2017-06-14T09:05:41Z</time>
      </trkpt>
      <trkpt lat="45.98406" lon="4.81665">
        <ele>241</ele>
        <time>2017-06-14T09:05:42Z</time>
      </trkpt>
      <trkpt lat="45.98401" lon="4.81666">
        <ele>242</ele>
        <time>2017-06-14T09:05:43Z</time>
      </trkpt>
      <trkpt lat="45.98396" lon="4.81668">
        <ele>243</ele>
        <time>2017-06-14T09:05:44Z</time>
      </trkpt>
      <trkpt lat="45.98392" lon="4.81669">
        <ele>243</ele>
        <time>2017-06-14T09:05:45Z</time>
      </trkpt>
      <trkpt lat="45.98387" lon="4.8167">
        <ele>243</ele>
        <time>2017-06-14T09:05:46Z</time>
      </trkpt>
      <trkpt lat="45.98379" lon="4.81673">
        <ele>244</ele>
        <time>2017-06-14T09:05:48Z</time>
      </trkpt>
      <trkpt lat="45.98374" lon="4.81674">
        <ele>244</ele>
        <time>2017-06-14T09:05:49Z</time>
      </trkpt>
      <trkpt lat="45.98366" lon="4.81675">
        <ele>244</ele>
        <time>2017-06-14T09:05:51Z</time>
      </trkpt>
      <trkpt lat="45.98362" lon="4.81676">
        <ele>244</ele>
        <time>2017-06-14T09:05:52Z</time>
      </trkpt>
      <trkpt lat="45.98353" lon="4.81676">
        <ele>245</ele>
        <time>2017-06-14T09:05:54Z</time>
      </trkpt>
      <trkpt lat="45.98348" lon="4.81675">
        <ele>245</ele>
        <time>2017-06-14T09:05:55Z</time>
      </trkpt>
      <trkpt lat="45.9834" lon="4.81672">
        <ele>245</ele>
        <time>2017-06-14T09:05:57Z</time>
      </trkpt>
      <trkpt lat="45.98336" lon="4.8167">
        <ele>246</ele>
        <time>2017-06-14T09:05:58Z</time>
      </trkpt>
      <trkpt lat="45.98328" lon="4.81667">
        <ele>246</ele>
        <time>2017-06-14T09:06:00Z</time>
      </trkpt>
      <trkpt lat="45.98324" lon="4.81665">
        <ele>246</ele>
        <time>2017-06-14T09:06:01Z</time>
      </trkpt>
      <trkpt lat="45.98318" lon="4.81659">
        <ele>246</ele>
        <time>2017-06-14T09:06:03Z</time>
      </trkpt>
      <trkpt lat="45.98315" lon="4.81656">
        <ele>246</ele>
        <time>2017-06-14T09:06:04Z</time>
      </trkpt>
      <trkpt lat="45.98308" lon="4.8165">
        <ele>246</ele>
        <time>2017-06-14T09:06:06Z</time>
      </trkpt>
      <trkpt lat="45.98305" lon="4.81646">
        <ele>246</ele>
        <time>2017-06-14T09:06:07Z</time>
      </trkpt>
      <trkpt lat="45.98301" lon="4.81642">
        <ele>246</ele>
        <time>2017-06-14T09:06:08Z</time>
      </trkpt>
      <trkpt lat="45.98298" lon="4.81638">
        <ele>247</ele>
        <time>2017-06-14T09:06:09Z</time>
      </trkpt>
      <trkpt lat="45.98294" lon="4.81634">
        <ele>247</ele>
        <time>2017-06-14T09:06:10Z</time>
      </trkpt>
      <trkpt lat="45.98291" lon="4.81629">
        <ele>247</ele>
        <time>2017-06-14T09:06:11Z</time>
      </trkpt>
      <trkpt lat="45.98285" lon="4.8162">
        <ele>247</ele>
        <time>2017-06-14T09:06:13Z</time>
      </trkpt>
      <trkpt lat="45.98282" lon="4.81615">
        <ele>247</ele>
        <time>2017-06-14T09:06:14Z</time>
      </trkpt>
      <trkpt lat="45.98278" lon="4.81605">
        <ele>247</ele>
        <time>2017-06-14T09:06:16Z</time>
      </trkpt>
      <trkpt lat="45.98277" lon="4.816">
        <ele>247</ele>
        <time>2017-06-14T09:06:17Z</time>
      </trkpt>
      <trkpt lat="45.98275" lon="4.81594">
        <ele>247</ele>
        <time>2017-06-14T09:06:18Z</time>
      </trkpt>
      <trkpt lat="45.98273" lon="4.81588">
        <ele>247</ele>
        <time>2017-06-14T09:06:19Z</time>
      </trkpt>
      <trkpt lat="45.98271" lon="4.81581">
        <ele>247</ele>
        <time>2017-06-14T09:06:20Z</time>
      </trkpt>
      <trkpt lat="45.98269" lon="4.81575">
        <ele>247</ele>
        <time>2017-06-14T09:06:21Z</time>
      </trkpt>
      <trkpt lat="45.98266" lon="4.81568">
        <ele>247</ele>
        <time>2017-06-14T09:06:22Z</time>
      </trkpt>
      <trkpt lat="45.98264" lon="4.81561">
        <ele>247</ele>
        <time>2017-06-14T09:06:23Z</time>
      </trkpt>
      <trkpt lat="45.98262" lon="4.81555">
        <ele>247</ele>
        <time>2017-06-14T09:06:24Z</time>
      </trkpt>
      <trkpt lat="45.9826" lon="4.81549">
        <ele>247</ele>
        <time>2017-06-14T09:06:25Z</time>
      </trkpt>
      <trkpt lat="45.98258" lon="4.81543">
        <ele>247</ele>
        <time>2017-06-14T09:06:26Z</time>
      </trkpt>
      <trkpt lat="45.98256" lon="4.81537">
        <ele>247</ele>
        <time>2017-06-14T09:06:27Z</time>
      </trkpt>
      <trkpt lat="45.98252" lon="4.81526">
        <ele>247</ele>
        <time>2017-06-14T09:06:29Z</time>
      </trkpt>
      <trkpt lat="45.9825" lon="4.8152">
        <ele>249</ele>
        <time>2017-06-14T09:06:30Z</time>
      </trkpt>
      <trkpt lat="45.98248" lon="4.81514">
        <ele>249</ele>
        <time>2017-06-14T09:06:31Z</time>
      </trkpt>
      <trkpt lat="45.98246" lon="4.81507">
        <ele>249</ele>
        <time>2017-06-14T09:06:32Z</time>
      </trkpt>
      <trkpt lat="45.98244" lon="4.81501">
        <ele>249</ele>
        <time>2017-06-14T09:06:33Z</time>
      </trkpt>
      <trkpt lat="45.98242" lon="4.81495">
        <ele>249</ele>
        <time>2017-06-14T09:06:34Z</time>
      </trkpt>
      <trkpt lat="45.9824" lon="4.81489">
        <ele>249</ele>
        <time>2017-06-14T09:06:35Z</time>
      </trkpt>
      <trkpt lat="45.98238" lon="4.81483">
        <ele>249</ele>
        <time>2017-06-14T09:06:36Z</time>
      </trkpt>
      <trkpt lat="45.98234" lon="4.81472">
        <ele>249</ele>
        <time>2017-06-14T09:06:38Z</time>
      </trkpt>
      <trkpt lat="45.98232" lon="4.81466">
        <ele>249</ele>
        <time>2017-06-14T09:06:39Z</time>
      </trkpt>
      <trkpt lat="45.9823" lon="4.8146">
        <ele>249</ele>
        <time>2017-06-14T09:06:40Z</time>
      </trkpt>
      <trkpt lat="45.98228" lon="4.81454">
        <ele>249</ele>
        <time>2017-06-14T09:06:41Z</time>
      </trkpt>
      <trkpt lat="45.98226" lon="4.81447">
        <ele>249</ele>
        <time>2017-06-14T09:06:42Z</time>
      </trkpt>
      <trkpt lat="45.98224" lon="4.81442">
        <ele>249</ele>
        <time>2017-06-14T09:06:43Z</time>
      </trkpt>
      <trkpt lat="45.98222" lon="4.81436">
        <ele>249</ele>
        <time>2017-06-14T09:06:44Z</time>
      </trkpt>
      <trkpt lat="45.9822" lon="4.8143">
        <ele>249</ele>
        <time>2017-06-14T09:06:45Z</time>
      </trkpt>
      <trkpt lat="45.98216" lon="4.81418">
        <ele>249</ele>
        <time>2017-06-14T09:06:47Z</time>
      </trkpt>
      <trkpt lat="45.98214" lon="4.81413">
        <ele>248</ele>
        <time>2017-06-14T09:06:48Z</time>
      </trkpt>
      <trkpt lat="45.98211" lon="4.81401">
        <ele>248</ele>
        <time>2017-06-14T09:06:50Z</time>
      </trkpt>
      <trkpt lat="45.98209" lon="4.81396">
        <ele>248</ele>
        <time>2017-06-14T09:06:51Z</time>
      </trkpt>
      <trkpt lat="45.98208" lon="4.8139">
        <ele>248</ele>
        <time>2017-06-14T09:06:52Z</time>
      </trkpt>
      <trkpt lat="45.98206" lon="4.81384">
        <ele>248</ele>
        <time>2017-06-14T09:06:53Z</time>
      </trkpt>
      <trkpt lat="45.98204" lon="4.81377">
        <ele>248</ele>
        <time>2017-06-14T09:06:54Z</time>
      </trkpt>
      <trkpt lat="45.98202" lon="4.81371">
        <ele>248</ele>
        <time>2017-06-14T09:06:55Z</time>
      </trkpt>
      <trkpt lat="45.98201" lon="4.81364">
        <ele>248</ele>
        <time>2017-06-14T09:06:56Z</time>
      </trkpt>
      <trkpt lat="45.98199" lon="4.81357">
        <ele>248</ele>
        <time>2017-06-14T09:06:57Z</time>
      </trkpt>
      <trkpt lat="45.98197" lon="4.8135">
        <ele>248</ele>
        <time>2017-06-14T09:06:58Z</time>
      </trkpt>
      <trkpt lat="45.98196" lon="4.81342">
        <ele>248</ele>
        <time>2017-06-14T09:06:59Z</time>
      </trkpt>
      <trkpt lat="45.98195" lon="4.81335">
        <ele>248</ele>
        <time>2017-06-14T09:07:00Z</time>
      </trkpt>
      <trkpt lat="45.98193" lon="4.81328">
        <ele>247</ele>
        <time>2017-06-14T09:07:01Z</time>
      </trkpt>
      <trkpt lat="45.98192" lon="4.8132">
        <ele>247</ele>
        <time>2017-06-14T09:07:02Z</time>
      </trkpt>
      <trkpt lat="45.9819" lon="4.81313">
        <ele>247</ele>
        <time>2017-06-14T09:07:03Z</time>
      </trkpt>
      <trkpt lat="45.98189" lon="4.81305">
        <ele>247</ele>
        <time>2017-06-14T09:07:04Z</time>
      </trkpt>
      <trkpt lat="45.98187" lon="4.81298">
        <ele>247</ele>
        <time>2017-06-14T09:07:05Z</time>
      </trkpt>
      <trkpt lat="45.98186" lon="4.81291">
        <ele>247</ele>
        <time>2017-06-14T09:07:06Z</time>
      </trkpt>
      <trkpt lat="45.98185" lon="4.81283">
        <ele>247</ele>
        <time>2017-06-14T09:07:07Z</time>
      </trkpt>
      <trkpt lat="45.98183" lon="4.81275">
        <ele>247</ele>
        <time>2017-06-14T09:07:08Z</time>
      </trkpt>
      <trkpt lat="45.98182" lon="4.81266">
        <ele>247</ele>
        <time>2017-06-14T09:07:09Z</time>
      </trkpt>
      <trkpt lat="45.98181" lon="4.81258">
        <ele>247</ele>
        <time>2017-06-14T09:07:10Z</time>
      </trkpt>
      <trkpt lat="45.9818" lon="4.8125">
        <ele>247</ele>
        <time>2017-06-14T09:07:11Z</time>
      </trkpt>
      <trkpt lat="45.98179" lon="4.81242">
        <ele>247</ele>
        <time>2017-06-14T09:07:12Z</time>
      </trkpt>
      <trkpt lat="45.98177" lon="4.81234">
        <ele>246</ele>
        <time>2017-06-14T09:07:13Z</time>
      </trkpt>
      <trkpt lat="45.98176" lon="4.81225">
        <ele>246</ele>
        <time>2017-06-14T09:07:14Z</time>
      </trkpt>
      <trkpt lat="45.98175" lon="4.81216">
        <ele>246</ele>
        <time>2017-06-14T09:07:15Z</time>
      </trkpt>
      <trkpt lat="45.98174" lon="4.81208">
        <ele>246</ele>
        <time>2017-06-14T09:07:16Z</time>
      </trkpt>
      <trkpt lat="45.98173" lon="4.812">
        <ele>245</ele>
        <time>2017-06-14T09:07:17Z</time>
      </trkpt>
      <trkpt lat="45.98172" lon="4.81191">
        <ele>245</ele>
        <time>2017-06-14T09:07:18Z</time>
      </trkpt>
      <trkpt lat="45.9817" lon="4.81183">
        <ele>245</ele>
        <time>2017-06-14T09:07:19Z</time>
      </trkpt>
      <trkpt lat="45.98168" lon="4.81175">
        <ele>245</ele>
        <time>2017-06-14T09:07:20Z</time>
      </trkpt>
      <trkpt lat="45.98166" lon="4.81167">
        <ele>245</ele>
        <time>2017-06-14T09:07:21Z</time>
      </trkpt>
      <trkpt lat="45.98163" lon="4.81159">
        <ele>245</ele>
        <time>2017-06-14T09:07:22Z</time>
      </trkpt>
      <trkpt lat="45.9816" lon="4.81152">
        <ele>245</ele>
        <time>2017-06-14T09:07:23Z</time>
      </trkpt>
      <trkpt lat="45.98157" lon="4.81144">
        <ele>245</ele>
        <time>2017-06-14T09:07:24Z</time>
      </trkpt>
      <trkpt lat="45.98154" lon="4.81137">
        <ele>245</ele>
        <time>2017-06-14T09:07:25Z</time>
      </trkpt>
      <trkpt lat="45.9815" lon="4.81129">
        <ele>245</ele>
        <time>2017-06-14T09:07:26Z</time>
      </trkpt>
      <trkpt lat="45.98147" lon="4.81122">
        <ele>245</ele>
        <time>2017-06-14T09:07:27Z</time>
      </trkpt>
      <trkpt lat="45.98144" lon="4.81114">
        <ele>245</ele>
        <time>2017-06-14T09:07:28Z</time>
      </trkpt>
      <trkpt lat="45.98142" lon="4.81106">
        <ele>245</ele>
        <time>2017-06-14T09:07:29Z</time>
      </trkpt>
      <trkpt lat="45.98139" lon="4.81098">
        <ele>245</ele>
        <time>2017-06-14T09:07:30Z</time>
      </trkpt>
      <trkpt lat="45.98136" lon="4.8109">
        <ele>245</ele>
        <time>2017-06-14T09:07:31Z</time>
      </trkpt>
      <trkpt lat="45.98133" lon="4.81082">
        <ele>243</ele>
        <time>2017-06-14T09:07:32Z</time>
      </trkpt>
      <trkpt lat="45.9813" lon="4.81074">
        <ele>243</ele>
        <time>2017-06-14T09:07:33Z</time>
      </trkpt>
      <trkpt lat="45.98127" lon="4.81066">
        <ele>243</ele>
        <time>2017-06-14T09:07:34Z</time>
      </trkpt>
      <trkpt lat="45.98124" lon="4.81058">
        <ele>243</ele>
        <time>2017-06-14T09:07:35Z</time>
      </trkpt>
      <trkpt lat="45.98121" lon="4.81051">
        <ele>243</ele>
        <time>2017-06-14T09:07:36Z</time>
      </trkpt>
      <trkpt lat="45.98119" lon="4.81043">
        <ele>242</ele>
        <time>2017-06-14T09:07:37Z</time>
      </trkpt>
      <trkpt lat="45.98117" lon="4.81035">
        <ele>242</ele>
        <time>2017-06-14T09:07:38Z</time>
      </trkpt>
      <trkpt lat="45.98115" lon="4.81027">
        <ele>242</ele>
        <time>2017-06-14T09:07:39Z</time>
      </trkpt>
      <trkpt lat="45.98113" lon="4.8102">
        <ele>242</ele>
        <time>2017-06-14T09:07:40Z</time>
      </trkpt>
      <trkpt lat="45.98111" lon="4.81013">
        <ele>242</ele>
        <time>2017-06-14T09:07:41Z</time>
      </trkpt>
      <trkpt lat="45.98108" lon="4.81006">
        <ele>242</ele>
        <time>2017-06-14T09:07:42Z</time>
      </trkpt>
      <trkpt lat="45.98106" lon="4.81">
        <ele>242</ele>
        <time>2017-06-14T09:07:43Z</time>
      </trkpt>
      <trkpt lat="45.98103" lon="4.8099">
        <ele>239</ele>
        <time>2017-06-14T09:07:45Z</time>
      </trkpt>
      <trkpt lat="45.981" lon="4.80984">
        <ele>239</ele>
        <time>2017-06-14T09:07:46Z</time>
      </trkpt>
      <trkpt lat="45.98097" lon="4.80972">
        <ele>239</ele>
        <time>2017-06-14T09:07:48Z</time>
      </trkpt>
      <trkpt lat="45.98095" lon="4.80965">
        <ele>239</ele>
        <time>2017-06-14T09:07:49Z</time>
      </trkpt>
      <trkpt lat="45.98093" lon="4.80957">
        <ele>238</ele>
        <time>2017-06-14T09:07:50Z</time>
      </trkpt>
      <trkpt lat="45.98091" lon="4.80947">
        <ele>238</ele>
        <time>2017-06-14T09:07:51Z</time>
      </trkpt>
      <trkpt lat="45.98089" lon="4.80938">
        <ele>238</ele>
        <time>2017-06-14T09:07:52Z</time>
      </trkpt>
      <trkpt lat="45.98086" lon="4.80927">
        <ele>238</ele>
        <time>2017-06-14T09:07:53Z</time>
      </trkpt>
      <trkpt lat="45.98083" lon="4.80916">
        <ele>239</ele>
        <time>2017-06-14T09:07:54Z</time>
      </trkpt>
      <trkpt lat="45.9808" lon="4.80905">
        <ele>238</ele>
        <time>2017-06-14T09:07:55Z</time>
      </trkpt>
      <trkpt lat="45.98078" lon="4.80893">
        <ele>238</ele>
        <time>2017-06-14T09:07:56Z</time>
      </trkpt>
      <trkpt lat="45.98075" lon="4.80881">
        <ele>237</ele>
        <time>2017-06-14T09:07:57Z</time>
      </trkpt>
      <trkpt lat="45.98072" lon="4.80868">
        <ele>237</ele>
        <time>2017-06-14T09:07:58Z</time>
      </trkpt>
      <trkpt lat="45.9807" lon="4.80857">
        <ele>236</ele>
        <time>2017-06-14T09:07:59Z</time>
      </trkpt>
      <trkpt lat="45.98067" lon="4.80845">
        <ele>236</ele>
        <time>2017-06-14T09:08:00Z</time>
      </trkpt>
      <trkpt lat="45.98064" lon="4.80834">
        <ele>236</ele>
        <time>2017-06-14T09:08:01Z</time>
      </trkpt>
      <trkpt lat="45.98061" lon="4.80823">
        <ele>234</ele>
        <time>2017-06-14T09:08:02Z</time>
      </trkpt>
      <trkpt lat="45.98059" lon="4.80812">
        <ele>234</ele>
        <time>2017-06-14T09:08:03Z</time>
      </trkpt>
      <trkpt lat="45.98056" lon="4.80802">
        <ele>234</ele>
        <time>2017-06-14T09:08:04Z</time>
      </trkpt>
      <trkpt lat="45.98054" lon="4.80791">
        <ele>233</ele>
        <time>2017-06-14T09:08:05Z</time>
      </trkpt>
      <trkpt lat="45.98052" lon="4.80782">
        <ele>233</ele>
        <time>2017-06-14T09:08:06Z</time>
      </trkpt>
      <trkpt lat="45.9805" lon="4.80773">
        <ele>233</ele>
        <time>2017-06-14T09:08:07Z</time>
      </trkpt>
      <trkpt lat="45.98048" lon="4.80765">
        <ele>233</ele>
        <time>2017-06-14T09:08:08Z</time>
      </trkpt>
      <trkpt lat="45.98046" lon="4.80757">
        <ele>233</ele>
        <time>2017-06-14T09:08:09Z</time>
      </trkpt>
      <trkpt lat="45.98043" lon="4.80749">
        <ele>231</ele>
        <time>2017-06-14T09:08:10Z</time>
      </trkpt>
      <trkpt lat="45.98042" lon="4.80741">
        <ele>231</ele>
        <time>2017-06-14T09:08:11Z</time>
      </trkpt>
      <trkpt lat="45.9804" lon="4.80734">
        <ele>231</ele>
        <time>2017-06-14T09:08:12Z</time>
      </trkpt>
      <trkpt lat="45.98039" lon="4.80727">
        <ele>231</ele>
        <time>2017-06-14T09:08:13Z</time>
      </trkpt>
      <trkpt lat="45.98038" lon="4.80715">
        <ele>231</ele>
        <time>2017-06-14T09:08:15Z</time>
      </trkpt>
      <trkpt lat="45.98038" lon="4.80709">
        <ele>231</ele>
        <time>2017-06-14T09:08:16Z</time>
      </trkpt>
      <trkpt lat="45.98042" lon="4.80698">
        <ele>230</ele>
        <time>2017-06-14T09:08:18Z</time>
      </trkpt>
      <trkpt lat="45.98046" lon="4.80695">
        <ele>230</ele>
        <time>2017-06-14T09:08:19Z</time>
      </trkpt>
      <trkpt lat="45.98052" lon="4.80694">
        <ele>230</ele>
        <time>2017-06-14T09:08:20Z</time>
      </trkpt>
      <trkpt lat="45.98058" lon="4.80694">
        <ele>230</ele>
        <time>2017-06-14T09:08:21Z</time>
      </trkpt>
      <trkpt lat="45.98064" lon="4.80693">
        <ele>230</ele>
        <time>2017-06-14T09:08:22Z</time>
      </trkpt>
      <trkpt lat="45.98071" lon="4.80694">
        <ele>230</ele>
        <time>2017-06-14T09:08:23Z</time>
      </trkpt>
      <trkpt lat="45.98078" lon="4.80694">
        <ele>230</ele>
        <time>2017-06-14T09:08:24Z</time>
      </trkpt>
      <trkpt lat="45.98085" lon="4.80694">
        <ele>228</ele>
        <time>2017-06-14T09:08:25Z</time>
      </trkpt>
      <trkpt lat="45.98093" lon="4.80694">
        <ele>228</ele>
        <time>2017-06-14T09:08:26Z</time>
      </trkpt>
      <trkpt lat="45.981" lon="4.80694">
        <ele>228</ele>
        <time>2017-06-14T09:08:27Z</time>
      </trkpt>
      <trkpt lat="45.98108" lon="4.80695">
        <ele>228</ele>
        <time>2017-06-14T09:08:28Z</time>
      </trkpt>
      <trkpt lat="45.98115" lon="4.80695">
        <ele>228</ele>
        <time>2017-06-14T09:08:29Z</time>
      </trkpt>
      <trkpt lat="45.98123" lon="4.80694">
        <ele>228</ele>
        <time>2017-06-14T09:08:30Z</time>
      </trkpt>
      <trkpt lat="45.98131" lon="4.80694">
        <ele>228</ele>
        <time>2017-06-14T09:08:31Z</time>
      </trkpt>
      <trkpt lat="45.98139" lon="4.80694">
        <ele>228</ele>
        <time>2017-06-14T09:08:32Z</time>
      </trkpt>
      <trkpt lat="45.98146" lon="4.80693">
        <ele>228</ele>
        <time>2017-06-14T09:08:33Z</time>
      </trkpt>
      <trkpt lat="45.98154" lon="4.80693">
        <ele>228</ele>
        <time>2017-06-14T09:08:34Z</time>
      </trkpt>
      <trkpt lat="45.98161" lon="4.80693">
        <ele>227</ele>
        <time>2017-06-14T09:08:35Z</time>
      </trkpt>
      <trkpt lat="45.98169" lon="4.80692">
        <ele>225</ele>
        <time>2017-06-14T09:08:36Z</time>
      </trkpt>
      <trkpt lat="45.98176" lon="4.80691">
        <ele>225</ele>
        <time>2017-06-14T09:08:37Z</time>
      </trkpt>
      <trkpt lat="45.98184" lon="4.80689">
        <ele>225</ele>
        <time>2017-06-14T09:08:38Z</time>
      </trkpt>
      <trkpt lat="45.98191" lon="4.80687">
        <ele>225</ele>
        <time>2017-06-14T09:08:39Z</time>
      </trkpt>
      <trkpt lat="45.98199" lon="4.80684">
        <ele>225</ele>
        <time>2017-06-14T09:08:40Z</time>
      </trkpt>
      <trkpt lat="45.98206" lon="4.80681">
        <ele>224</ele>
        <time>2017-06-14T09:08:41Z</time>
      </trkpt>
      <trkpt lat="45.98213" lon="4.80677">
        <ele>224</ele>
        <time>2017-06-14T09:08:42Z</time>
      </trkpt>
      <trkpt lat="45.98219" lon="4.80671">
        <ele>224</ele>
        <time>2017-06-14T09:08:43Z</time>
      </trkpt>
      <trkpt lat="45.98225" lon="4.80663">
        <ele>223</ele>
        <time>2017-06-14T09:08:44Z</time>
      </trkpt>
      <trkpt lat="45.98231" lon="4.80655">
        <ele>223</ele>
        <time>2017-06-14T09:08:45Z</time>
      </trkpt>
      <trkpt lat="45.98236" lon="4.80646">
        <ele>223</ele>
        <time>2017-06-14T09:08:46Z</time>
      </trkpt>
      <trkpt lat="45.98239" lon="4.80635">
        <ele>224</ele>
        <time>2017-06-14T09:08:47Z</time>
      </trkpt>
      <trkpt lat="45.98242" lon="4.80624">
        <ele>224</ele>
        <time>2017-06-14T09:08:48Z</time>
      </trkpt>
      <trkpt lat="45.98245" lon="4.80614">
        <ele>224</ele>
        <time>2017-06-14T09:08:49Z</time>
      </trkpt>
      <trkpt lat="45.98248" lon="4.80603">
        <ele>224</ele>
        <time>2017-06-14T09:08:50Z</time>
      </trkpt>
      <trkpt lat="45.98252" lon="4.80592">
        <ele>224</ele>
        <time>2017-06-14T09:08:51Z</time>
      </trkpt>
      <trkpt lat="45.98255" lon="4.80582">
        <ele>224</ele>
        <time>2017-06-14T09:08:52Z</time>
      </trkpt>
      <trkpt lat="45.98258" lon="4.80572">
        <ele>224</ele>
        <time>2017-06-14T09:08:53Z</time>
      </trkpt>
      <trkpt lat="45.98261" lon="4.80562">
        <ele>224</ele>
        <time>2017-06-14T09:08:54Z</time>
      </trkpt>
      <trkpt lat="45.98263" lon="4.80553">
        <ele>224</ele>
        <time>2017-06-14T09:08:55Z</time>
      </trkpt>
      <trkpt lat="45.98266" lon="4.80544">
        <ele>224</ele>
        <time>2017-06-14T09:08:56Z</time>
      </trkpt>
      <trkpt lat="45.98269" lon="4.80536">
        <ele>224</ele>
        <time>2017-06-14T09:08:57Z</time>
      </trkpt>
      <trkpt lat="45.98271" lon="4.80528">
        <ele>224</ele>
        <time>2017-06-14T09:08:58Z</time>
      </trkpt>
      <trkpt lat="45.98274" lon="4.80519">
        <ele>224</ele>
        <time>2017-06-14T09:08:59Z</time>
      </trkpt>
      <trkpt lat="45.98276" lon="4.8051">
        <ele>224</ele>
        <time>2017-06-14T09:09:00Z</time>
      </trkpt>
      <trkpt lat="45.98279" lon="4.80502">
        <ele>224</ele>
        <time>2017-06-14T09:09:01Z</time>
      </trkpt>
      <trkpt lat="45.98281" lon="4.80494">
        <ele>223</ele>
        <time>2017-06-14T09:09:02Z</time>
      </trkpt>
      <trkpt lat="45.98282" lon="4.80486">
        <ele>223</ele>
        <time>2017-06-14T09:09:03Z</time>
      </trkpt>
      <trkpt lat="45.98285" lon="4.80479">
        <ele>223</ele>
        <time>2017-06-14T09:09:04Z</time>
      </trkpt>
      <trkpt lat="45.98286" lon="4.80472">
        <ele>224</ele>
        <time>2017-06-14T09:09:05Z</time>
      </trkpt>
      <trkpt lat="45.98287" lon="4.80465">
        <ele>224</ele>
        <time>2017-06-14T09:09:06Z</time>
      </trkpt>
      <trkpt lat="45.98288" lon="4.80458">
        <ele>224</ele>
        <time>2017-06-14T09:09:07Z</time>
      </trkpt>
      <trkpt lat="45.98289" lon="4.8045">
        <ele>224</ele>
        <time>2017-06-14T09:09:08Z</time>
      </trkpt>
      <trkpt lat="45.98291" lon="4.80442">
        <ele>224</ele>
        <time>2017-06-14T09:09:09Z</time>
      </trkpt>
      <trkpt lat="45.98292" lon="4.80435">
        <ele>224</ele>
        <time>2017-06-14T09:09:10Z</time>
      </trkpt>
      <trkpt lat="45.98293" lon="4.80427">
        <ele>224</ele>
        <time>2017-06-14T09:09:11Z</time>
      </trkpt>
      <trkpt lat="45.98294" lon="4.80419">
        <ele>224</ele>
        <time>2017-06-14T09:09:12Z</time>
      </trkpt>
      <trkpt lat="45.98295" lon="4.80411">
        <ele>224</ele>
        <time>2017-06-14T09:09:13Z</time>
      </trkpt>
      <trkpt lat="45.98296" lon="4.80405">
        <ele>224</ele>
        <time>2017-06-14T09:09:14Z</time>
      </trkpt>
      <trkpt lat="45.98298" lon="4.80397">
        <ele>225</ele>
        <time>2017-06-14T09:09:15Z</time>
      </trkpt>
      <trkpt lat="45.983" lon="4.80391">
        <ele>225</ele>
        <time>2017-06-14T09:09:16Z</time>
      </trkpt>
      <trkpt lat="45.98301" lon="4.80385">
        <ele>225</ele>
        <time>2017-06-14T09:09:17Z</time>
      </trkpt>
      <trkpt lat="45.98302" lon="4.80378">
        <ele>225</ele>
        <time>2017-06-14T09:09:18Z</time>
      </trkpt>
      <trkpt lat="45.98306" lon="4.80368">
        <ele>225</ele>
        <time>2017-06-14T09:09:19Z</time>
      </trkpt>
      <trkpt lat="45.98308" lon="4.8036">
        <ele>225</ele>
        <time>2017-06-14T09:09:20Z</time>
      </trkpt>
      <trkpt lat="45.98309" lon="4.80352">
        <ele>226</ele>
        <time>2017-06-14T09:09:21Z</time>
      </trkpt>
      <trkpt lat="45.98311" lon="4.80344">
        <ele>226</ele>
        <time>2017-06-14T09:09:22Z</time>
      </trkpt>
      <trkpt lat="45.98313" lon="4.80336">
        <ele>227</ele>
        <time>2017-06-14T09:09:23Z</time>
      </trkpt>
      <trkpt lat="45.98314" lon="4.80329">
        <ele>227</ele>
        <time>2017-06-14T09:09:24Z</time>
      </trkpt>
      <trkpt lat="45.98316" lon="4.80323">
        <ele>227</ele>
        <time>2017-06-14T09:09:25Z</time>
      </trkpt>
      <trkpt lat="45.98318" lon="4.80311">
        <ele>227</ele>
        <time>2017-06-14T09:09:27Z</time>
      </trkpt>
      <trkpt lat="45.98319" lon="4.80304">
        <ele>227</ele>
        <time>2017-06-14T09:09:28Z</time>
      </trkpt>
      <trkpt lat="45.9832" lon="4.80298">
        <ele>227</ele>
        <time>2017-06-14T09:09:29Z</time>
      </trkpt>
      <trkpt lat="45.98321" lon="4.80292">
        <ele>227</ele>
        <time>2017-06-14T09:09:30Z</time>
      </trkpt>
      <trkpt lat="45.98322" lon="4.80285">
        <ele>227</ele>
        <time>2017-06-14T09:09:31Z</time>
      </trkpt>
      <trkpt lat="45.98324" lon="4.80278">
        <ele>227</ele>
        <time>2017-06-14T09:09:32Z</time>
      </trkpt>
      <trkpt lat="45.98326" lon="4.80272">
        <ele>227</ele>
        <time>2017-06-14T09:09:33Z</time>
      </trkpt>
      <trkpt lat="45.98327" lon="4.80265">
        <ele>228</ele>
        <time>2017-06-14T09:09:34Z</time>
      </trkpt>
      <trkpt lat="45.98329" lon="4.80259">
        <ele>228</ele>
        <time>2017-06-14T09:09:35Z</time>
      </trkpt>
      <trkpt lat="45.9833" lon="4.80253">
        <ele>229</ele>
        <time>2017-06-14T09:09:36Z</time>
      </trkpt>
      <trkpt lat="45.98333" lon="4.80242">
        <ele>229</ele>
        <time>2017-06-14T09:09:38Z</time>
      </trkpt>
      <trkpt lat="45.98333" lon="4.80237">
        <ele>228</ele>
        <time>2017-06-14T09:09:39Z</time>
      </trkpt>
      <trkpt lat="45.98333" lon="4.80227">
        <ele>228</ele>
        <time>2017-06-14T09:09:41Z</time>
      </trkpt>
      <trkpt lat="45.98333" lon="4.80222">
        <ele>227</ele>
        <time>2017-06-14T09:09:42Z</time>
      </trkpt>
      <trkpt lat="45.9833" lon="4.80212">
        <ele>227</ele>
        <time>2017-06-14T09:09:44Z</time>
      </trkpt>
      <trkpt lat="45.98328" lon="4.80207">
        <ele>227</ele>
        <time>2017-06-14T09:09:45Z</time>
      </trkpt>
      <trkpt lat="45.98326" lon="4.80201">
        <ele>227</ele>
        <time>2017-06-14T09:09:46Z</time>
      </trkpt>
      <trkpt lat="45.98324" lon="4.80194">
        <ele>227</ele>
        <time>2017-06-14T09:09:47Z</time>
      </trkpt>
      <trkpt lat="45.98322" lon="4.80187">
        <ele>227</ele>
        <time>2017-06-14T09:09:48Z</time>
      </trkpt>
      <trkpt lat="45.98319" lon="4.80178">
        <ele>227</ele>
        <time>2017-06-14T09:09:49Z</time>
      </trkpt>
      <trkpt lat="45.98317" lon="4.80171">
        <ele>227</ele>
        <time>2017-06-14T09:09:50Z</time>
      </trkpt>
      <trkpt lat="45.98314" lon="4.80165">
        <ele>228</ele>
        <time>2017-06-14T09:09:51Z</time>
      </trkpt>
      <trkpt lat="45.98312" lon="4.80158">
        <ele>228</ele>
        <time>2017-06-14T09:09:52Z</time>
      </trkpt>
      <trkpt lat="45.9831" lon="4.80151">
        <ele>228</ele>
        <time>2017-06-14T09:09:53Z</time>
      </trkpt>
      <trkpt lat="45.98308" lon="4.80144">
        <ele>228</ele>
        <time>2017-06-14T09:09:54Z</time>
      </trkpt>
      <trkpt lat="45.98305" lon="4.80137">
        <ele>228</ele>
        <time>2017-06-14T09:09:55Z</time>
      </trkpt>
      <trkpt lat="45.98303" lon="4.8013">
        <ele>228</ele>
        <time>2017-06-14T09:09:56Z</time>
      </trkpt>
      <trkpt lat="45.983" lon="4.80123">
        <ele>228</ele>
        <time>2017-06-14T09:09:57Z</time>
      </trkpt>
      <trkpt lat="45.98298" lon="4.80117">
        <ele>228</ele>
        <time>2017-06-14T09:09:58Z</time>
      </trkpt>
      <trkpt lat="45.98296" lon="4.80111">
        <ele>228</ele>
        <time>2017-06-14T09:09:59Z</time>
      </trkpt>
      <trkpt lat="45.98293" lon="4.80104">
        <ele>228</ele>
        <time>2017-06-14T09:10:00Z</time>
      </trkpt>
      <trkpt lat="45.98291" lon="4.80097">
        <ele>228</ele>
        <time>2017-06-14T09:10:01Z</time>
      </trkpt>
      <trkpt lat="45.98289" lon="4.80091">
        <ele>228</ele>
        <time>2017-06-14T09:10:02Z</time>
      </trkpt>
      <trkpt lat="45.98287" lon="4.80085">
        <ele>228</ele>
        <time>2017-06-14T09:10:03Z</time>
      </trkpt>
      <trkpt lat="45.98285" lon="4.8008">
        <ele>229</ele>
        <time>2017-06-14T09:10:04Z</time>
      </trkpt>
      <trkpt lat="45.98282" lon="4.80074">
        <ele>229</ele>
        <time>2017-06-14T09:10:05Z</time>
      </trkpt>
      <trkpt lat="45.98278" lon="4.80062">
        <ele>229</ele>
        <time>2017-06-14T09:10:07Z</time>
      </trkpt>
      <trkpt lat="45.98277" lon="4.80057">
        <ele>229</ele>
        <time>2017-06-14T09:10:08Z</time>
      </trkpt>
      <trkpt lat="45.98274" lon="4.80046">
        <ele>229</ele>
        <time>2017-06-14T09:10:10Z</time>
      </trkpt>
      <trkpt lat="45.98272" lon="4.8004">
        <ele>229</ele>
        <time>2017-06-14T09:10:11Z</time>
      </trkpt>
      <trkpt lat="45.9827" lon="4.80034">
        <ele>229</ele>
        <time>2017-06-14T09:10:12Z</time>
      </trkpt>
      <trkpt lat="45.98267" lon="4.80028">
        <ele>228</ele>
        <time>2017-06-14T09:10:13Z</time>
      </trkpt>
      <trkpt lat="45.98265" lon="4.80021">
        <ele>228</ele>
        <time>2017-06-14T09:10:14Z</time>
      </trkpt>
      <trkpt lat="45.98263" lon="4.80014">
        <ele>228</ele>
        <time>2017-06-14T09:10:15Z</time>
      </trkpt>
      <trkpt lat="45.98261" lon="4.80007">
        <ele>227</ele>
        <time>2017-06-14T09:10:16Z</time>
      </trkpt>
      <trkpt lat="45.98259" lon="4.8">
        <ele>227</ele>
        <time>2017-06-14T09:10:17Z</time>
      </trkpt>
      <trkpt lat="45.98257" lon="4.79993">
        <ele>227</ele>
        <time>2017-06-14T09:10:18Z</time>
      </trkpt>
      <trkpt lat="45.98255" lon="4.79987">
        <ele>228</ele>
        <time>2017-06-14T09:10:19Z</time>
      </trkpt>
      <trkpt lat="45.98253" lon="4.7998">
        <ele>228</ele>
        <time>2017-06-14T09:10:20Z</time>
      </trkpt>
      <trkpt lat="45.98251" lon="4.79975">
        <ele>228</ele>
        <time>2017-06-14T09:10:21Z</time>
      </trkpt>
      <trkpt lat="45.98248" lon="4.79969">
        <ele>225</ele>
        <time>2017-06-14T09:10:22Z</time>
      </trkpt>
      <trkpt lat="45.98246" lon="4.79963">
        <ele>225</ele>
        <time>2017-06-14T09:10:23Z</time>
      </trkpt>
      <trkpt lat="45.98243" lon="4.79957">
        <ele>225</ele>
        <time>2017-06-14T09:10:24Z</time>
      </trkpt>
      <trkpt lat="45.9824" lon="4.79951">
        <ele>225</ele>
        <time>2017-06-14T09:10:25Z</time>
      </trkpt>
      <trkpt lat="45.98238" lon="4.79944">
        <ele>225</ele>
        <time>2017-06-14T09:10:26Z</time>
      </trkpt>
      <trkpt lat="45.98236" lon="4.79937">
        <ele>225</ele>
        <time>2017-06-14T09:10:27Z</time>
      </trkpt>
      <trkpt lat="45.98234" lon="4.7993">
        <ele>225</ele>
        <time>2017-06-14T09:10:28Z</time>
      </trkpt>
      <trkpt lat="45.98232" lon="4.79924">
        <ele>225</ele>
        <time>2017-06-14T09:10:29Z</time>
      </trkpt>
      <trkpt lat="45.9823" lon="4.79918">
        <ele>225</ele>
        <time>2017-06-14T09:10:30Z</time>
      </trkpt>
      <trkpt lat="45.98228" lon="4.79912">
        <ele>225</ele>
        <time>2017-06-14T09:10:31Z</time>
      </trkpt>
      <trkpt lat="45.98223" lon="4.799">
        <ele>225</ele>
        <time>2017-06-14T09:10:33Z</time>
      </trkpt>
      <trkpt lat="45.98221" lon="4.79894">
        <ele>225</ele>
        <time>2017-06-14T09:10:34Z</time>
      </trkpt>
      <trkpt lat="45.98219" lon="4.79888">
        <ele>225</ele>
        <time>2017-06-14T09:10:35Z</time>
      </trkpt>
      <trkpt lat="45.98217" lon="4.79881">
        <ele>225</ele>
        <time>2017-06-14T09:10:36Z</time>
      </trkpt>
      <trkpt lat="45.98215" lon="4.79875">
        <ele>225</ele>
        <time>2017-06-14T09:10:37Z</time>
      </trkpt>
      <trkpt lat="45.98212" lon="4.79868">
        <ele>225</ele>
        <time>2017-06-14T09:10:38Z</time>
      </trkpt>
      <trkpt lat="45.9821" lon="4.79862">
        <ele>225</ele>
        <time>2017-06-14T09:10:39Z</time>
      </trkpt>
      <trkpt lat="45.98208" lon="4.79855">
        <ele>225</ele>
        <time>2017-06-14T09:10:40Z</time>
      </trkpt>
      <trkpt lat="45.98205" lon="4.79848">
        <ele>225</ele>
        <time>2017-06-14T09:10:41Z</time>
      </trkpt>
      <trkpt lat="45.98203" lon="4.79841">
        <ele>225</ele>
        <time>2017-06-14T09:10:42Z</time>
      </trkpt>
      <trkpt lat="45.982" lon="4.79835">
        <ele>225</ele>
        <time>2017-06-14T09:10:43Z</time>
      </trkpt>
      <trkpt lat="45.98198" lon="4.79828">
        <ele>225</ele>
        <time>2017-06-14T09:10:44Z</time>
      </trkpt>
      <trkpt lat="45.98196" lon="4.79821">
        <ele>225</ele>
        <time>2017-06-14T09:10:45Z</time>
      </trkpt>
      <trkpt lat="45.98193" lon="4.79815">
        <ele>225</ele>
        <time>2017-06-14T09:10:46Z</time>
      </trkpt>
      <trkpt lat="45.98191" lon="4.79808">
        <ele>226</ele>
        <time>2017-06-14T09:10:47Z</time>
      </trkpt>
      <trkpt lat="45.98189" lon="4.798">
        <ele>226</ele>
        <time>2017-06-14T09:10:48Z</time>
      </trkpt>
      <trkpt lat="45.98188" lon="4.79792">
        <ele>226</ele>
        <time>2017-06-14T09:10:49Z</time>
      </trkpt>
      <trkpt lat="45.98188" lon="4.79784">
        <ele>226</ele>
        <time>2017-06-14T09:10:50Z</time>
      </trkpt>
      <trkpt lat="45.98187" lon="4.79776">
        <ele>226</ele>
        <time>2017-06-14T09:10:51Z</time>
      </trkpt>
      <trkpt lat="45.98188" lon="4.79768">
        <ele>226</ele>
        <time>2017-06-14T09:10:52Z</time>
      </trkpt>
      <trkpt lat="45.98188" lon="4.79761">
        <ele>226</ele>
        <time>2017-06-14T09:10:53Z</time>
      </trkpt>
      <trkpt lat="45.98188" lon="4.79754">
        <ele>226</ele>
        <time>2017-06-14T09:10:54Z</time>
      </trkpt>
      <trkpt lat="45.98184" lon="4.79744">
        <ele>227</ele>
        <time>2017-06-14T09:10:56Z</time>
      </trkpt>
      <trkpt lat="45.9818" lon="4.79741">
        <ele>227</ele>
        <time>2017-06-14T09:10:57Z</time>
      </trkpt>
      <trkpt lat="45.98175" lon="4.79741">
        <ele>227</ele>
        <time>2017-06-14T09:10:58Z</time>
      </trkpt>
      <trkpt lat="45.9817" lon="4.79743">
        <ele>227</ele>
        <time>2017-06-14T09:10:59Z</time>
      </trkpt>
      <trkpt lat="45.98164" lon="4.79746">
        <ele>226</ele>
        <time>2017-06-14T09:11:00Z</time>
      </trkpt>
      <trkpt lat="45.98159" lon="4.7975">
        <ele>226</ele>
        <time>2017-06-14T09:11:01Z</time>
      </trkpt>
      <trkpt lat="45.98153" lon="4.79753">
        <ele>225</ele>
        <time>2017-06-14T09:11:02Z</time>
      </trkpt>
      <trkpt lat="45.98147" lon="4.79755">
        <ele>225</ele>
        <time>2017-06-14T09:11:03Z</time>
      </trkpt>
      <trkpt lat="45.98141" lon="4.79757">
        <ele>224</ele>
        <time>2017-06-14T09:11:04Z</time>
      </trkpt>
      <trkpt lat="45.98134" lon="4.79759">
        <ele>224</ele>
        <time>2017-06-14T09:11:05Z</time>
      </trkpt>
      <trkpt lat="45.98128" lon="4.7976">
        <ele>224</ele>
        <time>2017-06-14T09:11:06Z</time>
      </trkpt>
      <trkpt lat="45.98121" lon="4.79762">
        <ele>224</ele>
        <time>2017-06-14T09:11:07Z</time>
      </trkpt>
      <trkpt lat="45.98114" lon="4.79763">
        <ele>224</ele>
        <time>2017-06-14T09:11:08Z</time>
      </trkpt>
      <trkpt lat="45.98107" lon="4.79764">
        <ele>224</ele>
        <time>2017-06-14T09:11:09Z</time>
      </trkpt>
      <trkpt lat="45.981" lon="4.79765">
        <ele>223</ele>
        <time>2017-06-14T09:11:10Z</time>
      </trkpt>
      <trkpt lat="45.98093" lon="4.79766">
        <ele>223</ele>
        <time>2017-06-14T09:11:11Z</time>
      </trkpt>
      <trkpt lat="45.98086" lon="4.79767">
        <ele>223</ele>
        <time>2017-06-14T09:11:12Z</time>
      </trkpt>
      <trkpt lat="45.98078" lon="4.79768">
        <ele>223</ele>
        <time>2017-06-14T09:11:13Z</time>
      </trkpt>
      <trkpt lat="45.98071" lon="4.79769">
        <ele>223</ele>
        <time>2017-06-14T09:11:14Z</time>
      </trkpt>
      <trkpt lat="45.98064" lon="4.7977">
        <ele>223</ele>
        <time>2017-06-14T09:11:15Z</time>
      </trkpt>
      <trkpt lat="45.98057" lon="4.79771">
        <ele>223</ele>
        <time>2017-06-14T09:11:16Z</time>
      </trkpt>
      <trkpt lat="45.9805" lon="4.79772">
        <ele>223</ele>
        <time>2017-06-14T09:11:17Z</time>
      </trkpt>
      <trkpt lat="45.98043" lon="4.79773">
        <ele>223</ele>
        <time>2017-06-14T09:11:18Z</time>
      </trkpt>
      <trkpt lat="45.98036" lon="4.79774">
        <ele>223</ele>
        <time>2017-06-14T09:11:19Z</time>
      </trkpt>
      <trkpt lat="45.98029" lon="4.79774">
        <ele>223</ele>
        <time>2017-06-14T09:11:20Z</time>
      </trkpt>
      <trkpt lat="45.98022" lon="4.79775">
        <ele>223</ele>
        <time>2017-06-14T09:11:21Z</time>
      </trkpt>
      <trkpt lat="45.98016" lon="4.79776">
        <ele>223</ele>
        <time>2017-06-14T09:11:22Z</time>
      </trkpt>
      <trkpt lat="45.98009" lon="4.79777">
        <ele>223</ele>
        <time>2017-06-14T09:11:23Z</time>
      </trkpt>
      <trkpt lat="45.98003" lon="4.79778">
        <ele>223</ele>
        <time>2017-06-14T09:11:24Z</time>
      </trkpt>
      <trkpt lat="45.97997" lon="4.79779">
        <ele>224</ele>
        <time>2017-06-14T09:11:25Z</time>
      </trkpt>
      <trkpt lat="45.97991" lon="4.7978">
        <ele>224</ele>
        <time>2017-06-14T09:11:26Z</time>
      </trkpt>
      <trkpt lat="45.97985" lon="4.79781">
        <ele>224</ele>
        <time>2017-06-14T09:11:27Z</time>
      </trkpt>
      <trkpt lat="45.97979" lon="4.79782">
        <ele>224</ele>
        <time>2017-06-14T09:11:28Z</time>
      </trkpt>
      <trkpt lat="45.97973" lon="4.79782">
        <ele>224</ele>
        <time>2017-06-14T09:11:29Z</time>
      </trkpt>
      <trkpt lat="45.97967" lon="4.79783">
        <ele>224</ele>
        <time>2017-06-14T09:11:30Z</time>
      </trkpt>
      <trkpt lat="45.97961" lon="4.79784">
        <ele>224</ele>
        <time>2017-06-14T09:11:31Z</time>
      </trkpt>
      <trkpt lat="45.97956" lon="4.79784">
        <ele>224</ele>
        <time>2017-06-14T09:11:32Z</time>
      </trkpt>
      <trkpt lat="45.9795" lon="4.79785">
        <ele>224</ele>
        <time>2017-06-14T09:11:33Z</time>
      </trkpt>
      <trkpt lat="45.97944" lon="4.79786">
        <ele>224</ele>
        <time>2017-06-14T09:11:34Z</time>
      </trkpt>
      <trkpt lat="45.97938" lon="4.79787">
        <ele>224</ele>
        <time>2017-06-14T09:11:35Z</time>
      </trkpt>
      <trkpt lat="45.97932" lon="4.79788">
        <ele>224</ele>
        <time>2017-06-14T09:11:36Z</time>
      </trkpt>
      <trkpt lat="45.97926" lon="4.79789">
        <ele>224</ele>
        <time>2017-06-14T09:11:37Z</time>
      </trkpt>
      <trkpt lat="45.9792" lon="4.7979">
        <ele>224</ele>
        <time>2017-06-14T09:11:38Z</time>
      </trkpt>
      <trkpt lat="45.97913" lon="4.79791">
        <ele>225</ele>
        <time>2017-06-14T09:11:39Z</time>
      </trkpt>
      <trkpt lat="45.97907" lon="4.79792">
        <ele>224</ele>
        <time>2017-06-14T09:11:40Z</time>
      </trkpt>
      <trkpt lat="45.979" lon="4.79793">
        <ele>224</ele>
        <time>2017-06-14T09:11:41Z</time>
      </trkpt>
      <trkpt lat="45.97894" lon="4.79795">
        <ele>224</ele>
        <time>2017-06-14T09:11:42Z</time>
      </trkpt>
      <trkpt lat="45.97887" lon="4.79796">
        <ele>224</ele>
        <time>2017-06-14T09:11:43Z</time>
      </trkpt>
      <trkpt lat="45.97881" lon="4.79797">
        <ele>224</ele>
        <time>2017-06-14T09:11:44Z</time>
      </trkpt>
      <trkpt lat="45.97874" lon="4.79798">
        <ele>224</ele>
        <time>2017-06-14T09:11:45Z</time>
      </trkpt>
      <trkpt lat="45.97868" lon="4.798">
        <ele>224</ele>
        <time>2017-06-14T09:11:46Z</time>
      </trkpt>
      <trkpt lat="45.9786" lon="4.79801">
        <ele>224</ele>
        <time>2017-06-14T09:11:47Z</time>
      </trkpt>
      <trkpt lat="45.97852" lon="4.79803">
        <ele>224</ele>
        <time>2017-06-14T09:11:48Z</time>
      </trkpt>
      <trkpt lat="45.97845" lon="4.79804">
        <ele>224</ele>
        <time>2017-06-14T09:11:49Z</time>
      </trkpt>
      <trkpt lat="45.97838" lon="4.79805">
        <ele>224</ele>
        <time>2017-06-14T09:11:50Z</time>
      </trkpt>
      <trkpt lat="45.97831" lon="4.79806">
        <ele>223</ele>
        <time>2017-06-14T09:11:51Z</time>
      </trkpt>
      <trkpt lat="45.97824" lon="4.79808">
        <ele>223</ele>
        <time>2017-06-14T09:11:52Z</time>
      </trkpt>
      <trkpt lat="45.97816" lon="4.7981">
        <ele>223</ele>
        <time>2017-06-14T09:11:53Z</time>
      </trkpt>
      <trkpt lat="45.97809" lon="4.79811">
        <ele>223</ele>
        <time>2017-06-14T09:11:54Z</time>
      </trkpt>
      <trkpt lat="45.97803" lon="4.79813">
        <ele>223</ele>
        <time>2017-06-14T09:11:55Z</time>
      </trkpt>
      <trkpt lat="45.97797" lon="4.79814">
        <ele>223</ele>
        <time>2017-06-14T09:11:56Z</time>
      </trkpt>
      <trkpt lat="45.97791" lon="4.79814">
        <ele>223</ele>
        <time>2017-06-14T09:11:57Z</time>
      </trkpt>
      <trkpt lat="45.97785" lon="4.79815">
        <ele>223</ele>
        <time>2017-06-14T09:11:58Z</time>
      </trkpt>
      <trkpt lat="45.97779" lon="4.79816">
        <ele>223</ele>
        <time>2017-06-14T09:11:59Z</time>
      </trkpt>
      <trkpt lat="45.97774" lon="4.79817">
        <ele>223</ele>
        <time>2017-06-14T09:12:00Z</time>
      </trkpt>
      <trkpt lat="45.97768" lon="4.79818">
        <ele>223</ele>
        <time>2017-06-14T09:12:01Z</time>
      </trkpt>
      <trkpt lat="45.97763" lon="4.79819">
        <ele>223</ele>
        <time>2017-06-14T09:12:02Z</time>
      </trkpt>
      <trkpt lat="45.97757" lon="4.79819">
        <ele>223</ele>
        <time>2017-06-14T09:12:03Z</time>
      </trkpt>
      <trkpt lat="45.97751" lon="4.79821">
        <ele>223</ele>
        <time>2017-06-14T09:12:04Z</time>
      </trkpt>
      <trkpt lat="45.97745" lon="4.79821">
        <ele>223</ele>
        <time>2017-06-14T09:12:05Z</time>
      </trkpt>
      <trkpt lat="45.97738" lon="4.79822">
        <ele>223</ele>
        <time>2017-06-14T09:12:06Z</time>
      </trkpt>
      <trkpt lat="45.97731" lon="4.79823">
        <ele>223</ele>
        <time>2017-06-14T09:12:07Z</time>
      </trkpt>
      <trkpt lat="45.97725" lon="4.79824">
        <ele>223</ele>
        <time>2017-06-14T09:12:08Z</time>
      </trkpt>
      <trkpt lat="45.97718" lon="4.79825">
        <ele>223</ele>
        <time>2017-06-14T09:12:09Z</time>
      </trkpt>
      <trkpt lat="45.97712" lon="4.79826">
        <ele>223</ele>
        <time>2017-06-14T09:12:10Z</time>
      </trkpt>
      <trkpt lat="45.97706" lon="4.79827">
        <ele>223</ele>
        <time>2017-06-14T09:12:11Z</time>
      </trkpt>
      <trkpt lat="45.977" lon="4.79828">
        <ele>223</ele>
        <time>2017-06-14T09:12:12Z</time>
      </trkpt>
      <trkpt lat="45.97694" lon="4.79829">
        <ele>223</ele>
        <time>2017-06-14T09:12:13Z</time>
      </trkpt>
      <trkpt lat="45.97689" lon="4.7983">
        <ele>223</ele>
        <time>2017-06-14T09:12:14Z</time>
      </trkpt>
      <trkpt lat="45.97683" lon="4.79832">
        <ele>223</ele>
        <time>2017-06-14T09:12:15Z</time>
      </trkpt>
      <trkpt lat="45.97677" lon="4.79833">
        <ele>223</ele>
        <time>2017-06-14T09:12:16Z</time>
      </trkpt>
      <trkpt lat="45.97672" lon="4.79835">
        <ele>221</ele>
        <time>2017-06-14T09:12:17Z</time>
      </trkpt>
      <trkpt lat="45.97666" lon="4.79837">
        <ele>222</ele>
        <time>2017-06-14T09:12:18Z</time>
      </trkpt>
      <trkpt lat="45.97661" lon="4.79839">
        <ele>222</ele>
        <time>2017-06-14T09:12:19Z</time>
      </trkpt>
      <trkpt lat="45.97656" lon="4.7984">
        <ele>221</ele>
        <time>2017-06-14T09:12:20Z</time>
      </trkpt>
      <trkpt lat="45.97651" lon="4.79841">
        <ele>221</ele>
        <time>2017-06-14T09:12:21Z</time>
      </trkpt>
      <trkpt lat="45.97646" lon="4.79843">
        <ele>221</ele>
        <time>2017-06-14T09:12:22Z</time>
      </trkpt>
      <trkpt lat="45.97641" lon="4.79844">
        <ele>221</ele>
        <time>2017-06-14T09:12:23Z</time>
      </trkpt>
      <trkpt lat="45.97636" lon="4.79846">
        <ele>221</ele>
        <time>2017-06-14T09:12:24Z</time>
      </trkpt>
      <trkpt lat="45.97631" lon="4.79849">
        <ele>221</ele>
        <time>2017-06-14T09:12:25Z</time>
      </trkpt>
      <trkpt lat="45.97625" lon="4.79851">
        <ele>221</ele>
        <time>2017-06-14T09:12:26Z</time>
      </trkpt>
      <trkpt lat="45.97619" lon="4.79853">
        <ele>221</ele>
        <time>2017-06-14T09:12:27Z</time>
      </trkpt>
      <trkpt lat="45.97614" lon="4.79855">
        <ele>221</ele>
        <time>2017-06-14T09:12:28Z</time>
      </trkpt>
      <trkpt lat="45.97608" lon="4.79857">
        <ele>221</ele>
        <time>2017-06-14T09:12:29Z</time>
      </trkpt>
      <trkpt lat="45.97603" lon="4.7986">
        <ele>221</ele>
        <time>2017-06-14T09:12:30Z</time>
      </trkpt>
      <trkpt lat="45.97597" lon="4.79862">
        <ele>221</ele>
        <time>2017-06-14T09:12:31Z</time>
      </trkpt>
      <trkpt lat="45.97591" lon="4.79864">
        <ele>221</ele>
        <time>2017-06-14T09:12:32Z</time>
      </trkpt>
      <trkpt lat="45.97585" lon="4.79867">
        <ele>221</ele>
        <time>2017-06-14T09:12:33Z</time>
      </trkpt>
      <trkpt lat="45.97579" lon="4.79869">
        <ele>222</ele>
        <time>2017-06-14T09:12:34Z</time>
      </trkpt>
      <trkpt lat="45.97572" lon="4.79871">
        <ele>222</ele>
        <time>2017-06-14T09:12:35Z</time>
      </trkpt>
      <trkpt lat="45.97566" lon="4.79873">
        <ele>222</ele>
        <time>2017-06-14T09:12:36Z</time>
      </trkpt>
      <trkpt lat="45.97559" lon="4.79875">
        <ele>222</ele>
        <time>2017-06-14T09:12:37Z</time>
      </trkpt>
      <trkpt lat="45.97552" lon="4.79876">
        <ele>222</ele>
        <time>2017-06-14T09:12:38Z</time>
      </trkpt>
      <trkpt lat="45.97545" lon="4.79878">
        <ele>222</ele>
        <time>2017-06-14T09:12:39Z</time>
      </trkpt>
      <trkpt lat="45.97538" lon="4.7988">
        <ele>222</ele>
        <time>2017-06-14T09:12:40Z</time>
      </trkpt>
      <trkpt lat="45.9753" lon="4.79882">
        <ele>222</ele>
        <time>2017-06-14T09:12:41Z</time>
      </trkpt>
      <trkpt lat="45.97522" lon="4.79883">
        <ele>222</ele>
        <time>2017-06-14T09:12:42Z</time>
      </trkpt>
      <trkpt lat="45.97514" lon="4.79884">
        <ele>222</ele>
        <time>2017-06-14T09:12:43Z</time>
      </trkpt>
      <trkpt lat="45.97505" lon="4.79886">
        <ele>221</ele>
        <time>2017-06-14T09:12:44Z</time>
      </trkpt>
      <trkpt lat="45.97496" lon="4.79887">
        <ele>221</ele>
        <time>2017-06-14T09:12:45Z</time>
      </trkpt>
      <trkpt lat="45.97487" lon="4.79888">
        <ele>221</ele>
        <time>2017-06-14T09:12:46Z</time>
      </trkpt>
      <trkpt lat="45.97478" lon="4.79888">
        <ele>221</ele>
        <time>2017-06-14T09:12:47Z</time>
      </trkpt>
      <trkpt lat="45.97469" lon="4.79888">
        <ele>221</ele>
        <time>2017-06-14T09:12:48Z</time>
      </trkpt>
      <trkpt lat="45.9746" lon="4.79888">
        <ele>221</ele>
        <time>2017-06-14T09:12:49Z</time>
      </trkpt>
      <trkpt lat="45.97451" lon="4.79888">
        <ele>221</ele>
        <time>2017-06-14T09:12:50Z</time>
      </trkpt>
      <trkpt lat="45.97441" lon="4.79888">
        <ele>220</ele>
        <time>2017-06-14T09:12:51Z</time>
      </trkpt>
      <trkpt lat="45.97432" lon="4.79889">
        <ele>220</ele>
        <time>2017-06-14T09:12:52Z</time>
      </trkpt>
      <trkpt lat="45.97422" lon="4.7989">
        <ele>220</ele>
        <time>2017-06-14T09:12:53Z</time>
      </trkpt>
      <trkpt lat="45.97413" lon="4.79891">
        <ele>218</ele>
        <time>2017-06-14T09:12:54Z</time>
      </trkpt>
      <trkpt lat="45.97404" lon="4.79893">
        <ele>217</ele>
        <time>2017-06-14T09:12:55Z</time>
      </trkpt>
      <trkpt lat="45.97395" lon="4.79895">
        <ele>217</ele>
        <time>2017-06-14T09:12:56Z</time>
      </trkpt>
      <trkpt lat="45.97385" lon="4.79896">
        <ele>217</ele>
        <time>2017-06-14T09:12:57Z</time>
      </trkpt>
      <trkpt lat="45.97376" lon="4.79899">
        <ele>217</ele>
        <time>2017-06-14T09:12:58Z</time>
      </trkpt>
      <trkpt lat="45.97367" lon="4.79901">
        <ele>217</ele>
        <time>2017-06-14T09:12:59Z</time>
      </trkpt>
      <trkpt lat="45.97357" lon="4.79903">
        <ele>216</ele>
        <time>2017-06-14T09:13:00Z</time>
      </trkpt>
      <trkpt lat="45.97348" lon="4.79905">
        <ele>215</ele>
        <time>2017-06-14T09:13:01Z</time>
      </trkpt>
      <trkpt lat="45.97339" lon="4.79906">
        <ele>215</ele>
        <time>2017-06-14T09:13:02Z</time>
      </trkpt>
      <trkpt lat="45.97329" lon="4.79907">
        <ele>213</ele>
        <time>2017-06-14T09:13:03Z</time>
      </trkpt>
      <trkpt lat="45.9732" lon="4.79909">
        <ele>213</ele>
        <time>2017-06-14T09:13:04Z</time>
      </trkpt>
      <trkpt lat="45.97311" lon="4.7991">
        <ele>213</ele>
        <time>2017-06-14T09:13:05Z</time>
      </trkpt>
      <trkpt lat="45.97301" lon="4.79911">
        <ele>213</ele>
        <time>2017-06-14T09:13:06Z</time>
      </trkpt>
      <trkpt lat="45.97293" lon="4.79913">
        <ele>213</ele>
        <time>2017-06-14T09:13:07Z</time>
      </trkpt>
      <trkpt lat="45.97284" lon="4.79915">
        <ele>213</ele>
        <time>2017-06-14T09:13:08Z</time>
      </trkpt>
      <trkpt lat="45.97277" lon="4.79917">
        <ele>213</ele>
        <time>2017-06-14T09:13:09Z</time>
      </trkpt>
      <trkpt lat="45.97269" lon="4.79918">
        <ele>212</ele>
        <time>2017-06-14T09:13:10Z</time>
      </trkpt>
      <trkpt lat="45.97263" lon="4.79918">
        <ele>212</ele>
        <time>2017-06-14T09:13:11Z</time>
      </trkpt>
      <trkpt lat="45.97258" lon="4.79916">
        <ele>212</ele>
        <time>2017-06-14T09:13:12Z</time>
      </trkpt>
      <trkpt lat="45.97254" lon="4.79908">
        <ele>212</ele>
        <time>2017-06-14T09:13:13Z</time>
      </trkpt>
      <trkpt lat="45.97251" lon="4.79901">
        <ele>213</ele>
        <time>2017-06-14T09:13:14Z</time>
      </trkpt>
      <trkpt lat="45.97248" lon="4.79895">
        <ele>211</ele>
        <time>2017-06-14T09:13:15Z</time>
      </trkpt>
      <trkpt lat="45.97245" lon="4.79887">
        <ele>211</ele>
        <time>2017-06-14T09:13:16Z</time>
      </trkpt>
      <trkpt lat="45.97243" lon="4.79879">
        <ele>211</ele>
        <time>2017-06-14T09:13:17Z</time>
      </trkpt>
      <trkpt lat="45.97241" lon="4.79871">
        <ele>211</ele>
        <time>2017-06-14T09:13:18Z</time>
      </trkpt>
      <trkpt lat="45.97238" lon="4.79863">
        <ele>211</ele>
        <time>2017-06-14T09:13:19Z</time>
      </trkpt>
      <trkpt lat="45.97237" lon="4.79853">
        <ele>211</ele>
        <time>2017-06-14T09:13:20Z</time>
      </trkpt>
      <trkpt lat="45.97237" lon="4.79844">
        <ele>211</ele>
        <time>2017-06-14T09:13:21Z</time>
      </trkpt>
      <trkpt lat="45.97237" lon="4.79835">
        <ele>211</ele>
        <time>2017-06-14T09:13:22Z</time>
      </trkpt>
      <trkpt lat="45.97238" lon="4.79826">
        <ele>211</ele>
        <time>2017-06-14T09:13:23Z</time>
      </trkpt>
      <trkpt lat="45.97239" lon="4.79818">
        <ele>211</ele>
        <time>2017-06-14T09:13:24Z</time>
      </trkpt>
      <trkpt lat="45.9724" lon="4.7981">
        <ele>210</ele>
        <time>2017-06-14T09:13:25Z</time>
      </trkpt>
      <trkpt lat="45.9724" lon="4.79802">
        <ele>210</ele>
        <time>2017-06-14T09:13:26Z</time>
      </trkpt>
      <trkpt lat="45.97241" lon="4.79795">
        <ele>210</ele>
        <time>2017-06-14T09:13:27Z</time>
      </trkpt>
      <trkpt lat="45.97242" lon="4.79787">
        <ele>210</ele>
        <time>2017-06-14T09:13:28Z</time>
      </trkpt>
      <trkpt lat="45.97243" lon="4.7978">
        <ele>210</ele>
        <time>2017-06-14T09:13:29Z</time>
      </trkpt>
      <trkpt lat="45.97243" lon="4.79772">
        <ele>210</ele>
        <time>2017-06-14T09:13:30Z</time>
      </trkpt>
      <trkpt lat="45.97243" lon="4.79765">
        <ele>209</ele>
        <time>2017-06-14T09:13:31Z</time>
      </trkpt>
      <trkpt lat="45.97244" lon="4.79757">
        <ele>209</ele>
        <time>2017-06-14T09:13:32Z</time>
      </trkpt>
      <trkpt lat="45.97245" lon="4.7975">
        <ele>209</ele>
        <time>2017-06-14T09:13:33Z</time>
      </trkpt>
      <trkpt lat="45.97245" lon="4.79742">
        <ele>209</ele>
        <time>2017-06-14T09:13:34Z</time>
      </trkpt>
      <trkpt lat="45.97246" lon="4.79734">
        <ele>209</ele>
        <time>2017-06-14T09:13:35Z</time>
      </trkpt>
      <trkpt lat="45.97247" lon="4.79726">
        <ele>209</ele>
        <time>2017-06-14T09:13:36Z</time>
      </trkpt>
      <trkpt lat="45.97248" lon="4.79718">
        <ele>209</ele>
        <time>2017-06-14T09:13:37Z</time>
      </trkpt>
      <trkpt lat="45.9725" lon="4.7971">
        <ele>209</ele>
        <time>2017-06-14T09:13:38Z</time>
      </trkpt>
      <trkpt lat="45.97251" lon="4.79702">
        <ele>212</ele>
        <time>2017-06-14T09:13:39Z</time>
      </trkpt>
      <trkpt lat="45.97252" lon="4.79694">
        <ele>212</ele>
        <time>2017-06-14T09:13:40Z</time>
      </trkpt>
      <trkpt lat="45.97252" lon="4.79686">
        <ele>211</ele>
        <time>2017-06-14T09:13:41Z</time>
      </trkpt>
      <trkpt lat="45.97252" lon="4.79676">
        <ele>210</ele>
        <time>2017-06-14T09:13:42Z</time>
      </trkpt>
      <trkpt lat="45.97253" lon="4.79668">
        <ele>209</ele>
        <time>2017-06-14T09:13:43Z</time>
      </trkpt>
      <trkpt lat="45.97254" lon="4.79661">
        <ele>210</ele>
        <time>2017-06-14T09:13:44Z</time>
      </trkpt>
      <trkpt lat="45.97254" lon="4.79653">
        <ele>211</ele>
        <time>2017-06-14T09:13:45Z</time>
      </trkpt>
      <trkpt lat="45.97254" lon="4.79644">
        <ele>212</ele>
        <time>2017-06-14T09:13:46Z</time>
      </trkpt>
      <trkpt lat="45.97255" lon="4.79635">
        <ele>213</ele>
        <time>2017-06-14T09:13:47Z</time>
      </trkpt>
      <trkpt lat="45.97255" lon="4.79626">
        <ele>213</ele>
        <time>2017-06-14T09:13:48Z</time>
      </trkpt>
      <trkpt lat="45.97255" lon="4.79616">
        <ele>213</ele>
        <time>2017-06-14T09:13:49Z</time>
      </trkpt>
      <trkpt lat="45.97255" lon="4.79607">
        <ele>213</ele>
        <time>2017-06-14T09:13:50Z</time>
      </trkpt>
      <trkpt lat="45.97255" lon="4.79599">
        <ele>212</ele>
        <time>2017-06-14T09:13:51Z</time>
      </trkpt>
      <trkpt lat="45.97255" lon="4.7959">
        <ele>211</ele>
        <time>2017-06-14T09:13:52Z</time>
      </trkpt>
      <trkpt lat="45.97255" lon="4.79582">
        <ele>211</ele>
        <time>2017-06-14T09:13:53Z</time>
      </trkpt>
      <trkpt lat="45.97255" lon="4.79575">
        <ele>212</ele>
        <time>2017-06-14T09:13:54Z</time>
      </trkpt>
      <trkpt lat="45.97255" lon="4.79568">
        <ele>213</ele>
        <time>2017-06-14T09:13:55Z</time>
      </trkpt>
      <trkpt lat="45.97254" lon="4.79562">
        <ele>213</ele>
        <time>2017-06-14T09:13:56Z</time>
      </trkpt>
      <trkpt lat="45.97254" lon="4.79555">
        <ele>214</ele>
        <time>2017-06-14T09:13:57Z</time>
      </trkpt>
      <trkpt lat="45.97253" lon="4.79548">
        <ele>214</ele>
        <time>2017-06-14T09:13:58Z</time>
      </trkpt>
      <trkpt lat="45.97253" lon="4.79541">
        <ele>214</ele>
        <time>2017-06-14T09:13:59Z</time>
      </trkpt>
      <trkpt lat="45.97252" lon="4.79534">
        <ele>214</ele>
        <time>2017-06-14T09:14:00Z</time>
      </trkpt>
      <trkpt lat="45.97251" lon="4.79526">
        <ele>214</ele>
        <time>2017-06-14T09:14:01Z</time>
      </trkpt>
      <trkpt lat="45.9725" lon="4.79519">
        <ele>210</ele>
        <time>2017-06-14T09:14:02Z</time>
      </trkpt>
      <trkpt lat="45.97249" lon="4.79511">
        <ele>210</ele>
        <time>2017-06-14T09:14:03Z</time>
      </trkpt>
      <trkpt lat="45.97248" lon="4.79504">
        <ele>211</ele>
        <time>2017-06-14T09:14:04Z</time>
      </trkpt>
      <trkpt lat="45.97247" lon="4.79496">
        <ele>211</ele>
        <time>2017-06-14T09:14:05Z</time>
      </trkpt>
      <trkpt lat="45.97246" lon="4.79489">
        <ele>210</ele>
        <time>2017-06-14T09:14:06Z</time>
      </trkpt>
      <trkpt lat="45.97244" lon="4.79482">
        <ele>210</ele>
        <time>2017-06-14T09:14:07Z</time>
      </trkpt>
      <trkpt lat="45.97243" lon="4.79474">
        <ele>209</ele>
        <time>2017-06-14T09:14:08Z</time>
      </trkpt>
      <trkpt lat="45.9724" lon="4.79468">
        <ele>209</ele>
        <time>2017-06-14T09:14:09Z</time>
      </trkpt>
      <trkpt lat="45.97238" lon="4.79461">
        <ele>209</ele>
        <time>2017-06-14T09:14:10Z</time>
      </trkpt>
      <trkpt lat="45.97235" lon="4.79454">
        <ele>209</ele>
        <time>2017-06-14T09:14:11Z</time>
      </trkpt>
      <trkpt lat="45.97233" lon="4.79447">
        <ele>209</ele>
        <time>2017-06-14T09:14:12Z</time>
      </trkpt>
      <trkpt lat="45.9723" lon="4.7944">
        <ele>209</ele>
        <time>2017-06-14T09:14:13Z</time>
      </trkpt>
      <trkpt lat="45.97227" lon="4.79433">
        <ele>209</ele>
        <time>2017-06-14T09:14:14Z</time>
      </trkpt>
      <trkpt lat="45.97224" lon="4.79426">
        <ele>209</ele>
        <time>2017-06-14T09:14:15Z</time>
      </trkpt>
      <trkpt lat="45.9722" lon="4.79419">
        <ele>208</ele>
        <time>2017-06-14T09:14:16Z</time>
      </trkpt>
      <trkpt lat="45.97217" lon="4.79412">
        <ele>208</ele>
        <time>2017-06-14T09:14:17Z</time>
      </trkpt>
      <trkpt lat="45.97214" lon="4.79405">
        <ele>208</ele>
        <time>2017-06-14T09:14:18Z</time>
      </trkpt>
      <trkpt lat="45.97211" lon="4.79398">
        <ele>208</ele>
        <time>2017-06-14T09:14:19Z</time>
      </trkpt>
      <trkpt lat="45.97208" lon="4.79391">
        <ele>208</ele>
        <time>2017-06-14T09:14:20Z</time>
      </trkpt>
      <trkpt lat="45.97205" lon="4.79383">
        <ele>208</ele>
        <time>2017-06-14T09:14:21Z</time>
      </trkpt>
      <trkpt lat="45.97201" lon="4.79376">
        <ele>208</ele>
        <time>2017-06-14T09:14:22Z</time>
      </trkpt>
      <trkpt lat="45.97198" lon="4.79369">
        <ele>207</ele>
        <time>2017-06-14T09:14:23Z</time>
      </trkpt>
      <trkpt lat="45.97195" lon="4.79361">
        <ele>207</ele>
        <time>2017-06-14T09:14:24Z</time>
      </trkpt>
      <trkpt lat="45.97193" lon="4.79354">
        <ele>207</ele>
        <time>2017-06-14T09:14:25Z</time>
      </trkpt>
      <trkpt lat="45.97191" lon="4.79347">
        <ele>207</ele>
        <time>2017-06-14T09:14:26Z</time>
      </trkpt>
      <trkpt lat="45.97188" lon="4.7934">
        <ele>207</ele>
        <time>2017-06-14T09:14:27Z</time>
      </trkpt>
      <trkpt lat="45.97185" lon="4.79333">
        <ele>207</ele>
        <time>2017-06-14T09:14:28Z</time>
      </trkpt>
      <trkpt lat="45.97182" lon="4.79326">
        <ele>207</ele>
        <time>2017-06-14T09:14:29Z</time>
      </trkpt>
      <trkpt lat="45.97178" lon="4.79319">
        <ele>207</ele>
        <time>2017-06-14T09:14:30Z</time>
      </trkpt>
      <trkpt lat="45.97175" lon="4.79311">
        <ele>207</ele>
        <time>2017-06-14T09:14:31Z</time>
      </trkpt>
      <trkpt lat="45.97172" lon="4.79302">
        <ele>207</ele>
        <time>2017-06-14T09:14:32Z</time>
      </trkpt>
      <trkpt lat="45.97168" lon="4.79293">
        <ele>207</ele>
        <time>2017-06-14T09:14:33Z</time>
      </trkpt>
      <trkpt lat="45.97165" lon="4.79284">
        <ele>204</ele>
        <time>2017-06-14T09:14:34Z</time>
      </trkpt>
      <trkpt lat="45.97162" lon="4.79276">
        <ele>204</ele>
        <time>2017-06-14T09:14:35Z</time>
      </trkpt>
      <trkpt lat="45.97158" lon="4.79267">
        <ele>204</ele>
        <time>2017-06-14T09:14:36Z</time>
      </trkpt>
      <trkpt lat="45.97155" lon="4.79259">
        <ele>205</ele>
        <time>2017-06-14T09:14:37Z</time>
      </trkpt>
      <trkpt lat="45.97152" lon="4.7925">
        <ele>205</ele>
        <time>2017-06-14T09:14:38Z</time>
      </trkpt>
      <trkpt lat="45.97149" lon="4.79242">
        <ele>205</ele>
        <time>2017-06-14T09:14:39Z</time>
      </trkpt>
      <trkpt lat="45.97146" lon="4.79234">
        <ele>205</ele>
        <time>2017-06-14T09:14:40Z</time>
      </trkpt>
      <trkpt lat="45.97142" lon="4.79226">
        <ele>205</ele>
        <time>2017-06-14T09:14:41Z</time>
      </trkpt>
      <trkpt lat="45.97139" lon="4.79219">
        <ele>206</ele>
        <time>2017-06-14T09:14:42Z</time>
      </trkpt>
      <trkpt lat="45.97136" lon="4.79211">
        <ele>206</ele>
        <time>2017-06-14T09:14:43Z</time>
      </trkpt>
      <trkpt lat="45.97133" lon="4.79204">
        <ele>206</ele>
        <time>2017-06-14T09:14:44Z</time>
      </trkpt>
      <trkpt lat="45.9713" lon="4.79196">
        <ele>206</ele>
        <time>2017-06-14T09:14:45Z</time>
      </trkpt>
      <trkpt lat="45.97128" lon="4.79188">
        <ele>206</ele>
        <time>2017-06-14T09:14:46Z</time>
      </trkpt>
      <trkpt lat="45.97124" lon="4.7918">
        <ele>206</ele>
        <time>2017-06-14T09:14:47Z</time>
      </trkpt>
      <trkpt lat="45.97121" lon="4.79173">
        <ele>206</ele>
        <time>2017-06-14T09:14:48Z</time>
      </trkpt>
      <trkpt lat="45.97118" lon="4.79166">
        <ele>207</ele>
        <time>2017-06-14T09:14:49Z</time>
      </trkpt>
      <trkpt lat="45.97115" lon="4.7916">
        <ele>207</ele>
        <time>2017-06-14T09:14:50Z</time>
      </trkpt>
      <trkpt lat="45.97111" lon="4.79154">
        <ele>206</ele>
        <time>2017-06-14T09:14:51Z</time>
      </trkpt>
      <trkpt lat="45.97108" lon="4.79147">
        <ele>206</ele>
        <time>2017-06-14T09:14:52Z</time>
      </trkpt>
      <trkpt lat="45.97104" lon="4.79141">
        <ele>206</ele>
        <time>2017-06-14T09:14:53Z</time>
      </trkpt>
      <trkpt lat="45.97101" lon="4.79136">
        <ele>206</ele>
        <time>2017-06-14T09:14:54Z</time>
      </trkpt>
      <trkpt lat="45.97098" lon="4.7913">
        <ele>206</ele>
        <time>2017-06-14T09:14:55Z</time>
      </trkpt>
      <trkpt lat="45.97095" lon="4.79124">
        <ele>206</ele>
        <time>2017-06-14T09:14:56Z</time>
      </trkpt>
      <trkpt lat="45.97092" lon="4.79118">
        <ele>206</ele>
        <time>2017-06-14T09:14:57Z</time>
      </trkpt>
      <trkpt lat="45.9709" lon="4.79112">
        <ele>206</ele>
        <time>2017-06-14T09:14:58Z</time>
      </trkpt>
      <trkpt lat="45.97087" lon="4.79104">
        <ele>206</ele>
        <time>2017-06-14T09:14:59Z</time>
      </trkpt>
      <trkpt lat="45.97085" lon="4.79096">
        <ele>205</ele>
        <time>2017-06-14T09:15:00Z</time>
      </trkpt>
      <trkpt lat="45.97083" lon="4.79087">
        <ele>204</ele>
        <time>2017-06-14T09:15:01Z</time>
      </trkpt>
      <trkpt lat="45.97081" lon="4.79079">
        <ele>204</ele>
        <time>2017-06-14T09:15:02Z</time>
      </trkpt>
      <trkpt lat="45.97079" lon="4.79071">
        <ele>204</ele>
        <time>2017-06-14T09:15:03Z</time>
      </trkpt>
      <trkpt lat="45.97077" lon="4.79063">
        <ele>204</ele>
        <time>2017-06-14T09:15:04Z</time>
      </trkpt>
      <trkpt lat="45.97075" lon="4.79056">
        <ele>203</ele>
        <time>2017-06-14T09:15:05Z</time>
      </trkpt>
      <trkpt lat="45.97074" lon="4.79049">
        <ele>203</ele>
        <time>2017-06-14T09:15:06Z</time>
      </trkpt>
      <trkpt lat="45.97072" lon="4.79042">
        <ele>203</ele>
        <time>2017-06-14T09:15:07Z</time>
      </trkpt>
      <trkpt lat="45.9707" lon="4.79034">
        <ele>204</ele>
        <time>2017-06-14T09:15:08Z</time>
      </trkpt>
      <trkpt lat="45.97068" lon="4.79027">
        <ele>204</ele>
        <time>2017-06-14T09:15:09Z</time>
      </trkpt>
      <trkpt lat="45.97066" lon="4.7902">
        <ele>204</ele>
        <time>2017-06-14T09:15:10Z</time>
      </trkpt>
      <trkpt lat="45.97064" lon="4.79013">
        <ele>204</ele>
        <time>2017-06-14T09:15:11Z</time>
      </trkpt>
      <trkpt lat="45.97062" lon="4.79006">
        <ele>204</ele>
        <time>2017-06-14T09:15:12Z</time>
      </trkpt>
      <trkpt lat="45.97061" lon="4.79">
        <ele>205</ele>
        <time>2017-06-14T09:15:13Z</time>
      </trkpt>
      <trkpt lat="45.97059" lon="4.78993">
        <ele>205</ele>
        <time>2017-06-14T09:15:14Z</time>
      </trkpt>
      <trkpt lat="45.97057" lon="4.78987">
        <ele>205</ele>
        <time>2017-06-14T09:15:15Z</time>
      </trkpt>
      <trkpt lat="45.97055" lon="4.78981">
        <ele>205</ele>
        <time>2017-06-14T09:15:16Z</time>
      </trkpt>
      <trkpt lat="45.97052" lon="4.78975">
        <ele>205</ele>
        <time>2017-06-14T09:15:17Z</time>
      </trkpt>
      <trkpt lat="45.97048" lon="4.78968">
        <ele>205</ele>
        <time>2017-06-14T09:15:18Z</time>
      </trkpt>
      <trkpt lat="45.97045" lon="4.78961">
        <ele>205</ele>
        <time>2017-06-14T09:15:19Z</time>
      </trkpt>
      <trkpt lat="45.97041" lon="4.78955">
        <ele>205</ele>
        <time>2017-06-14T09:15:20Z</time>
      </trkpt>
      <trkpt lat="45.97037" lon="4.78948">
        <ele>205</ele>
        <time>2017-06-14T09:15:21Z</time>
      </trkpt>
      <trkpt lat="45.97033" lon="4.78942">
        <ele>205</ele>
        <time>2017-06-14T09:15:22Z</time>
      </trkpt>
      <trkpt lat="45.97029" lon="4.78936">
        <ele>205</ele>
        <time>2017-06-14T09:15:23Z</time>
      </trkpt>
      <trkpt lat="45.97024" lon="4.7893">
        <ele>205</ele>
        <time>2017-06-14T09:15:24Z</time>
      </trkpt>
      <trkpt lat="45.9702" lon="4.78923">
        <ele>205</ele>
        <time>2017-06-14T09:15:25Z</time>
      </trkpt>
      <trkpt lat="45.97015" lon="4.78917">
        <ele>205</ele>
        <time>2017-06-14T09:15:26Z</time>
      </trkpt>
      <trkpt lat="45.97011" lon="4.78911">
        <ele>206</ele>
        <time>2017-06-14T09:15:27Z</time>
      </trkpt>
      <trkpt lat="45.97006" lon="4.78904">
        <ele>206</ele>
        <time>2017-06-14T09:15:28Z</time>
      </trkpt>
      <trkpt lat="45.97001" lon="4.78898">
        <ele>206</ele>
        <time>2017-06-14T09:15:29Z</time>
      </trkpt>
      <trkpt lat="45.96996" lon="4.78892">
        <ele>203</ele>
        <time>2017-06-14T09:15:30Z</time>
      </trkpt>
      <trkpt lat="45.96992" lon="4.78886">
        <ele>203</ele>
        <time>2017-06-14T09:15:31Z</time>
      </trkpt>
      <trkpt lat="45.96986" lon="4.7888">
        <ele>203</ele>
        <time>2017-06-14T09:15:32Z</time>
      </trkpt>
      <trkpt lat="45.96981" lon="4.78874">
        <ele>203</ele>
        <time>2017-06-14T09:15:33Z</time>
      </trkpt>
      <trkpt lat="45.96976" lon="4.78868">
        <ele>203</ele>
        <time>2017-06-14T09:15:34Z</time>
      </trkpt>
      <trkpt lat="45.96971" lon="4.78862">
        <ele>203</ele>
        <time>2017-06-14T09:15:35Z</time>
      </trkpt>
      <trkpt lat="45.96966" lon="4.78856">
        <ele>203</ele>
        <time>2017-06-14T09:15:36Z</time>
      </trkpt>
      <trkpt lat="45.96961" lon="4.78851">
        <ele>203</ele>
        <time>2017-06-14T09:15:37Z</time>
      </trkpt>
      <trkpt lat="45.96956" lon="4.78845">
        <ele>203</ele>
        <time>2017-06-14T09:15:38Z</time>
      </trkpt>
      <trkpt lat="45.96951" lon="4.78839">
        <ele>202</ele>
        <time>2017-06-14T09:15:39Z</time>
      </trkpt>
      <trkpt lat="45.96947" lon="4.78833">
        <ele>203</ele>
        <time>2017-06-14T09:15:40Z</time>
      </trkpt>
      <trkpt lat="45.96942" lon="4.78827">
        <ele>203</ele>
        <time>2017-06-14T09:15:41Z</time>
      </trkpt>
      <trkpt lat="45.96938" lon="4.7882">
        <ele>203</ele>
        <time>2017-06-14T09:15:42Z</time>
      </trkpt>
      <trkpt lat="45.96933" lon="4.78813">
        <ele>203</ele>
        <time>2017-06-14T09:15:43Z</time>
      </trkpt>
      <trkpt lat="45.96929" lon="4.78805">
        <ele>203</ele>
        <time>2017-06-14T09:15:44Z</time>
      </trkpt>
      <trkpt lat="45.96924" lon="4.78797">
        <ele>203</ele>
        <time>2017-06-14T09:15:45Z</time>
      </trkpt>
      <trkpt lat="45.9692" lon="4.78789">
        <ele>203</ele>
        <time>2017-06-14T09:15:46Z</time>
      </trkpt>
      <trkpt lat="45.96916" lon="4.78781">
        <ele>201</ele>
        <time>2017-06-14T09:15:47Z</time>
      </trkpt>
      <trkpt lat="45.96911" lon="4.78772">
        <ele>201</ele>
        <time>2017-06-14T09:15:48Z</time>
      </trkpt>
      <trkpt lat="45.96908" lon="4.78764">
        <ele>202</ele>
        <time>2017-06-14T09:15:49Z</time>
      </trkpt>
      <trkpt lat="45.96904" lon="4.78756">
        <ele>202</ele>
        <time>2017-06-14T09:15:50Z</time>
      </trkpt>
      <trkpt lat="45.969" lon="4.78748">
        <ele>202</ele>
        <time>2017-06-14T09:15:51Z</time>
      </trkpt>
      <trkpt lat="45.96897" lon="4.7874">
        <ele>202</ele>
        <time>2017-06-14T09:15:52Z</time>
      </trkpt>
      <trkpt lat="45.96893" lon="4.78732">
        <ele>202</ele>
        <time>2017-06-14T09:15:53Z</time>
      </trkpt>
      <trkpt lat="45.96889" lon="4.78725">
        <ele>202</ele>
        <time>2017-06-14T09:15:54Z</time>
      </trkpt>
      <trkpt lat="45.96886" lon="4.78717">
        <ele>202</ele>
        <time>2017-06-14T09:15:55Z</time>
      </trkpt>
      <trkpt lat="45.96882" lon="4.7871">
        <ele>202</ele>
        <time>2017-06-14T09:15:56Z</time>
      </trkpt>
      <trkpt lat="45.96879" lon="4.78703">
        <ele>202</ele>
        <time>2017-06-14T09:15:57Z</time>
      </trkpt>
      <trkpt lat="45.96875" lon="4.78696">
        <ele>202</ele>
        <time>2017-06-14T09:15:58Z</time>
      </trkpt>
      <trkpt lat="45.96871" lon="4.78689">
        <ele>202</ele>
        <time>2017-06-14T09:15:59Z</time>
      </trkpt>
      <trkpt lat="45.96868" lon="4.78682">
        <ele>202</ele>
        <time>2017-06-14T09:16:00Z</time>
      </trkpt>
      <trkpt lat="45.96865" lon="4.78674">
        <ele>202</ele>
        <time>2017-06-14T09:16:01Z</time>
      </trkpt>
      <trkpt lat="45.96862" lon="4.78667">
        <ele>202</ele>
        <time>2017-06-14T09:16:02Z</time>
      </trkpt>
      <trkpt lat="45.96859" lon="4.7866">
        <ele>203</ele>
        <time>2017-06-14T09:16:03Z</time>
      </trkpt>
      <trkpt lat="45.96855" lon="4.78653">
        <ele>203</ele>
        <time>2017-06-14T09:16:04Z</time>
      </trkpt>
      <trkpt lat="45.96853" lon="4.78646">
        <ele>203</ele>
        <time>2017-06-14T09:16:05Z</time>
      </trkpt>
      <trkpt lat="45.96849" lon="4.78639">
        <ele>203</ele>
        <time>2017-06-14T09:16:06Z</time>
      </trkpt>
      <trkpt lat="45.96846" lon="4.78632">
        <ele>203</ele>
        <time>2017-06-14T09:16:07Z</time>
      </trkpt>
      <trkpt lat="45.96843" lon="4.78624">
        <ele>203</ele>
        <time>2017-06-14T09:16:08Z</time>
      </trkpt>
      <trkpt lat="45.9684" lon="4.78615">
        <ele>203</ele>
        <time>2017-06-14T09:16:09Z</time>
      </trkpt>
      <trkpt lat="45.96837" lon="4.78606">
        <ele>203</ele>
        <time>2017-06-14T09:16:10Z</time>
      </trkpt>
      <trkpt lat="45.96835" lon="4.78598">
        <ele>203</ele>
        <time>2017-06-14T09:16:11Z</time>
      </trkpt>
      <trkpt lat="45.96831" lon="4.7859">
        <ele>203</ele>
        <time>2017-06-14T09:16:12Z</time>
      </trkpt>
      <trkpt lat="45.96829" lon="4.78582">
        <ele>203</ele>
        <time>2017-06-14T09:16:13Z</time>
      </trkpt>
      <trkpt lat="45.96825" lon="4.78576">
        <ele>203</ele>
        <time>2017-06-14T09:16:14Z</time>
      </trkpt>
      <trkpt lat="45.96822" lon="4.78569">
        <ele>203</ele>
        <time>2017-06-14T09:16:15Z</time>
      </trkpt>
      <trkpt lat="45.96818" lon="4.78563">
        <ele>203</ele>
        <time>2017-06-14T09:16:16Z</time>
      </trkpt>
      <trkpt lat="45.96812" lon="4.78557">
        <ele>203</ele>
        <time>2017-06-14T09:16:17Z</time>
      </trkpt>
      <trkpt lat="45.96808" lon="4.7855">
        <ele>203</ele>
        <time>2017-06-14T09:16:18Z</time>
      </trkpt>
      <trkpt lat="45.96803" lon="4.78543">
        <ele>203</ele>
        <time>2017-06-14T09:16:19Z</time>
      </trkpt>
      <trkpt lat="45.96799" lon="4.78535">
        <ele>203</ele>
        <time>2017-06-14T09:16:20Z</time>
      </trkpt>
      <trkpt lat="45.96795" lon="4.78527">
        <ele>203</ele>
        <time>2017-06-14T09:16:21Z</time>
      </trkpt>
      <trkpt lat="45.9679" lon="4.7852">
        <ele>203</ele>
        <time>2017-06-14T09:16:22Z</time>
      </trkpt>
      <trkpt lat="45.96786" lon="4.78513">
        <ele>203</ele>
        <time>2017-06-14T09:16:23Z</time>
      </trkpt>
      <trkpt lat="45.96781" lon="4.78507">
        <ele>203</ele>
        <time>2017-06-14T09:16:24Z</time>
      </trkpt>
      <trkpt lat="45.96777" lon="4.785">
        <ele>205</ele>
        <time>2017-06-14T09:16:25Z</time>
      </trkpt>
      <trkpt lat="45.96772" lon="4.78493">
        <ele>205</ele>
        <time>2017-06-14T09:16:26Z</time>
      </trkpt>
      <trkpt lat="45.96767" lon="4.78487">
        <ele>205</ele>
        <time>2017-06-14T09:16:27Z</time>
      </trkpt>
      <trkpt lat="45.96762" lon="4.78482">
        <ele>205</ele>
        <time>2017-06-14T09:16:28Z</time>
      </trkpt>
      <trkpt lat="45.96758" lon="4.78476">
        <ele>205</ele>
        <time>2017-06-14T09:16:29Z</time>
      </trkpt>
      <trkpt lat="45.96754" lon="4.78471">
        <ele>205</ele>
        <time>2017-06-14T09:16:30Z</time>
      </trkpt>
      <trkpt lat="45.96749" lon="4.78466">
        <ele>203</ele>
        <time>2017-06-14T09:16:31Z</time>
      </trkpt>
      <trkpt lat="45.96744" lon="4.78462">
        <ele>203</ele>
        <time>2017-06-14T09:16:32Z</time>
      </trkpt>
      <trkpt lat="45.96738" lon="4.78457">
        <ele>203</ele>
        <time>2017-06-14T09:16:33Z</time>
      </trkpt>
      <trkpt lat="45.96733" lon="4.78453">
        <ele>203</ele>
        <time>2017-06-14T09:16:34Z</time>
      </trkpt>
      <trkpt lat="45.96728" lon="4.78448">
        <ele>203</ele>
        <time>2017-06-14T09:16:35Z</time>
      </trkpt>
      <trkpt lat="45.96722" lon="4.78443">
        <ele>203</ele>
        <time>2017-06-14T09:16:36Z</time>
      </trkpt>
      <trkpt lat="45.96716" lon="4.78438">
        <ele>203</ele>
        <time>2017-06-14T09:16:37Z</time>
      </trkpt>
      <trkpt lat="45.96711" lon="4.78431">
        <ele>203</ele>
        <time>2017-06-14T09:16:38Z</time>
      </trkpt>
      <trkpt lat="45.96706" lon="4.78426">
        <ele>203</ele>
        <time>2017-06-14T09:16:39Z</time>
      </trkpt>
      <trkpt lat="45.96701" lon="4.78421">
        <ele>203</ele>
        <time>2017-06-14T09:16:40Z</time>
      </trkpt>
      <trkpt lat="45.96696" lon="4.78417">
        <ele>203</ele>
        <time>2017-06-14T09:16:41Z</time>
      </trkpt>
      <trkpt lat="45.9669" lon="4.78413">
        <ele>204</ele>
        <time>2017-06-14T09:16:42Z</time>
      </trkpt>
      <trkpt lat="45.96685" lon="4.78409">
        <ele>204</ele>
        <time>2017-06-14T09:16:43Z</time>
      </trkpt>
      <trkpt lat="45.9668" lon="4.78404">
        <ele>204</ele>
        <time>2017-06-14T09:16:44Z</time>
      </trkpt>
      <trkpt lat="45.96674" lon="4.78399">
        <ele>204</ele>
        <time>2017-06-14T09:16:45Z</time>
      </trkpt>
      <trkpt lat="45.96669" lon="4.78394">
        <ele>204</ele>
        <time>2017-06-14T09:16:46Z</time>
      </trkpt>
      <trkpt lat="45.96664" lon="4.78389">
        <ele>201</ele>
        <time>2017-06-14T09:16:47Z</time>
      </trkpt>
      <trkpt lat="45.96659" lon="4.78384">
        <ele>201</ele>
        <time>2017-06-14T09:16:48Z</time>
      </trkpt>
      <trkpt lat="45.96654" lon="4.78379">
        <ele>201</ele>
        <time>2017-06-14T09:16:49Z</time>
      </trkpt>
      <trkpt lat="45.96649" lon="4.78374">
        <ele>202</ele>
        <time>2017-06-14T09:16:50Z</time>
      </trkpt>
      <trkpt lat="45.96644" lon="4.78369">
        <ele>202</ele>
        <time>2017-06-14T09:16:51Z</time>
      </trkpt>
      <trkpt lat="45.96639" lon="4.78364">
        <ele>202</ele>
        <time>2017-06-14T09:16:52Z</time>
      </trkpt>
      <trkpt lat="45.96634" lon="4.78359">
        <ele>201</ele>
        <time>2017-06-14T09:16:53Z</time>
      </trkpt>
      <trkpt lat="45.96628" lon="4.78353">
        <ele>201</ele>
        <time>2017-06-14T09:16:54Z</time>
      </trkpt>
      <trkpt lat="45.96623" lon="4.78348">
        <ele>201</ele>
        <time>2017-06-14T09:16:55Z</time>
      </trkpt>
      <trkpt lat="45.96617" lon="4.78342">
        <ele>201</ele>
        <time>2017-06-14T09:16:56Z</time>
      </trkpt>
      <trkpt lat="45.96611" lon="4.78337">
        <ele>200</ele>
        <time>2017-06-14T09:16:57Z</time>
      </trkpt>
      <trkpt lat="45.96606" lon="4.78331">
        <ele>203</ele>
        <time>2017-06-14T09:16:58Z</time>
      </trkpt>
      <trkpt lat="45.966" lon="4.78326">
        <ele>203</ele>
        <time>2017-06-14T09:16:59Z</time>
      </trkpt>
      <trkpt lat="45.96595" lon="4.7832">
        <ele>202</ele>
        <time>2017-06-14T09:17:00Z</time>
      </trkpt>
      <trkpt lat="45.96589" lon="4.78315">
        <ele>203</ele>
        <time>2017-06-14T09:17:01Z</time>
      </trkpt>
      <trkpt lat="45.96583" lon="4.7831">
        <ele>199</ele>
        <time>2017-06-14T09:17:02Z</time>
      </trkpt>
      <trkpt lat="45.96578" lon="4.78305">
        <ele>200</ele>
        <time>2017-06-14T09:17:03Z</time>
      </trkpt>
      <trkpt lat="45.96573" lon="4.78299">
        <ele>200</ele>
        <time>2017-06-14T09:17:04Z</time>
      </trkpt>
      <trkpt lat="45.96569" lon="4.78294">
        <ele>200</ele>
        <time>2017-06-14T09:17:05Z</time>
      </trkpt>
      <trkpt lat="45.96564" lon="4.78288">
        <ele>200</ele>
        <time>2017-06-14T09:17:06Z</time>
      </trkpt>
      <trkpt lat="45.9656" lon="4.78283">
        <ele>200</ele>
        <time>2017-06-14T09:17:07Z</time>
      </trkpt>
      <trkpt lat="45.96555" lon="4.78277">
        <ele>201</ele>
        <time>2017-06-14T09:17:08Z</time>
      </trkpt>
      <trkpt lat="45.96551" lon="4.78271">
        <ele>201</ele>
        <time>2017-06-14T09:17:09Z</time>
      </trkpt>
      <trkpt lat="45.96547" lon="4.78265">
        <ele>201</ele>
        <time>2017-06-14T09:17:10Z</time>
      </trkpt>
      <trkpt lat="45.96543" lon="4.78259">
        <ele>200</ele>
        <time>2017-06-14T09:17:11Z</time>
      </trkpt>
      <trkpt lat="45.96539" lon="4.78253">
        <ele>200</ele>
        <time>2017-06-14T09:17:12Z</time>
      </trkpt>
      <trkpt lat="45.96536" lon="4.78247">
        <ele>204</ele>
        <time>2017-06-14T09:17:13Z</time>
      </trkpt>
      <trkpt lat="45.96531" lon="4.7824">
        <ele>204</ele>
        <time>2017-06-14T09:17:14Z</time>
      </trkpt>
      <trkpt lat="45.96528" lon="4.78232">
        <ele>205</ele>
        <time>2017-06-14T09:17:15Z</time>
      </trkpt>
      <trkpt lat="45.96524" lon="4.78225">
        <ele>205</ele>
        <time>2017-06-14T09:17:16Z</time>
      </trkpt>
      <trkpt lat="45.96521" lon="4.78218">
        <ele>205</ele>
        <time>2017-06-14T09:17:17Z</time>
      </trkpt>
      <trkpt lat="45.96515" lon="4.78213">
        <ele>205</ele>
        <time>2017-06-14T09:17:18Z</time>
      </trkpt>
      <trkpt lat="45.9651" lon="4.78206">
        <ele>205</ele>
        <time>2017-06-14T09:17:19Z</time>
      </trkpt>
      <trkpt lat="45.96506" lon="4.78201">
        <ele>206</ele>
        <time>2017-06-14T09:17:20Z</time>
      </trkpt>
      <trkpt lat="45.96499" lon="4.78197">
        <ele>201</ele>
        <time>2017-06-14T09:17:21Z</time>
      </trkpt>
      <trkpt lat="45.96494" lon="4.78194">
        <ele>201</ele>
        <time>2017-06-14T09:17:22Z</time>
      </trkpt>
      <trkpt lat="45.96486" lon="4.78191">
        <ele>201</ele>
        <time>2017-06-14T09:17:23Z</time>
      </trkpt>
      <trkpt lat="45.9648" lon="4.78188">
        <ele>201</ele>
        <time>2017-06-14T09:17:24Z</time>
      </trkpt>
      <trkpt lat="45.96475" lon="4.78184">
        <ele>201</ele>
        <time>2017-06-14T09:17:25Z</time>
      </trkpt>
      <trkpt lat="45.9647" lon="4.7818">
        <ele>200</ele>
        <time>2017-06-14T09:17:26Z</time>
      </trkpt>
      <trkpt lat="45.96464" lon="4.78174">
        <ele>200</ele>
        <time>2017-06-14T09:17:27Z</time>
      </trkpt>
      <trkpt lat="45.96459" lon="4.78169">
        <ele>200</ele>
        <time>2017-06-14T09:17:28Z</time>
      </trkpt>
      <trkpt lat="45.96454" lon="4.78165">
        <ele>204</ele>
        <time>2017-06-14T09:17:29Z</time>
      </trkpt>
      <trkpt lat="45.96448" lon="4.7816">
        <ele>203</ele>
        <time>2017-06-14T09:17:30Z</time>
      </trkpt>
      <trkpt lat="45.96443" lon="4.78154">
        <ele>203</ele>
        <time>2017-06-14T09:17:31Z</time>
      </trkpt>
      <trkpt lat="45.96437" lon="4.78148">
        <ele>203</ele>
        <time>2017-06-14T09:17:32Z</time>
      </trkpt>
      <trkpt lat="45.96432" lon="4.78143">
        <ele>203</ele>
        <time>2017-06-14T09:17:33Z</time>
      </trkpt>
      <trkpt lat="45.96427" lon="4.78137">
        <ele>203</ele>
        <time>2017-06-14T09:17:34Z</time>
      </trkpt>
      <trkpt lat="45.96421" lon="4.78132">
        <ele>204</ele>
        <time>2017-06-14T09:17:35Z</time>
      </trkpt>
      <trkpt lat="45.96416" lon="4.78128">
        <ele>200</ele>
        <time>2017-06-14T09:17:36Z</time>
      </trkpt>
      <trkpt lat="45.9641" lon="4.78123">
        <ele>200</ele>
        <time>2017-06-14T09:17:37Z</time>
      </trkpt>
      <trkpt lat="45.96405" lon="4.78119">
        <ele>200</ele>
        <time>2017-06-14T09:17:38Z</time>
      </trkpt>
      <trkpt lat="45.964" lon="4.78114">
        <ele>200</ele>
        <time>2017-06-14T09:17:39Z</time>
      </trkpt>
      <trkpt lat="45.96395" lon="4.78108">
        <ele>200</ele>
        <time>2017-06-14T09:17:40Z</time>
      </trkpt>
      <trkpt lat="45.96389" lon="4.78103">
        <ele>200</ele>
        <time>2017-06-14T09:17:41Z</time>
      </trkpt>
      <trkpt lat="45.96384" lon="4.78098">
        <ele>200</ele>
        <time>2017-06-14T09:17:42Z</time>
      </trkpt>
      <trkpt lat="45.96379" lon="4.78092">
        <ele>200</ele>
        <time>2017-06-14T09:17:43Z</time>
      </trkpt>
      <trkpt lat="45.96373" lon="4.78086">
        <ele>200</ele>
        <time>2017-06-14T09:17:44Z</time>
      </trkpt>
      <trkpt lat="45.96368" lon="4.7808">
        <ele>202</ele>
        <time>2017-06-14T09:17:45Z</time>
      </trkpt>
      <trkpt lat="45.96362" lon="4.78073">
        <ele>202</ele>
        <time>2017-06-14T09:17:46Z</time>
      </trkpt>
      <trkpt lat="45.96356" lon="4.78067">
        <ele>202</ele>
        <time>2017-06-14T09:17:47Z</time>
      </trkpt>
      <trkpt lat="45.9635" lon="4.7806">
        <ele>202</ele>
        <time>2017-06-14T09:17:48Z</time>
      </trkpt>
      <trkpt lat="45.96345" lon="4.78054">
        <ele>202</ele>
        <time>2017-06-14T09:17:49Z</time>
      </trkpt>
      <trkpt lat="45.96339" lon="4.78048">
        <ele>203</ele>
        <time>2017-06-14T09:17:50Z</time>
      </trkpt>
      <trkpt lat="45.96333" lon="4.78041">
        <ele>200</ele>
        <time>2017-06-14T09:17:51Z</time>
      </trkpt>
      <trkpt lat="45.96328" lon="4.78035">
        <ele>200</ele>
        <time>2017-06-14T09:17:52Z</time>
      </trkpt>
      <trkpt lat="45.96322" lon="4.78028">
        <ele>200</ele>
        <time>2017-06-14T09:17:53Z</time>
      </trkpt>
      <trkpt lat="45.96316" lon="4.78022">
        <ele>200</ele>
        <time>2017-06-14T09:17:54Z</time>
      </trkpt>
      <trkpt lat="45.96311" lon="4.78016">
        <ele>200</ele>
        <time>2017-06-14T09:17:55Z</time>
      </trkpt>
      <trkpt lat="45.96305" lon="4.78011">
        <ele>200</ele>
        <time>2017-06-14T09:17:56Z</time>
      </trkpt>
      <trkpt lat="45.96299" lon="4.78006">
        <ele>200</ele>
        <time>2017-06-14T09:17:57Z</time>
      </trkpt>
      <trkpt lat="45.96295" lon="4.78001">
        <ele>199</ele>
        <time>2017-06-14T09:17:58Z</time>
      </trkpt>
      <trkpt lat="45.9629" lon="4.77997">
        <ele>204</ele>
        <time>2017-06-14T09:17:59Z</time>
      </trkpt>
      <trkpt lat="45.96285" lon="4.77993">
        <ele>204</ele>
        <time>2017-06-14T09:18:00Z</time>
      </trkpt>
      <trkpt lat="45.9628" lon="4.77989">
        <ele>203</ele>
        <time>2017-06-14T09:18:01Z</time>
      </trkpt>
      <trkpt lat="45.96275" lon="4.77985">
        <ele>203</ele>
        <time>2017-06-14T09:18:02Z</time>
      </trkpt>
      <trkpt lat="45.9627" lon="4.77981">
        <ele>203</ele>
        <time>2017-06-14T09:18:03Z</time>
      </trkpt>
      <trkpt lat="45.96265" lon="4.77976">
        <ele>203</ele>
        <time>2017-06-14T09:18:04Z</time>
      </trkpt>
      <trkpt lat="45.9626" lon="4.7797">
        <ele>204</ele>
        <time>2017-06-14T09:18:05Z</time>
      </trkpt>
      <trkpt lat="45.96254" lon="4.77965">
        <ele>204</ele>
        <time>2017-06-14T09:18:06Z</time>
      </trkpt>
      <trkpt lat="45.96249" lon="4.77959">
        <ele>199</ele>
        <time>2017-06-14T09:18:07Z</time>
      </trkpt>
      <trkpt lat="45.96244" lon="4.77953">
        <ele>200</ele>
        <time>2017-06-14T09:18:08Z</time>
      </trkpt>
      <trkpt lat="45.96239" lon="4.77947">
        <ele>200</ele>
        <time>2017-06-14T09:18:09Z</time>
      </trkpt>
      <trkpt lat="45.96234" lon="4.7794">
        <ele>201</ele>
        <time>2017-06-14T09:18:10Z</time>
      </trkpt>
      <trkpt lat="45.96229" lon="4.77932">
        <ele>201</ele>
        <time>2017-06-14T09:18:11Z</time>
      </trkpt>
      <trkpt lat="45.96224" lon="4.77925">
        <ele>201</ele>
        <time>2017-06-14T09:18:12Z</time>
      </trkpt>
      <trkpt lat="45.9622" lon="4.77917">
        <ele>204</ele>
        <time>2017-06-14T09:18:13Z</time>
      </trkpt>
      <trkpt lat="45.96216" lon="4.77909">
        <ele>203</ele>
        <time>2017-06-14T09:18:14Z</time>
      </trkpt>
      <trkpt lat="45.96212" lon="4.77902">
        <ele>203</ele>
        <time>2017-06-14T09:18:15Z</time>
      </trkpt>
      <trkpt lat="45.96208" lon="4.77895">
        <ele>202</ele>
        <time>2017-06-14T09:18:16Z</time>
      </trkpt>
      <trkpt lat="45.96203" lon="4.77888">
        <ele>202</ele>
        <time>2017-06-14T09:18:17Z</time>
      </trkpt>
      <trkpt lat="45.96198" lon="4.77881">
        <ele>202</ele>
        <time>2017-06-14T09:18:18Z</time>
      </trkpt>
      <trkpt lat="45.96194" lon="4.77874">
        <ele>202</ele>
        <time>2017-06-14T09:18:19Z</time>
      </trkpt>
      <trkpt lat="45.96191" lon="4.77867">
        <ele>202</ele>
        <time>2017-06-14T09:18:20Z</time>
      </trkpt>
      <trkpt lat="45.96187" lon="4.7786">
        <ele>202</ele>
        <time>2017-06-14T09:18:21Z</time>
      </trkpt>
      <trkpt lat="45.96183" lon="4.77853">
        <ele>201</ele>
        <time>2017-06-14T09:18:22Z</time>
      </trkpt>
      <trkpt lat="45.96179" lon="4.77847">
        <ele>201</ele>
        <time>2017-06-14T09:18:23Z</time>
      </trkpt>
      <trkpt lat="45.96175" lon="4.77841">
        <ele>200</ele>
        <time>2017-06-14T09:18:24Z</time>
      </trkpt>
      <trkpt lat="45.96171" lon="4.77835">
        <ele>200</ele>
        <time>2017-06-14T09:18:25Z</time>
      </trkpt>
      <trkpt lat="45.96167" lon="4.77829">
        <ele>200</ele>
        <time>2017-06-14T09:18:26Z</time>
      </trkpt>
      <trkpt lat="45.96164" lon="4.77823">
        <ele>198</ele>
        <time>2017-06-14T09:18:27Z</time>
      </trkpt>
      <trkpt lat="45.9616" lon="4.77817">
        <ele>198</ele>
        <time>2017-06-14T09:18:28Z</time>
      </trkpt>
      <trkpt lat="45.96156" lon="4.7781">
        <ele>198</ele>
        <time>2017-06-14T09:18:29Z</time>
      </trkpt>
      <trkpt lat="45.96152" lon="4.77804">
        <ele>198</ele>
        <time>2017-06-14T09:18:30Z</time>
      </trkpt>
      <trkpt lat="45.96148" lon="4.77798">
        <ele>198</ele>
        <time>2017-06-14T09:18:31Z</time>
      </trkpt>
      <trkpt lat="45.96144" lon="4.77791">
        <ele>198</ele>
        <time>2017-06-14T09:18:32Z</time>
      </trkpt>
      <trkpt lat="45.9614" lon="4.77785">
        <ele>198</ele>
        <time>2017-06-14T09:18:33Z</time>
      </trkpt>
      <trkpt lat="45.96136" lon="4.77779">
        <ele>198</ele>
        <time>2017-06-14T09:18:34Z</time>
      </trkpt>
      <trkpt lat="45.96133" lon="4.77773">
        <ele>198</ele>
        <time>2017-06-14T09:18:35Z</time>
      </trkpt>
      <trkpt lat="45.96129" lon="4.77767">
        <ele>198</ele>
        <time>2017-06-14T09:18:36Z</time>
      </trkpt>
      <trkpt lat="45.96126" lon="4.77762">
        <ele>198</ele>
        <time>2017-06-14T09:18:37Z</time>
      </trkpt>
      <trkpt lat="45.96122" lon="4.77756">
        <ele>198</ele>
        <time>2017-06-14T09:18:38Z</time>
      </trkpt>
      <trkpt lat="45.96119" lon="4.7775">
        <ele>199</ele>
        <time>2017-06-14T09:18:39Z</time>
      </trkpt>
      <trkpt lat="45.96114" lon="4.77744">
        <ele>199</ele>
        <time>2017-06-14T09:18:40Z</time>
      </trkpt>
      <trkpt lat="45.9611" lon="4.77737">
        <ele>199</ele>
        <time>2017-06-14T09:18:41Z</time>
      </trkpt>
      <trkpt lat="45.96107" lon="4.77731">
        <ele>199</ele>
        <time>2017-06-14T09:18:42Z</time>
      </trkpt>
      <trkpt lat="45.96103" lon="4.77723">
        <ele>199</ele>
        <time>2017-06-14T09:18:43Z</time>
      </trkpt>
      <trkpt lat="45.96099" lon="4.77717">
        <ele>200</ele>
        <time>2017-06-14T09:18:44Z</time>
      </trkpt>
      <trkpt lat="45.96095" lon="4.7771">
        <ele>200</ele>
        <time>2017-06-14T09:18:45Z</time>
      </trkpt>
      <trkpt lat="45.96091" lon="4.77703">
        <ele>200</ele>
        <time>2017-06-14T09:18:46Z</time>
      </trkpt>
      <trkpt lat="45.96087" lon="4.77696">
        <ele>200</ele>
        <time>2017-06-14T09:18:47Z</time>
      </trkpt>
      <trkpt lat="45.96083" lon="4.7769">
        <ele>198</ele>
        <time>2017-06-14T09:18:48Z</time>
      </trkpt>
      <trkpt lat="45.96079" lon="4.77683">
        <ele>198</ele>
        <time>2017-06-14T09:18:49Z</time>
      </trkpt>
      <trkpt lat="45.96075" lon="4.77677">
        <ele>199</ele>
        <time>2017-06-14T09:18:50Z</time>
      </trkpt>
      <trkpt lat="45.9607" lon="4.77671">
        <ele>199</ele>
        <time>2017-06-14T09:18:51Z</time>
      </trkpt>
      <trkpt lat="45.96065" lon="4.77665">
        <ele>200</ele>
        <time>2017-06-14T09:18:52Z</time>
      </trkpt>
      <trkpt lat="45.96061" lon="4.77659">
        <ele>200</ele>
        <time>2017-06-14T09:18:53Z</time>
      </trkpt>
      <trkpt lat="45.96056" lon="4.77653">
        <ele>200</ele>
        <time>2017-06-14T09:18:54Z</time>
      </trkpt>
      <trkpt lat="45.96052" lon="4.77648">
        <ele>200</ele>
        <time>2017-06-14T09:18:55Z</time>
      </trkpt>
      <trkpt lat="45.96048" lon="4.77642">
        <ele>200</ele>
        <time>2017-06-14T09:18:56Z</time>
      </trkpt>
      <trkpt lat="45.96043" lon="4.77636">
        <ele>200</ele>
        <time>2017-06-14T09:18:57Z</time>
      </trkpt>
      <trkpt lat="45.96039" lon="4.77631">
        <ele>199</ele>
        <time>2017-06-14T09:18:58Z</time>
      </trkpt>
      <trkpt lat="45.96034" lon="4.77626">
        <ele>199</ele>
        <time>2017-06-14T09:18:59Z</time>
      </trkpt>
      <trkpt lat="45.96029" lon="4.77619">
        <ele>199</ele>
        <time>2017-06-14T09:19:00Z</time>
      </trkpt>
      <trkpt lat="45.96023" lon="4.77613">
        <ele>199</ele>
        <time>2017-06-14T09:19:01Z</time>
      </trkpt>
      <trkpt lat="45.96019" lon="4.77608">
        <ele>199</ele>
        <time>2017-06-14T09:19:02Z</time>
      </trkpt>
      <trkpt lat="45.96014" lon="4.77603">
        <ele>199</ele>
        <time>2017-06-14T09:19:03Z</time>
      </trkpt>
      <trkpt lat="45.9601" lon="4.77598">
        <ele>198</ele>
        <time>2017-06-14T09:19:04Z</time>
      </trkpt>
      <trkpt lat="45.96006" lon="4.77594">
        <ele>198</ele>
        <time>2017-06-14T09:19:05Z</time>
      </trkpt>
      <trkpt lat="45.96002" lon="4.7759">
        <ele>198</ele>
        <time>2017-06-14T09:19:06Z</time>
      </trkpt>
      <trkpt lat="45.95999" lon="4.77584">
        <ele>197</ele>
        <time>2017-06-14T09:19:07Z</time>
      </trkpt>
      <trkpt lat="45.95995" lon="4.77577">
        <ele>196</ele>
        <time>2017-06-14T09:19:08Z</time>
      </trkpt>
      <trkpt lat="45.95992" lon="4.7757">
        <ele>196</ele>
        <time>2017-06-14T09:19:09Z</time>
      </trkpt>
      <trkpt lat="45.95989" lon="4.77563">
        <ele>196</ele>
        <time>2017-06-14T09:19:10Z</time>
      </trkpt>
      <trkpt lat="45.95986" lon="4.77556">
        <ele>196</ele>
        <time>2017-06-14T09:19:11Z</time>
      </trkpt>
      <trkpt lat="45.95983" lon="4.77549">
        <ele>196</ele>
        <time>2017-06-14T09:19:12Z</time>
      </trkpt>
      <trkpt lat="45.9598" lon="4.77543">
        <ele>196</ele>
        <time>2017-06-14T09:19:13Z</time>
      </trkpt>
      <trkpt lat="45.95978" lon="4.77537">
        <ele>196</ele>
        <time>2017-06-14T09:19:14Z</time>
      </trkpt>
      <trkpt lat="45.95975" lon="4.7753">
        <ele>196</ele>
        <time>2017-06-14T09:19:15Z</time>
      </trkpt>
      <trkpt lat="45.95971" lon="4.77523">
        <ele>196</ele>
        <time>2017-06-14T09:19:16Z</time>
      </trkpt>
      <trkpt lat="45.95969" lon="4.77516">
        <ele>196</ele>
        <time>2017-06-14T09:19:17Z</time>
      </trkpt>
      <trkpt lat="45.95966" lon="4.77508">
        <ele>196</ele>
        <time>2017-06-14T09:19:18Z</time>
      </trkpt>
      <trkpt lat="45.95964" lon="4.775">
        <ele>195</ele>
        <time>2017-06-14T09:19:19Z</time>
      </trkpt>
      <trkpt lat="45.95962" lon="4.77492">
        <ele>196</ele>
        <time>2017-06-14T09:19:20Z</time>
      </trkpt>
      <trkpt lat="45.95959" lon="4.77484">
        <ele>196</ele>
        <time>2017-06-14T09:19:21Z</time>
      </trkpt>
      <trkpt lat="45.95953" lon="4.77476">
        <ele>196</ele>
        <time>2017-06-14T09:19:22Z</time>
      </trkpt>
      <trkpt lat="45.95949" lon="4.77468">
        <ele>196</ele>
        <time>2017-06-14T09:19:23Z</time>
      </trkpt>
      <trkpt lat="45.95944" lon="4.7746">
        <ele>196</ele>
        <time>2017-06-14T09:19:24Z</time>
      </trkpt>
      <trkpt lat="45.9594" lon="4.77453">
        <ele>196</ele>
        <time>2017-06-14T09:19:25Z</time>
      </trkpt>
      <trkpt lat="45.95936" lon="4.77444">
        <ele>195</ele>
        <time>2017-06-14T09:19:26Z</time>
      </trkpt>
      <trkpt lat="45.95932" lon="4.77436">
        <ele>195</ele>
        <time>2017-06-14T09:19:27Z</time>
      </trkpt>
      <trkpt lat="45.95929" lon="4.77427">
        <ele>195</ele>
        <time>2017-06-14T09:19:28Z</time>
      </trkpt>
      <trkpt lat="45.95926" lon="4.77419">
        <ele>195</ele>
        <time>2017-06-14T09:19:29Z</time>
      </trkpt>
      <trkpt lat="45.95923" lon="4.77409">
        <ele>195</ele>
        <time>2017-06-14T09:19:30Z</time>
      </trkpt>
      <trkpt lat="45.95921" lon="4.774">
        <ele>196</ele>
        <time>2017-06-14T09:19:31Z</time>
      </trkpt>
      <trkpt lat="45.95919" lon="4.77391">
        <ele>196</ele>
        <time>2017-06-14T09:19:32Z</time>
      </trkpt>
      <trkpt lat="45.95916" lon="4.77382">
        <ele>193</ele>
        <time>2017-06-14T09:19:33Z</time>
      </trkpt>
      <trkpt lat="45.95913" lon="4.77373">
        <ele>193</ele>
        <time>2017-06-14T09:19:34Z</time>
      </trkpt>
      <trkpt lat="45.9591" lon="4.77364">
        <ele>193</ele>
        <time>2017-06-14T09:19:35Z</time>
      </trkpt>
      <trkpt lat="45.95907" lon="4.77355">
        <ele>193</ele>
        <time>2017-06-14T09:19:36Z</time>
      </trkpt>
      <trkpt lat="45.95903" lon="4.77346">
        <ele>193</ele>
        <time>2017-06-14T09:19:37Z</time>
      </trkpt>
      <trkpt lat="45.959" lon="4.77336">
        <ele>193</ele>
        <time>2017-06-14T09:19:38Z</time>
      </trkpt>
      <trkpt lat="45.95897" lon="4.77326">
        <ele>194</ele>
        <time>2017-06-14T09:19:39Z</time>
      </trkpt>
      <trkpt lat="45.95895" lon="4.77316">
        <ele>193</ele>
        <time>2017-06-14T09:19:40Z</time>
      </trkpt>
      <trkpt lat="45.95893" lon="4.77305">
        <ele>193</ele>
        <time>2017-06-14T09:19:41Z</time>
      </trkpt>
      <trkpt lat="45.95891" lon="4.77295">
        <ele>193</ele>
        <time>2017-06-14T09:19:42Z</time>
      </trkpt>
      <trkpt lat="45.95888" lon="4.77284">
        <ele>193</ele>
        <time>2017-06-14T09:19:43Z</time>
      </trkpt>
      <trkpt lat="45.95885" lon="4.77274">
        <ele>193</ele>
        <time>2017-06-14T09:19:44Z</time>
      </trkpt>
      <trkpt lat="45.95882" lon="4.77264">
        <ele>193</ele>
        <time>2017-06-14T09:19:45Z</time>
      </trkpt>
      <trkpt lat="45.9588" lon="4.77254">
        <ele>193</ele>
        <time>2017-06-14T09:19:46Z</time>
      </trkpt>
      <trkpt lat="45.95878" lon="4.77244">
        <ele>193</ele>
        <time>2017-06-14T09:19:47Z</time>
      </trkpt>
      <trkpt lat="45.95876" lon="4.77234">
        <ele>193</ele>
        <time>2017-06-14T09:19:48Z</time>
      </trkpt>
      <trkpt lat="45.95873" lon="4.77225">
        <ele>193</ele>
        <time>2017-06-14T09:19:49Z</time>
      </trkpt>
      <trkpt lat="45.95871" lon="4.77216">
        <ele>193</ele>
        <time>2017-06-14T09:19:50Z</time>
      </trkpt>
      <trkpt lat="45.95869" lon="4.77207">
        <ele>193</ele>
        <time>2017-06-14T09:19:51Z</time>
      </trkpt>
      <trkpt lat="45.95867" lon="4.77198">
        <ele>193</ele>
        <time>2017-06-14T09:19:52Z</time>
      </trkpt>
      <trkpt lat="45.95864" lon="4.77188">
        <ele>192</ele>
        <time>2017-06-14T09:19:53Z</time>
      </trkpt>
      <trkpt lat="45.95861" lon="4.77178">
        <ele>192</ele>
        <time>2017-06-14T09:19:54Z</time>
      </trkpt>
      <trkpt lat="45.95859" lon="4.77169">
        <ele>192</ele>
        <time>2017-06-14T09:19:55Z</time>
      </trkpt>
      <trkpt lat="45.95857" lon="4.77158">
        <ele>192</ele>
        <time>2017-06-14T09:19:56Z</time>
      </trkpt>
      <trkpt lat="45.95854" lon="4.77148">
        <ele>193</ele>
        <time>2017-06-14T09:19:57Z</time>
      </trkpt>
      <trkpt lat="45.9585" lon="4.77138">
        <ele>193</ele>
        <time>2017-06-14T09:19:58Z</time>
      </trkpt>
      <trkpt lat="45.95847" lon="4.77128">
        <ele>193</ele>
        <time>2017-06-14T09:19:59Z</time>
      </trkpt>
      <trkpt lat="45.95844" lon="4.77118">
        <ele>193</ele>
        <time>2017-06-14T09:20:00Z</time>
      </trkpt>
      <trkpt lat="45.95842" lon="4.77108">
        <ele>193</ele>
        <time>2017-06-14T09:20:01Z</time>
      </trkpt>
      <trkpt lat="45.95839" lon="4.77098">
        <ele>193</ele>
        <time>2017-06-14T09:20:02Z</time>
      </trkpt>
      <trkpt lat="45.95836" lon="4.77088">
        <ele>192</ele>
        <time>2017-06-14T09:20:03Z</time>
      </trkpt>
      <trkpt lat="45.95833" lon="4.77079">
        <ele>192</ele>
        <time>2017-06-14T09:20:04Z</time>
      </trkpt>
      <trkpt lat="45.95829" lon="4.7707">
        <ele>191</ele>
        <time>2017-06-14T09:20:05Z</time>
      </trkpt>
      <trkpt lat="45.95826" lon="4.77061">
        <ele>191</ele>
        <time>2017-06-14T09:20:06Z</time>
      </trkpt>
      <trkpt lat="45.95822" lon="4.77052">
        <ele>190</ele>
        <time>2017-06-14T09:20:07Z</time>
      </trkpt>
      <trkpt lat="45.95819" lon="4.77044">
        <ele>190</ele>
        <time>2017-06-14T09:20:08Z</time>
      </trkpt>
      <trkpt lat="45.95815" lon="4.77036">
        <ele>190</ele>
        <time>2017-06-14T09:20:09Z</time>
      </trkpt>
      <trkpt lat="45.95811" lon="4.77027">
        <ele>190</ele>
        <time>2017-06-14T09:20:10Z</time>
      </trkpt>
      <trkpt lat="45.95809" lon="4.77018">
        <ele>190</ele>
        <time>2017-06-14T09:20:11Z</time>
      </trkpt>
      <trkpt lat="45.95806" lon="4.77009">
        <ele>190</ele>
        <time>2017-06-14T09:20:12Z</time>
      </trkpt>
      <trkpt lat="45.95805" lon="4.77">
        <ele>190</ele>
        <time>2017-06-14T09:20:13Z</time>
      </trkpt>
      <trkpt lat="45.95803" lon="4.76991">
        <ele>189</ele>
        <time>2017-06-14T09:20:14Z</time>
      </trkpt>
      <trkpt lat="45.95803" lon="4.76983">
        <ele>189</ele>
        <time>2017-06-14T09:20:15Z</time>
      </trkpt>
      <trkpt lat="45.95804" lon="4.76974">
        <ele>189</ele>
        <time>2017-06-14T09:20:16Z</time>
      </trkpt>
      <trkpt lat="45.95806" lon="4.76964">
        <ele>189</ele>
        <time>2017-06-14T09:20:17Z</time>
      </trkpt>
      <trkpt lat="45.95808" lon="4.76955">
        <ele>189</ele>
        <time>2017-06-14T09:20:18Z</time>
      </trkpt>
      <trkpt lat="45.9581" lon="4.76945">
        <ele>189</ele>
        <time>2017-06-14T09:20:19Z</time>
      </trkpt>
      <trkpt lat="45.95811" lon="4.76934">
        <ele>189</ele>
        <time>2017-06-14T09:20:20Z</time>
      </trkpt>
      <trkpt lat="45.95813" lon="4.76924">
        <ele>189</ele>
        <time>2017-06-14T09:20:21Z</time>
      </trkpt>
      <trkpt lat="45.95815" lon="4.76914">
        <ele>189</ele>
        <time>2017-06-14T09:20:22Z</time>
      </trkpt>
      <trkpt lat="45.95817" lon="4.76904">
        <ele>189</ele>
        <time>2017-06-14T09:20:23Z</time>
      </trkpt>
      <trkpt lat="45.9582" lon="4.76893">
        <ele>189</ele>
        <time>2017-06-14T09:20:24Z</time>
      </trkpt>
      <trkpt lat="45.95822" lon="4.76884">
        <ele>189</ele>
        <time>2017-06-14T09:20:25Z</time>
      </trkpt>
      <trkpt lat="45.95824" lon="4.76875">
        <ele>189</ele>
        <time>2017-06-14T09:20:26Z</time>
      </trkpt>
      <trkpt lat="45.95826" lon="4.76866">
        <ele>189</ele>
        <time>2017-06-14T09:20:27Z</time>
      </trkpt>
      <trkpt lat="45.95827" lon="4.76858">
        <ele>189</ele>
        <time>2017-06-14T09:20:28Z</time>
      </trkpt>
      <trkpt lat="45.95828" lon="4.76849">
        <ele>190</ele>
        <time>2017-06-14T09:20:29Z</time>
      </trkpt>
      <trkpt lat="45.9583" lon="4.76841">
        <ele>190</ele>
        <time>2017-06-14T09:20:30Z</time>
      </trkpt>
      <trkpt lat="45.95831" lon="4.76834">
        <ele>190</ele>
        <time>2017-06-14T09:20:31Z</time>
      </trkpt>
      <trkpt lat="45.95833" lon="4.76826">
        <ele>190</ele>
        <time>2017-06-14T09:20:32Z</time>
      </trkpt>
      <trkpt lat="45.95834" lon="4.76818">
        <ele>190</ele>
        <time>2017-06-14T09:20:33Z</time>
      </trkpt>
      <trkpt lat="45.95836" lon="4.7681">
        <ele>190</ele>
        <time>2017-06-14T09:20:34Z</time>
      </trkpt>
      <trkpt lat="45.95836" lon="4.76802">
        <ele>191</ele>
        <time>2017-06-14T09:20:35Z</time>
      </trkpt>
      <trkpt lat="45.95836" lon="4.76793">
        <ele>191</ele>
        <time>2017-06-14T09:20:36Z</time>
      </trkpt>
      <trkpt lat="45.95835" lon="4.76784">
        <ele>191</ele>
        <time>2017-06-14T09:20:37Z</time>
      </trkpt>
      <trkpt lat="45.95833" lon="4.76775">
        <ele>190</ele>
        <time>2017-06-14T09:20:38Z</time>
      </trkpt>
      <trkpt lat="45.95831" lon="4.76766">
        <ele>190</ele>
        <time>2017-06-14T09:20:39Z</time>
      </trkpt>
      <trkpt lat="45.95829" lon="4.76756">
        <ele>191</ele>
        <time>2017-06-14T09:20:40Z</time>
      </trkpt>
      <trkpt lat="45.95827" lon="4.76746">
        <ele>190</ele>
        <time>2017-06-14T09:20:41Z</time>
      </trkpt>
      <trkpt lat="45.95826" lon="4.76736">
        <ele>190</ele>
        <time>2017-06-14T09:20:42Z</time>
      </trkpt>
      <trkpt lat="45.95825" lon="4.76726">
        <ele>190</ele>
        <time>2017-06-14T09:20:43Z</time>
      </trkpt>
      <trkpt lat="45.95824" lon="4.76716">
        <ele>189</ele>
        <time>2017-06-14T09:20:44Z</time>
      </trkpt>
      <trkpt lat="45.95822" lon="4.76707">
        <ele>189</ele>
        <time>2017-06-14T09:20:45Z</time>
      </trkpt>
      <trkpt lat="45.95821" lon="4.76696">
        <ele>189</ele>
        <time>2017-06-14T09:20:46Z</time>
      </trkpt>
      <trkpt lat="45.9582" lon="4.76687">
        <ele>189</ele>
        <time>2017-06-14T09:20:47Z</time>
      </trkpt>
      <trkpt lat="45.95819" lon="4.76677">
        <ele>189</ele>
        <time>2017-06-14T09:20:48Z</time>
      </trkpt>
      <trkpt lat="45.95818" lon="4.76668">
        <ele>188</ele>
        <time>2017-06-14T09:20:49Z</time>
      </trkpt>
      <trkpt lat="45.95816" lon="4.76658">
        <ele>188</ele>
        <time>2017-06-14T09:20:50Z</time>
      </trkpt>
      <trkpt lat="45.95815" lon="4.76649">
        <ele>188</ele>
        <time>2017-06-14T09:20:51Z</time>
      </trkpt>
      <trkpt lat="45.95814" lon="4.7664">
        <ele>188</ele>
        <time>2017-06-14T09:20:52Z</time>
      </trkpt>
      <trkpt lat="45.95813" lon="4.76631">
        <ele>188</ele>
        <time>2017-06-14T09:20:53Z</time>
      </trkpt>
      <trkpt lat="45.95812" lon="4.76623">
        <ele>188</ele>
        <time>2017-06-14T09:20:54Z</time>
      </trkpt>
      <trkpt lat="45.9581" lon="4.76614">
        <ele>188</ele>
        <time>2017-06-14T09:20:55Z</time>
      </trkpt>
      <trkpt lat="45.95809" lon="4.76606">
        <ele>188</ele>
        <time>2017-06-14T09:20:56Z</time>
      </trkpt>
      <trkpt lat="45.95808" lon="4.76597">
        <ele>188</ele>
        <time>2017-06-14T09:20:57Z</time>
      </trkpt>
      <trkpt lat="45.95806" lon="4.7659">
        <ele>188</ele>
        <time>2017-06-14T09:20:58Z</time>
      </trkpt>
      <trkpt lat="45.95805" lon="4.76582">
        <ele>187</ele>
        <time>2017-06-14T09:20:59Z</time>
      </trkpt>
      <trkpt lat="45.95804" lon="4.76573">
        <ele>187</ele>
        <time>2017-06-14T09:21:00Z</time>
      </trkpt>
      <trkpt lat="45.95802" lon="4.76565">
        <ele>187</ele>
        <time>2017-06-14T09:21:01Z</time>
      </trkpt>
      <trkpt lat="45.95801" lon="4.76556">
        <ele>187</ele>
        <time>2017-06-14T09:21:02Z</time>
      </trkpt>
      <trkpt lat="45.95799" lon="4.76547">
        <ele>187</ele>
        <time>2017-06-14T09:21:03Z</time>
      </trkpt>
      <trkpt lat="45.95798" lon="4.76538">
        <ele>187</ele>
        <time>2017-06-14T09:21:04Z</time>
      </trkpt>
      <trkpt lat="45.95796" lon="4.7653">
        <ele>187</ele>
        <time>2017-06-14T09:21:05Z</time>
      </trkpt>
      <trkpt lat="45.95795" lon="4.76521">
        <ele>187</ele>
        <time>2017-06-14T09:21:06Z</time>
      </trkpt>
      <trkpt lat="45.95794" lon="4.76513">
        <ele>187</ele>
        <time>2017-06-14T09:21:07Z</time>
      </trkpt>
      <trkpt lat="45.95793" lon="4.76505">
        <ele>187</ele>
        <time>2017-06-14T09:21:08Z</time>
      </trkpt>
      <trkpt lat="45.95792" lon="4.76497">
        <ele>186</ele>
        <time>2017-06-14T09:21:09Z</time>
      </trkpt>
      <trkpt lat="45.9579" lon="4.76489">
        <ele>186</ele>
        <time>2017-06-14T09:21:10Z</time>
      </trkpt>
      <trkpt lat="45.95789" lon="4.76481">
        <ele>186</ele>
        <time>2017-06-14T09:21:11Z</time>
      </trkpt>
      <trkpt lat="45.95788" lon="4.76474">
        <ele>186</ele>
        <time>2017-06-14T09:21:12Z</time>
      </trkpt>
      <trkpt lat="45.95787" lon="4.76466">
        <ele>186</ele>
        <time>2017-06-14T09:21:13Z</time>
      </trkpt>
      <trkpt lat="45.95787" lon="4.76458">
        <ele>186</ele>
        <time>2017-06-14T09:21:14Z</time>
      </trkpt>
      <trkpt lat="45.95786" lon="4.76451">
        <ele>186</ele>
        <time>2017-06-14T09:21:15Z</time>
      </trkpt>
      <trkpt lat="45.95784" lon="4.76442">
        <ele>186</ele>
        <time>2017-06-14T09:21:16Z</time>
      </trkpt>
      <trkpt lat="45.95783" lon="4.76434">
        <ele>186</ele>
        <time>2017-06-14T09:21:17Z</time>
      </trkpt>
      <trkpt lat="45.95782" lon="4.76426">
        <ele>186</ele>
        <time>2017-06-14T09:21:18Z</time>
      </trkpt>
      <trkpt lat="45.95781" lon="4.76417">
        <ele>186</ele>
        <time>2017-06-14T09:21:19Z</time>
      </trkpt>
      <trkpt lat="45.9578" lon="4.76408">
        <ele>186</ele>
        <time>2017-06-14T09:21:20Z</time>
      </trkpt>
      <trkpt lat="45.95779" lon="4.76399">
        <ele>186</ele>
        <time>2017-06-14T09:21:21Z</time>
      </trkpt>
      <trkpt lat="45.95778" lon="4.7639">
        <ele>186</ele>
        <time>2017-06-14T09:21:22Z</time>
      </trkpt>
      <trkpt lat="45.95778" lon="4.76382">
        <ele>186</ele>
        <time>2017-06-14T09:21:23Z</time>
      </trkpt>
      <trkpt lat="45.95777" lon="4.76373">
        <ele>186</ele>
        <time>2017-06-14T09:21:24Z</time>
      </trkpt>
      <trkpt lat="45.95777" lon="4.76364">
        <ele>186</ele>
        <time>2017-06-14T09:21:25Z</time>
      </trkpt>
      <trkpt lat="45.95777" lon="4.76356">
        <ele>186</ele>
        <time>2017-06-14T09:21:26Z</time>
      </trkpt>
      <trkpt lat="45.95776" lon="4.76347">
        <ele>186</ele>
        <time>2017-06-14T09:21:27Z</time>
      </trkpt>
      <trkpt lat="45.95776" lon="4.76339">
        <ele>186</ele>
        <time>2017-06-14T09:21:28Z</time>
      </trkpt>
      <trkpt lat="45.95775" lon="4.76331">
        <ele>185</ele>
        <time>2017-06-14T09:21:29Z</time>
      </trkpt>
      <trkpt lat="45.95775" lon="4.76322">
        <ele>185</ele>
        <time>2017-06-14T09:21:30Z</time>
      </trkpt>
      <trkpt lat="45.95774" lon="4.76314">
        <ele>186</ele>
        <time>2017-06-14T09:21:31Z</time>
      </trkpt>
      <trkpt lat="45.95773" lon="4.76306">
        <ele>186</ele>
        <time>2017-06-14T09:21:32Z</time>
      </trkpt>
      <trkpt lat="45.95773" lon="4.76297">
        <ele>186</ele>
        <time>2017-06-14T09:21:33Z</time>
      </trkpt>
      <trkpt lat="45.95772" lon="4.76289">
        <ele>186</ele>
        <time>2017-06-14T09:21:34Z</time>
      </trkpt>
      <trkpt lat="45.95772" lon="4.7628">
        <ele>186</ele>
        <time>2017-06-14T09:21:35Z</time>
      </trkpt>
      <trkpt lat="45.95771" lon="4.76271">
        <ele>186</ele>
        <time>2017-06-14T09:21:36Z</time>
      </trkpt>
      <trkpt lat="45.95771" lon="4.76262">
        <ele>186</ele>
        <time>2017-06-14T09:21:37Z</time>
      </trkpt>
      <trkpt lat="45.9577" lon="4.76253">
        <ele>185</ele>
        <time>2017-06-14T09:21:38Z</time>
      </trkpt>
      <trkpt lat="45.9577" lon="4.76243">
        <ele>186</ele>
        <time>2017-06-14T09:21:39Z</time>
      </trkpt>
      <trkpt lat="45.9577" lon="4.76234">
        <ele>186</ele>
        <time>2017-06-14T09:21:40Z</time>
      </trkpt>
      <trkpt lat="45.95769" lon="4.76224">
        <ele>186</ele>
        <time>2017-06-14T09:21:41Z</time>
      </trkpt>
      <trkpt lat="45.95768" lon="4.76214">
        <ele>186</ele>
        <time>2017-06-14T09:21:42Z</time>
      </trkpt>
      <trkpt lat="45.95768" lon="4.76204">
        <ele>186</ele>
        <time>2017-06-14T09:21:43Z</time>
      </trkpt>
      <trkpt lat="45.95767" lon="4.76194">
        <ele>186</ele>
        <time>2017-06-14T09:21:44Z</time>
      </trkpt>
      <trkpt lat="45.95767" lon="4.76185">
        <ele>186</ele>
        <time>2017-06-14T09:21:45Z</time>
      </trkpt>
      <trkpt lat="45.95766" lon="4.76175">
        <ele>186</ele>
        <time>2017-06-14T09:21:46Z</time>
      </trkpt>
      <trkpt lat="45.95766" lon="4.76166">
        <ele>186</ele>
        <time>2017-06-14T09:21:47Z</time>
      </trkpt>
      <trkpt lat="45.95765" lon="4.76157">
        <ele>186</ele>
        <time>2017-06-14T09:21:48Z</time>
      </trkpt>
      <trkpt lat="45.95764" lon="4.76148">
        <ele>186</ele>
        <time>2017-06-14T09:21:49Z</time>
      </trkpt>
      <trkpt lat="45.95764" lon="4.7614">
        <ele>186</ele>
        <time>2017-06-14T09:21:50Z</time>
      </trkpt>
      <trkpt lat="45.95763" lon="4.76131">
        <ele>186</ele>
        <time>2017-06-14T09:21:51Z</time>
      </trkpt>
      <trkpt lat="45.95761" lon="4.76123">
        <ele>186</ele>
        <time>2017-06-14T09:21:52Z</time>
      </trkpt>
      <trkpt lat="45.9576" lon="4.76116">
        <ele>186</ele>
        <time>2017-06-14T09:21:53Z</time>
      </trkpt>
      <trkpt lat="45.95759" lon="4.76108">
        <ele>186</ele>
        <time>2017-06-14T09:21:54Z</time>
      </trkpt>
      <trkpt lat="45.95757" lon="4.761">
        <ele>186</ele>
        <time>2017-06-14T09:21:55Z</time>
      </trkpt>
      <trkpt lat="45.95755" lon="4.76092">
        <ele>186</ele>
        <time>2017-06-14T09:21:56Z</time>
      </trkpt>
      <trkpt lat="45.95753" lon="4.76084">
        <ele>185</ele>
        <time>2017-06-14T09:21:57Z</time>
      </trkpt>
      <trkpt lat="45.9575" lon="4.76076">
        <ele>186</ele>
        <time>2017-06-14T09:21:58Z</time>
      </trkpt>
      <trkpt lat="45.95747" lon="4.76067">
        <ele>185</ele>
        <time>2017-06-14T09:21:59Z</time>
      </trkpt>
      <trkpt lat="45.95744" lon="4.76059">
        <ele>184</ele>
        <time>2017-06-14T09:22:00Z</time>
      </trkpt>
      <trkpt lat="45.9574" lon="4.76051">
        <ele>184</ele>
        <time>2017-06-14T09:22:01Z</time>
      </trkpt>
      <trkpt lat="45.95736" lon="4.76043">
        <ele>184</ele>
        <time>2017-06-14T09:22:02Z</time>
      </trkpt>
      <trkpt lat="45.95733" lon="4.76035">
        <ele>184</ele>
        <time>2017-06-14T09:22:03Z</time>
      </trkpt>
      <trkpt lat="45.95729" lon="4.76027">
        <ele>185</ele>
        <time>2017-06-14T09:22:04Z</time>
      </trkpt>
      <trkpt lat="45.95726" lon="4.7602">
        <ele>185</ele>
        <time>2017-06-14T09:22:05Z</time>
      </trkpt>
      <trkpt lat="45.95722" lon="4.76012">
        <ele>185</ele>
        <time>2017-06-14T09:22:06Z</time>
      </trkpt>
      <trkpt lat="45.95719" lon="4.76004">
        <ele>184</ele>
        <time>2017-06-14T09:22:07Z</time>
      </trkpt>
      <trkpt lat="45.95715" lon="4.75996">
        <ele>185</ele>
        <time>2017-06-14T09:22:08Z</time>
      </trkpt>
      <trkpt lat="45.95711" lon="4.75989">
        <ele>185</ele>
        <time>2017-06-14T09:22:09Z</time>
      </trkpt>
      <trkpt lat="45.95708" lon="4.75981">
        <ele>185</ele>
        <time>2017-06-14T09:22:10Z</time>
      </trkpt>
      <trkpt lat="45.95704" lon="4.75974">
        <ele>185</ele>
        <time>2017-06-14T09:22:11Z</time>
      </trkpt>
      <trkpt lat="45.95701" lon="4.75966">
        <ele>185</ele>
        <time>2017-06-14T09:22:12Z</time>
      </trkpt>
      <trkpt lat="45.95698" lon="4.75959">
        <ele>185</ele>
        <time>2017-06-14T09:22:13Z</time>
      </trkpt>
      <trkpt lat="45.95694" lon="4.75952">
        <ele>185</ele>
        <time>2017-06-14T09:22:14Z</time>
      </trkpt>
      <trkpt lat="45.95691" lon="4.75944">
        <ele>185</ele>
        <time>2017-06-14T09:22:15Z</time>
      </trkpt>
      <trkpt lat="45.95688" lon="4.75937">
        <ele>185</ele>
        <time>2017-06-14T09:22:16Z</time>
      </trkpt>
      <trkpt lat="45.95685" lon="4.7593">
        <ele>185</ele>
        <time>2017-06-14T09:22:17Z</time>
      </trkpt>
      <trkpt lat="45.95682" lon="4.75924">
        <ele>185</ele>
        <time>2017-06-14T09:22:18Z</time>
      </trkpt>
      <trkpt lat="45.9568" lon="4.75917">
        <ele>185</ele>
        <time>2017-06-14T09:22:19Z</time>
      </trkpt>
      <trkpt lat="45.95677" lon="4.75909">
        <ele>185</ele>
        <time>2017-06-14T09:22:20Z</time>
      </trkpt>
      <trkpt lat="45.95674" lon="4.75901">
        <ele>185</ele>
        <time>2017-06-14T09:22:21Z</time>
      </trkpt>
      <trkpt lat="45.95671" lon="4.75893">
        <ele>186</ele>
        <time>2017-06-14T09:22:22Z</time>
      </trkpt>
      <trkpt lat="45.95669" lon="4.75885">
        <ele>186</ele>
        <time>2017-06-14T09:22:23Z</time>
      </trkpt>
      <trkpt lat="45.95666" lon="4.75876">
        <ele>184</ele>
        <time>2017-06-14T09:22:24Z</time>
      </trkpt>
      <trkpt lat="45.95663" lon="4.75867">
        <ele>184</ele>
        <time>2017-06-14T09:22:25Z</time>
      </trkpt>
      <trkpt lat="45.9566" lon="4.75858">
        <ele>184</ele>
        <time>2017-06-14T09:22:26Z</time>
      </trkpt>
      <trkpt lat="45.95658" lon="4.75848">
        <ele>185</ele>
        <time>2017-06-14T09:22:27Z</time>
      </trkpt>
      <trkpt lat="45.95655" lon="4.75839">
        <ele>185</ele>
        <time>2017-06-14T09:22:28Z</time>
      </trkpt>
      <trkpt lat="45.95653" lon="4.75831">
        <ele>186</ele>
        <time>2017-06-14T09:22:29Z</time>
      </trkpt>
      <trkpt lat="45.95651" lon="4.75822">
        <ele>185</ele>
        <time>2017-06-14T09:22:30Z</time>
      </trkpt>
      <trkpt lat="45.9565" lon="4.75813">
        <ele>185</ele>
        <time>2017-06-14T09:22:31Z</time>
      </trkpt>
      <trkpt lat="45.95648" lon="4.75805">
        <ele>185</ele>
        <time>2017-06-14T09:22:32Z</time>
      </trkpt>
      <trkpt lat="45.95647" lon="4.75797">
        <ele>185</ele>
        <time>2017-06-14T09:22:33Z</time>
      </trkpt>
      <trkpt lat="45.95646" lon="4.75788">
        <ele>186</ele>
        <time>2017-06-14T09:22:34Z</time>
      </trkpt>
      <trkpt lat="45.95645" lon="4.7578">
        <ele>186</ele>
        <time>2017-06-14T09:22:35Z</time>
      </trkpt>
      <trkpt lat="45.95644" lon="4.75772">
        <ele>186</ele>
        <time>2017-06-14T09:22:36Z</time>
      </trkpt>
      <trkpt lat="45.95643" lon="4.75764">
        <ele>186</ele>
        <time>2017-06-14T09:22:37Z</time>
      </trkpt>
      <trkpt lat="45.95642" lon="4.75755">
        <ele>186</ele>
        <time>2017-06-14T09:22:38Z</time>
      </trkpt>
      <trkpt lat="45.9564" lon="4.75747">
        <ele>187</ele>
        <time>2017-06-14T09:22:39Z</time>
      </trkpt>
      <trkpt lat="45.95638" lon="4.75739">
        <ele>187</ele>
        <time>2017-06-14T09:22:40Z</time>
      </trkpt>
      <trkpt lat="45.95637" lon="4.7573">
        <ele>187</ele>
        <time>2017-06-14T09:22:41Z</time>
      </trkpt>
      <trkpt lat="45.95636" lon="4.75722">
        <ele>187</ele>
        <time>2017-06-14T09:22:42Z</time>
      </trkpt>
      <trkpt lat="45.95635" lon="4.75714">
        <ele>187</ele>
        <time>2017-06-14T09:22:43Z</time>
      </trkpt>
      <trkpt lat="45.95634" lon="4.75706">
        <ele>187</ele>
        <time>2017-06-14T09:22:44Z</time>
      </trkpt>
      <trkpt lat="45.95633" lon="4.75699">
        <ele>187</ele>
        <time>2017-06-14T09:22:45Z</time>
      </trkpt>
      <trkpt lat="45.95631" lon="4.75691">
        <ele>187</ele>
        <time>2017-06-14T09:22:46Z</time>
      </trkpt>
      <trkpt lat="45.9563" lon="4.75684">
        <ele>187</ele>
        <time>2017-06-14T09:22:47Z</time>
      </trkpt>
      <trkpt lat="45.95629" lon="4.75677">
        <ele>187</ele>
        <time>2017-06-14T09:22:48Z</time>
      </trkpt>
      <trkpt lat="45.95627" lon="4.75669">
        <ele>187</ele>
        <time>2017-06-14T09:22:49Z</time>
      </trkpt>
      <trkpt lat="45.95626" lon="4.75663">
        <ele>188</ele>
        <time>2017-06-14T09:22:50Z</time>
      </trkpt>
      <trkpt lat="45.95625" lon="4.75656">
        <ele>188</ele>
        <time>2017-06-14T09:22:51Z</time>
      </trkpt>
      <trkpt lat="45.95623" lon="4.7565">
        <ele>188</ele>
        <time>2017-06-14T09:22:52Z</time>
      </trkpt>
      <trkpt lat="45.95621" lon="4.75643">
        <ele>188</ele>
        <time>2017-06-14T09:22:53Z</time>
      </trkpt>
      <trkpt lat="45.95619" lon="4.75636">
        <ele>188</ele>
        <time>2017-06-14T09:22:54Z</time>
      </trkpt>
      <trkpt lat="45.95617" lon="4.7563">
        <ele>188</ele>
        <time>2017-06-14T09:22:55Z</time>
      </trkpt>
      <trkpt lat="45.95616" lon="4.75622">
        <ele>188</ele>
        <time>2017-06-14T09:22:56Z</time>
      </trkpt>
      <trkpt lat="45.95613" lon="4.75615">
        <ele>188</ele>
        <time>2017-06-14T09:22:57Z</time>
      </trkpt>
      <trkpt lat="45.95611" lon="4.75608">
        <ele>188</ele>
        <time>2017-06-14T09:22:58Z</time>
      </trkpt>
      <trkpt lat="45.95608" lon="4.75602">
        <ele>187</ele>
        <time>2017-06-14T09:22:59Z</time>
      </trkpt>
      <trkpt lat="45.95605" lon="4.75595">
        <ele>187</ele>
        <time>2017-06-14T09:23:00Z</time>
      </trkpt>
      <trkpt lat="45.95602" lon="4.75589">
        <ele>187</ele>
        <time>2017-06-14T09:23:01Z</time>
      </trkpt>
      <trkpt lat="45.956" lon="4.75582">
        <ele>188</ele>
        <time>2017-06-14T09:23:02Z</time>
      </trkpt>
      <trkpt lat="45.95597" lon="4.75576">
        <ele>188</ele>
        <time>2017-06-14T09:23:03Z</time>
      </trkpt>
      <trkpt lat="45.95593" lon="4.7557">
        <ele>188</ele>
        <time>2017-06-14T09:23:04Z</time>
      </trkpt>
      <trkpt lat="45.95589" lon="4.75564">
        <ele>188</ele>
        <time>2017-06-14T09:23:05Z</time>
      </trkpt>
      <trkpt lat="45.95585" lon="4.75558">
        <ele>188</ele>
        <time>2017-06-14T09:23:06Z</time>
      </trkpt>
      <trkpt lat="45.95581" lon="4.75552">
        <ele>186</ele>
        <time>2017-06-14T09:23:07Z</time>
      </trkpt>
      <trkpt lat="45.95577" lon="4.75547">
        <ele>186</ele>
        <time>2017-06-14T09:23:08Z</time>
      </trkpt>
      <trkpt lat="45.95572" lon="4.75542">
        <ele>186</ele>
        <time>2017-06-14T09:23:09Z</time>
      </trkpt>
      <trkpt lat="45.95568" lon="4.75537">
        <ele>186</ele>
        <time>2017-06-14T09:23:10Z</time>
      </trkpt>
      <trkpt lat="45.95563" lon="4.75532">
        <ele>186</ele>
        <time>2017-06-14T09:23:11Z</time>
      </trkpt>
      <trkpt lat="45.95558" lon="4.75527">
        <ele>186</ele>
        <time>2017-06-14T09:23:12Z</time>
      </trkpt>
      <trkpt lat="45.95553" lon="4.75521">
        <ele>186</ele>
        <time>2017-06-14T09:23:13Z</time>
      </trkpt>
      <trkpt lat="45.95549" lon="4.75514">
        <ele>186</ele>
        <time>2017-06-14T09:23:14Z</time>
      </trkpt>
      <trkpt lat="45.95546" lon="4.75508">
        <ele>186</ele>
        <time>2017-06-14T09:23:15Z</time>
      </trkpt>
      <trkpt lat="45.95543" lon="4.755">
        <ele>186</ele>
        <time>2017-06-14T09:23:16Z</time>
      </trkpt>
      <trkpt lat="45.95542" lon="4.75493">
        <ele>187</ele>
        <time>2017-06-14T09:23:17Z</time>
      </trkpt>
      <trkpt lat="45.95542" lon="4.75485">
        <ele>187</ele>
        <time>2017-06-14T09:23:18Z</time>
      </trkpt>
      <trkpt lat="45.95541" lon="4.75478">
        <ele>187</ele>
        <time>2017-06-14T09:23:19Z</time>
      </trkpt>
      <trkpt lat="45.9554" lon="4.75471">
        <ele>187</ele>
        <time>2017-06-14T09:23:20Z</time>
      </trkpt>
      <trkpt lat="45.95538" lon="4.75463">
        <ele>187</ele>
        <time>2017-06-14T09:23:21Z</time>
      </trkpt>
      <trkpt lat="45.95534" lon="4.75457">
        <ele>187</ele>
        <time>2017-06-14T09:23:22Z</time>
      </trkpt>
      <trkpt lat="45.9553" lon="4.7545">
        <ele>187</ele>
        <time>2017-06-14T09:23:23Z</time>
      </trkpt>
      <trkpt lat="45.95526" lon="4.75444">
        <ele>187</ele>
        <time>2017-06-14T09:23:24Z</time>
      </trkpt>
      <trkpt lat="45.95522" lon="4.75436">
        <ele>187</ele>
        <time>2017-06-14T09:23:25Z</time>
      </trkpt>
      <trkpt lat="45.95518" lon="4.75428">
        <ele>187</ele>
        <time>2017-06-14T09:23:26Z</time>
      </trkpt>
      <trkpt lat="45.95516" lon="4.75421">
        <ele>186</ele>
        <time>2017-06-14T09:23:27Z</time>
      </trkpt>
      <trkpt lat="45.95513" lon="4.75414">
        <ele>187</ele>
        <time>2017-06-14T09:23:28Z</time>
      </trkpt>
      <trkpt lat="45.9551" lon="4.75407">
        <ele>187</ele>
        <time>2017-06-14T09:23:29Z</time>
      </trkpt>
      <trkpt lat="45.95506" lon="4.75401">
        <ele>187</ele>
        <time>2017-06-14T09:23:30Z</time>
      </trkpt>
      <trkpt lat="45.95503" lon="4.75394">
        <ele>188</ele>
        <time>2017-06-14T09:23:31Z</time>
      </trkpt>
      <trkpt lat="45.955" lon="4.75387">
        <ele>188</ele>
        <time>2017-06-14T09:23:32Z</time>
      </trkpt>
      <trkpt lat="45.95497" lon="4.75381">
        <ele>185</ele>
        <time>2017-06-14T09:23:33Z</time>
      </trkpt>
      <trkpt lat="45.95494" lon="4.75374">
        <ele>185</ele>
        <time>2017-06-14T09:23:34Z</time>
      </trkpt>
      <trkpt lat="45.95491" lon="4.75368">
        <ele>186</ele>
        <time>2017-06-14T09:23:35Z</time>
      </trkpt>
      <trkpt lat="45.95488" lon="4.75361">
        <ele>186</ele>
        <time>2017-06-14T09:23:36Z</time>
      </trkpt>
      <trkpt lat="45.95484" lon="4.75355">
        <ele>186</ele>
        <time>2017-06-14T09:23:37Z</time>
      </trkpt>
      <trkpt lat="45.95481" lon="4.75348">
        <ele>186</ele>
        <time>2017-06-14T09:23:38Z</time>
      </trkpt>
      <trkpt lat="45.95478" lon="4.75341">
        <ele>186</ele>
        <time>2017-06-14T09:23:39Z</time>
      </trkpt>
      <trkpt lat="45.95475" lon="4.75335">
        <ele>186</ele>
        <time>2017-06-14T09:23:40Z</time>
      </trkpt>
      <trkpt lat="45.95472" lon="4.75328">
        <ele>188</ele>
        <time>2017-06-14T09:23:41Z</time>
      </trkpt>
      <trkpt lat="45.95469" lon="4.75321">
        <ele>188</ele>
        <time>2017-06-14T09:23:42Z</time>
      </trkpt>
      <trkpt lat="45.95466" lon="4.75314">
        <ele>188</ele>
        <time>2017-06-14T09:23:43Z</time>
      </trkpt>
      <trkpt lat="45.95462" lon="4.75307">
        <ele>188</ele>
        <time>2017-06-14T09:23:44Z</time>
      </trkpt>
      <trkpt lat="45.95459" lon="4.753">
        <ele>188</ele>
        <time>2017-06-14T09:23:45Z</time>
      </trkpt>
      <trkpt lat="45.95456" lon="4.75294">
        <ele>188</ele>
        <time>2017-06-14T09:23:46Z</time>
      </trkpt>
      <trkpt lat="45.95452" lon="4.75287">
        <ele>188</ele>
        <time>2017-06-14T09:23:47Z</time>
      </trkpt>
      <trkpt lat="45.95449" lon="4.7528">
        <ele>189</ele>
        <time>2017-06-14T09:23:48Z</time>
      </trkpt>
      <trkpt lat="45.95446" lon="4.75273">
        <ele>189</ele>
        <time>2017-06-14T09:23:49Z</time>
      </trkpt>
      <trkpt lat="45.95442" lon="4.75266">
        <ele>189</ele>
        <time>2017-06-14T09:23:50Z</time>
      </trkpt>
      <trkpt lat="45.95439" lon="4.75258">
        <ele>189</ele>
        <time>2017-06-14T09:23:51Z</time>
      </trkpt>
      <trkpt lat="45.95435" lon="4.75251">
        <ele>189</ele>
        <time>2017-06-14T09:23:52Z</time>
      </trkpt>
      <trkpt lat="45.95432" lon="4.75244">
        <ele>190</ele>
        <time>2017-06-14T09:23:53Z</time>
      </trkpt>
      <trkpt lat="45.95429" lon="4.75238">
        <ele>190</ele>
        <time>2017-06-14T09:23:54Z</time>
      </trkpt>
      <trkpt lat="45.95426" lon="4.75231">
        <ele>191</ele>
        <time>2017-06-14T09:23:55Z</time>
      </trkpt>
      <trkpt lat="45.95421" lon="4.75225">
        <ele>191</ele>
        <time>2017-06-14T09:23:56Z</time>
      </trkpt>
      <trkpt lat="45.95418" lon="4.75219">
        <ele>191</ele>
        <time>2017-06-14T09:23:57Z</time>
      </trkpt>
      <trkpt lat="45.95414" lon="4.75211">
        <ele>189</ele>
        <time>2017-06-14T09:23:58Z</time>
      </trkpt>
      <trkpt lat="45.9541" lon="4.75204">
        <ele>189</ele>
        <time>2017-06-14T09:23:59Z</time>
      </trkpt>
      <trkpt lat="45.95407" lon="4.75197">
        <ele>189</ele>
        <time>2017-06-14T09:24:00Z</time>
      </trkpt>
      <trkpt lat="45.95403" lon="4.75189">
        <ele>189</ele>
        <time>2017-06-14T09:24:01Z</time>
      </trkpt>
      <trkpt lat="45.95399" lon="4.75182">
        <ele>189</ele>
        <time>2017-06-14T09:24:02Z</time>
      </trkpt>
      <trkpt lat="45.95392" lon="4.75175">
        <ele>189</ele>
        <time>2017-06-14T09:24:03Z</time>
      </trkpt>
      <trkpt lat="45.95387" lon="4.75167">
        <ele>189</ele>
        <time>2017-06-14T09:24:04Z</time>
      </trkpt>
      <trkpt lat="45.95383" lon="4.7516">
        <ele>191</ele>
        <time>2017-06-14T09:24:05Z</time>
      </trkpt>
      <trkpt lat="45.95378" lon="4.75152">
        <ele>191</ele>
        <time>2017-06-14T09:24:06Z</time>
      </trkpt>
      <trkpt lat="45.95374" lon="4.75145">
        <ele>191</ele>
        <time>2017-06-14T09:24:07Z</time>
      </trkpt>
      <trkpt lat="45.95369" lon="4.75138">
        <ele>191</ele>
        <time>2017-06-14T09:24:08Z</time>
      </trkpt>
      <trkpt lat="45.95365" lon="4.75131">
        <ele>191</ele>
        <time>2017-06-14T09:24:09Z</time>
      </trkpt>
      <trkpt lat="45.95361" lon="4.75124">
        <ele>191</ele>
        <time>2017-06-14T09:24:10Z</time>
      </trkpt>
      <trkpt lat="45.95357" lon="4.75118">
        <ele>192</ele>
        <time>2017-06-14T09:24:11Z</time>
      </trkpt>
      <trkpt lat="45.95353" lon="4.75112">
        <ele>192</ele>
        <time>2017-06-14T09:24:12Z</time>
      </trkpt>
      <trkpt lat="45.95349" lon="4.75106">
        <ele>192</ele>
        <time>2017-06-14T09:24:13Z</time>
      </trkpt>
      <trkpt lat="45.95345" lon="4.751">
        <ele>192</ele>
        <time>2017-06-14T09:24:14Z</time>
      </trkpt>
      <trkpt lat="45.95341" lon="4.75094">
        <ele>192</ele>
        <time>2017-06-14T09:24:15Z</time>
      </trkpt>
      <trkpt lat="45.95337" lon="4.75088">
        <ele>193</ele>
        <time>2017-06-14T09:24:16Z</time>
      </trkpt>
      <trkpt lat="45.95333" lon="4.75081">
        <ele>193</ele>
        <time>2017-06-14T09:24:17Z</time>
      </trkpt>
      <trkpt lat="45.9533" lon="4.75075">
        <ele>192</ele>
        <time>2017-06-14T09:24:18Z</time>
      </trkpt>
      <trkpt lat="45.95326" lon="4.75069">
        <ele>192</ele>
        <time>2017-06-14T09:24:19Z</time>
      </trkpt>
      <trkpt lat="45.95323" lon="4.75063">
        <ele>192</ele>
        <time>2017-06-14T09:24:20Z</time>
      </trkpt>
      <trkpt lat="45.95319" lon="4.75057">
        <ele>192</ele>
        <time>2017-06-14T09:24:21Z</time>
      </trkpt>
      <trkpt lat="45.95316" lon="4.75052">
        <ele>192</ele>
        <time>2017-06-14T09:24:22Z</time>
      </trkpt>
      <trkpt lat="45.95312" lon="4.75046">
        <ele>192</ele>
        <time>2017-06-14T09:24:23Z</time>
      </trkpt>
      <trkpt lat="45.95309" lon="4.75041">
        <ele>192</ele>
        <time>2017-06-14T09:24:24Z</time>
      </trkpt>
      <trkpt lat="45.95305" lon="4.75035">
        <ele>192</ele>
        <time>2017-06-14T09:24:25Z</time>
      </trkpt>
      <trkpt lat="45.95301" lon="4.75029">
        <ele>192</ele>
        <time>2017-06-14T09:24:26Z</time>
      </trkpt>
      <trkpt lat="45.95298" lon="4.75024">
        <ele>192</ele>
        <time>2017-06-14T09:24:27Z</time>
      </trkpt>
      <trkpt lat="45.95294" lon="4.75018">
        <ele>191</ele>
        <time>2017-06-14T09:24:28Z</time>
      </trkpt>
      <trkpt lat="45.95291" lon="4.75013">
        <ele>191</ele>
        <time>2017-06-14T09:24:29Z</time>
      </trkpt>
      <trkpt lat="45.95288" lon="4.75009">
        <ele>191</ele>
        <time>2017-06-14T09:24:30Z</time>
      </trkpt>
      <trkpt lat="45.95282" lon="4.75">
        <ele>192</ele>
        <time>2017-06-14T09:24:32Z</time>
      </trkpt>
      <trkpt lat="45.9528" lon="4.74995">
        <ele>192</ele>
        <time>2017-06-14T09:24:33Z</time>
      </trkpt>
      <trkpt lat="45.95277" lon="4.7499">
        <ele>192</ele>
        <time>2017-06-14T09:24:34Z</time>
      </trkpt>
      <trkpt lat="45.95274" lon="4.74984">
        <ele>192</ele>
        <time>2017-06-14T09:24:35Z</time>
      </trkpt>
      <trkpt lat="45.95271" lon="4.74979">
        <ele>192</ele>
        <time>2017-06-14T09:24:36Z</time>
      </trkpt>
      <trkpt lat="45.95267" lon="4.74973">
        <ele>192</ele>
        <time>2017-06-14T09:24:37Z</time>
      </trkpt>
      <trkpt lat="45.95264" lon="4.74967">
        <ele>192</ele>
        <time>2017-06-14T09:24:38Z</time>
      </trkpt>
      <trkpt lat="45.95261" lon="4.74962">
        <ele>192</ele>
        <time>2017-06-14T09:24:39Z</time>
      </trkpt>
      <trkpt lat="45.95257" lon="4.74956">
        <ele>192</ele>
        <time>2017-06-14T09:24:40Z</time>
      </trkpt>
      <trkpt lat="45.95254" lon="4.7495">
        <ele>192</ele>
        <time>2017-06-14T09:24:41Z</time>
      </trkpt>
      <trkpt lat="45.9525" lon="4.74945">
        <ele>193</ele>
        <time>2017-06-14T09:24:42Z</time>
      </trkpt>
      <trkpt lat="45.95247" lon="4.7494">
        <ele>192</ele>
        <time>2017-06-14T09:24:43Z</time>
      </trkpt>
      <trkpt lat="45.95244" lon="4.74934">
        <ele>192</ele>
        <time>2017-06-14T09:24:44Z</time>
      </trkpt>
      <trkpt lat="45.95241" lon="4.7493">
        <ele>192</ele>
        <time>2017-06-14T09:24:45Z</time>
      </trkpt>
      <trkpt lat="45.95235" lon="4.74921">
        <ele>192</ele>
        <time>2017-06-14T09:24:47Z</time>
      </trkpt>
      <trkpt lat="45.95232" lon="4.74916">
        <ele>193</ele>
        <time>2017-06-14T09:24:48Z</time>
      </trkpt>
      <trkpt lat="45.95228" lon="4.74911">
        <ele>193</ele>
        <time>2017-06-14T09:24:49Z</time>
      </trkpt>
      <trkpt lat="45.95225" lon="4.74906">
        <ele>193</ele>
        <time>2017-06-14T09:24:50Z</time>
      </trkpt>
      <trkpt lat="45.95222" lon="4.74901">
        <ele>193</ele>
        <time>2017-06-14T09:24:51Z</time>
      </trkpt>
      <trkpt lat="45.95219" lon="4.74895">
        <ele>193</ele>
        <time>2017-06-14T09:24:52Z</time>
      </trkpt>
      <trkpt lat="45.95216" lon="4.7489">
        <ele>193</ele>
        <time>2017-06-14T09:24:53Z</time>
      </trkpt>
      <trkpt lat="45.95212" lon="4.74885">
        <ele>193</ele>
        <time>2017-06-14T09:24:54Z</time>
      </trkpt>
      <trkpt lat="45.95209" lon="4.74879">
        <ele>193</ele>
        <time>2017-06-14T09:24:55Z</time>
      </trkpt>
      <trkpt lat="45.95206" lon="4.74873">
        <ele>194</ele>
        <time>2017-06-14T09:24:56Z</time>
      </trkpt>
      <trkpt lat="45.95202" lon="4.74868">
        <ele>194</ele>
        <time>2017-06-14T09:24:57Z</time>
      </trkpt>
      <trkpt lat="45.95199" lon="4.74862">
        <ele>194</ele>
        <time>2017-06-14T09:24:58Z</time>
      </trkpt>
      <trkpt lat="45.95195" lon="4.74856">
        <ele>194</ele>
        <time>2017-06-14T09:24:59Z</time>
      </trkpt>
      <trkpt lat="45.95191" lon="4.7485">
        <ele>194</ele>
        <time>2017-06-14T09:25:00Z</time>
      </trkpt>
      <trkpt lat="45.95187" lon="4.74844">
        <ele>194</ele>
        <time>2017-06-14T09:25:01Z</time>
      </trkpt>
      <trkpt lat="45.95184" lon="4.74837">
        <ele>194</ele>
        <time>2017-06-14T09:25:02Z</time>
      </trkpt>
      <trkpt lat="45.9518" lon="4.74831">
        <ele>194</ele>
        <time>2017-06-14T09:25:03Z</time>
      </trkpt>
      <trkpt lat="45.95177" lon="4.74825">
        <ele>194</ele>
        <time>2017-06-14T09:25:04Z</time>
      </trkpt>
      <trkpt lat="45.95173" lon="4.74819">
        <ele>194</ele>
        <time>2017-06-14T09:25:05Z</time>
      </trkpt>
      <trkpt lat="45.9517" lon="4.74813">
        <ele>194</ele>
        <time>2017-06-14T09:25:06Z</time>
      </trkpt>
      <trkpt lat="45.95166" lon="4.74808">
        <ele>194</ele>
        <time>2017-06-14T09:25:07Z</time>
      </trkpt>
      <trkpt lat="45.95163" lon="4.74802">
        <ele>194</ele>
        <time>2017-06-14T09:25:08Z</time>
      </trkpt>
      <trkpt lat="45.95159" lon="4.74796">
        <ele>194</ele>
        <time>2017-06-14T09:25:09Z</time>
      </trkpt>
      <trkpt lat="45.95156" lon="4.7479">
        <ele>194</ele>
        <time>2017-06-14T09:25:10Z</time>
      </trkpt>
      <trkpt lat="45.95152" lon="4.74785">
        <ele>194</ele>
        <time>2017-06-14T09:25:11Z</time>
      </trkpt>
      <trkpt lat="45.95148" lon="4.74779">
        <ele>194</ele>
        <time>2017-06-14T09:25:12Z</time>
      </trkpt>
      <trkpt lat="45.95145" lon="4.74773">
        <ele>194</ele>
        <time>2017-06-14T09:25:13Z</time>
      </trkpt>
      <trkpt lat="45.95141" lon="4.74767">
        <ele>194</ele>
        <time>2017-06-14T09:25:14Z</time>
      </trkpt>
      <trkpt lat="45.95138" lon="4.7476">
        <ele>194</ele>
        <time>2017-06-14T09:25:15Z</time>
      </trkpt>
      <trkpt lat="45.95134" lon="4.74754">
        <ele>194</ele>
        <time>2017-06-14T09:25:16Z</time>
      </trkpt>
      <trkpt lat="45.9513" lon="4.74748">
        <ele>194</ele>
        <time>2017-06-14T09:25:17Z</time>
      </trkpt>
      <trkpt lat="45.95127" lon="4.74741">
        <ele>194</ele>
        <time>2017-06-14T09:25:18Z</time>
      </trkpt>
      <trkpt lat="45.95123" lon="4.74735">
        <ele>194</ele>
        <time>2017-06-14T09:25:19Z</time>
      </trkpt>
      <trkpt lat="45.9512" lon="4.74728">
        <ele>194</ele>
        <time>2017-06-14T09:25:20Z</time>
      </trkpt>
      <trkpt lat="45.95117" lon="4.74722">
        <ele>194</ele>
        <time>2017-06-14T09:25:21Z</time>
      </trkpt>
      <trkpt lat="45.95114" lon="4.74716">
        <ele>194</ele>
        <time>2017-06-14T09:25:22Z</time>
      </trkpt>
      <trkpt lat="45.95111" lon="4.7471">
        <ele>194</ele>
        <time>2017-06-14T09:25:23Z</time>
      </trkpt>
      <trkpt lat="45.95107" lon="4.74705">
        <ele>194</ele>
        <time>2017-06-14T09:25:24Z</time>
      </trkpt>
      <trkpt lat="45.95102" lon="4.74699">
        <ele>194</ele>
        <time>2017-06-14T09:25:25Z</time>
      </trkpt>
      <trkpt lat="45.95098" lon="4.74693">
        <ele>194</ele>
        <time>2017-06-14T09:25:26Z</time>
      </trkpt>
      <trkpt lat="45.95095" lon="4.74687">
        <ele>195</ele>
        <time>2017-06-14T09:25:27Z</time>
      </trkpt>
      <trkpt lat="45.95091" lon="4.7468">
        <ele>195</ele>
        <time>2017-06-14T09:25:28Z</time>
      </trkpt>
      <trkpt lat="45.95087" lon="4.74673">
        <ele>195</ele>
        <time>2017-06-14T09:25:29Z</time>
      </trkpt>
      <trkpt lat="45.95083" lon="4.74666">
        <ele>195</ele>
        <time>2017-06-14T09:25:30Z</time>
      </trkpt>
      <trkpt lat="45.95079" lon="4.7466">
        <ele>195</ele>
        <time>2017-06-14T09:25:31Z</time>
      </trkpt>
      <trkpt lat="45.95075" lon="4.74653">
        <ele>195</ele>
        <time>2017-06-14T09:25:32Z</time>
      </trkpt>
      <trkpt lat="45.95071" lon="4.74646">
        <ele>195</ele>
        <time>2017-06-14T09:25:33Z</time>
      </trkpt>
      <trkpt lat="45.95067" lon="4.7464">
        <ele>195</ele>
        <time>2017-06-14T09:25:34Z</time>
      </trkpt>
      <trkpt lat="45.95064" lon="4.74634">
        <ele>195</ele>
        <time>2017-06-14T09:25:35Z</time>
      </trkpt>
      <trkpt lat="45.95061" lon="4.74627">
        <ele>195</ele>
        <time>2017-06-14T09:25:36Z</time>
      </trkpt>
      <trkpt lat="45.95057" lon="4.74621">
        <ele>194</ele>
        <time>2017-06-14T09:25:37Z</time>
      </trkpt>
      <trkpt lat="45.95054" lon="4.74615">
        <ele>194</ele>
        <time>2017-06-14T09:25:38Z</time>
      </trkpt>
      <trkpt lat="45.95051" lon="4.74609">
        <ele>194</ele>
        <time>2017-06-14T09:25:39Z</time>
      </trkpt>
      <trkpt lat="45.95049" lon="4.74602">
        <ele>194</ele>
        <time>2017-06-14T09:25:40Z</time>
      </trkpt>
      <trkpt lat="45.95046" lon="4.74596">
        <ele>194</ele>
        <time>2017-06-14T09:25:41Z</time>
      </trkpt>
      <trkpt lat="45.95043" lon="4.7459">
        <ele>194</ele>
        <time>2017-06-14T09:25:42Z</time>
      </trkpt>
      <trkpt lat="45.9504" lon="4.74584">
        <ele>194</ele>
        <time>2017-06-14T09:25:43Z</time>
      </trkpt>
      <trkpt lat="45.95037" lon="4.74578">
        <ele>195</ele>
        <time>2017-06-14T09:25:44Z</time>
      </trkpt>
      <trkpt lat="45.95034" lon="4.74572">
        <ele>194</ele>
        <time>2017-06-14T09:25:45Z</time>
      </trkpt>
      <trkpt lat="45.95031" lon="4.74567">
        <ele>194</ele>
        <time>2017-06-14T09:25:46Z</time>
      </trkpt>
      <trkpt lat="45.95028" lon="4.74562">
        <ele>194</ele>
        <time>2017-06-14T09:25:47Z</time>
      </trkpt>
      <trkpt lat="45.95024" lon="4.74555">
        <ele>194</ele>
        <time>2017-06-14T09:25:48Z</time>
      </trkpt>
      <trkpt lat="45.95021" lon="4.74549">
        <ele>194</ele>
        <time>2017-06-14T09:25:49Z</time>
      </trkpt>
      <trkpt lat="45.95017" lon="4.74543">
        <ele>194</ele>
        <time>2017-06-14T09:25:50Z</time>
      </trkpt>
      <trkpt lat="45.95014" lon="4.74538">
        <ele>194</ele>
        <time>2017-06-14T09:25:51Z</time>
      </trkpt>
      <trkpt lat="45.95011" lon="4.74532">
        <ele>194</ele>
        <time>2017-06-14T09:25:52Z</time>
      </trkpt>
      <trkpt lat="45.95008" lon="4.74526">
        <ele>194</ele>
        <time>2017-06-14T09:25:53Z</time>
      </trkpt>
      <trkpt lat="45.95005" lon="4.7452">
        <ele>194</ele>
        <time>2017-06-14T09:25:54Z</time>
      </trkpt>
      <trkpt lat="45.95" lon="4.74513">
        <ele>194</ele>
        <time>2017-06-14T09:25:55Z</time>
      </trkpt>
      <trkpt lat="45.94997" lon="4.74506">
        <ele>193</ele>
        <time>2017-06-14T09:25:56Z</time>
      </trkpt>
      <trkpt lat="45.94993" lon="4.745">
        <ele>193</ele>
        <time>2017-06-14T09:25:57Z</time>
      </trkpt>
      <trkpt lat="45.94989" lon="4.74493">
        <ele>193</ele>
        <time>2017-06-14T09:25:58Z</time>
      </trkpt>
      <trkpt lat="45.94984" lon="4.74486">
        <ele>193</ele>
        <time>2017-06-14T09:25:59Z</time>
      </trkpt>
      <trkpt lat="45.9498" lon="4.74479">
        <ele>193</ele>
        <time>2017-06-14T09:26:00Z</time>
      </trkpt>
      <trkpt lat="45.94976" lon="4.74472">
        <ele>193</ele>
        <time>2017-06-14T09:26:01Z</time>
      </trkpt>
      <trkpt lat="45.94972" lon="4.74465">
        <ele>193</ele>
        <time>2017-06-14T09:26:02Z</time>
      </trkpt>
      <trkpt lat="45.94969" lon="4.74458">
        <ele>192</ele>
        <time>2017-06-14T09:26:03Z</time>
      </trkpt>
      <trkpt lat="45.94966" lon="4.74451">
        <ele>192</ele>
        <time>2017-06-14T09:26:04Z</time>
      </trkpt>
      <trkpt lat="45.94962" lon="4.74444">
        <ele>192</ele>
        <time>2017-06-14T09:26:05Z</time>
      </trkpt>
      <trkpt lat="45.94959" lon="4.74438">
        <ele>192</ele>
        <time>2017-06-14T09:26:06Z</time>
      </trkpt>
      <trkpt lat="45.94955" lon="4.74432">
        <ele>192</ele>
        <time>2017-06-14T09:26:07Z</time>
      </trkpt>
      <trkpt lat="45.94951" lon="4.74425">
        <ele>192</ele>
        <time>2017-06-14T09:26:08Z</time>
      </trkpt>
      <trkpt lat="45.94947" lon="4.74418">
        <ele>192</ele>
        <time>2017-06-14T09:26:09Z</time>
      </trkpt>
      <trkpt lat="45.94944" lon="4.74411">
        <ele>192</ele>
        <time>2017-06-14T09:26:10Z</time>
      </trkpt>
      <trkpt lat="45.94939" lon="4.74405">
        <ele>192</ele>
        <time>2017-06-14T09:26:11Z</time>
      </trkpt>
      <trkpt lat="45.94936" lon="4.74398">
        <ele>192</ele>
        <time>2017-06-14T09:26:12Z</time>
      </trkpt>
      <trkpt lat="45.94932" lon="4.74392">
        <ele>192</ele>
        <time>2017-06-14T09:26:13Z</time>
      </trkpt>
      <trkpt lat="45.94929" lon="4.74385">
        <ele>192</ele>
        <time>2017-06-14T09:26:14Z</time>
      </trkpt>
      <trkpt lat="45.94925" lon="4.74379">
        <ele>192</ele>
        <time>2017-06-14T09:26:15Z</time>
      </trkpt>
      <trkpt lat="45.94921" lon="4.74371">
        <ele>192</ele>
        <time>2017-06-14T09:26:16Z</time>
      </trkpt>
      <trkpt lat="45.94916" lon="4.74364">
        <ele>191</ele>
        <time>2017-06-14T09:26:17Z</time>
      </trkpt>
      <trkpt lat="45.94912" lon="4.74357">
        <ele>191</ele>
        <time>2017-06-14T09:26:18Z</time>
      </trkpt>
      <trkpt lat="45.94907" lon="4.74349">
        <ele>191</ele>
        <time>2017-06-14T09:26:19Z</time>
      </trkpt>
      <trkpt lat="45.94904" lon="4.74341">
        <ele>191</ele>
        <time>2017-06-14T09:26:20Z</time>
      </trkpt>
      <trkpt lat="45.949" lon="4.74334">
        <ele>191</ele>
        <time>2017-06-14T09:26:21Z</time>
      </trkpt>
      <trkpt lat="45.94896" lon="4.74326">
        <ele>191</ele>
        <time>2017-06-14T09:26:22Z</time>
      </trkpt>
      <trkpt lat="45.94891" lon="4.74319">
        <ele>191</ele>
        <time>2017-06-14T09:26:23Z</time>
      </trkpt>
      <trkpt lat="45.94888" lon="4.74312">
        <ele>191</ele>
        <time>2017-06-14T09:26:24Z</time>
      </trkpt>
      <trkpt lat="45.94884" lon="4.74305">
        <ele>191</ele>
        <time>2017-06-14T09:26:25Z</time>
      </trkpt>
      <trkpt lat="45.9488" lon="4.74297">
        <ele>191</ele>
        <time>2017-06-14T09:26:26Z</time>
      </trkpt>
      <trkpt lat="45.94877" lon="4.7429">
        <ele>191</ele>
        <time>2017-06-14T09:26:27Z</time>
      </trkpt>
      <trkpt lat="45.94873" lon="4.74283">
        <ele>191</ele>
        <time>2017-06-14T09:26:28Z</time>
      </trkpt>
      <trkpt lat="45.9487" lon="4.74275">
        <ele>191</ele>
        <time>2017-06-14T09:26:29Z</time>
      </trkpt>
      <trkpt lat="45.94866" lon="4.74268">
        <ele>190</ele>
        <time>2017-06-14T09:26:30Z</time>
      </trkpt>
      <trkpt lat="45.94862" lon="4.7426">
        <ele>190</ele>
        <time>2017-06-14T09:26:31Z</time>
      </trkpt>
      <trkpt lat="45.94858" lon="4.74252">
        <ele>190</ele>
        <time>2017-06-14T09:26:32Z</time>
      </trkpt>
      <trkpt lat="45.94854" lon="4.74245">
        <ele>190</ele>
        <time>2017-06-14T09:26:33Z</time>
      </trkpt>
      <trkpt lat="45.94851" lon="4.74237">
        <ele>190</ele>
        <time>2017-06-14T09:26:34Z</time>
      </trkpt>
      <trkpt lat="45.94847" lon="4.7423">
        <ele>190</ele>
        <time>2017-06-14T09:26:35Z</time>
      </trkpt>
      <trkpt lat="45.94844" lon="4.74223">
        <ele>190</ele>
        <time>2017-06-14T09:26:36Z</time>
      </trkpt>
      <trkpt lat="45.9484" lon="4.74216">
        <ele>190</ele>
        <time>2017-06-14T09:26:37Z</time>
      </trkpt>
      <trkpt lat="45.94836" lon="4.7421">
        <ele>190</ele>
        <time>2017-06-14T09:26:38Z</time>
      </trkpt>
      <trkpt lat="45.94833" lon="4.74204">
        <ele>189</ele>
        <time>2017-06-14T09:26:39Z</time>
      </trkpt>
      <trkpt lat="45.9483" lon="4.74198">
        <ele>189</ele>
        <time>2017-06-14T09:26:40Z</time>
      </trkpt>
      <trkpt lat="45.94826" lon="4.74192">
        <ele>189</ele>
        <time>2017-06-14T09:26:41Z</time>
      </trkpt>
      <trkpt lat="45.94823" lon="4.74186">
        <ele>189</ele>
        <time>2017-06-14T09:26:42Z</time>
      </trkpt>
      <trkpt lat="45.9482" lon="4.74179">
        <ele>189</ele>
        <time>2017-06-14T09:26:43Z</time>
      </trkpt>
      <trkpt lat="45.94816" lon="4.74173">
        <ele>189</ele>
        <time>2017-06-14T09:26:44Z</time>
      </trkpt>
      <trkpt lat="45.94813" lon="4.74166">
        <ele>189</ele>
        <time>2017-06-14T09:26:45Z</time>
      </trkpt>
      <trkpt lat="45.94808" lon="4.74158">
        <ele>189</ele>
        <time>2017-06-14T09:26:46Z</time>
      </trkpt>
      <trkpt lat="45.94805" lon="4.74151">
        <ele>189</ele>
        <time>2017-06-14T09:26:47Z</time>
      </trkpt>
      <trkpt lat="45.948" lon="4.74144">
        <ele>189</ele>
        <time>2017-06-14T09:26:48Z</time>
      </trkpt>
      <trkpt lat="45.94796" lon="4.74137">
        <ele>189</ele>
        <time>2017-06-14T09:26:49Z</time>
      </trkpt>
      <trkpt lat="45.94792" lon="4.74131">
        <ele>189</ele>
        <time>2017-06-14T09:26:50Z</time>
      </trkpt>
      <trkpt lat="45.94788" lon="4.74124">
        <ele>189</ele>
        <time>2017-06-14T09:26:51Z</time>
      </trkpt>
      <trkpt lat="45.94783" lon="4.74117">
        <ele>189</ele>
        <time>2017-06-14T09:26:52Z</time>
      </trkpt>
      <trkpt lat="45.94779" lon="4.74111">
        <ele>189</ele>
        <time>2017-06-14T09:26:53Z</time>
      </trkpt>
      <trkpt lat="45.94775" lon="4.74104">
        <ele>189</ele>
        <time>2017-06-14T09:26:54Z</time>
      </trkpt>
      <trkpt lat="45.9477" lon="4.74098">
        <ele>189</ele>
        <time>2017-06-14T09:26:55Z</time>
      </trkpt>
      <trkpt lat="45.94766" lon="4.74092">
        <ele>189</ele>
        <time>2017-06-14T09:26:56Z</time>
      </trkpt>
      <trkpt lat="45.94761" lon="4.74086">
        <ele>189</ele>
        <time>2017-06-14T09:26:57Z</time>
      </trkpt>
      <trkpt lat="45.94756" lon="4.7408">
        <ele>189</ele>
        <time>2017-06-14T09:26:58Z</time>
      </trkpt>
      <trkpt lat="45.94752" lon="4.74075">
        <ele>189</ele>
        <time>2017-06-14T09:26:59Z</time>
      </trkpt>
      <trkpt lat="45.94748" lon="4.74069">
        <ele>188</ele>
        <time>2017-06-14T09:27:00Z</time>
      </trkpt>
      <trkpt lat="45.94744" lon="4.74064">
        <ele>188</ele>
        <time>2017-06-14T09:27:01Z</time>
      </trkpt>
      <trkpt lat="45.94739" lon="4.74059">
        <ele>188</ele>
        <time>2017-06-14T09:27:02Z</time>
      </trkpt>
      <trkpt lat="45.94735" lon="4.74053">
        <ele>188</ele>
        <time>2017-06-14T09:27:03Z</time>
      </trkpt>
      <trkpt lat="45.94731" lon="4.74048">
        <ele>188</ele>
        <time>2017-06-14T09:27:04Z</time>
      </trkpt>
      <trkpt lat="45.94727" lon="4.74042">
        <ele>188</ele>
        <time>2017-06-14T09:27:05Z</time>
      </trkpt>
      <trkpt lat="45.94724" lon="4.74037">
        <ele>187</ele>
        <time>2017-06-14T09:27:06Z</time>
      </trkpt>
      <trkpt lat="45.94719" lon="4.74033">
        <ele>187</ele>
        <time>2017-06-14T09:27:07Z</time>
      </trkpt>
      <trkpt lat="45.94715" lon="4.74028">
        <ele>187</ele>
        <time>2017-06-14T09:27:08Z</time>
      </trkpt>
      <trkpt lat="45.94711" lon="4.74023">
        <ele>187</ele>
        <time>2017-06-14T09:27:09Z</time>
      </trkpt>
      <trkpt lat="45.94707" lon="4.74018">
        <ele>187</ele>
        <time>2017-06-14T09:27:10Z</time>
      </trkpt>
      <trkpt lat="45.94704" lon="4.74013">
        <ele>187</ele>
        <time>2017-06-14T09:27:11Z</time>
      </trkpt>
      <trkpt lat="45.947" lon="4.74008">
        <ele>187</ele>
        <time>2017-06-14T09:27:12Z</time>
      </trkpt>
      <trkpt lat="45.94696" lon="4.74002">
        <ele>187</ele>
        <time>2017-06-14T09:27:13Z</time>
      </trkpt>
      <trkpt lat="45.94691" lon="4.73996">
        <ele>187</ele>
        <time>2017-06-14T09:27:14Z</time>
      </trkpt>
      <trkpt lat="45.94687" lon="4.7399">
        <ele>187</ele>
        <time>2017-06-14T09:27:15Z</time>
      </trkpt>
      <trkpt lat="45.94683" lon="4.73984">
        <ele>187</ele>
        <time>2017-06-14T09:27:16Z</time>
      </trkpt>
      <trkpt lat="45.94678" lon="4.73978">
        <ele>187</ele>
        <time>2017-06-14T09:27:17Z</time>
      </trkpt>
      <trkpt lat="45.94674" lon="4.73971">
        <ele>187</ele>
        <time>2017-06-14T09:27:18Z</time>
      </trkpt>
      <trkpt lat="45.94669" lon="4.73965">
        <ele>187</ele>
        <time>2017-06-14T09:27:19Z</time>
      </trkpt>
      <trkpt lat="45.94665" lon="4.73958">
        <ele>187</ele>
        <time>2017-06-14T09:27:20Z</time>
      </trkpt>
      <trkpt lat="45.9466" lon="4.73952">
        <ele>187</ele>
        <time>2017-06-14T09:27:21Z</time>
      </trkpt>
      <trkpt lat="45.94656" lon="4.73946">
        <ele>187</ele>
        <time>2017-06-14T09:27:22Z</time>
      </trkpt>
      <trkpt lat="45.94651" lon="4.7394">
        <ele>187</ele>
        <time>2017-06-14T09:27:23Z</time>
      </trkpt>
      <trkpt lat="45.94646" lon="4.73934">
        <ele>187</ele>
        <time>2017-06-14T09:27:24Z</time>
      </trkpt>
      <trkpt lat="45.94642" lon="4.73929">
        <ele>187</ele>
        <time>2017-06-14T09:27:25Z</time>
      </trkpt>
      <trkpt lat="45.94637" lon="4.73923">
        <ele>187</ele>
        <time>2017-06-14T09:27:26Z</time>
      </trkpt>
      <trkpt lat="45.94633" lon="4.73917">
        <ele>187</ele>
        <time>2017-06-14T09:27:27Z</time>
      </trkpt>
      <trkpt lat="45.94628" lon="4.73912">
        <ele>187</ele>
        <time>2017-06-14T09:27:28Z</time>
      </trkpt>
      <trkpt lat="45.94624" lon="4.73907">
        <ele>187</ele>
        <time>2017-06-14T09:27:29Z</time>
      </trkpt>
      <trkpt lat="45.9462" lon="4.73901">
        <ele>187</ele>
        <time>2017-06-14T09:27:30Z</time>
      </trkpt>
      <trkpt lat="45.94615" lon="4.73895">
        <ele>187</ele>
        <time>2017-06-14T09:27:31Z</time>
      </trkpt>
      <trkpt lat="45.94611" lon="4.7389">
        <ele>187</ele>
        <time>2017-06-14T09:27:32Z</time>
      </trkpt>
      <trkpt lat="45.94607" lon="4.73884">
        <ele>187</ele>
        <time>2017-06-14T09:27:33Z</time>
      </trkpt>
      <trkpt lat="45.94602" lon="4.73879">
        <ele>187</ele>
        <time>2017-06-14T09:27:34Z</time>
      </trkpt>
      <trkpt lat="45.94597" lon="4.73873">
        <ele>187</ele>
        <time>2017-06-14T09:27:35Z</time>
      </trkpt>
      <trkpt lat="45.94592" lon="4.73868">
        <ele>187</ele>
        <time>2017-06-14T09:27:36Z</time>
      </trkpt>
      <trkpt lat="45.94587" lon="4.73862">
        <ele>187</ele>
        <time>2017-06-14T09:27:37Z</time>
      </trkpt>
      <trkpt lat="45.94581" lon="4.73857">
        <ele>186</ele>
        <time>2017-06-14T09:27:38Z</time>
      </trkpt>
      <trkpt lat="45.94576" lon="4.73852">
        <ele>186</ele>
        <time>2017-06-14T09:27:39Z</time>
      </trkpt>
      <trkpt lat="45.94571" lon="4.73847">
        <ele>186</ele>
        <time>2017-06-14T09:27:40Z</time>
      </trkpt>
      <trkpt lat="45.94566" lon="4.73843">
        <ele>186</ele>
        <time>2017-06-14T09:27:41Z</time>
      </trkpt>
      <trkpt lat="45.94561" lon="4.73837">
        <ele>186</ele>
        <time>2017-06-14T09:27:42Z</time>
      </trkpt>
      <trkpt lat="45.94557" lon="4.73832">
        <ele>186</ele>
        <time>2017-06-14T09:27:43Z</time>
      </trkpt>
      <trkpt lat="45.94552" lon="4.73827">
        <ele>186</ele>
        <time>2017-06-14T09:27:44Z</time>
      </trkpt>
      <trkpt lat="45.94547" lon="4.73822">
        <ele>186</ele>
        <time>2017-06-14T09:27:45Z</time>
      </trkpt>
      <trkpt lat="45.94542" lon="4.73817">
        <ele>186</ele>
        <time>2017-06-14T09:27:46Z</time>
      </trkpt>
      <trkpt lat="45.94537" lon="4.73812">
        <ele>186</ele>
        <time>2017-06-14T09:27:47Z</time>
      </trkpt>
      <trkpt lat="45.94533" lon="4.73807">
        <ele>186</ele>
        <time>2017-06-14T09:27:48Z</time>
      </trkpt>
      <trkpt lat="45.94528" lon="4.73802">
        <ele>186</ele>
        <time>2017-06-14T09:27:49Z</time>
      </trkpt>
      <trkpt lat="45.94524" lon="4.73797">
        <ele>186</ele>
        <time>2017-06-14T09:27:50Z</time>
      </trkpt>
      <trkpt lat="45.94519" lon="4.73793">
        <ele>186</ele>
        <time>2017-06-14T09:27:51Z</time>
      </trkpt>
      <trkpt lat="45.94515" lon="4.73788">
        <ele>186</ele>
        <time>2017-06-14T09:27:52Z</time>
      </trkpt>
      <trkpt lat="45.94511" lon="4.73783">
        <ele>186</ele>
        <time>2017-06-14T09:27:53Z</time>
      </trkpt>
      <trkpt lat="45.94507" lon="4.73777">
        <ele>186</ele>
        <time>2017-06-14T09:27:54Z</time>
      </trkpt>
      <trkpt lat="45.94503" lon="4.73772">
        <ele>186</ele>
        <time>2017-06-14T09:27:55Z</time>
      </trkpt>
      <trkpt lat="45.945" lon="4.73766">
        <ele>186</ele>
        <time>2017-06-14T09:27:56Z</time>
      </trkpt>
      <trkpt lat="45.94497" lon="4.73759">
        <ele>186</ele>
        <time>2017-06-14T09:27:57Z</time>
      </trkpt>
      <trkpt lat="45.94496" lon="4.73752">
        <ele>186</ele>
        <time>2017-06-14T09:27:58Z</time>
      </trkpt>
      <trkpt lat="45.94495" lon="4.73745">
        <ele>186</ele>
        <time>2017-06-14T09:27:59Z</time>
      </trkpt>
      <trkpt lat="45.94495" lon="4.73737">
        <ele>186</ele>
        <time>2017-06-14T09:28:00Z</time>
      </trkpt>
      <trkpt lat="45.94496" lon="4.73728">
        <ele>186</ele>
        <time>2017-06-14T09:28:01Z</time>
      </trkpt>
      <trkpt lat="45.94496" lon="4.7372">
        <ele>186</ele>
        <time>2017-06-14T09:28:02Z</time>
      </trkpt>
      <trkpt lat="45.94497" lon="4.73712">
        <ele>186</ele>
        <time>2017-06-14T09:28:03Z</time>
      </trkpt>
      <trkpt lat="45.94498" lon="4.73702">
        <ele>186</ele>
        <time>2017-06-14T09:28:04Z</time>
      </trkpt>
      <trkpt lat="45.94499" lon="4.73693">
        <ele>186</ele>
        <time>2017-06-14T09:28:05Z</time>
      </trkpt>
      <trkpt lat="45.94501" lon="4.73684">
        <ele>185</ele>
        <time>2017-06-14T09:28:06Z</time>
      </trkpt>
      <trkpt lat="45.94502" lon="4.73675">
        <ele>185</ele>
        <time>2017-06-14T09:28:07Z</time>
      </trkpt>
      <trkpt lat="45.94503" lon="4.73666">
        <ele>185</ele>
        <time>2017-06-14T09:28:08Z</time>
      </trkpt>
      <trkpt lat="45.94504" lon="4.73656">
        <ele>185</ele>
        <time>2017-06-14T09:28:09Z</time>
      </trkpt>
      <trkpt lat="45.94505" lon="4.73647">
        <ele>184</ele>
        <time>2017-06-14T09:28:10Z</time>
      </trkpt>
      <trkpt lat="45.94507" lon="4.73638">
        <ele>184</ele>
        <time>2017-06-14T09:28:11Z</time>
      </trkpt>
      <trkpt lat="45.94507" lon="4.73628">
        <ele>184</ele>
        <time>2017-06-14T09:28:12Z</time>
      </trkpt>
      <trkpt lat="45.94507" lon="4.73619">
        <ele>184</ele>
        <time>2017-06-14T09:28:13Z</time>
      </trkpt>
      <trkpt lat="45.94507" lon="4.7361">
        <ele>184</ele>
        <time>2017-06-14T09:28:14Z</time>
      </trkpt>
      <trkpt lat="45.94508" lon="4.73602">
        <ele>184</ele>
        <time>2017-06-14T09:28:15Z</time>
      </trkpt>
      <trkpt lat="45.94508" lon="4.73593">
        <ele>184</ele>
        <time>2017-06-14T09:28:16Z</time>
      </trkpt>
      <trkpt lat="45.94508" lon="4.73584">
        <ele>185</ele>
        <time>2017-06-14T09:28:17Z</time>
      </trkpt>
      <trkpt lat="45.94509" lon="4.73575">
        <ele>184</ele>
        <time>2017-06-14T09:28:18Z</time>
      </trkpt>
      <trkpt lat="45.94509" lon="4.73566">
        <ele>184</ele>
        <time>2017-06-14T09:28:19Z</time>
      </trkpt>
      <trkpt lat="45.94509" lon="4.73557">
        <ele>183</ele>
        <time>2017-06-14T09:28:20Z</time>
      </trkpt>
      <trkpt lat="45.9451" lon="4.73547">
        <ele>183</ele>
        <time>2017-06-14T09:28:21Z</time>
      </trkpt>
      <trkpt lat="45.9451" lon="4.73538">
        <ele>183</ele>
        <time>2017-06-14T09:28:22Z</time>
      </trkpt>
      <trkpt lat="45.9451" lon="4.73528">
        <ele>183</ele>
        <time>2017-06-14T09:28:23Z</time>
      </trkpt>
      <trkpt lat="45.9451" lon="4.73518">
        <ele>183</ele>
        <time>2017-06-14T09:28:24Z</time>
      </trkpt>
      <trkpt lat="45.9451" lon="4.73509">
        <ele>183</ele>
        <time>2017-06-14T09:28:25Z</time>
      </trkpt>
      <trkpt lat="45.9451" lon="4.73499">
        <ele>182</ele>
        <time>2017-06-14T09:28:26Z</time>
      </trkpt>
      <trkpt lat="45.9451" lon="4.73489">
        <ele>182</ele>
        <time>2017-06-14T09:28:27Z</time>
      </trkpt>
      <trkpt lat="45.94511" lon="4.73479">
        <ele>182</ele>
        <time>2017-06-14T09:28:28Z</time>
      </trkpt>
      <trkpt lat="45.94512" lon="4.73469">
        <ele>181</ele>
        <time>2017-06-14T09:28:29Z</time>
      </trkpt>
      <trkpt lat="45.94512" lon="4.73459">
        <ele>181</ele>
        <time>2017-06-14T09:28:30Z</time>
      </trkpt>
      <trkpt lat="45.94512" lon="4.73449">
        <ele>181</ele>
        <time>2017-06-14T09:28:31Z</time>
      </trkpt>
      <trkpt lat="45.9451" lon="4.73439">
        <ele>181</ele>
        <time>2017-06-14T09:28:32Z</time>
      </trkpt>
      <trkpt lat="45.94509" lon="4.73428">
        <ele>180</ele>
        <time>2017-06-14T09:28:33Z</time>
      </trkpt>
      <trkpt lat="45.94508" lon="4.73417">
        <ele>180</ele>
        <time>2017-06-14T09:28:34Z</time>
      </trkpt>
      <trkpt lat="45.94507" lon="4.73406">
        <ele>179</ele>
        <time>2017-06-14T09:28:35Z</time>
      </trkpt>
      <trkpt lat="45.94506" lon="4.73395">
        <ele>179</ele>
        <time>2017-06-14T09:28:36Z</time>
      </trkpt>
      <trkpt lat="45.94506" lon="4.73384">
        <ele>179</ele>
        <time>2017-06-14T09:28:37Z</time>
      </trkpt>
      <trkpt lat="45.94505" lon="4.73374">
        <ele>178</ele>
        <time>2017-06-14T09:28:38Z</time>
      </trkpt>
      <trkpt lat="45.94504" lon="4.73363">
        <ele>178</ele>
        <time>2017-06-14T09:28:39Z</time>
      </trkpt>
      <trkpt lat="45.94501" lon="4.73352">
        <ele>178</ele>
        <time>2017-06-14T09:28:40Z</time>
      </trkpt>
      <trkpt lat="45.945" lon="4.7334">
        <ele>177</ele>
        <time>2017-06-14T09:28:41Z</time>
      </trkpt>
      <trkpt lat="45.94499" lon="4.7333">
        <ele>177</ele>
        <time>2017-06-14T09:28:42Z</time>
      </trkpt>
      <trkpt lat="45.94498" lon="4.73319">
        <ele>177</ele>
        <time>2017-06-14T09:28:43Z</time>
      </trkpt>
      <trkpt lat="45.94496" lon="4.73308">
        <ele>177</ele>
        <time>2017-06-14T09:28:44Z</time>
      </trkpt>
      <trkpt lat="45.94495" lon="4.73297">
        <ele>177</ele>
        <time>2017-06-14T09:28:45Z</time>
      </trkpt>
      <trkpt lat="45.94493" lon="4.73286">
        <ele>177</ele>
        <time>2017-06-14T09:28:46Z</time>
      </trkpt>
      <trkpt lat="45.94491" lon="4.73275">
        <ele>177</ele>
        <time>2017-06-14T09:28:47Z</time>
      </trkpt>
      <trkpt lat="45.94489" lon="4.73264">
        <ele>176</ele>
        <time>2017-06-14T09:28:48Z</time>
      </trkpt>
      <trkpt lat="45.94488" lon="4.73252">
        <ele>176</ele>
        <time>2017-06-14T09:28:49Z</time>
      </trkpt>
      <trkpt lat="45.94487" lon="4.73241">
        <ele>175</ele>
        <time>2017-06-14T09:28:50Z</time>
      </trkpt>
      <trkpt lat="45.94487" lon="4.7323">
        <ele>175</ele>
        <time>2017-06-14T09:28:51Z</time>
      </trkpt>
      <trkpt lat="45.94486" lon="4.73219">
        <ele>175</ele>
        <time>2017-06-14T09:28:52Z</time>
      </trkpt>
      <trkpt lat="45.94484" lon="4.73208">
        <ele>175</ele>
        <time>2017-06-14T09:28:53Z</time>
      </trkpt>
      <trkpt lat="45.94483" lon="4.73197">
        <ele>174</ele>
        <time>2017-06-14T09:28:54Z</time>
      </trkpt>
      <trkpt lat="45.94481" lon="4.73186">
        <ele>174</ele>
        <time>2017-06-14T09:28:55Z</time>
      </trkpt>
      <trkpt lat="45.9448" lon="4.73175">
        <ele>174</ele>
        <time>2017-06-14T09:28:56Z</time>
      </trkpt>
      <trkpt lat="45.94478" lon="4.73164">
        <ele>173</ele>
        <time>2017-06-14T09:28:57Z</time>
      </trkpt>
      <trkpt lat="45.94476" lon="4.73153">
        <ele>173</ele>
        <time>2017-06-14T09:28:58Z</time>
      </trkpt>
      <trkpt lat="45.94475" lon="4.73143">
        <ele>172</ele>
        <time>2017-06-14T09:28:59Z</time>
      </trkpt>
      <trkpt lat="45.94474" lon="4.73133">
        <ele>172</ele>
        <time>2017-06-14T09:29:00Z</time>
      </trkpt>
      <trkpt lat="45.94472" lon="4.73124">
        <ele>172</ele>
        <time>2017-06-14T09:29:01Z</time>
      </trkpt>
      <trkpt lat="45.94471" lon="4.73114">
        <ele>172</ele>
        <time>2017-06-14T09:29:02Z</time>
      </trkpt>
      <trkpt lat="45.9447" lon="4.73104">
        <ele>172</ele>
        <time>2017-06-14T09:29:03Z</time>
      </trkpt>
      <trkpt lat="45.94468" lon="4.73095">
        <ele>172</ele>
        <time>2017-06-14T09:29:04Z</time>
      </trkpt>
      <trkpt lat="45.94467" lon="4.73087">
        <ele>171</ele>
        <time>2017-06-14T09:29:05Z</time>
      </trkpt>
      <trkpt lat="45.94465" lon="4.73078">
        <ele>170</ele>
        <time>2017-06-14T09:29:06Z</time>
      </trkpt>
      <trkpt lat="45.94464" lon="4.73069">
        <ele>170</ele>
        <time>2017-06-14T09:29:07Z</time>
      </trkpt>
      <trkpt lat="45.94462" lon="4.7306">
        <ele>170</ele>
        <time>2017-06-14T09:29:08Z</time>
      </trkpt>
      <trkpt lat="45.94461" lon="4.73051">
        <ele>170</ele>
        <time>2017-06-14T09:29:09Z</time>
      </trkpt>
      <trkpt lat="45.94459" lon="4.73042">
        <ele>170</ele>
        <time>2017-06-14T09:29:10Z</time>
      </trkpt>
      <trkpt lat="45.94458" lon="4.73033">
        <ele>169</ele>
        <time>2017-06-14T09:29:11Z</time>
      </trkpt>
      <trkpt lat="45.94456" lon="4.73024">
        <ele>169</ele>
        <time>2017-06-14T09:29:12Z</time>
      </trkpt>
      <trkpt lat="45.94455" lon="4.73015">
        <ele>169</ele>
        <time>2017-06-14T09:29:13Z</time>
      </trkpt>
      <trkpt lat="45.94454" lon="4.73006">
        <ele>169</ele>
        <time>2017-06-14T09:29:14Z</time>
      </trkpt>
      <trkpt lat="45.94453" lon="4.72997">
        <ele>167</ele>
        <time>2017-06-14T09:29:15Z</time>
      </trkpt>
      <trkpt lat="45.94452" lon="4.72988">
        <ele>167</ele>
        <time>2017-06-14T09:29:16Z</time>
      </trkpt>
      <trkpt lat="45.94451" lon="4.72979">
        <ele>167</ele>
        <time>2017-06-14T09:29:17Z</time>
      </trkpt>
      <trkpt lat="45.9445" lon="4.72971">
        <ele>167</ele>
        <time>2017-06-14T09:29:18Z</time>
      </trkpt>
      <trkpt lat="45.94449" lon="4.72962">
        <ele>167</ele>
        <time>2017-06-14T09:29:19Z</time>
      </trkpt>
      <trkpt lat="45.94448" lon="4.72954">
        <ele>167</ele>
        <time>2017-06-14T09:29:20Z</time>
      </trkpt>
      <trkpt lat="45.94446" lon="4.72946">
        <ele>167</ele>
        <time>2017-06-14T09:29:21Z</time>
      </trkpt>
      <trkpt lat="45.94445" lon="4.72937">
        <ele>167</ele>
        <time>2017-06-14T09:29:22Z</time>
      </trkpt>
      <trkpt lat="45.94444" lon="4.72929">
        <ele>167</ele>
        <time>2017-06-14T09:29:23Z</time>
      </trkpt>
      <trkpt lat="45.94443" lon="4.7292">
        <ele>167</ele>
        <time>2017-06-14T09:29:24Z</time>
      </trkpt>
      <trkpt lat="45.94442" lon="4.72911">
        <ele>166</ele>
        <time>2017-06-14T09:29:25Z</time>
      </trkpt>
      <trkpt lat="45.9444" lon="4.72903">
        <ele>166</ele>
        <time>2017-06-14T09:29:26Z</time>
      </trkpt>
      <trkpt lat="45.94439" lon="4.72895">
        <ele>166</ele>
        <time>2017-06-14T09:29:27Z</time>
      </trkpt>
      <trkpt lat="45.94438" lon="4.72886">
        <ele>166</ele>
        <time>2017-06-14T09:29:28Z</time>
      </trkpt>
      <trkpt lat="45.94437" lon="4.72878">
        <ele>166</ele>
        <time>2017-06-14T09:29:29Z</time>
      </trkpt>
      <trkpt lat="45.94436" lon="4.72869">
        <ele>166</ele>
        <time>2017-06-14T09:29:30Z</time>
      </trkpt>
      <trkpt lat="45.94435" lon="4.72861">
        <ele>166</ele>
        <time>2017-06-14T09:29:31Z</time>
      </trkpt>
      <trkpt lat="45.94434" lon="4.72852">
        <ele>166</ele>
        <time>2017-06-14T09:29:32Z</time>
      </trkpt>
      <trkpt lat="45.94433" lon="4.72843">
        <ele>166</ele>
        <time>2017-06-14T09:29:33Z</time>
      </trkpt>
      <trkpt lat="45.94431" lon="4.72834">
        <ele>166</ele>
        <time>2017-06-14T09:29:34Z</time>
      </trkpt>
      <trkpt lat="45.9443" lon="4.72824">
        <ele>167</ele>
        <time>2017-06-14T09:29:35Z</time>
      </trkpt>
      <trkpt lat="45.94429" lon="4.72814">
        <ele>167</ele>
        <time>2017-06-14T09:29:36Z</time>
      </trkpt>
      <trkpt lat="45.94428" lon="4.72804">
        <ele>167</ele>
        <time>2017-06-14T09:29:37Z</time>
      </trkpt>
      <trkpt lat="45.94427" lon="4.72794">
        <ele>168</ele>
        <time>2017-06-14T09:29:38Z</time>
      </trkpt>
      <trkpt lat="45.94425" lon="4.72783">
        <ele>168</ele>
        <time>2017-06-14T09:29:39Z</time>
      </trkpt>
      <trkpt lat="45.94424" lon="4.72772">
        <ele>169</ele>
        <time>2017-06-14T09:29:40Z</time>
      </trkpt>
      <trkpt lat="45.94423" lon="4.72761">
        <ele>169</ele>
        <time>2017-06-14T09:29:41Z</time>
      </trkpt>
      <trkpt lat="45.94421" lon="4.72751">
        <ele>170</ele>
        <time>2017-06-14T09:29:42Z</time>
      </trkpt>
      <trkpt lat="45.9442" lon="4.7274">
        <ele>171</ele>
        <time>2017-06-14T09:29:43Z</time>
      </trkpt>
      <trkpt lat="45.94418" lon="4.7273">
        <ele>171</ele>
        <time>2017-06-14T09:29:44Z</time>
      </trkpt>
      <trkpt lat="45.94416" lon="4.72719">
        <ele>172</ele>
        <time>2017-06-14T09:29:45Z</time>
      </trkpt>
      <trkpt lat="45.94415" lon="4.72708">
        <ele>172</ele>
        <time>2017-06-14T09:29:46Z</time>
      </trkpt>
      <trkpt lat="45.94413" lon="4.72697">
        <ele>173</ele>
        <time>2017-06-14T09:29:47Z</time>
      </trkpt>
      <trkpt lat="45.94412" lon="4.72686">
        <ele>173</ele>
        <time>2017-06-14T09:29:48Z</time>
      </trkpt>
      <trkpt lat="45.94411" lon="4.72674">
        <ele>173</ele>
        <time>2017-06-14T09:29:49Z</time>
      </trkpt>
      <trkpt lat="45.94409" lon="4.72663">
        <ele>174</ele>
        <time>2017-06-14T09:29:50Z</time>
      </trkpt>
      <trkpt lat="45.94408" lon="4.72653">
        <ele>174</ele>
        <time>2017-06-14T09:29:51Z</time>
      </trkpt>
      <trkpt lat="45.94408" lon="4.72641">
        <ele>174</ele>
        <time>2017-06-14T09:29:52Z</time>
      </trkpt>
      <trkpt lat="45.94407" lon="4.7263">
        <ele>174</ele>
        <time>2017-06-14T09:29:53Z</time>
      </trkpt>
      <trkpt lat="45.94405" lon="4.72619">
        <ele>173</ele>
        <time>2017-06-14T09:29:54Z</time>
      </trkpt>
      <trkpt lat="45.94404" lon="4.72609">
        <ele>173</ele>
        <time>2017-06-14T09:29:55Z</time>
      </trkpt>
      <trkpt lat="45.94403" lon="4.72599">
        <ele>173</ele>
        <time>2017-06-14T09:29:56Z</time>
      </trkpt>
      <trkpt lat="45.94401" lon="4.72589">
        <ele>173</ele>
        <time>2017-06-14T09:29:57Z</time>
      </trkpt>
      <trkpt lat="45.944" lon="4.7258">
        <ele>173</ele>
        <time>2017-06-14T09:29:58Z</time>
      </trkpt>
      <trkpt lat="45.94398" lon="4.7257">
        <ele>173</ele>
        <time>2017-06-14T09:29:59Z</time>
      </trkpt>
      <trkpt lat="45.94397" lon="4.72561">
        <ele>173</ele>
        <time>2017-06-14T09:30:00Z</time>
      </trkpt>
      <trkpt lat="45.94395" lon="4.72551">
        <ele>173</ele>
        <time>2017-06-14T09:30:01Z</time>
      </trkpt>
      <trkpt lat="45.94392" lon="4.72542">
        <ele>173</ele>
        <time>2017-06-14T09:30:02Z</time>
      </trkpt>
      <trkpt lat="45.9439" lon="4.72534">
        <ele>174</ele>
        <time>2017-06-14T09:30:03Z</time>
      </trkpt>
      <trkpt lat="45.94387" lon="4.72525">
        <ele>174</ele>
        <time>2017-06-14T09:30:04Z</time>
      </trkpt>
      <trkpt lat="45.94384" lon="4.72517">
        <ele>174</ele>
        <time>2017-06-14T09:30:05Z</time>
      </trkpt>
      <trkpt lat="45.94381" lon="4.72509">
        <ele>174</ele>
        <time>2017-06-14T09:30:06Z</time>
      </trkpt>
      <trkpt lat="45.94379" lon="4.72501">
        <ele>174</ele>
        <time>2017-06-14T09:30:07Z</time>
      </trkpt>
      <trkpt lat="45.94376" lon="4.72494">
        <ele>173</ele>
        <time>2017-06-14T09:30:08Z</time>
      </trkpt>
      <trkpt lat="45.94374" lon="4.72487">
        <ele>173</ele>
        <time>2017-06-14T09:30:09Z</time>
      </trkpt>
      <trkpt lat="45.94371" lon="4.7248">
        <ele>173</ele>
        <time>2017-06-14T09:30:10Z</time>
      </trkpt>
      <trkpt lat="45.94368" lon="4.72473">
        <ele>173</ele>
        <time>2017-06-14T09:30:11Z</time>
      </trkpt>
      <trkpt lat="45.94364" lon="4.72465">
        <ele>173</ele>
        <time>2017-06-14T09:30:12Z</time>
      </trkpt>
      <trkpt lat="45.94362" lon="4.72457">
        <ele>173</ele>
        <time>2017-06-14T09:30:13Z</time>
      </trkpt>
      <trkpt lat="45.94359" lon="4.7245">
        <ele>173</ele>
        <time>2017-06-14T09:30:14Z</time>
      </trkpt>
      <trkpt lat="45.94356" lon="4.72442">
        <ele>173</ele>
        <time>2017-06-14T09:30:15Z</time>
      </trkpt>
      <trkpt lat="45.94353" lon="4.72435">
        <ele>173</ele>
        <time>2017-06-14T09:30:16Z</time>
      </trkpt>
      <trkpt lat="45.94351" lon="4.72428">
        <ele>173</ele>
        <time>2017-06-14T09:30:17Z</time>
      </trkpt>
      <trkpt lat="45.94348" lon="4.72421">
        <ele>173</ele>
        <time>2017-06-14T09:30:18Z</time>
      </trkpt>
      <trkpt lat="45.94346" lon="4.72414">
        <ele>173</ele>
        <time>2017-06-14T09:30:19Z</time>
      </trkpt>
      <trkpt lat="45.94344" lon="4.72408">
        <ele>173</ele>
        <time>2017-06-14T09:30:20Z</time>
      </trkpt>
      <trkpt lat="45.94341" lon="4.72401">
        <ele>173</ele>
        <time>2017-06-14T09:30:21Z</time>
      </trkpt>
      <trkpt lat="45.94339" lon="4.72394">
        <ele>172</ele>
        <time>2017-06-14T09:30:22Z</time>
      </trkpt>
      <trkpt lat="45.94336" lon="4.72388">
        <ele>172</ele>
        <time>2017-06-14T09:30:23Z</time>
      </trkpt>
      <trkpt lat="45.94333" lon="4.72381">
        <ele>172</ele>
        <time>2017-06-14T09:30:24Z</time>
      </trkpt>
      <trkpt lat="45.94331" lon="4.72375">
        <ele>172</ele>
        <time>2017-06-14T09:30:25Z</time>
      </trkpt>
      <trkpt lat="45.94327" lon="4.72369">
        <ele>172</ele>
        <time>2017-06-14T09:30:26Z</time>
      </trkpt>
      <trkpt lat="45.94324" lon="4.72362">
        <ele>172</ele>
        <time>2017-06-14T09:30:27Z</time>
      </trkpt>
      <trkpt lat="45.94321" lon="4.72356">
        <ele>172</ele>
        <time>2017-06-14T09:30:28Z</time>
      </trkpt>
      <trkpt lat="45.94318" lon="4.72349">
        <ele>172</ele>
        <time>2017-06-14T09:30:29Z</time>
      </trkpt>
      <trkpt lat="45.94316" lon="4.72343">
        <ele>172</ele>
        <time>2017-06-14T09:30:30Z</time>
      </trkpt>
      <trkpt lat="45.94313" lon="4.72336">
        <ele>172</ele>
        <time>2017-06-14T09:30:31Z</time>
      </trkpt>
      <trkpt lat="45.9431" lon="4.72329">
        <ele>172</ele>
        <time>2017-06-14T09:30:32Z</time>
      </trkpt>
      <trkpt lat="45.94307" lon="4.72322">
        <ele>171</ele>
        <time>2017-06-14T09:30:33Z</time>
      </trkpt>
      <trkpt lat="45.94304" lon="4.72315">
        <ele>171</ele>
        <time>2017-06-14T09:30:34Z</time>
      </trkpt>
      <trkpt lat="45.94301" lon="4.72309">
        <ele>171</ele>
        <time>2017-06-14T09:30:35Z</time>
      </trkpt>
      <trkpt lat="45.94299" lon="4.72302">
        <ele>171</ele>
        <time>2017-06-14T09:30:36Z</time>
      </trkpt>
      <trkpt lat="45.94296" lon="4.72295">
        <ele>171</ele>
        <time>2017-06-14T09:30:37Z</time>
      </trkpt>
      <trkpt lat="45.94293" lon="4.72289">
        <ele>171</ele>
        <time>2017-06-14T09:30:38Z</time>
      </trkpt>
      <trkpt lat="45.94289" lon="4.72283">
        <ele>171</ele>
        <time>2017-06-14T09:30:39Z</time>
      </trkpt>
      <trkpt lat="45.94286" lon="4.72277">
        <ele>171</ele>
        <time>2017-06-14T09:30:40Z</time>
      </trkpt>
      <trkpt lat="45.9428" lon="4.72274">
        <ele>171</ele>
        <time>2017-06-14T09:30:41Z</time>
      </trkpt>
      <trkpt lat="45.94274" lon="4.72274">
        <ele>171</ele>
        <time>2017-06-14T09:30:42Z</time>
      </trkpt>
      <trkpt lat="45.94267" lon="4.72275">
        <ele>171</ele>
        <time>2017-06-14T09:30:43Z</time>
      </trkpt>
      <trkpt lat="45.9426" lon="4.72278">
        <ele>171</ele>
        <time>2017-06-14T09:30:44Z</time>
      </trkpt>
      <trkpt lat="45.94253" lon="4.72279">
        <ele>171</ele>
        <time>2017-06-14T09:30:45Z</time>
      </trkpt>
      <trkpt lat="45.94247" lon="4.72281">
        <ele>171</ele>
        <time>2017-06-14T09:30:46Z</time>
      </trkpt>
      <trkpt lat="45.94241" lon="4.72283">
        <ele>171</ele>
        <time>2017-06-14T09:30:47Z</time>
      </trkpt>
      <trkpt lat="45.94235" lon="4.72284">
        <ele>171</ele>
        <time>2017-06-14T09:30:48Z</time>
      </trkpt>
      <trkpt lat="45.94229" lon="4.72285">
        <ele>171</ele>
        <time>2017-06-14T09:30:49Z</time>
      </trkpt>
      <trkpt lat="45.94223" lon="4.72285">
        <ele>171</ele>
        <time>2017-06-14T09:30:50Z</time>
      </trkpt>
      <trkpt lat="45.94217" lon="4.72286">
        <ele>171</ele>
        <time>2017-06-14T09:30:51Z</time>
      </trkpt>
      <trkpt lat="45.9421" lon="4.72286">
        <ele>171</ele>
        <time>2017-06-14T09:30:52Z</time>
      </trkpt>
      <trkpt lat="45.94203" lon="4.72287">
        <ele>171</ele>
        <time>2017-06-14T09:30:53Z</time>
      </trkpt>
      <trkpt lat="45.94197" lon="4.72287">
        <ele>171</ele>
        <time>2017-06-14T09:30:54Z</time>
      </trkpt>
      <trkpt lat="45.9419" lon="4.72287">
        <ele>171</ele>
        <time>2017-06-14T09:30:55Z</time>
      </trkpt>
      <trkpt lat="45.94184" lon="4.72287">
        <ele>171</ele>
        <time>2017-06-14T09:30:56Z</time>
      </trkpt>
      <trkpt lat="45.94177" lon="4.72287">
        <ele>171</ele>
        <time>2017-06-14T09:30:57Z</time>
      </trkpt>
      <trkpt lat="45.94171" lon="4.72287">
        <ele>171</ele>
        <time>2017-06-14T09:30:58Z</time>
      </trkpt>
      <trkpt lat="45.94166" lon="4.72286">
        <ele>171</ele>
        <time>2017-06-14T09:30:59Z</time>
      </trkpt>
      <trkpt lat="45.9416" lon="4.72285">
        <ele>171</ele>
        <time>2017-06-14T09:31:00Z</time>
      </trkpt>
      <trkpt lat="45.94154" lon="4.72283">
        <ele>171</ele>
        <time>2017-06-14T09:31:01Z</time>
      </trkpt>
      <trkpt lat="45.94149" lon="4.72281">
        <ele>171</ele>
        <time>2017-06-14T09:31:02Z</time>
      </trkpt>
      <trkpt lat="45.94144" lon="4.72279">
        <ele>171</ele>
        <time>2017-06-14T09:31:03Z</time>
      </trkpt>
      <trkpt lat="45.94139" lon="4.72277">
        <ele>171</ele>
        <time>2017-06-14T09:31:04Z</time>
      </trkpt>
      <trkpt lat="45.94133" lon="4.72274">
        <ele>171</ele>
        <time>2017-06-14T09:31:05Z</time>
      </trkpt>
      <trkpt lat="45.94128" lon="4.72272">
        <ele>171</ele>
        <time>2017-06-14T09:31:06Z</time>
      </trkpt>
      <trkpt lat="45.94122" lon="4.72269">
        <ele>171</ele>
        <time>2017-06-14T09:31:07Z</time>
      </trkpt>
      <trkpt lat="45.94117" lon="4.72267">
        <ele>171</ele>
        <time>2017-06-14T09:31:08Z</time>
      </trkpt>
      <trkpt lat="45.94111" lon="4.72265">
        <ele>171</ele>
        <time>2017-06-14T09:31:09Z</time>
      </trkpt>
      <trkpt lat="45.94105" lon="4.72264">
        <ele>171</ele>
        <time>2017-06-14T09:31:10Z</time>
      </trkpt>
      <trkpt lat="45.94099" lon="4.72265">
        <ele>171</ele>
        <time>2017-06-14T09:31:11Z</time>
      </trkpt>
      <trkpt lat="45.94092" lon="4.72266">
        <ele>171</ele>
        <time>2017-06-14T09:31:12Z</time>
      </trkpt>
      <trkpt lat="45.94086" lon="4.72268">
        <ele>171</ele>
        <time>2017-06-14T09:31:13Z</time>
      </trkpt>
      <trkpt lat="45.94081" lon="4.72272">
        <ele>171</ele>
        <time>2017-06-14T09:31:14Z</time>
      </trkpt>
      <trkpt lat="45.94074" lon="4.72277">
        <ele>171</ele>
        <time>2017-06-14T09:31:15Z</time>
      </trkpt>
      <trkpt lat="45.94068" lon="4.72281">
        <ele>171</ele>
        <time>2017-06-14T09:31:16Z</time>
      </trkpt>
      <trkpt lat="45.94063" lon="4.72286">
        <ele>171</ele>
        <time>2017-06-14T09:31:17Z</time>
      </trkpt>
      <trkpt lat="45.94058" lon="4.72291">
        <ele>171</ele>
        <time>2017-06-14T09:31:18Z</time>
      </trkpt>
      <trkpt lat="45.94053" lon="4.72297">
        <ele>171</ele>
        <time>2017-06-14T09:31:19Z</time>
      </trkpt>
      <trkpt lat="45.94048" lon="4.72303">
        <ele>171</ele>
        <time>2017-06-14T09:31:20Z</time>
      </trkpt>
      <trkpt lat="45.94043" lon="4.7231">
        <ele>171</ele>
        <time>2017-06-14T09:31:21Z</time>
      </trkpt>
      <trkpt lat="45.94038" lon="4.72316">
        <ele>171</ele>
        <time>2017-06-14T09:31:22Z</time>
      </trkpt>
      <trkpt lat="45.94032" lon="4.72322">
        <ele>171</ele>
        <time>2017-06-14T09:31:23Z</time>
      </trkpt>
      <trkpt lat="45.94027" lon="4.72329">
        <ele>171</ele>
        <time>2017-06-14T09:31:24Z</time>
      </trkpt>
      <trkpt lat="45.94022" lon="4.72336">
        <ele>171</ele>
        <time>2017-06-14T09:31:25Z</time>
      </trkpt>
      <trkpt lat="45.94017" lon="4.72342">
        <ele>171</ele>
        <time>2017-06-14T09:31:26Z</time>
      </trkpt>
      <trkpt lat="45.94012" lon="4.72349">
        <ele>171</ele>
        <time>2017-06-14T09:31:27Z</time>
      </trkpt>
      <trkpt lat="45.94007" lon="4.72356">
        <ele>171</ele>
        <time>2017-06-14T09:31:28Z</time>
      </trkpt>
      <trkpt lat="45.94002" lon="4.72362">
        <ele>171</ele>
        <time>2017-06-14T09:31:29Z</time>
      </trkpt>
      <trkpt lat="45.93997" lon="4.72368">
        <ele>171</ele>
        <time>2017-06-14T09:31:30Z</time>
      </trkpt>
      <trkpt lat="45.93993" lon="4.72374">
        <ele>171</ele>
        <time>2017-06-14T09:31:31Z</time>
      </trkpt>
      <trkpt lat="45.93988" lon="4.7238">
        <ele>171</ele>
        <time>2017-06-14T09:31:32Z</time>
      </trkpt>
      <trkpt lat="45.93983" lon="4.72385">
        <ele>171</ele>
        <time>2017-06-14T09:31:33Z</time>
      </trkpt>
      <trkpt lat="45.93979" lon="4.7239">
        <ele>171</ele>
        <time>2017-06-14T09:31:34Z</time>
      </trkpt>
      <trkpt lat="45.93975" lon="4.72395">
        <ele>171</ele>
        <time>2017-06-14T09:31:35Z</time>
      </trkpt>
      <trkpt lat="45.9397" lon="4.724">
        <ele>171</ele>
        <time>2017-06-14T09:31:36Z</time>
      </trkpt>
      <trkpt lat="45.93966" lon="4.72405">
        <ele>171</ele>
        <time>2017-06-14T09:31:37Z</time>
      </trkpt>
      <trkpt lat="45.93961" lon="4.7241">
        <ele>171</ele>
        <time>2017-06-14T09:31:38Z</time>
      </trkpt>
      <trkpt lat="45.93956" lon="4.72415">
        <ele>171</ele>
        <time>2017-06-14T09:31:39Z</time>
      </trkpt>
      <trkpt lat="45.93952" lon="4.72421">
        <ele>171</ele>
        <time>2017-06-14T09:31:40Z</time>
      </trkpt>
      <trkpt lat="45.93947" lon="4.72426">
        <ele>171</ele>
        <time>2017-06-14T09:31:41Z</time>
      </trkpt>
      <trkpt lat="45.93942" lon="4.72433">
        <ele>171</ele>
        <time>2017-06-14T09:31:42Z</time>
      </trkpt>
      <trkpt lat="45.93938" lon="4.7244">
        <ele>171</ele>
        <time>2017-06-14T09:31:43Z</time>
      </trkpt>
      <trkpt lat="45.93932" lon="4.72446">
        <ele>171</ele>
        <time>2017-06-14T09:31:44Z</time>
      </trkpt>
      <trkpt lat="45.93927" lon="4.72452">
        <ele>171</ele>
        <time>2017-06-14T09:31:45Z</time>
      </trkpt>
      <trkpt lat="45.93923" lon="4.72461">
        <ele>171</ele>
        <time>2017-06-14T09:31:46Z</time>
      </trkpt>
      <trkpt lat="45.93918" lon="4.72468">
        <ele>171</ele>
        <time>2017-06-14T09:31:47Z</time>
      </trkpt>
      <trkpt lat="45.93913" lon="4.72474">
        <ele>172</ele>
        <time>2017-06-14T09:31:48Z</time>
      </trkpt>
      <trkpt lat="45.93908" lon="4.72479">
        <ele>172</ele>
        <time>2017-06-14T09:31:49Z</time>
      </trkpt>
      <trkpt lat="45.93904" lon="4.72484">
        <ele>172</ele>
        <time>2017-06-14T09:31:50Z</time>
      </trkpt>
      <trkpt lat="45.939" lon="4.72489">
        <ele>172</ele>
        <time>2017-06-14T09:31:51Z</time>
      </trkpt>
      <trkpt lat="45.93897" lon="4.72494">
        <ele>172</ele>
        <time>2017-06-14T09:31:52Z</time>
      </trkpt>
      <trkpt lat="45.93893" lon="4.72498">
        <ele>172</ele>
        <time>2017-06-14T09:31:53Z</time>
      </trkpt>
      <trkpt lat="45.93889" lon="4.72503">
        <ele>173</ele>
        <time>2017-06-14T09:31:54Z</time>
      </trkpt>
      <trkpt lat="45.93886" lon="4.72507">
        <ele>173</ele>
        <time>2017-06-14T09:31:55Z</time>
      </trkpt>
      <trkpt lat="45.93882" lon="4.72512">
        <ele>173</ele>
        <time>2017-06-14T09:31:56Z</time>
      </trkpt>
      <trkpt lat="45.93878" lon="4.72515">
        <ele>173</ele>
        <time>2017-06-14T09:31:57Z</time>
      </trkpt>
      <trkpt lat="45.93872" lon="4.72516">
        <ele>173</ele>
        <time>2017-06-14T09:31:58Z</time>
      </trkpt>
      <trkpt lat="45.93867" lon="4.72516">
        <ele>173</ele>
        <time>2017-06-14T09:31:59Z</time>
      </trkpt>
      <trkpt lat="45.93862" lon="4.72514">
        <ele>173</ele>
        <time>2017-06-14T09:32:00Z</time>
      </trkpt>
      <trkpt lat="45.93858" lon="4.72511">
        <ele>173</ele>
        <time>2017-06-14T09:32:01Z</time>
      </trkpt>
      <trkpt lat="45.93853" lon="4.72507">
        <ele>173</ele>
        <time>2017-06-14T09:32:02Z</time>
      </trkpt>
      <trkpt lat="45.93849" lon="4.72502">
        <ele>174</ele>
        <time>2017-06-14T09:32:03Z</time>
      </trkpt>
      <trkpt lat="45.93846" lon="4.72497">
        <ele>173</ele>
        <time>2017-06-14T09:32:04Z</time>
      </trkpt>
      <trkpt lat="45.93842" lon="4.72493">
        <ele>173</ele>
        <time>2017-06-14T09:32:05Z</time>
      </trkpt>
      <trkpt lat="45.93838" lon="4.72489">
        <ele>173</ele>
        <time>2017-06-14T09:32:06Z</time>
      </trkpt>
      <trkpt lat="45.93833" lon="4.72485">
        <ele>173</ele>
        <time>2017-06-14T09:32:07Z</time>
      </trkpt>
      <trkpt lat="45.93829" lon="4.7248">
        <ele>173</ele>
        <time>2017-06-14T09:32:08Z</time>
      </trkpt>
      <trkpt lat="45.93824" lon="4.72475">
        <ele>172</ele>
        <time>2017-06-14T09:32:09Z</time>
      </trkpt>
      <trkpt lat="45.93819" lon="4.72472">
        <ele>172</ele>
        <time>2017-06-14T09:32:10Z</time>
      </trkpt>
      <trkpt lat="45.93813" lon="4.72464">
        <ele>172</ele>
        <time>2017-06-14T09:32:12Z</time>
      </trkpt>
      <trkpt lat="45.93812" lon="4.72459">
        <ele>172</ele>
        <time>2017-06-14T09:32:13Z</time>
      </trkpt>
      <trkpt lat="45.93807" lon="4.72451">
        <ele>172</ele>
        <time>2017-06-14T09:32:15Z</time>
      </trkpt>
      <trkpt lat="45.93803" lon="4.72447">
        <ele>172</ele>
        <time>2017-06-14T09:32:16Z</time>
      </trkpt>
      <trkpt lat="45.938" lon="4.72443">
        <ele>172</ele>
        <time>2017-06-14T09:32:17Z</time>
      </trkpt>
      <trkpt lat="45.93795" lon="4.72437">
        <ele>172</ele>
        <time>2017-06-14T09:32:18Z</time>
      </trkpt>
      <trkpt lat="45.93791" lon="4.72432">
        <ele>172</ele>
        <time>2017-06-14T09:32:19Z</time>
      </trkpt>
      <trkpt lat="45.93788" lon="4.72428">
        <ele>172</ele>
        <time>2017-06-14T09:32:20Z</time>
      </trkpt>
      <trkpt lat="45.93783" lon="4.72423">
        <ele>172</ele>
        <time>2017-06-14T09:32:21Z</time>
      </trkpt>
      <trkpt lat="45.93778" lon="4.72419">
        <ele>171</ele>
        <time>2017-06-14T09:32:22Z</time>
      </trkpt>
      <trkpt lat="45.93773" lon="4.72415">
        <ele>171</ele>
        <time>2017-06-14T09:32:23Z</time>
      </trkpt>
      <trkpt lat="45.93768" lon="4.72411">
        <ele>171</ele>
        <time>2017-06-14T09:32:24Z</time>
      </trkpt>
      <trkpt lat="45.93763" lon="4.72406">
        <ele>171</ele>
        <time>2017-06-14T09:32:25Z</time>
      </trkpt>
      <trkpt lat="45.93759" lon="4.72402">
        <ele>171</ele>
        <time>2017-06-14T09:32:26Z</time>
      </trkpt>
      <trkpt lat="45.93755" lon="4.72398">
        <ele>171</ele>
        <time>2017-06-14T09:32:27Z</time>
      </trkpt>
      <trkpt lat="45.9375" lon="4.72394">
        <ele>171</ele>
        <time>2017-06-14T09:32:28Z</time>
      </trkpt>
      <trkpt lat="45.93746" lon="4.7239">
        <ele>171</ele>
        <time>2017-06-14T09:32:29Z</time>
      </trkpt>
      <trkpt lat="45.93742" lon="4.72386">
        <ele>171</ele>
        <time>2017-06-14T09:32:30Z</time>
      </trkpt>
      <trkpt lat="45.93737" lon="4.72382">
        <ele>171</ele>
        <time>2017-06-14T09:32:31Z</time>
      </trkpt>
      <trkpt lat="45.93732" lon="4.72378">
        <ele>171</ele>
        <time>2017-06-14T09:32:32Z</time>
      </trkpt>
      <trkpt lat="45.93728" lon="4.72374">
        <ele>172</ele>
        <time>2017-06-14T09:32:33Z</time>
      </trkpt>
      <trkpt lat="45.93723" lon="4.72369">
        <ele>172</ele>
        <time>2017-06-14T09:32:34Z</time>
      </trkpt>
      <trkpt lat="45.93719" lon="4.72365">
        <ele>172</ele>
        <time>2017-06-14T09:32:35Z</time>
      </trkpt>
      <trkpt lat="45.93715" lon="4.72361">
        <ele>172</ele>
        <time>2017-06-14T09:32:36Z</time>
      </trkpt>
      <trkpt lat="45.93711" lon="4.72357">
        <ele>172</ele>
        <time>2017-06-14T09:32:37Z</time>
      </trkpt>
      <trkpt lat="45.93707" lon="4.72353">
        <ele>171</ele>
        <time>2017-06-14T09:32:38Z</time>
      </trkpt>
      <trkpt lat="45.93703" lon="4.7235">
        <ele>171</ele>
        <time>2017-06-14T09:32:39Z</time>
      </trkpt>
      <trkpt lat="45.93699" lon="4.72344">
        <ele>171</ele>
        <time>2017-06-14T09:32:40Z</time>
      </trkpt>
      <trkpt lat="45.93694" lon="4.7234">
        <ele>171</ele>
        <time>2017-06-14T09:32:41Z</time>
      </trkpt>
      <trkpt lat="45.93689" lon="4.72335">
        <ele>171</ele>
        <time>2017-06-14T09:32:42Z</time>
      </trkpt>
      <trkpt lat="45.93685" lon="4.72332">
        <ele>172</ele>
        <time>2017-06-14T09:32:43Z</time>
      </trkpt>
      <trkpt lat="45.93682" lon="4.72327">
        <ele>171</ele>
        <time>2017-06-14T09:32:44Z</time>
      </trkpt>
      <trkpt lat="45.93679" lon="4.72323">
        <ele>171</ele>
        <time>2017-06-14T09:32:45Z</time>
      </trkpt>
      <trkpt lat="45.93675" lon="4.72319">
        <ele>171</ele>
        <time>2017-06-14T09:32:46Z</time>
      </trkpt>
      <trkpt lat="45.9367" lon="4.72315">
        <ele>172</ele>
        <time>2017-06-14T09:32:47Z</time>
      </trkpt>
      <trkpt lat="45.93666" lon="4.72311">
        <ele>172</ele>
        <time>2017-06-14T09:32:48Z</time>
      </trkpt>
      <trkpt lat="45.93662" lon="4.72307">
        <ele>172</ele>
        <time>2017-06-14T09:32:49Z</time>
      </trkpt>
      <trkpt lat="45.93657" lon="4.72303">
        <ele>172</ele>
        <time>2017-06-14T09:32:50Z</time>
      </trkpt>
      <trkpt lat="45.93653" lon="4.72299">
        <ele>172</ele>
        <time>2017-06-14T09:32:51Z</time>
      </trkpt>
      <trkpt lat="45.93649" lon="4.72295">
        <ele>172</ele>
        <time>2017-06-14T09:32:52Z</time>
      </trkpt>
      <trkpt lat="45.93644" lon="4.72292">
        <ele>172</ele>
        <time>2017-06-14T09:32:53Z</time>
      </trkpt>
      <trkpt lat="45.9364" lon="4.72288">
        <ele>172</ele>
        <time>2017-06-14T09:32:54Z</time>
      </trkpt>
      <trkpt lat="45.93636" lon="4.72285">
        <ele>172</ele>
        <time>2017-06-14T09:32:55Z</time>
      </trkpt>
      <trkpt lat="45.93632" lon="4.72281">
        <ele>172</ele>
        <time>2017-06-14T09:32:56Z</time>
      </trkpt>
      <trkpt lat="45.93625" lon="4.72274">
        <ele>172</ele>
        <time>2017-06-14T09:32:58Z</time>
      </trkpt>
      <trkpt lat="45.93622" lon="4.7227">
        <ele>172</ele>
        <time>2017-06-14T09:32:59Z</time>
      </trkpt>
      <trkpt lat="45.93618" lon="4.72267">
        <ele>172</ele>
        <time>2017-06-14T09:33:00Z</time>
      </trkpt>
      <trkpt lat="45.93614" lon="4.72263">
        <ele>172</ele>
        <time>2017-06-14T09:33:01Z</time>
      </trkpt>
      <trkpt lat="45.9361" lon="4.72259">
        <ele>172</ele>
        <time>2017-06-14T09:33:02Z</time>
      </trkpt>
      <trkpt lat="45.93606" lon="4.72255">
        <ele>173</ele>
        <time>2017-06-14T09:33:03Z</time>
      </trkpt>
      <trkpt lat="45.936" lon="4.72247">
        <ele>173</ele>
        <time>2017-06-14T09:33:05Z</time>
      </trkpt>
      <trkpt lat="45.93596" lon="4.72243">
        <ele>173</ele>
        <time>2017-06-14T09:33:06Z</time>
      </trkpt>
      <trkpt lat="45.9359" lon="4.72235">
        <ele>173</ele>
        <time>2017-06-14T09:33:08Z</time>
      </trkpt>
      <trkpt lat="45.93587" lon="4.72231">
        <ele>173</ele>
        <time>2017-06-14T09:33:09Z</time>
      </trkpt>
      <trkpt lat="45.93581" lon="4.72226">
        <ele>173</ele>
        <time>2017-06-14T09:33:11Z</time>
      </trkpt>
      <trkpt lat="45.93578" lon="4.72226">
        <ele>173</ele>
        <time>2017-06-14T09:33:12Z</time>
      </trkpt>
      <trkpt lat="45.93576" lon="4.72226">
        <ele>173</ele>
        <time>2017-06-14T09:33:13Z</time>
      </trkpt>
      <trkpt lat="45.93569" lon="4.72218">
        <ele>173</ele>
        <time>2017-06-14T09:33:23Z</time>
      </trkpt>
      <trkpt lat="45.93565" lon="4.72216">
        <ele>173</ele>
        <time>2017-06-14T09:33:24Z</time>
      </trkpt>
      <trkpt lat="45.93558" lon="4.72216">
        <ele>173</ele>
        <time>2017-06-14T09:33:26Z</time>
      </trkpt>
      <trkpt lat="45.93555" lon="4.72218">
        <ele>173</ele>
        <time>2017-06-14T09:33:27Z</time>
      </trkpt>
      <trkpt lat="45.9355" lon="4.72224">
        <ele>172</ele>
        <time>2017-06-14T09:33:29Z</time>
      </trkpt>
      <trkpt lat="45.93548" lon="4.72227">
        <ele>172</ele>
        <time>2017-06-14T09:33:30Z</time>
      </trkpt>
      <trkpt lat="45.93543" lon="4.72233">
        <ele>172</ele>
        <time>2017-06-14T09:33:32Z</time>
      </trkpt>
      <trkpt lat="45.93541" lon="4.72237">
        <ele>172</ele>
        <time>2017-06-14T09:33:33Z</time>
      </trkpt>
      <trkpt lat="45.93537" lon="4.72247">
        <ele>172</ele>
        <time>2017-06-14T09:33:35Z</time>
      </trkpt>
      <trkpt lat="45.93534" lon="4.72253">
        <ele>172</ele>
        <time>2017-06-14T09:33:36Z</time>
      </trkpt>
      <trkpt lat="45.93532" lon="4.72258">
        <ele>172</ele>
        <time>2017-06-14T09:33:37Z</time>
      </trkpt>
      <trkpt lat="45.93529" lon="4.72264">
        <ele>172</ele>
        <time>2017-06-14T09:33:38Z</time>
      </trkpt>
      <trkpt lat="45.93527" lon="4.7227">
        <ele>172</ele>
        <time>2017-06-14T09:33:39Z</time>
      </trkpt>
      <trkpt lat="45.93525" lon="4.72276">
        <ele>172</ele>
        <time>2017-06-14T09:33:40Z</time>
      </trkpt>
      <trkpt lat="45.93522" lon="4.72282">
        <ele>172</ele>
        <time>2017-06-14T09:33:41Z</time>
      </trkpt>
      <trkpt lat="45.93519" lon="4.72289">
        <ele>172</ele>
        <time>2017-06-14T09:33:42Z</time>
      </trkpt>
      <trkpt lat="45.93516" lon="4.72295">
        <ele>172</ele>
        <time>2017-06-14T09:33:43Z</time>
      </trkpt>
      <trkpt lat="45.93512" lon="4.72302">
        <ele>172</ele>
        <time>2017-06-14T09:33:44Z</time>
      </trkpt>
      <trkpt lat="45.93508" lon="4.72307">
        <ele>173</ele>
        <time>2017-06-14T09:33:45Z</time>
      </trkpt>
      <trkpt lat="45.93504" lon="4.72314">
        <ele>173</ele>
        <time>2017-06-14T09:33:46Z</time>
      </trkpt>
      <trkpt lat="45.93499" lon="4.7232">
        <ele>173</ele>
        <time>2017-06-14T09:33:47Z</time>
      </trkpt>
      <trkpt lat="45.93494" lon="4.72326">
        <ele>173</ele>
        <time>2017-06-14T09:33:48Z</time>
      </trkpt>
      <trkpt lat="45.93489" lon="4.72332">
        <ele>173</ele>
        <time>2017-06-14T09:33:49Z</time>
      </trkpt>
      <trkpt lat="45.93485" lon="4.72339">
        <ele>173</ele>
        <time>2017-06-14T09:33:50Z</time>
      </trkpt>
      <trkpt lat="45.9348" lon="4.72345">
        <ele>173</ele>
        <time>2017-06-14T09:33:51Z</time>
      </trkpt>
      <trkpt lat="45.93476" lon="4.72351">
        <ele>173</ele>
        <time>2017-06-14T09:33:52Z</time>
      </trkpt>
      <trkpt lat="45.93472" lon="4.72358">
        <ele>173</ele>
        <time>2017-06-14T09:33:53Z</time>
      </trkpt>
      <trkpt lat="45.93468" lon="4.72365">
        <ele>173</ele>
        <time>2017-06-14T09:33:54Z</time>
      </trkpt>
      <trkpt lat="45.93464" lon="4.72371">
        <ele>173</ele>
        <time>2017-06-14T09:33:55Z</time>
      </trkpt>
      <trkpt lat="45.93459" lon="4.72377">
        <ele>173</ele>
        <time>2017-06-14T09:33:56Z</time>
      </trkpt>
      <trkpt lat="45.93455" lon="4.72383">
        <ele>173</ele>
        <time>2017-06-14T09:33:57Z</time>
      </trkpt>
      <trkpt lat="45.93451" lon="4.72388">
        <ele>173</ele>
        <time>2017-06-14T09:33:58Z</time>
      </trkpt>
      <trkpt lat="45.93446" lon="4.72392">
        <ele>173</ele>
        <time>2017-06-14T09:33:59Z</time>
      </trkpt>
      <trkpt lat="45.93442" lon="4.72396">
        <ele>173</ele>
        <time>2017-06-14T09:34:00Z</time>
      </trkpt>
      <trkpt lat="45.93438" lon="4.724">
        <ele>173</ele>
        <time>2017-06-14T09:34:01Z</time>
      </trkpt>
      <trkpt lat="45.93433" lon="4.72403">
        <ele>174</ele>
        <time>2017-06-14T09:34:02Z</time>
      </trkpt>
      <trkpt lat="45.93429" lon="4.72406">
        <ele>174</ele>
        <time>2017-06-14T09:34:03Z</time>
      </trkpt>
      <trkpt lat="45.93424" lon="4.72408">
        <ele>174</ele>
        <time>2017-06-14T09:34:04Z</time>
      </trkpt>
      <trkpt lat="45.93418" lon="4.7241">
        <ele>174</ele>
        <time>2017-06-14T09:34:05Z</time>
      </trkpt>
      <trkpt lat="45.93412" lon="4.7241">
        <ele>174</ele>
        <time>2017-06-14T09:34:06Z</time>
      </trkpt>
      <trkpt lat="45.93407" lon="4.7241">
        <ele>174</ele>
        <time>2017-06-14T09:34:07Z</time>
      </trkpt>
      <trkpt lat="45.93401" lon="4.72409">
        <ele>174</ele>
        <time>2017-06-14T09:34:08Z</time>
      </trkpt>
      <trkpt lat="45.93396" lon="4.72411">
        <ele>174</ele>
        <time>2017-06-14T09:34:09Z</time>
      </trkpt>
      <trkpt lat="45.9339" lon="4.72415">
        <ele>174</ele>
        <time>2017-06-14T09:34:10Z</time>
      </trkpt>
      <trkpt lat="45.93386" lon="4.7242">
        <ele>173</ele>
        <time>2017-06-14T09:34:11Z</time>
      </trkpt>
      <trkpt lat="45.93385" lon="4.72427">
        <ele>173</ele>
        <time>2017-06-14T09:34:12Z</time>
      </trkpt>
      <trkpt lat="45.93386" lon="4.72434">
        <ele>173</ele>
        <time>2017-06-14T09:34:13Z</time>
      </trkpt>
      <trkpt lat="45.93388" lon="4.7244">
        <ele>173</ele>
        <time>2017-06-14T09:34:14Z</time>
      </trkpt>
      <trkpt lat="45.93389" lon="4.72447">
        <ele>173</ele>
        <time>2017-06-14T09:34:15Z</time>
      </trkpt>
      <trkpt lat="45.9339" lon="4.72455">
        <ele>173</ele>
        <time>2017-06-14T09:34:16Z</time>
      </trkpt>
      <trkpt lat="45.9339" lon="4.72463">
        <ele>173</ele>
        <time>2017-06-14T09:34:17Z</time>
      </trkpt>
      <trkpt lat="45.93388" lon="4.7247">
        <ele>173</ele>
        <time>2017-06-14T09:34:18Z</time>
      </trkpt>
      <trkpt lat="45.93385" lon="4.72475">
        <ele>173</ele>
        <time>2017-06-14T09:34:19Z</time>
      </trkpt>
      <trkpt lat="45.9338" lon="4.7248">
        <ele>173</ele>
        <time>2017-06-14T09:34:20Z</time>
      </trkpt>
      <trkpt lat="45.93375" lon="4.72486">
        <ele>173</ele>
        <time>2017-06-14T09:34:21Z</time>
      </trkpt>
      <trkpt lat="45.9337" lon="4.72491">
        <ele>173</ele>
        <time>2017-06-14T09:34:22Z</time>
      </trkpt>
      <trkpt lat="45.93365" lon="4.72497">
        <ele>173</ele>
        <time>2017-06-14T09:34:23Z</time>
      </trkpt>
      <trkpt lat="45.93361" lon="4.72503">
        <ele>172</ele>
        <time>2017-06-14T09:34:24Z</time>
      </trkpt>
      <trkpt lat="45.93355" lon="4.72508">
        <ele>172</ele>
        <time>2017-06-14T09:34:25Z</time>
      </trkpt>
      <trkpt lat="45.93349" lon="4.72514">
        <ele>172</ele>
        <time>2017-06-14T09:34:26Z</time>
      </trkpt>
      <trkpt lat="45.93344" lon="4.72521">
        <ele>172</ele>
        <time>2017-06-14T09:34:27Z</time>
      </trkpt>
      <trkpt lat="45.93339" lon="4.72527">
        <ele>172</ele>
        <time>2017-06-14T09:34:28Z</time>
      </trkpt>
      <trkpt lat="45.93334" lon="4.72532">
        <ele>172</ele>
        <time>2017-06-14T09:34:29Z</time>
      </trkpt>
      <trkpt lat="45.93329" lon="4.72538">
        <ele>172</ele>
        <time>2017-06-14T09:34:30Z</time>
      </trkpt>
      <trkpt lat="45.93324" lon="4.72543">
        <ele>172</ele>
        <time>2017-06-14T09:34:31Z</time>
      </trkpt>
      <trkpt lat="45.9332" lon="4.7255">
        <ele>172</ele>
        <time>2017-06-14T09:34:32Z</time>
      </trkpt>
      <trkpt lat="45.93315" lon="4.72555">
        <ele>172</ele>
        <time>2017-06-14T09:34:33Z</time>
      </trkpt>
      <trkpt lat="45.9331" lon="4.72561">
        <ele>171</ele>
        <time>2017-06-14T09:34:34Z</time>
      </trkpt>
      <trkpt lat="45.93304" lon="4.72568">
        <ele>171</ele>
        <time>2017-06-14T09:34:35Z</time>
      </trkpt>
      <trkpt lat="45.93299" lon="4.72575">
        <ele>171</ele>
        <time>2017-06-14T09:34:36Z</time>
      </trkpt>
      <trkpt lat="45.93293" lon="4.72581">
        <ele>171</ele>
        <time>2017-06-14T09:34:37Z</time>
      </trkpt>
      <trkpt lat="45.93288" lon="4.72587">
        <ele>170</ele>
        <time>2017-06-14T09:34:38Z</time>
      </trkpt>
      <trkpt lat="45.93283" lon="4.72592">
        <ele>170</ele>
        <time>2017-06-14T09:34:39Z</time>
      </trkpt>
      <trkpt lat="45.93277" lon="4.72598">
        <ele>170</ele>
        <time>2017-06-14T09:34:40Z</time>
      </trkpt>
      <trkpt lat="45.93272" lon="4.72603">
        <ele>170</ele>
        <time>2017-06-14T09:34:41Z</time>
      </trkpt>
      <trkpt lat="45.93268" lon="4.72608">
        <ele>170</ele>
        <time>2017-06-14T09:34:42Z</time>
      </trkpt>
      <trkpt lat="45.93263" lon="4.72614">
        <ele>170</ele>
        <time>2017-06-14T09:34:43Z</time>
      </trkpt>
      <trkpt lat="45.93259" lon="4.72619">
        <ele>170</ele>
        <time>2017-06-14T09:34:44Z</time>
      </trkpt>
      <trkpt lat="45.93254" lon="4.72625">
        <ele>170</ele>
        <time>2017-06-14T09:34:45Z</time>
      </trkpt>
      <trkpt lat="45.93249" lon="4.72631">
        <ele>170</ele>
        <time>2017-06-14T09:34:46Z</time>
      </trkpt>
      <trkpt lat="45.93244" lon="4.72636">
        <ele>170</ele>
        <time>2017-06-14T09:34:47Z</time>
      </trkpt>
      <trkpt lat="45.93239" lon="4.72641">
        <ele>170</ele>
        <time>2017-06-14T09:34:48Z</time>
      </trkpt>
      <trkpt lat="45.93234" lon="4.72646">
        <ele>170</ele>
        <time>2017-06-14T09:34:49Z</time>
      </trkpt>
      <trkpt lat="45.93229" lon="4.72651">
        <ele>170</ele>
        <time>2017-06-14T09:34:50Z</time>
      </trkpt>
      <trkpt lat="45.93225" lon="4.72656">
        <ele>170</ele>
        <time>2017-06-14T09:34:51Z</time>
      </trkpt>
      <trkpt lat="45.93221" lon="4.72661">
        <ele>170</ele>
        <time>2017-06-14T09:34:52Z</time>
      </trkpt>
      <trkpt lat="45.93217" lon="4.72666">
        <ele>170</ele>
        <time>2017-06-14T09:34:53Z</time>
      </trkpt>
      <trkpt lat="45.93212" lon="4.72671">
        <ele>169</ele>
        <time>2017-06-14T09:34:54Z</time>
      </trkpt>
      <trkpt lat="45.93207" lon="4.72676">
        <ele>169</ele>
        <time>2017-06-14T09:34:55Z</time>
      </trkpt>
      <trkpt lat="45.93203" lon="4.72682">
        <ele>169</ele>
        <time>2017-06-14T09:34:56Z</time>
      </trkpt>
      <trkpt lat="45.93197" lon="4.72687">
        <ele>169</ele>
        <time>2017-06-14T09:34:57Z</time>
      </trkpt>
      <trkpt lat="45.93192" lon="4.72693">
        <ele>169</ele>
        <time>2017-06-14T09:34:58Z</time>
      </trkpt>
      <trkpt lat="45.93186" lon="4.72699">
        <ele>169</ele>
        <time>2017-06-14T09:34:59Z</time>
      </trkpt>
      <trkpt lat="45.93181" lon="4.72706">
        <ele>169</ele>
        <time>2017-06-14T09:35:00Z</time>
      </trkpt>
      <trkpt lat="45.93176" lon="4.72712">
        <ele>169</ele>
        <time>2017-06-14T09:35:01Z</time>
      </trkpt>
      <trkpt lat="45.9317" lon="4.72717">
        <ele>170</ele>
        <time>2017-06-14T09:35:02Z</time>
      </trkpt>
      <trkpt lat="45.93165" lon="4.72723">
        <ele>170</ele>
        <time>2017-06-14T09:35:03Z</time>
      </trkpt>
      <trkpt lat="45.9316" lon="4.72729">
        <ele>170</ele>
        <time>2017-06-14T09:35:04Z</time>
      </trkpt>
      <trkpt lat="45.93155" lon="4.72734">
        <ele>170</ele>
        <time>2017-06-14T09:35:05Z</time>
      </trkpt>
      <trkpt lat="45.9315" lon="4.72739">
        <ele>170</ele>
        <time>2017-06-14T09:35:06Z</time>
      </trkpt>
      <trkpt lat="45.93145" lon="4.72745">
        <ele>170</ele>
        <time>2017-06-14T09:35:07Z</time>
      </trkpt>
      <trkpt lat="45.93141" lon="4.72751">
        <ele>171</ele>
        <time>2017-06-14T09:35:08Z</time>
      </trkpt>
      <trkpt lat="45.93136" lon="4.72757">
        <ele>171</ele>
        <time>2017-06-14T09:35:09Z</time>
      </trkpt>
      <trkpt lat="45.93132" lon="4.72763">
        <ele>171</ele>
        <time>2017-06-14T09:35:10Z</time>
      </trkpt>
      <trkpt lat="45.93127" lon="4.7277">
        <ele>171</ele>
        <time>2017-06-14T09:35:11Z</time>
      </trkpt>
      <trkpt lat="45.93122" lon="4.72777">
        <ele>171</ele>
        <time>2017-06-14T09:35:12Z</time>
      </trkpt>
      <trkpt lat="45.93118" lon="4.72783">
        <ele>171</ele>
        <time>2017-06-14T09:35:13Z</time>
      </trkpt>
      <trkpt lat="45.93113" lon="4.72789">
        <ele>171</ele>
        <time>2017-06-14T09:35:14Z</time>
      </trkpt>
      <trkpt lat="45.93109" lon="4.72795">
        <ele>171</ele>
        <time>2017-06-14T09:35:15Z</time>
      </trkpt>
      <trkpt lat="45.93104" lon="4.72801">
        <ele>171</ele>
        <time>2017-06-14T09:35:16Z</time>
      </trkpt>
      <trkpt lat="45.93099" lon="4.72806">
        <ele>171</ele>
        <time>2017-06-14T09:35:17Z</time>
      </trkpt>
      <trkpt lat="45.93095" lon="4.72811">
        <ele>172</ele>
        <time>2017-06-14T09:35:18Z</time>
      </trkpt>
      <trkpt lat="45.9309" lon="4.72816">
        <ele>172</ele>
        <time>2017-06-14T09:35:19Z</time>
      </trkpt>
      <trkpt lat="45.93086" lon="4.72821">
        <ele>172</ele>
        <time>2017-06-14T09:35:20Z</time>
      </trkpt>
      <trkpt lat="45.93082" lon="4.72825">
        <ele>173</ele>
        <time>2017-06-14T09:35:21Z</time>
      </trkpt>
      <trkpt lat="45.93077" lon="4.72829">
        <ele>173</ele>
        <time>2017-06-14T09:35:22Z</time>
      </trkpt>
      <trkpt lat="45.93072" lon="4.72833">
        <ele>173</ele>
        <time>2017-06-14T09:35:23Z</time>
      </trkpt>
      <trkpt lat="45.93068" lon="4.72836">
        <ele>173</ele>
        <time>2017-06-14T09:35:24Z</time>
      </trkpt>
      <trkpt lat="45.93064" lon="4.7284">
        <ele>173</ele>
        <time>2017-06-14T09:35:25Z</time>
      </trkpt>
      <trkpt lat="45.9306" lon="4.72848">
        <ele>172</ele>
        <time>2017-06-14T09:35:26Z</time>
      </trkpt>
      <trkpt lat="45.93054" lon="4.72855">
        <ele>172</ele>
        <time>2017-06-14T09:35:27Z</time>
      </trkpt>
      <trkpt lat="45.93049" lon="4.72861">
        <ele>172</ele>
        <time>2017-06-14T09:35:28Z</time>
      </trkpt>
      <trkpt lat="45.93044" lon="4.72866">
        <ele>172</ele>
        <time>2017-06-14T09:35:29Z</time>
      </trkpt>
      <trkpt lat="45.9304" lon="4.72873">
        <ele>172</ele>
        <time>2017-06-14T09:35:30Z</time>
      </trkpt>
      <trkpt lat="45.93035" lon="4.72878">
        <ele>172</ele>
        <time>2017-06-14T09:35:31Z</time>
      </trkpt>
      <trkpt lat="45.93031" lon="4.72883">
        <ele>172</ele>
        <time>2017-06-14T09:35:32Z</time>
      </trkpt>
      <trkpt lat="45.93027" lon="4.72888">
        <ele>172</ele>
        <time>2017-06-14T09:35:33Z</time>
      </trkpt>
      <trkpt lat="45.93023" lon="4.72894">
        <ele>172</ele>
        <time>2017-06-14T09:35:34Z</time>
      </trkpt>
      <trkpt lat="45.93018" lon="4.729">
        <ele>172</ele>
        <time>2017-06-14T09:35:35Z</time>
      </trkpt>
      <trkpt lat="45.93014" lon="4.72906">
        <ele>171</ele>
        <time>2017-06-14T09:35:36Z</time>
      </trkpt>
      <trkpt lat="45.93009" lon="4.72911">
        <ele>171</ele>
        <time>2017-06-14T09:35:37Z</time>
      </trkpt>
      <trkpt lat="45.93005" lon="4.72917">
        <ele>171</ele>
        <time>2017-06-14T09:35:38Z</time>
      </trkpt>
      <trkpt lat="45.93001" lon="4.72922">
        <ele>171</ele>
        <time>2017-06-14T09:35:39Z</time>
      </trkpt>
      <trkpt lat="45.92996" lon="4.72927">
        <ele>171</ele>
        <time>2017-06-14T09:35:40Z</time>
      </trkpt>
      <trkpt lat="45.92992" lon="4.72933">
        <ele>171</ele>
        <time>2017-06-14T09:35:41Z</time>
      </trkpt>
      <trkpt lat="45.92988" lon="4.72937">
        <ele>171</ele>
        <time>2017-06-14T09:35:42Z</time>
      </trkpt>
      <trkpt lat="45.92984" lon="4.72942">
        <ele>171</ele>
        <time>2017-06-14T09:35:43Z</time>
      </trkpt>
      <trkpt lat="45.92979" lon="4.72947">
        <ele>171</ele>
        <time>2017-06-14T09:35:44Z</time>
      </trkpt>
      <trkpt lat="45.92975" lon="4.72953">
        <ele>171</ele>
        <time>2017-06-14T09:35:45Z</time>
      </trkpt>
      <trkpt lat="45.9297" lon="4.72959">
        <ele>171</ele>
        <time>2017-06-14T09:35:46Z</time>
      </trkpt>
      <trkpt lat="45.92966" lon="4.72964">
        <ele>171</ele>
        <time>2017-06-14T09:35:47Z</time>
      </trkpt>
      <trkpt lat="45.92962" lon="4.72969">
        <ele>171</ele>
        <time>2017-06-14T09:35:48Z</time>
      </trkpt>
      <trkpt lat="45.92957" lon="4.72975">
        <ele>171</ele>
        <time>2017-06-14T09:35:49Z</time>
      </trkpt>
      <trkpt lat="45.92953" lon="4.72979">
        <ele>171</ele>
        <time>2017-06-14T09:35:50Z</time>
      </trkpt>
      <trkpt lat="45.92949" lon="4.72984">
        <ele>171</ele>
        <time>2017-06-14T09:35:51Z</time>
      </trkpt>
      <trkpt lat="45.92944" lon="4.72989">
        <ele>171</ele>
        <time>2017-06-14T09:35:52Z</time>
      </trkpt>
      <trkpt lat="45.9294" lon="4.72994">
        <ele>171</ele>
        <time>2017-06-14T09:35:53Z</time>
      </trkpt>
      <trkpt lat="45.92936" lon="4.72999">
        <ele>172</ele>
        <time>2017-06-14T09:35:54Z</time>
      </trkpt>
      <trkpt lat="45.92932" lon="4.73004">
        <ele>172</ele>
        <time>2017-06-14T09:35:55Z</time>
      </trkpt>
      <trkpt lat="45.92928" lon="4.73008">
        <ele>172</ele>
        <time>2017-06-14T09:35:56Z</time>
      </trkpt>
      <trkpt lat="45.92924" lon="4.73013">
        <ele>172</ele>
        <time>2017-06-14T09:35:57Z</time>
      </trkpt>
      <trkpt lat="45.9292" lon="4.73017">
        <ele>172</ele>
        <time>2017-06-14T09:35:58Z</time>
      </trkpt>
      <trkpt lat="45.92916" lon="4.73022">
        <ele>172</ele>
        <time>2017-06-14T09:35:59Z</time>
      </trkpt>
      <trkpt lat="45.92912" lon="4.73027">
        <ele>172</ele>
        <time>2017-06-14T09:36:00Z</time>
      </trkpt>
      <trkpt lat="45.92908" lon="4.73032">
        <ele>172</ele>
        <time>2017-06-14T09:36:01Z</time>
      </trkpt>
      <trkpt lat="45.92904" lon="4.73037">
        <ele>172</ele>
        <time>2017-06-14T09:36:02Z</time>
      </trkpt>
      <trkpt lat="45.929" lon="4.73042">
        <ele>172</ele>
        <time>2017-06-14T09:36:03Z</time>
      </trkpt>
      <trkpt lat="45.92897" lon="4.73048">
        <ele>172</ele>
        <time>2017-06-14T09:36:04Z</time>
      </trkpt>
      <trkpt lat="45.92893" lon="4.73053">
        <ele>172</ele>
        <time>2017-06-14T09:36:05Z</time>
      </trkpt>
      <trkpt lat="45.9289" lon="4.73058">
        <ele>172</ele>
        <time>2017-06-14T09:36:06Z</time>
      </trkpt>
      <trkpt lat="45.92887" lon="4.73063">
        <ele>172</ele>
        <time>2017-06-14T09:36:07Z</time>
      </trkpt>
      <trkpt lat="45.92883" lon="4.73068">
        <ele>172</ele>
        <time>2017-06-14T09:36:08Z</time>
      </trkpt>
      <trkpt lat="45.9288" lon="4.73073">
        <ele>172</ele>
        <time>2017-06-14T09:36:09Z</time>
      </trkpt>
      <trkpt lat="45.92876" lon="4.73078">
        <ele>172</ele>
        <time>2017-06-14T09:36:10Z</time>
      </trkpt>
      <trkpt lat="45.92872" lon="4.73082">
        <ele>172</ele>
        <time>2017-06-14T09:36:11Z</time>
      </trkpt>
      <trkpt lat="45.92868" lon="4.73086">
        <ele>172</ele>
        <time>2017-06-14T09:36:12Z</time>
      </trkpt>
      <trkpt lat="45.92865" lon="4.73091">
        <ele>172</ele>
        <time>2017-06-14T09:36:13Z</time>
      </trkpt>
      <trkpt lat="45.92861" lon="4.73096">
        <ele>171</ele>
        <time>2017-06-14T09:36:14Z</time>
      </trkpt>
      <trkpt lat="45.92854" lon="4.73103">
        <ele>171</ele>
        <time>2017-06-14T09:36:16Z</time>
      </trkpt>
      <trkpt lat="45.92851" lon="4.73102">
        <ele>171</ele>
        <time>2017-06-14T09:36:17Z</time>
      </trkpt>
      <trkpt lat="45.92848" lon="4.73094">
        <ele>171</ele>
        <time>2017-06-14T09:36:19Z</time>
      </trkpt>
      <trkpt lat="45.92847" lon="4.73088">
        <ele>171</ele>
        <time>2017-06-14T09:36:20Z</time>
      </trkpt>
      <trkpt lat="45.92846" lon="4.7308">
        <ele>171</ele>
        <time>2017-06-14T09:36:21Z</time>
      </trkpt>
      <trkpt lat="45.92845" lon="4.73073">
        <ele>171</ele>
        <time>2017-06-14T09:36:22Z</time>
      </trkpt>
      <trkpt lat="45.92844" lon="4.73065">
        <ele>171</ele>
        <time>2017-06-14T09:36:23Z</time>
      </trkpt>
      <trkpt lat="45.92843" lon="4.73058">
        <ele>171</ele>
        <time>2017-06-14T09:36:24Z</time>
      </trkpt>
      <trkpt lat="45.92842" lon="4.7305">
        <ele>171</ele>
        <time>2017-06-14T09:36:25Z</time>
      </trkpt>
      <trkpt lat="45.92841" lon="4.73043">
        <ele>171</ele>
        <time>2017-06-14T09:36:26Z</time>
      </trkpt>
      <trkpt lat="45.9284" lon="4.73036">
        <ele>171</ele>
        <time>2017-06-14T09:36:27Z</time>
      </trkpt>
      <trkpt lat="45.92839" lon="4.73029">
        <ele>171</ele>
        <time>2017-06-14T09:36:28Z</time>
      </trkpt>
      <trkpt lat="45.92837" lon="4.73021">
        <ele>171</ele>
        <time>2017-06-14T09:36:29Z</time>
      </trkpt>
      <trkpt lat="45.92836" lon="4.73014">
        <ele>171</ele>
        <time>2017-06-14T09:36:30Z</time>
      </trkpt>
      <trkpt lat="45.92835" lon="4.73006">
        <ele>170</ele>
        <time>2017-06-14T09:36:31Z</time>
      </trkpt>
      <trkpt lat="45.92834" lon="4.72998">
        <ele>170</ele>
        <time>2017-06-14T09:36:32Z</time>
      </trkpt>
      <trkpt lat="45.92834" lon="4.7299">
        <ele>170</ele>
        <time>2017-06-14T09:36:33Z</time>
      </trkpt>
      <trkpt lat="45.92834" lon="4.72982">
        <ele>171</ele>
        <time>2017-06-14T09:36:34Z</time>
      </trkpt>
      <trkpt lat="45.92833" lon="4.72975">
        <ele>170</ele>
        <time>2017-06-14T09:36:35Z</time>
      </trkpt>
      <trkpt lat="45.92832" lon="4.72968">
        <ele>170</ele>
        <time>2017-06-14T09:36:36Z</time>
      </trkpt>
      <trkpt lat="45.92832" lon="4.72961">
        <ele>170</ele>
        <time>2017-06-14T09:36:37Z</time>
      </trkpt>
      <trkpt lat="45.92831" lon="4.72954">
        <ele>170</ele>
        <time>2017-06-14T09:36:38Z</time>
      </trkpt>
      <trkpt lat="45.92831" lon="4.72947">
        <ele>170</ele>
        <time>2017-06-14T09:36:39Z</time>
      </trkpt>
      <trkpt lat="45.9283" lon="4.7294">
        <ele>170</ele>
        <time>2017-06-14T09:36:40Z</time>
      </trkpt>
      <trkpt lat="45.92829" lon="4.72932">
        <ele>170</ele>
        <time>2017-06-14T09:36:41Z</time>
      </trkpt>
      <trkpt lat="45.92828" lon="4.72924">
        <ele>170</ele>
        <time>2017-06-14T09:36:42Z</time>
      </trkpt>
      <trkpt lat="45.92827" lon="4.72916">
        <ele>170</ele>
        <time>2017-06-14T09:36:43Z</time>
      </trkpt>
      <trkpt lat="45.92826" lon="4.72909">
        <ele>170</ele>
        <time>2017-06-14T09:36:44Z</time>
      </trkpt>
      <trkpt lat="45.92824" lon="4.72902">
        <ele>170</ele>
        <time>2017-06-14T09:36:45Z</time>
      </trkpt>
      <trkpt lat="45.92823" lon="4.72895">
        <ele>170</ele>
        <time>2017-06-14T09:36:46Z</time>
      </trkpt>
      <trkpt lat="45.92823" lon="4.72888">
        <ele>170</ele>
        <time>2017-06-14T09:36:47Z</time>
      </trkpt>
      <trkpt lat="45.92821" lon="4.72881">
        <ele>170</ele>
        <time>2017-06-14T09:36:48Z</time>
      </trkpt>
      <trkpt lat="45.9282" lon="4.72875">
        <ele>170</ele>
        <time>2017-06-14T09:36:49Z</time>
      </trkpt>
      <trkpt lat="45.92818" lon="4.72868">
        <ele>170</ele>
        <time>2017-06-14T09:36:50Z</time>
      </trkpt>
      <trkpt lat="45.92817" lon="4.72861">
        <ele>170</ele>
        <time>2017-06-14T09:36:51Z</time>
      </trkpt>
      <trkpt lat="45.92816" lon="4.72854">
        <ele>170</ele>
        <time>2017-06-14T09:36:52Z</time>
      </trkpt>
      <trkpt lat="45.92814" lon="4.72848">
        <ele>170</ele>
        <time>2017-06-14T09:36:53Z</time>
      </trkpt>
      <trkpt lat="45.92813" lon="4.72841">
        <ele>170</ele>
        <time>2017-06-14T09:36:54Z</time>
      </trkpt>
      <trkpt lat="45.92812" lon="4.72834">
        <ele>170</ele>
        <time>2017-06-14T09:36:55Z</time>
      </trkpt>
      <trkpt lat="45.92812" lon="4.72828">
        <ele>171</ele>
        <time>2017-06-14T09:36:56Z</time>
      </trkpt>
      <trkpt lat="45.9281" lon="4.72815">
        <ele>171</ele>
        <time>2017-06-14T09:36:58Z</time>
      </trkpt>
      <trkpt lat="45.92809" lon="4.72809">
        <ele>171</ele>
        <time>2017-06-14T09:36:59Z</time>
      </trkpt>
      <trkpt lat="45.92808" lon="4.72798">
        <ele>171</ele>
        <time>2017-06-14T09:37:01Z</time>
      </trkpt>
      <trkpt lat="45.92807" lon="4.72792">
        <ele>171</ele>
        <time>2017-06-14T09:37:02Z</time>
      </trkpt>
      <trkpt lat="45.92799" lon="4.72787">
        <ele>171</ele>
        <time>2017-06-14T09:37:04Z</time>
      </trkpt>
      <trkpt lat="45.92792" lon="4.72788">
        <ele>171</ele>
        <time>2017-06-14T09:37:05Z</time>
      </trkpt>
      <trkpt lat="45.92787" lon="4.72791">
        <ele>170</ele>
        <time>2017-06-14T09:37:06Z</time>
      </trkpt>
      <trkpt lat="45.92783" lon="4.72793">
        <ele>170</ele>
        <time>2017-06-14T09:37:07Z</time>
      </trkpt>
      <trkpt lat="45.92778" lon="4.72796">
        <ele>170</ele>
        <time>2017-06-14T09:37:08Z</time>
      </trkpt>
      <trkpt lat="45.92775" lon="4.72799">
        <ele>170</ele>
        <time>2017-06-14T09:37:09Z</time>
      </trkpt>
      <trkpt lat="45.9277" lon="4.72802">
        <ele>170</ele>
        <time>2017-06-14T09:37:10Z</time>
      </trkpt>
      <trkpt lat="45.92766" lon="4.72806">
        <ele>170</ele>
        <time>2017-06-14T09:37:11Z</time>
      </trkpt>
      <trkpt lat="45.92761" lon="4.7281">
        <ele>170</ele>
        <time>2017-06-14T09:37:12Z</time>
      </trkpt>
      <trkpt lat="45.92757" lon="4.72813">
        <ele>170</ele>
        <time>2017-06-14T09:37:13Z</time>
      </trkpt>
      <trkpt lat="45.92752" lon="4.72816">
        <ele>170</ele>
        <time>2017-06-14T09:37:14Z</time>
      </trkpt>
      <trkpt lat="45.92747" lon="4.72818">
        <ele>169</ele>
        <time>2017-06-14T09:37:15Z</time>
      </trkpt>
      <trkpt lat="45.92743" lon="4.72822">
        <ele>169</ele>
        <time>2017-06-14T09:37:16Z</time>
      </trkpt>
      <trkpt lat="45.92739" lon="4.72826">
        <ele>169</ele>
        <time>2017-06-14T09:37:17Z</time>
      </trkpt>
      <trkpt lat="45.92734" lon="4.7283">
        <ele>169</ele>
        <time>2017-06-14T09:37:18Z</time>
      </trkpt>
      <trkpt lat="45.92729" lon="4.72834">
        <ele>169</ele>
        <time>2017-06-14T09:37:19Z</time>
      </trkpt>
      <trkpt lat="45.92724" lon="4.72838">
        <ele>169</ele>
        <time>2017-06-14T09:37:20Z</time>
      </trkpt>
      <trkpt lat="45.92719" lon="4.72842">
        <ele>169</ele>
        <time>2017-06-14T09:37:21Z</time>
      </trkpt>
      <trkpt lat="45.92713" lon="4.72846">
        <ele>169</ele>
        <time>2017-06-14T09:37:22Z</time>
      </trkpt>
      <trkpt lat="45.92707" lon="4.72851">
        <ele>169</ele>
        <time>2017-06-14T09:37:23Z</time>
      </trkpt>
      <trkpt lat="45.92702" lon="4.72855">
        <ele>169</ele>
        <time>2017-06-14T09:37:24Z</time>
      </trkpt>
      <trkpt lat="45.92697" lon="4.72859">
        <ele>169</ele>
        <time>2017-06-14T09:37:25Z</time>
      </trkpt>
      <trkpt lat="45.92691" lon="4.72863">
        <ele>169</ele>
        <time>2017-06-14T09:37:26Z</time>
      </trkpt>
      <trkpt lat="45.92686" lon="4.72867">
        <ele>169</ele>
        <time>2017-06-14T09:37:27Z</time>
      </trkpt>
      <trkpt lat="45.92682" lon="4.72871">
        <ele>169</ele>
        <time>2017-06-14T09:37:28Z</time>
      </trkpt>
      <trkpt lat="45.92677" lon="4.72875">
        <ele>169</ele>
        <time>2017-06-14T09:37:29Z</time>
      </trkpt>
      <trkpt lat="45.92673" lon="4.72878">
        <ele>170</ele>
        <time>2017-06-14T09:37:30Z</time>
      </trkpt>
      <trkpt lat="45.92668" lon="4.72882">
        <ele>170</ele>
        <time>2017-06-14T09:37:31Z</time>
      </trkpt>
      <trkpt lat="45.92663" lon="4.72886">
        <ele>169</ele>
        <time>2017-06-14T09:37:32Z</time>
      </trkpt>
      <trkpt lat="45.92658" lon="4.72889">
        <ele>169</ele>
        <time>2017-06-14T09:37:33Z</time>
      </trkpt>
      <trkpt lat="45.92654" lon="4.72893">
        <ele>169</ele>
        <time>2017-06-14T09:37:34Z</time>
      </trkpt>
      <trkpt lat="45.92649" lon="4.72896">
        <ele>169</ele>
        <time>2017-06-14T09:37:35Z</time>
      </trkpt>
      <trkpt lat="45.92645" lon="4.729">
        <ele>169</ele>
        <time>2017-06-14T09:37:36Z</time>
      </trkpt>
      <trkpt lat="45.92639" lon="4.72905">
        <ele>169</ele>
        <time>2017-06-14T09:37:37Z</time>
      </trkpt>
      <trkpt lat="45.92634" lon="4.7291">
        <ele>169</ele>
        <time>2017-06-14T09:37:38Z</time>
      </trkpt>
      <trkpt lat="45.92628" lon="4.72915">
        <ele>169</ele>
        <time>2017-06-14T09:37:39Z</time>
      </trkpt>
      <trkpt lat="45.92622" lon="4.72919">
        <ele>169</ele>
        <time>2017-06-14T09:37:40Z</time>
      </trkpt>
      <trkpt lat="45.92617" lon="4.72925">
        <ele>169</ele>
        <time>2017-06-14T09:37:41Z</time>
      </trkpt>
      <trkpt lat="45.92611" lon="4.7293">
        <ele>169</ele>
        <time>2017-06-14T09:37:42Z</time>
      </trkpt>
      <trkpt lat="45.92606" lon="4.72935">
        <ele>169</ele>
        <time>2017-06-14T09:37:43Z</time>
      </trkpt>
      <trkpt lat="45.926" lon="4.72941">
        <ele>169</ele>
        <time>2017-06-14T09:37:44Z</time>
      </trkpt>
      <trkpt lat="45.92595" lon="4.72947">
        <ele>169</ele>
        <time>2017-06-14T09:37:45Z</time>
      </trkpt>
      <trkpt lat="45.92591" lon="4.72953">
        <ele>169</ele>
        <time>2017-06-14T09:37:46Z</time>
      </trkpt>
      <trkpt lat="45.92586" lon="4.72958">
        <ele>169</ele>
        <time>2017-06-14T09:37:47Z</time>
      </trkpt>
      <trkpt lat="45.92581" lon="4.72963">
        <ele>169</ele>
        <time>2017-06-14T09:37:48Z</time>
      </trkpt>
      <trkpt lat="45.92577" lon="4.72968">
        <ele>169</ele>
        <time>2017-06-14T09:37:49Z</time>
      </trkpt>
      <trkpt lat="45.92573" lon="4.72973">
        <ele>169</ele>
        <time>2017-06-14T09:37:50Z</time>
      </trkpt>
      <trkpt lat="45.92568" lon="4.72978">
        <ele>169</ele>
        <time>2017-06-14T09:37:51Z</time>
      </trkpt>
      <trkpt lat="45.92564" lon="4.72982">
        <ele>169</ele>
        <time>2017-06-14T09:37:52Z</time>
      </trkpt>
      <trkpt lat="45.9256" lon="4.72986">
        <ele>169</ele>
        <time>2017-06-14T09:37:53Z</time>
      </trkpt>
      <trkpt lat="45.92556" lon="4.7299">
        <ele>169</ele>
        <time>2017-06-14T09:37:54Z</time>
      </trkpt>
      <trkpt lat="45.92552" lon="4.72994">
        <ele>169</ele>
        <time>2017-06-14T09:37:55Z</time>
      </trkpt>
      <trkpt lat="45.92548" lon="4.72998">
        <ele>169</ele>
        <time>2017-06-14T09:37:56Z</time>
      </trkpt>
      <trkpt lat="45.92543" lon="4.73003">
        <ele>169</ele>
        <time>2017-06-14T09:37:57Z</time>
      </trkpt>
      <trkpt lat="45.92539" lon="4.73007">
        <ele>169</ele>
        <time>2017-06-14T09:37:58Z</time>
      </trkpt>
      <trkpt lat="45.92534" lon="4.73012">
        <ele>169</ele>
        <time>2017-06-14T09:37:59Z</time>
      </trkpt>
      <trkpt lat="45.92528" lon="4.73017">
        <ele>169</ele>
        <time>2017-06-14T09:38:00Z</time>
      </trkpt>
      <trkpt lat="45.92523" lon="4.73021">
        <ele>169</ele>
        <time>2017-06-14T09:38:01Z</time>
      </trkpt>
      <trkpt lat="45.92518" lon="4.73026">
        <ele>169</ele>
        <time>2017-06-14T09:38:02Z</time>
      </trkpt>
      <trkpt lat="45.92513" lon="4.73029">
        <ele>169</ele>
        <time>2017-06-14T09:38:03Z</time>
      </trkpt>
      <trkpt lat="45.92508" lon="4.73033">
        <ele>169</ele>
        <time>2017-06-14T09:38:04Z</time>
      </trkpt>
      <trkpt lat="45.92504" lon="4.73037">
        <ele>169</ele>
        <time>2017-06-14T09:38:05Z</time>
      </trkpt>
      <trkpt lat="45.92499" lon="4.73041">
        <ele>170</ele>
        <time>2017-06-14T09:38:06Z</time>
      </trkpt>
      <trkpt lat="45.92495" lon="4.73046">
        <ele>170</ele>
        <time>2017-06-14T09:38:07Z</time>
      </trkpt>
      <trkpt lat="45.92491" lon="4.7305">
        <ele>170</ele>
        <time>2017-06-14T09:38:08Z</time>
      </trkpt>
      <trkpt lat="45.92486" lon="4.73053">
        <ele>170</ele>
        <time>2017-06-14T09:38:09Z</time>
      </trkpt>
      <trkpt lat="45.92482" lon="4.73057">
        <ele>170</ele>
        <time>2017-06-14T09:38:10Z</time>
      </trkpt>
      <trkpt lat="45.92477" lon="4.7306">
        <ele>170</ele>
        <time>2017-06-14T09:38:11Z</time>
      </trkpt>
      <trkpt lat="45.92473" lon="4.73064">
        <ele>170</ele>
        <time>2017-06-14T09:38:12Z</time>
      </trkpt>
      <trkpt lat="45.92468" lon="4.73068">
        <ele>170</ele>
        <time>2017-06-14T09:38:13Z</time>
      </trkpt>
      <trkpt lat="45.92463" lon="4.73072">
        <ele>170</ele>
        <time>2017-06-14T09:38:14Z</time>
      </trkpt>
      <trkpt lat="45.92459" lon="4.73075">
        <ele>170</ele>
        <time>2017-06-14T09:38:15Z</time>
      </trkpt>
      <trkpt lat="45.92454" lon="4.73079">
        <ele>170</ele>
        <time>2017-06-14T09:38:16Z</time>
      </trkpt>
      <trkpt lat="45.9245" lon="4.73084">
        <ele>170</ele>
        <time>2017-06-14T09:38:17Z</time>
      </trkpt>
      <trkpt lat="45.92445" lon="4.73088">
        <ele>170</ele>
        <time>2017-06-14T09:38:18Z</time>
      </trkpt>
      <trkpt lat="45.9244" lon="4.73092">
        <ele>171</ele>
        <time>2017-06-14T09:38:19Z</time>
      </trkpt>
      <trkpt lat="45.92436" lon="4.73096">
        <ele>171</ele>
        <time>2017-06-14T09:38:20Z</time>
      </trkpt>
      <trkpt lat="45.92431" lon="4.731">
        <ele>171</ele>
        <time>2017-06-14T09:38:21Z</time>
      </trkpt>
      <trkpt lat="45.92427" lon="4.73104">
        <ele>171</ele>
        <time>2017-06-14T09:38:22Z</time>
      </trkpt>
      <trkpt lat="45.92423" lon="4.73107">
        <ele>171</ele>
        <time>2017-06-14T09:38:23Z</time>
      </trkpt>
      <trkpt lat="45.92418" lon="4.73111">
        <ele>170</ele>
        <time>2017-06-14T09:38:24Z</time>
      </trkpt>
      <trkpt lat="45.92415" lon="4.73116">
        <ele>171</ele>
        <time>2017-06-14T09:38:25Z</time>
      </trkpt>
      <trkpt lat="45.92411" lon="4.73121">
        <ele>171</ele>
        <time>2017-06-14T09:38:26Z</time>
      </trkpt>
      <trkpt lat="45.92409" lon="4.73128">
        <ele>171</ele>
        <time>2017-06-14T09:38:27Z</time>
      </trkpt>
      <trkpt lat="45.92407" lon="4.73135">
        <ele>171</ele>
        <time>2017-06-14T09:38:28Z</time>
      </trkpt>
      <trkpt lat="45.92407" lon="4.73143">
        <ele>171</ele>
        <time>2017-06-14T09:38:29Z</time>
      </trkpt>
      <trkpt lat="45.92407" lon="4.73151">
        <ele>171</ele>
        <time>2017-06-14T09:38:30Z</time>
      </trkpt>
      <trkpt lat="45.92406" lon="4.73158">
        <ele>170</ele>
        <time>2017-06-14T09:38:31Z</time>
      </trkpt>
      <trkpt lat="45.92406" lon="4.73165">
        <ele>170</ele>
        <time>2017-06-14T09:38:32Z</time>
      </trkpt>
      <trkpt lat="45.92406" lon="4.73172">
        <ele>170</ele>
        <time>2017-06-14T09:38:33Z</time>
      </trkpt>
      <trkpt lat="45.92406" lon="4.7318">
        <ele>171</ele>
        <time>2017-06-14T09:38:34Z</time>
      </trkpt>
      <trkpt lat="45.92406" lon="4.73188">
        <ele>171</ele>
        <time>2017-06-14T09:38:35Z</time>
      </trkpt>
      <trkpt lat="45.92407" lon="4.73197">
        <ele>171</ele>
        <time>2017-06-14T09:38:36Z</time>
      </trkpt>
      <trkpt lat="45.92407" lon="4.73206">
        <ele>171</ele>
        <time>2017-06-14T09:38:37Z</time>
      </trkpt>
      <trkpt lat="45.92407" lon="4.73216">
        <ele>171</ele>
        <time>2017-06-14T09:38:38Z</time>
      </trkpt>
      <trkpt lat="45.92407" lon="4.73225">
        <ele>171</ele>
        <time>2017-06-14T09:38:39Z</time>
      </trkpt>
      <trkpt lat="45.92408" lon="4.73235">
        <ele>171</ele>
        <time>2017-06-14T09:38:40Z</time>
      </trkpt>
      <trkpt lat="45.92408" lon="4.73244">
        <ele>171</ele>
        <time>2017-06-14T09:38:41Z</time>
      </trkpt>
      <trkpt lat="45.92409" lon="4.73253">
        <ele>171</ele>
        <time>2017-06-14T09:38:42Z</time>
      </trkpt>
      <trkpt lat="45.9241" lon="4.73262">
        <ele>171</ele>
        <time>2017-06-14T09:38:43Z</time>
      </trkpt>
      <trkpt lat="45.92411" lon="4.7327">
        <ele>171</ele>
        <time>2017-06-14T09:38:44Z</time>
      </trkpt>
      <trkpt lat="45.92412" lon="4.73279">
        <ele>171</ele>
        <time>2017-06-14T09:38:45Z</time>
      </trkpt>
      <trkpt lat="45.92412" lon="4.73286">
        <ele>171</ele>
        <time>2017-06-14T09:38:46Z</time>
      </trkpt>
      <trkpt lat="45.92413" lon="4.73294">
        <ele>171</ele>
        <time>2017-06-14T09:38:47Z</time>
      </trkpt>
      <trkpt lat="45.92413" lon="4.73302">
        <ele>171</ele>
        <time>2017-06-14T09:38:48Z</time>
      </trkpt>
      <trkpt lat="45.92414" lon="4.73309">
        <ele>171</ele>
        <time>2017-06-14T09:38:49Z</time>
      </trkpt>
      <trkpt lat="45.92414" lon="4.73316">
        <ele>171</ele>
        <time>2017-06-14T09:38:50Z</time>
      </trkpt>
      <trkpt lat="45.92415" lon="4.73323">
        <ele>171</ele>
        <time>2017-06-14T09:38:51Z</time>
      </trkpt>
      <trkpt lat="45.92416" lon="4.7333">
        <ele>171</ele>
        <time>2017-06-14T09:38:52Z</time>
      </trkpt>
      <trkpt lat="45.92416" lon="4.73338">
        <ele>171</ele>
        <time>2017-06-14T09:38:53Z</time>
      </trkpt>
      <trkpt lat="45.92418" lon="4.73347">
        <ele>171</ele>
        <time>2017-06-14T09:38:54Z</time>
      </trkpt>
      <trkpt lat="45.9242" lon="4.73355">
        <ele>171</ele>
        <time>2017-06-14T09:38:55Z</time>
      </trkpt>
      <trkpt lat="45.92421" lon="4.73364">
        <ele>172</ele>
        <time>2017-06-14T09:38:56Z</time>
      </trkpt>
      <trkpt lat="45.92423" lon="4.73372">
        <ele>172</ele>
        <time>2017-06-14T09:38:57Z</time>
      </trkpt>
      <trkpt lat="45.92424" lon="4.73381">
        <ele>172</ele>
        <time>2017-06-14T09:38:58Z</time>
      </trkpt>
      <trkpt lat="45.92425" lon="4.73389">
        <ele>172</ele>
        <time>2017-06-14T09:38:59Z</time>
      </trkpt>
      <trkpt lat="45.92427" lon="4.73397">
        <ele>172</ele>
        <time>2017-06-14T09:39:00Z</time>
      </trkpt>
      <trkpt lat="45.92429" lon="4.73404">
        <ele>172</ele>
        <time>2017-06-14T09:39:01Z</time>
      </trkpt>
      <trkpt lat="45.92432" lon="4.7341">
        <ele>172</ele>
        <time>2017-06-14T09:39:02Z</time>
      </trkpt>
      <trkpt lat="45.92436" lon="4.73415">
        <ele>172</ele>
        <time>2017-06-14T09:39:03Z</time>
      </trkpt>
      <trkpt lat="45.9244" lon="4.73418">
        <ele>173</ele>
        <time>2017-06-14T09:39:04Z</time>
      </trkpt>
      <trkpt lat="45.92444" lon="4.7342">
        <ele>173</ele>
        <time>2017-06-14T09:39:05Z</time>
      </trkpt>
      <trkpt lat="45.92451" lon="4.73425">
        <ele>173</ele>
        <time>2017-06-14T09:39:07Z</time>
      </trkpt>
      <trkpt lat="45.92454" lon="4.73428">
        <ele>173</ele>
        <time>2017-06-14T09:39:08Z</time>
      </trkpt>
      <trkpt lat="45.9246" lon="4.73435">
        <ele>173</ele>
        <time>2017-06-14T09:39:10Z</time>
      </trkpt>
      <trkpt lat="45.92462" lon="4.7344">
        <ele>173</ele>
        <time>2017-06-14T09:39:11Z</time>
      </trkpt>
      <trkpt lat="45.92464" lon="4.73446">
        <ele>173</ele>
        <time>2017-06-14T09:39:12Z</time>
      </trkpt>
      <trkpt lat="45.92465" lon="4.73453">
        <ele>173</ele>
        <time>2017-06-14T09:39:13Z</time>
      </trkpt>
      <trkpt lat="45.92466" lon="4.7346">
        <ele>173</ele>
        <time>2017-06-14T09:39:14Z</time>
      </trkpt>
      <trkpt lat="45.92467" lon="4.73467">
        <ele>173</ele>
        <time>2017-06-14T09:39:15Z</time>
      </trkpt>
      <trkpt lat="45.92467" lon="4.73475">
        <ele>173</ele>
        <time>2017-06-14T09:39:16Z</time>
      </trkpt>
      <trkpt lat="45.92468" lon="4.73483">
        <ele>173</ele>
        <time>2017-06-14T09:39:17Z</time>
      </trkpt>
      <trkpt lat="45.92467" lon="4.73491">
        <ele>173</ele>
        <time>2017-06-14T09:39:18Z</time>
      </trkpt>
      <trkpt lat="45.92467" lon="4.73498">
        <ele>173</ele>
        <time>2017-06-14T09:39:19Z</time>
      </trkpt>
      <trkpt lat="45.92467" lon="4.73506">
        <ele>174</ele>
        <time>2017-06-14T09:39:20Z</time>
      </trkpt>
      <trkpt lat="45.92467" lon="4.73512">
        <ele>174</ele>
        <time>2017-06-14T09:39:21Z</time>
      </trkpt>
      <trkpt lat="45.92466" lon="4.73524">
        <ele>174</ele>
        <time>2017-06-14T09:39:23Z</time>
      </trkpt>
      <trkpt lat="45.92466" lon="4.73529">
        <ele>174</ele>
        <time>2017-06-14T09:39:24Z</time>
      </trkpt>
      <trkpt lat="45.92464" lon="4.7354">
        <ele>174</ele>
        <time>2017-06-14T09:39:26Z</time>
      </trkpt>
      <trkpt lat="45.92463" lon="4.73544">
        <ele>173</ele>
        <time>2017-06-14T09:39:27Z</time>
      </trkpt>
      <trkpt lat="45.92462" lon="4.73555">
        <ele>173</ele>
        <time>2017-06-14T09:39:29Z</time>
      </trkpt>
      <trkpt lat="45.92463" lon="4.73562">
        <ele>173</ele>
        <time>2017-06-14T09:39:30Z</time>
      </trkpt>
      <trkpt lat="45.92464" lon="4.73569">
        <ele>173</ele>
        <time>2017-06-14T09:39:31Z</time>
      </trkpt>
      <trkpt lat="45.92465" lon="4.73576">
        <ele>173</ele>
        <time>2017-06-14T09:39:32Z</time>
      </trkpt>
      <trkpt lat="45.92465" lon="4.73583">
        <ele>173</ele>
        <time>2017-06-14T09:39:33Z</time>
      </trkpt>
      <trkpt lat="45.92466" lon="4.7359">
        <ele>174</ele>
        <time>2017-06-14T09:39:34Z</time>
      </trkpt>
      <trkpt lat="45.92467" lon="4.73598">
        <ele>174</ele>
        <time>2017-06-14T09:39:35Z</time>
      </trkpt>
      <trkpt lat="45.92467" lon="4.73606">
        <ele>174</ele>
        <time>2017-06-14T09:39:36Z</time>
      </trkpt>
      <trkpt lat="45.92468" lon="4.73614">
        <ele>174</ele>
        <time>2017-06-14T09:39:37Z</time>
      </trkpt>
      <trkpt lat="45.92469" lon="4.73621">
        <ele>174</ele>
        <time>2017-06-14T09:39:38Z</time>
      </trkpt>
      <trkpt lat="45.9247" lon="4.73629">
        <ele>174</ele>
        <time>2017-06-14T09:39:39Z</time>
      </trkpt>
      <trkpt lat="45.92471" lon="4.73636">
        <ele>174</ele>
        <time>2017-06-14T09:39:40Z</time>
      </trkpt>
      <trkpt lat="45.92472" lon="4.73644">
        <ele>174</ele>
        <time>2017-06-14T09:39:41Z</time>
      </trkpt>
      <trkpt lat="45.92472" lon="4.7365">
        <ele>174</ele>
        <time>2017-06-14T09:39:42Z</time>
      </trkpt>
      <trkpt lat="45.92471" lon="4.73657">
        <ele>174</ele>
        <time>2017-06-14T09:39:43Z</time>
      </trkpt>
      <trkpt lat="45.92471" lon="4.73664">
        <ele>174</ele>
        <time>2017-06-14T09:39:44Z</time>
      </trkpt>
      <trkpt lat="45.9247" lon="4.7367">
        <ele>174</ele>
        <time>2017-06-14T09:39:45Z</time>
      </trkpt>
      <trkpt lat="45.92469" lon="4.73677">
        <ele>174</ele>
        <time>2017-06-14T09:39:46Z</time>
      </trkpt>
      <trkpt lat="45.92467" lon="4.73687">
        <ele>174</ele>
        <time>2017-06-14T09:39:48Z</time>
      </trkpt>
      <trkpt lat="45.92466" lon="4.73693">
        <ele>174</ele>
        <time>2017-06-14T09:39:49Z</time>
      </trkpt>
      <trkpt lat="45.92464" lon="4.73702">
        <ele>174</ele>
        <time>2017-06-14T09:39:51Z</time>
      </trkpt>
      <trkpt lat="45.92464" lon="4.73706">
        <ele>174</ele>
        <time>2017-06-14T09:39:52Z</time>
      </trkpt>
      <trkpt lat="45.92464" lon="4.73708">
        <ele>174</ele>
        <time>2017-06-14T09:39:53Z</time>
      </trkpt>
      <trkpt lat="45.92464" lon="4.73709">
        <ele>174</ele>
        <time>2017-06-14T09:39:54Z</time>
      </trkpt>
      <trkpt lat="45.92464" lon="4.73709">
        <ele>174</ele>
        <time>2017-06-14T09:40:39.33Z</time>
      </trkpt>
    </trkseg>
  </trk>
</gpx>